<?xml version='1.0' encoding='UTF-8'?><gpx version="1.1" creator="JPX - https://github.com/jenetics/jpx" xmlns="http://www.topografix.com/GPX/1/1"><trk><trkseg><trkpt lat="44.517049617232686" lon="0.9334964905227399"><ele>95.2</ele><time>2026-04-24T15:55:24.999Z</time></trkpt><trkpt lat="44.517143961152854" lon="0.9334261166243136"><ele>95.4</ele><time>2026-04-24T15:55:46Z</time></trkpt><trkpt lat="44.517231493840896" lon="0.9334245163278265"><ele>95.6</ele><time>2026-04-24T15:55:47Z</time></trkpt><trkpt lat="44.51733018071905" lon="0.9334538933406389"><ele>95.8</ele><time>2026-04-24T15:55:48Z</time></trkpt><trkpt lat="44.51744336922895" lon="0.9334919692477476"><ele>96.0</ele><time>2026-04-24T15:55:49Z</time></trkpt><trkpt lat="44.517567617127916" lon="0.9335234986275438"><ele>96.0</ele><time>2026-04-24T15:55:50Z</time></trkpt><trkpt lat="44.517712422874496" lon="0.9335212142342862"><ele>96.0</ele><time>2026-04-24T15:55:51Z</time></trkpt><trkpt lat="44.517859753884615" lon="0.9335034052986492"><ele>96.0</ele><time>2026-04-24T15:55:52Z</time></trkpt><trkpt lat="44.51799198550921" lon="0.9334577350295081"><ele>96.0</ele><time>2026-04-24T15:55:53Z</time></trkpt><trkpt lat="44.51810875130132" lon="0.9334107007369918"><ele>96.0</ele><time>2026-04-24T15:55:54Z</time></trkpt><trkpt lat="44.51821729876034" lon="0.9333680130767018"><ele>96.0</ele><time>2026-04-24T15:55:55Z</time></trkpt><trkpt lat="44.51831966531634" lon="0.9333310353221745"><ele>96.0</ele><time>2026-04-24T15:55:56Z</time></trkpt><trkpt lat="44.51841396585449" lon="0.9333000008439554"><ele>96.0</ele><time>2026-04-24T15:55:57Z</time></trkpt><trkpt lat="44.51850673318319" lon="0.933261237222341"><ele>96.0</ele><time>2026-04-24T15:55:58Z</time></trkpt><trkpt lat="44.51859503822662" lon="0.9332277580269278"><ele>96.0</ele><time>2026-04-24T15:55:59Z</time></trkpt><trkpt lat="44.51868046990669" lon="0.9331913677890735"><ele>96.0</ele><time>2026-04-24T15:56:00Z</time></trkpt><trkpt lat="44.51876093058674" lon="0.9331520513143001"><ele>96.0</ele><time>2026-04-24T15:56:01Z</time></trkpt><trkpt lat="44.518840685082644" lon="0.933100833038285"><ele>96.0</ele><time>2026-04-24T15:56:02Z</time></trkpt><trkpt lat="44.51891707386148" lon="0.93305359570418"><ele>96.0</ele><time>2026-04-24T15:56:03Z</time></trkpt><trkpt lat="44.51900477838873" lon="0.9329947578515259"><ele>96.0</ele><time>2026-04-24T15:56:03.999Z</time></trkpt><trkpt lat="44.519091935743866" lon="0.9329235921998473"><ele>94.8</ele><time>2026-04-24T15:56:04.999Z</time></trkpt><trkpt lat="44.519175086858745" lon="0.9328598356273767"><ele>93.6</ele><time>2026-04-24T15:56:05.999Z</time></trkpt><trkpt lat="44.51926458674645" lon="0.9327872387006515"><ele>92.4</ele><time>2026-04-24T15:56:06.999Z</time></trkpt><trkpt lat="44.519354538985624" lon="0.9327020451806247"><ele>91.2</ele><time>2026-04-24T15:56:07.999Z</time></trkpt><trkpt lat="44.519430655129725" lon="0.932643472298102"><ele>90.0</ele><time>2026-04-24T15:56:08.999Z</time></trkpt><trkpt lat="44.519506072122105" lon="0.9325826152512275"><ele>89.66666666666667</ele><time>2026-04-24T15:56:09.999Z</time></trkpt><trkpt lat="44.5195774318508" lon="0.9325180114480219"><ele>89.33333333333333</ele><time>2026-04-24T15:56:10.999Z</time></trkpt><trkpt lat="44.51964091113106" lon="0.9324636529763567"><ele>89.0</ele><time>2026-04-24T15:56:11.999Z</time></trkpt><trkpt lat="44.51971973708093" lon="0.9324328539233031"><ele>88.66666666666666</ele><time>2026-04-24T15:56:12.999Z</time></trkpt><trkpt lat="44.519794877730874" lon="0.9323857923605384"><ele>88.33333333333333</ele><time>2026-04-24T15:56:13.999Z</time></trkpt><trkpt lat="44.51987780333599" lon="0.9323203056811047"><ele>88.0</ele><time>2026-04-24T15:56:14.999Z</time></trkpt><trkpt lat="44.51997417310674" lon="0.932273646574604"><ele>88.0</ele><time>2026-04-24T15:56:15.999Z</time></trkpt><trkpt lat="44.52007066995339" lon="0.9322278778376007"><ele>88.0</ele><time>2026-04-24T15:56:16.999Z</time></trkpt><trkpt lat="44.52017290661449" lon="0.9321825334189396"><ele>88.0</ele><time>2026-04-24T15:56:17.999Z</time></trkpt><trkpt lat="44.52027040421863" lon="0.9321412621134684"><ele>88.0</ele><time>2026-04-24T15:56:18.999Z</time></trkpt><trkpt lat="44.520364935071214" lon="0.9321051874302805"><ele>88.0</ele><time>2026-04-24T15:56:19.999Z</time></trkpt><trkpt lat="44.52045659587735" lon="0.9320709743422491"><ele>87.4</ele><time>2026-04-24T15:56:20.999Z</time></trkpt><trkpt lat="44.520551462323986" lon="0.9320205699281947"><ele>86.80000000000001</ele><time>2026-04-24T15:56:21.999Z</time></trkpt><trkpt lat="44.52063990690168" lon="0.9319799462130224"><ele>86.2</ele><time>2026-04-24T15:56:22.999Z</time></trkpt><trkpt lat="44.520726531103854" lon="0.9319406192690084"><ele>85.6</ele><time>2026-04-24T15:56:23.999Z</time></trkpt><trkpt lat="44.52080318359586" lon="0.9318860260158494"><ele>85.0</ele><time>2026-04-24T15:56:24.999Z</time></trkpt><trkpt lat="44.52089392692067" lon="0.9318450648429722"><ele>85.0</ele><time>2026-04-24T15:56:25.999Z</time></trkpt><trkpt lat="44.52099021747891" lon="0.9318226398180456"><ele>85.0</ele><time>2026-04-24T15:56:26.999Z</time></trkpt><trkpt lat="44.52108856483882" lon="0.9318343659370635"><ele>85.0</ele><time>2026-04-24T15:56:27.999Z</time></trkpt><trkpt lat="44.521178674058056" lon="0.9318492541758328"><ele>85.0</ele><time>2026-04-24T15:56:28.999Z</time></trkpt><trkpt lat="44.521240847102106" lon="0.9319203845932402"><ele>85.0</ele><time>2026-04-24T15:56:29.999Z</time></trkpt><trkpt lat="44.52131786718492" lon="0.9319910698230589"><ele>87.0</ele><time>2026-04-24T15:56:30.999Z</time></trkpt><trkpt lat="44.521382002639754" lon="0.9320631335321842"><ele>89.0</ele><time>2026-04-24T15:56:31.999Z</time></trkpt><trkpt lat="44.52144581937282" lon="0.9321315877860045"><ele>91.0</ele><time>2026-04-24T15:56:32.999Z</time></trkpt><trkpt lat="44.52152980887297" lon="0.9322022347229109"><ele>93.0</ele><time>2026-04-24T15:56:33.999Z</time></trkpt><trkpt lat="44.521871321941425" lon="0.9317410646684726"><ele>93.2</ele><time>2026-04-24T15:56:34.999Z</time></trkpt><trkpt lat="44.52197210418565" lon="0.9316760147932047"><ele>93.4</ele><time>2026-04-24T15:56:35.999Z</time></trkpt><trkpt lat="44.522069474539165" lon="0.9315999652017899"><ele>93.60000000000001</ele><time>2026-04-24T15:56:36.999Z</time></trkpt><trkpt lat="44.522159635084726" lon="0.9315093186763054"><ele>93.80000000000001</ele><time>2026-04-24T15:56:37.999Z</time></trkpt><trkpt lat="44.52224729044137" lon="0.931421743453842"><ele>94.0</ele><time>2026-04-24T15:56:38.999Z</time></trkpt><trkpt lat="44.52233797510609" lon="0.9313658898954783"><ele>96.5</ele><time>2026-04-24T15:56:39.999Z</time></trkpt><trkpt lat="44.522427428262944" lon="0.9313048755296852"><ele>99.0</ele><time>2026-04-24T15:56:40.999Z</time></trkpt><trkpt lat="44.522501359056974" lon="0.9312426155960768"><ele>101.5</ele><time>2026-04-24T15:56:41.999Z</time></trkpt><trkpt lat="44.52257132722686" lon="0.9312043632111904"><ele>104.0</ele><time>2026-04-24T15:56:42.999Z</time></trkpt><trkpt lat="44.52265040783414" lon="0.9311564773787948"><ele>106.50000000000001</ele><time>2026-04-24T15:56:43.999Z</time></trkpt><trkpt lat="44.522731995913055" lon="0.9311114346744498"><ele>109.0</ele><time>2026-04-24T15:56:44.999Z</time></trkpt><trkpt lat="44.522809470850085" lon="0.9310518013661138"><ele>109.00000000000001</ele><time>2026-04-24T15:56:45.999Z</time></trkpt><trkpt lat="44.52288108080361" lon="0.9309955595892098"><ele>109.0</ele><time>2026-04-24T15:56:46.999Z</time></trkpt><trkpt lat="44.52295637114006" lon="0.930967691226897"><ele>109.0</ele><time>2026-04-24T15:56:47.999Z</time></trkpt><trkpt lat="44.52308077067612" lon="0.9309369628901819"><ele>109.0</ele><time>2026-04-24T15:56:49.999Z</time></trkpt><trkpt lat="44.523157246559855" lon="0.9309525732477038"><ele>109.00000000000001</ele><time>2026-04-24T15:56:51.999Z</time></trkpt><trkpt lat="44.52323616184054" lon="0.9309530419263855"><ele>109.0</ele><time>2026-04-24T15:56:53.999Z</time></trkpt><trkpt lat="44.52336796372969" lon="0.9309645163682007"><ele>109.33333333333334</ele><time>2026-04-24T15:56:55.999Z</time></trkpt><trkpt lat="44.52347122512949" lon="0.9309523487414424"><ele>109.66666666666667</ele><time>2026-04-24T15:56:57.999Z</time></trkpt><trkpt lat="44.52353681902784" lon="0.9309309128467739"><ele>110.0</ele><time>2026-04-24T15:56:59.999Z</time></trkpt><trkpt lat="44.52361006549963" lon="0.9309087719888975"><ele>110.33333333333334</ele><time>2026-04-24T15:57:01.999Z</time></trkpt><trkpt lat="44.52371645383879" lon="0.9308769145413756"><ele>110.66666666666667</ele><time>2026-04-24T15:57:03.999Z</time></trkpt><trkpt lat="44.52377959731721" lon="0.9308373739591576"><ele>111.0</ele><time>2026-04-24T15:57:04.999Z</time></trkpt><trkpt lat="44.52385735008747" lon="0.9307102638171701"><ele>113.6</ele><time>2026-04-24T15:57:06.999Z</time></trkpt><trkpt lat="44.52390201547339" lon="0.9306421415790632"><ele>116.19999999999999</ele><time>2026-04-24T15:57:07.999Z</time></trkpt><trkpt lat="44.523952196995026" lon="0.930587447183005"><ele>118.80000000000001</ele><time>2026-04-24T15:57:08.999Z</time></trkpt><trkpt lat="44.524025189230116" lon="0.9304685691688883"><ele>121.4</ele><time>2026-04-24T15:57:10.999Z</time></trkpt><trkpt lat="44.524109308514326" lon="0.930338467160957"><ele>124.0</ele><time>2026-04-24T15:57:12.999Z</time></trkpt><trkpt lat="44.524178342031504" lon="0.9302405333957062"><ele>124.0</ele><time>2026-04-24T15:57:14.999Z</time></trkpt><trkpt lat="44.52426531484918" lon="0.930142420493106"><ele>124.0</ele><time>2026-04-24T15:57:16.999Z</time></trkpt><trkpt lat="44.52435275360039" lon="0.9300540979796829"><ele>124.0</ele><time>2026-04-24T15:57:18.999Z</time></trkpt><trkpt lat="44.52446343384089" lon="0.9299712527347929"><ele>124.0</ele><time>2026-04-24T15:57:21Z</time></trkpt><trkpt lat="44.5245228203857" lon="0.9299071142577089"><ele>124.0</ele><time>2026-04-24T15:57:22Z</time></trkpt><trkpt lat="44.52461687098502" lon="0.9298128486789186"><ele>125.0</ele><time>2026-04-24T15:57:23Z</time></trkpt><trkpt lat="44.52472152000239" lon="0.9297000118123803"><ele>126.0</ele><time>2026-04-24T15:57:24Z</time></trkpt><trkpt lat="44.52481643807139" lon="0.9295479110028984"><ele>127.0</ele><time>2026-04-24T15:57:25Z</time></trkpt><trkpt lat="44.52492455247718" lon="0.9294241137019403"><ele>128.0</ele><time>2026-04-24T15:57:26Z</time></trkpt><trkpt lat="44.525025589850564" lon="0.9292850762782381"><ele>128.25</ele><time>2026-04-24T15:57:27Z</time></trkpt><trkpt lat="44.525119402515394" lon="0.9291325360789988"><ele>128.5</ele><time>2026-04-24T15:57:28Z</time></trkpt><trkpt lat="44.52522350061817" lon="0.9289853787599993"><ele>128.75</ele><time>2026-04-24T15:57:29Z</time></trkpt><trkpt lat="44.525305797641984" lon="0.9288556797746346"><ele>129.0</ele><time>2026-04-24T15:57:30Z</time></trkpt><trkpt lat="44.52536876019256" lon="0.9287458074201396"><ele>130.0</ele><time>2026-04-24T15:57:31Z</time></trkpt><trkpt lat="44.525413787522844" lon="0.9286658048834223"><ele>131.0</ele><time>2026-04-24T15:57:32Z</time></trkpt><trkpt lat="44.525450425985774" lon="0.9285831835301581"><ele>132.0</ele><time>2026-04-24T15:57:33Z</time></trkpt><trkpt lat="44.5255397377433" lon="0.928467569600559"><ele>133.0</ele><time>2026-04-24T15:57:35Z</time></trkpt><trkpt lat="44.52560441085754" lon="0.9283803631903407"><ele>134.0</ele><time>2026-04-24T15:57:37Z</time></trkpt><trkpt lat="44.5256822952218" lon="0.9282866042160218"><ele>134.0</ele><time>2026-04-24T15:57:39Z</time></trkpt><trkpt lat="44.5257600471052" lon="0.9282085028175272"><ele>134.0</ele><time>2026-04-24T15:57:41Z</time></trkpt><trkpt lat="44.52585065642225" lon="0.92811644805025"><ele>134.0</ele><time>2026-04-24T15:57:43Z</time></trkpt><trkpt lat="44.525940719601465" lon="0.9280349620230145"><ele>134.0</ele><time>2026-04-24T15:57:45Z</time></trkpt><trkpt lat="44.526053135080645" lon="0.927947508112573"><ele>134.0</ele><time>2026-04-24T15:57:47Z</time></trkpt><trkpt lat="44.5261210723895" lon="0.9278935272797189"><ele>134.0</ele><time>2026-04-24T15:57:48Z</time></trkpt><trkpt lat="44.52620204548154" lon="0.9278322042385181"><ele>134.0</ele><time>2026-04-24T15:57:49Z</time></trkpt><trkpt lat="44.5262903713834" lon="0.9277690531527362"><ele>134.0</ele><time>2026-04-24T15:57:50Z</time></trkpt><trkpt lat="44.52638111056442" lon="0.9277150900420315"><ele>134.0</ele><time>2026-04-24T15:57:51Z</time></trkpt><trkpt lat="44.52647252809113" lon="0.9276453130180761"><ele>134.0</ele><time>2026-04-24T15:57:52Z</time></trkpt><trkpt lat="44.526573766719" lon="0.9275811378467361"><ele>133.8</ele><time>2026-04-24T15:57:53Z</time></trkpt><trkpt lat="44.52668260974993" lon="0.9275149925475116"><ele>133.60000000000002</ele><time>2026-04-24T15:57:54Z</time></trkpt><trkpt lat="44.52678002514224" lon="0.9274576875544981"><ele>133.4</ele><time>2026-04-24T15:57:55Z</time></trkpt><trkpt lat="44.526868831238076" lon="0.9274100071098206"><ele>133.20000000000002</ele><time>2026-04-24T15:57:56Z</time></trkpt><trkpt lat="44.52695063754096" lon="0.9273703608350689"><ele>133.0</ele><time>2026-04-24T15:57:57Z</time></trkpt><trkpt lat="44.527032117261285" lon="0.9273477691291856"><ele>134.0</ele><time>2026-04-24T15:57:58Z</time></trkpt><trkpt lat="44.52712942165102" lon="0.9273302469460496"><ele>135.0</ele><time>2026-04-24T15:57:59Z</time></trkpt><trkpt lat="44.527225212308934" lon="0.9273286330267686"><ele>136.0</ele><time>2026-04-24T15:58:00Z</time></trkpt><trkpt lat="44.527330944112144" lon="0.9273146743422357"><ele>137.0</ele><time>2026-04-24T15:58:01Z</time></trkpt><trkpt lat="44.527421752991366" lon="0.9273132754108363"><ele>138.0</ele><time>2026-04-24T15:58:02Z</time></trkpt><trkpt lat="44.527508875379546" lon="0.9273065978738424"><ele>138.0</ele><time>2026-04-24T15:58:03Z</time></trkpt><trkpt lat="44.527591583674166" lon="0.9273115861719073"><ele>138.0</ele><time>2026-04-24T15:58:04Z</time></trkpt><trkpt lat="44.527675521798976" lon="0.9273230220913768"><ele>138.0</ele><time>2026-04-24T15:58:05Z</time></trkpt><trkpt lat="44.52776083587551" lon="0.9273376686734425"><ele>138.0</ele><time>2026-04-24T15:58:06Z</time></trkpt><trkpt lat="44.52782575118458" lon="0.9273500301122448"><ele>138.0</ele><time>2026-04-24T15:58:07Z</time></trkpt><trkpt lat="44.52788931647659" lon="0.9273559326935661"><ele>138.0</ele><time>2026-04-24T15:58:08Z</time></trkpt><trkpt lat="44.52797753678356" lon="0.9273647355406859"><ele>138.6</ele><time>2026-04-24T15:58:10Z</time></trkpt><trkpt lat="44.52809666144851" lon="0.9272980298043806"><ele>139.20000000000002</ele><time>2026-04-24T15:58:12Z</time></trkpt><trkpt lat="44.52816159129184" lon="0.9272498357454932"><ele>139.8</ele><time>2026-04-24T15:58:13Z</time></trkpt><trkpt lat="44.52823074752311" lon="0.9272173219137624"><ele>140.4</ele><time>2026-04-24T15:58:14Z</time></trkpt><trkpt lat="44.52830772786616" lon="0.9272054669926744"><ele>141.0</ele><time>2026-04-24T15:58:15Z</time></trkpt><trkpt lat="44.52840584919118" lon="0.9272102914021161"><ele>141.0</ele><time>2026-04-24T15:58:16Z</time></trkpt><trkpt lat="44.52852407395494" lon="0.9272118272672246"><ele>141.0</ele><time>2026-04-24T15:58:17Z</time></trkpt><trkpt lat="44.52865225420197" lon="0.9271977721279836"><ele>141.0</ele><time>2026-04-24T15:58:18Z</time></trkpt><trkpt lat="44.52878111780137" lon="0.9271474286672313"><ele>141.0</ele><time>2026-04-24T15:58:19Z</time></trkpt><trkpt lat="44.528916866212555" lon="0.9270911153437768"><ele>142.0</ele><time>2026-04-24T15:58:20Z</time></trkpt><trkpt lat="44.52905004769445" lon="0.9270686339965558"><ele>143.0</ele><time>2026-04-24T15:58:21Z</time></trkpt><trkpt lat="44.52917848917731" lon="0.9270321018331064"><ele>144.0</ele><time>2026-04-24T15:58:22Z</time></trkpt><trkpt lat="44.52930586198996" lon="0.9270058606885657"><ele>145.0</ele><time>2026-04-24T15:58:23Z</time></trkpt><trkpt lat="44.52944528012137" lon="0.926998649070906"><ele>145.0</ele><time>2026-04-24T15:58:24Z</time></trkpt><trkpt lat="44.5295975185871" lon="0.9269734977234845"><ele>145.0</ele><time>2026-04-24T15:58:25Z</time></trkpt><trkpt lat="44.52973489992901" lon="0.9269375305649564"><ele>145.0</ele><time>2026-04-24T15:58:26Z</time></trkpt><trkpt lat="44.529881588336664" lon="0.9269127483667802"><ele>145.0</ele><time>2026-04-24T15:58:27Z</time></trkpt><trkpt lat="44.53000714553917" lon="0.9268971121842563"><ele>145.0</ele><time>2026-04-24T15:58:28Z</time></trkpt><trkpt lat="44.53019721260682" lon="0.9268696477929993"><ele>145.0</ele><time>2026-04-24T15:58:29Z</time></trkpt><trkpt lat="44.53041797754035" lon="0.9269260173735642"><ele>145.0</ele><time>2026-04-24T15:58:30Z</time></trkpt><trkpt lat="44.53054460577818" lon="0.9270304663991652"><ele>144.0</ele><time>2026-04-24T15:58:31Z</time></trkpt><trkpt lat="44.530700324910335" lon="0.9271320393797445"><ele>143.0</ele><time>2026-04-24T15:58:32Z</time></trkpt><trkpt lat="44.53065094401456" lon="0.9268024783852395"><ele>142.0</ele><time>2026-04-24T15:58:33Z</time></trkpt><trkpt lat="44.53074117877584" lon="0.9267783400622662"><ele>142.0</ele><time>2026-04-24T15:58:34Z</time></trkpt><trkpt lat="44.53082979850841" lon="0.9267337166668689"><ele>142.0</ele><time>2026-04-24T15:58:35Z</time></trkpt><trkpt lat="44.5309087531538" lon="0.9266676629440993"><ele>142.0</ele><time>2026-04-24T15:58:36Z</time></trkpt><trkpt lat="44.53097477640805" lon="0.926607567534378"><ele>142.0</ele><time>2026-04-24T15:58:36.999Z</time></trkpt><trkpt lat="44.531024083247104" lon="0.9265520352612279"><ele>142.0</ele><time>2026-04-24T15:58:37.999Z</time></trkpt><trkpt lat="44.53112238131438" lon="0.926471853351824"><ele>142.0</ele><time>2026-04-24T15:58:39.999Z</time></trkpt><trkpt lat="44.53118912493857" lon="0.926466544591059"><ele>142.6</ele><time>2026-04-24T15:58:40.999Z</time></trkpt><trkpt lat="44.531266693242785" lon="0.9264541899595883"><ele>143.2</ele><time>2026-04-24T15:58:41.999Z</time></trkpt><trkpt lat="44.5313723638091" lon="0.9264353284826499"><ele>143.8</ele><time>2026-04-24T15:58:42.999Z</time></trkpt><trkpt lat="44.53148988839508" lon="0.9264191541298047"><ele>144.4</ele><time>2026-04-24T15:58:43.999Z</time></trkpt><trkpt lat="44.53162045075235" lon="0.9264083487789304"><ele>145.0</ele><time>2026-04-24T15:58:44.999Z</time></trkpt><trkpt lat="44.53175532708392" lon="0.9264070164953588"><ele>145.0</ele><time>2026-04-24T15:58:45.999Z</time></trkpt><trkpt lat="44.53189330411818" lon="0.9264057622820335"><ele>145.0</ele><time>2026-04-24T15:58:46.999Z</time></trkpt><trkpt lat="44.53203842845429" lon="0.9264024117072207"><ele>145.0</ele><time>2026-04-24T15:58:47.999Z</time></trkpt><trkpt lat="44.532178981207316" lon="0.9264015140019719"><ele>145.0</ele><time>2026-04-24T15:58:48.999Z</time></trkpt><trkpt lat="44.532287160407655" lon="0.9264010132029231"><ele>145.6</ele><time>2026-04-24T15:58:49.999Z</time></trkpt><trkpt lat="44.532371780636105" lon="0.9264150733732294"><ele>146.2</ele><time>2026-04-24T15:58:50.999Z</time></trkpt><trkpt lat="44.53246380106354" lon="0.9264332459866479"><ele>146.8</ele><time>2026-04-24T15:58:52.999Z</time></trkpt><trkpt lat="44.532529182665655" lon="0.9265004194188621"><ele>147.4</ele><time>2026-04-24T15:59:43Z</time></trkpt><trkpt lat="44.53259557206035" lon="0.9264161364040053"><ele>148.0</ele><time>2026-04-24T15:59:45Z</time></trkpt><trkpt lat="44.53267688737785" lon="0.9262883012022339"><ele>148.0</ele><time>2026-04-24T15:59:47Z</time></trkpt><trkpt lat="44.53272700115743" lon="0.9262092505535492"><ele>148.0</ele><time>2026-04-24T15:59:48Z</time></trkpt><trkpt lat="44.532801267994955" lon="0.926156943769018"><ele>148.0</ele><time>2026-04-24T15:59:50Z</time></trkpt><trkpt lat="44.53286356682841" lon="0.9260931676851246"><ele>148.0</ele><time>2026-04-24T15:59:52Z</time></trkpt><trkpt lat="44.53295187427498" lon="0.9259852061856935"><ele>148.0</ele><time>2026-04-24T15:59:54Z</time></trkpt><trkpt lat="44.53301102813062" lon="0.9259481182204413"><ele>148.0</ele><time>2026-04-24T15:59:56Z</time></trkpt><trkpt lat="44.5331093052539" lon="0.926125147448022"><ele>148.0</ele><time>2026-04-24T16:00:01Z</time></trkpt><trkpt lat="44.533146442755594" lon="0.9262819513909901"><ele>148.0</ele><time>2026-04-24T16:00:03Z</time></trkpt><trkpt lat="44.53317826930701" lon="0.9263682665082232"><ele>148.0</ele><time>2026-04-24T16:00:04Z</time></trkpt><trkpt lat="44.53319457554997" lon="0.9264562711008208"><ele>148.0</ele><time>2026-04-24T16:00:05Z</time></trkpt><trkpt lat="44.53319137796083" lon="0.9266194085102996"><ele>148.0</ele><time>2026-04-24T16:00:07Z</time></trkpt><trkpt lat="44.533186470656005" lon="0.9267310624359479"><ele>148.0</ele><time>2026-04-24T16:00:08Z</time></trkpt><trkpt lat="44.53323335666989" lon="0.9268446657498557"><ele>148.0</ele><time>2026-04-24T16:00:09Z</time></trkpt><trkpt lat="44.53328041282482" lon="0.9269737292422624"><ele>148.0</ele><time>2026-04-24T16:00:10Z</time></trkpt><trkpt lat="44.53334178092479" lon="0.927079973864681"><ele>148.0</ele><time>2026-04-24T16:00:11Z</time></trkpt><trkpt lat="44.533469529385854" lon="0.9271395439995292"><ele>148.0</ele><time>2026-04-24T16:00:13Z</time></trkpt><trkpt lat="44.533536227598155" lon="0.9271899122845672"><ele>148.0</ele><time>2026-04-24T16:00:14Z</time></trkpt><trkpt lat="44.533577590463324" lon="0.927300270721879"><ele>148.0</ele><time>2026-04-24T16:00:15Z</time></trkpt><trkpt lat="44.53363111884197" lon="0.9274153832406076"><ele>148.0</ele><time>2026-04-24T16:00:16Z</time></trkpt><trkpt lat="44.53368768376321" lon="0.9274881436392134"><ele>148.0</ele><time>2026-04-24T16:00:17Z</time></trkpt><trkpt lat="44.53374378024001" lon="0.9275463793884123"><ele>148.0</ele><time>2026-04-24T16:00:18Z</time></trkpt><trkpt lat="44.53372007487728" lon="0.9277191721407185"><ele>148.0</ele><time>2026-04-24T16:00:20Z</time></trkpt><trkpt lat="44.53368234022739" lon="0.927835925766662"><ele>147.0</ele><time>2026-04-24T16:00:21Z</time></trkpt><trkpt lat="44.53365460135541" lon="0.9279809719737241"><ele>146.0</ele><time>2026-04-24T16:00:22Z</time></trkpt><trkpt lat="44.533656375028535" lon="0.9281434986864601"><ele>145.0</ele><time>2026-04-24T16:00:24Z</time></trkpt><trkpt lat="44.53368296157271" lon="0.928265700814938"><ele>144.0</ele><time>2026-04-24T16:00:25Z</time></trkpt><trkpt lat="44.53370575681136" lon="0.928419345995542"><ele>143.0</ele><time>2026-04-24T16:00:26Z</time></trkpt><trkpt lat="44.5337240050271" lon="0.9285396675827515"><ele>141.83333333333331</ele><time>2026-04-24T16:00:27Z</time></trkpt><trkpt lat="44.53365744249062" lon="0.9285966468654657"><ele>140.66666666666666</ele><time>2026-04-24T16:00:30Z</time></trkpt><trkpt lat="44.5335925363569" lon="0.9286097096855236"><ele>139.5</ele><time>2026-04-24T16:00:31Z</time></trkpt><trkpt lat="44.53351533293114" lon="0.9286356006489163"><ele>138.33333333333334</ele><time>2026-04-24T16:00:32Z</time></trkpt><trkpt lat="44.533393908504635" lon="0.9286504306989992"><ele>137.16666666666669</ele><time>2026-04-24T16:00:34Z</time></trkpt><trkpt lat="44.533376624881384" lon="0.9287438657157407"><ele>136.0</ele><time>2026-04-24T16:00:36Z</time></trkpt><trkpt lat="44.533414120026606" lon="0.9288417091363013"><ele>136.0</ele><time>2026-04-24T16:00:37Z</time></trkpt><trkpt lat="44.53344987527118" lon="0.9289676645850982"><ele>136.0</ele><time>2026-04-24T16:00:38Z</time></trkpt><trkpt lat="44.533489790942895" lon="0.9291138612815877"><ele>136.0</ele><time>2026-04-24T16:00:39Z</time></trkpt><trkpt lat="44.53351987484063" lon="0.9292617692645111"><ele>136.0</ele><time>2026-04-24T16:00:40Z</time></trkpt><trkpt lat="44.53356205309563" lon="0.9293642875910061"><ele>136.0</ele><time>2026-04-24T16:00:41Z</time></trkpt><trkpt lat="44.53354930756099" lon="0.9295309033455489"><ele>134.6</ele><time>2026-04-24T16:00:43Z</time></trkpt><trkpt lat="44.533534655216094" lon="0.9296683253772035"><ele>133.2</ele><time>2026-04-24T16:00:45Z</time></trkpt><trkpt lat="44.53351776320028" lon="0.929816159277242"><ele>131.8</ele><time>2026-04-24T16:00:47Z</time></trkpt><trkpt lat="44.53347651259307" lon="0.9299574198386513"><ele>130.4</ele><time>2026-04-24T16:00:49Z</time></trkpt><trkpt lat="44.53350407768767" lon="0.9301243034796616"><ele>129.0</ele><time>2026-04-24T16:00:51Z</time></trkpt><trkpt lat="44.53356242825972" lon="0.9302722602726573"><ele>128.2</ele><time>2026-04-24T16:00:53Z</time></trkpt><trkpt lat="44.533526184544165" lon="0.9304464168528829"><ele>127.4</ele><time>2026-04-24T16:00:55Z</time></trkpt><trkpt lat="44.53346306137476" lon="0.9305112536487908"><ele>126.6</ele><time>2026-04-24T16:00:56Z</time></trkpt><trkpt lat="44.533405178560976" lon="0.9305657040341214"><ele>125.8</ele><time>2026-04-24T16:00:57Z</time></trkpt><trkpt lat="44.53333608618192" lon="0.9306437530940175"><ele>125.0</ele><time>2026-04-24T16:00:59Z</time></trkpt><trkpt lat="44.53325608130079" lon="0.9305218820059763"><ele>125.0</ele><time>2026-04-24T16:01:01Z</time></trkpt><trkpt lat="44.533203625741464" lon="0.9304653559875251"><ele>125.0</ele><time>2026-04-24T16:01:02Z</time></trkpt><trkpt lat="44.53311394252603" lon="0.9304473972105249"><ele>125.0</ele><time>2026-04-24T16:01:04Z</time></trkpt><trkpt lat="44.53305736380207" lon="0.9305016204827116"><ele>125.0</ele><time>2026-04-24T16:01:15Z</time></trkpt><trkpt lat="44.532940960334024" lon="0.9305835116207318"><ele>125.0</ele><time>2026-04-24T16:01:17Z</time></trkpt><trkpt lat="44.53287453221328" lon="0.9306825603464782"><ele>125.33333333333333</ele><time>2026-04-24T16:01:19Z</time></trkpt><trkpt lat="44.53282592604691" lon="0.9307415807597108"><ele>125.66666666666666</ele><time>2026-04-24T16:01:20Z</time></trkpt><trkpt lat="44.532739591198556" lon="0.9308204146164156"><ele>126.0</ele><time>2026-04-24T16:01:21.999Z</time></trkpt><trkpt lat="44.532719373721775" lon="0.9309106813053651"><ele>126.33333333333334</ele><time>2026-04-24T16:01:22.999Z</time></trkpt><trkpt lat="44.53269820790279" lon="0.931004199429161"><ele>126.66666666666667</ele><time>2026-04-24T16:01:23.999Z</time></trkpt><trkpt lat="44.532631484357374" lon="0.9310865623902175"><ele>127.0</ele><time>2026-04-24T16:01:25.999Z</time></trkpt><trkpt lat="44.53249655547545" lon="0.9310755413171927"><ele>127.00000000000001</ele><time>2026-04-24T16:01:27.999Z</time></trkpt><trkpt lat="44.53243257882208" lon="0.9311011856149308"><ele>127.0</ele><time>2026-04-24T16:01:28.999Z</time></trkpt><trkpt lat="44.532389244991194" lon="0.9311654573936554"><ele>127.0</ele><time>2026-04-24T16:01:29.999Z</time></trkpt><trkpt lat="44.53235808941406" lon="0.9312652293835666"><ele>127.0</ele><time>2026-04-24T16:01:30.999Z</time></trkpt><trkpt lat="44.53227703091852" lon="0.931391740545383"><ele>127.00000000000001</ele><time>2026-04-24T16:01:33Z</time></trkpt><trkpt lat="44.53220877201064" lon="0.9314718969906628"><ele>127.0</ele><time>2026-04-24T16:01:34Z</time></trkpt><trkpt lat="44.5321481896061" lon="0.9315607171565894"><ele>127.0</ele><time>2026-04-24T16:01:35Z</time></trkpt><trkpt lat="44.53208700122188" lon="0.9316660679782379"><ele>126.99999999999999</ele><time>2026-04-24T16:01:36Z</time></trkpt><trkpt lat="44.532030012082586" lon="0.9317836040781908"><ele>126.99999999999999</ele><time>2026-04-24T16:01:37Z</time></trkpt><trkpt lat="44.53197758525724" lon="0.9318964912681696"><ele>127.0</ele><time>2026-04-24T16:01:38Z</time></trkpt><trkpt lat="44.53195554239694" lon="0.9319958486840277"><ele>127.0</ele><time>2026-04-24T16:01:39Z</time></trkpt><trkpt lat="44.53198290012928" lon="0.9321268557366384"><ele>127.0</ele><time>2026-04-24T16:01:41Z</time></trkpt><trkpt lat="44.5320095022322" lon="0.9322134883300619"><ele>126.99999999999999</ele><time>2026-04-24T16:01:42Z</time></trkpt><trkpt lat="44.532027113587276" lon="0.9323833902449147"><ele>126.99999999999999</ele><time>2026-04-24T16:01:44Z</time></trkpt><trkpt lat="44.532021729358796" lon="0.9324951908692315"><ele>127.0</ele><time>2026-04-24T16:01:45Z</time></trkpt><trkpt lat="44.53200104466703" lon="0.9326174407306821"><ele>127.0</ele><time>2026-04-24T16:01:46Z</time></trkpt><trkpt lat="44.53198637920712" lon="0.9327530677228028"><ele>126.19999999999999</ele><time>2026-04-24T16:01:47Z</time></trkpt><trkpt lat="44.53197180705551" lon="0.9328796334479534"><ele>125.39999999999999</ele><time>2026-04-24T16:01:48Z</time></trkpt><trkpt lat="44.53195141974057" lon="0.93301014217066"><ele>124.60000000000001</ele><time>2026-04-24T16:01:49Z</time></trkpt><trkpt lat="44.53192759369277" lon="0.9330948620126798"><ele>123.80000000000001</ele><time>2026-04-24T16:01:50Z</time></trkpt><trkpt lat="44.53179414574732" lon="0.9332131101849857"><ele>123.0</ele><time>2026-04-24T16:01:52Z</time></trkpt><trkpt lat="44.53173501708388" lon="0.933271277787307"><ele>123.0</ele><time>2026-04-24T16:01:53Z</time></trkpt><trkpt lat="44.53173245999918" lon="0.933375659646566"><ele>123.00000000000001</ele><time>2026-04-24T16:01:54Z</time></trkpt><trkpt lat="44.531717363905564" lon="0.9335199350901732"><ele>123.00000000000001</ele><time>2026-04-24T16:01:55Z</time></trkpt><trkpt lat="44.53168872732783" lon="0.9336936543872062"><ele>123.0</ele><time>2026-04-24T16:01:56Z</time></trkpt><trkpt lat="44.53165218997977" lon="0.9338608750394262"><ele>123.0</ele><time>2026-04-24T16:01:57Z</time></trkpt><trkpt lat="44.53163598855747" lon="0.9339961405196932"><ele>122.60000000000001</ele><time>2026-04-24T16:01:58Z</time></trkpt><trkpt lat="44.531618711568875" lon="0.9341188473330323"><ele>122.20000000000002</ele><time>2026-04-24T16:01:59Z</time></trkpt><trkpt lat="44.53154142880946" lon="0.9342164967815755"><ele>121.8</ele><time>2026-04-24T16:02:01Z</time></trkpt><trkpt lat="44.53150436132755" lon="0.9343212076739922"><ele>121.4</ele><time>2026-04-24T16:02:02Z</time></trkpt><trkpt lat="44.5315013852629" lon="0.9344315356419713"><ele>121.0</ele><time>2026-04-24T16:02:03Z</time></trkpt><trkpt lat="44.53149826640285" lon="0.9345909177720255"><ele>120.0</ele><time>2026-04-24T16:02:05Z</time></trkpt><trkpt lat="44.53145362503622" lon="0.9346967850448266"><ele>119.0</ele><time>2026-04-24T16:02:06Z</time></trkpt><trkpt lat="44.53140118228175" lon="0.9348320076106069"><ele>118.0</ele><time>2026-04-24T16:02:07Z</time></trkpt><trkpt lat="44.53134547167515" lon="0.9349749786055429"><ele>117.0</ele><time>2026-04-24T16:02:08Z</time></trkpt><trkpt lat="44.53129004158737" lon="0.9350996632861713"><ele>116.0</ele><time>2026-04-24T16:02:09Z</time></trkpt><trkpt lat="44.531234662646604" lon="0.9352147343688118"><ele>115.19999999999999</ele><time>2026-04-24T16:02:10Z</time></trkpt><trkpt lat="44.53118927897998" lon="0.9353521335397584"><ele>114.39999999999999</ele><time>2026-04-24T16:02:11Z</time></trkpt><trkpt lat="44.531156739410065" lon="0.9354886408751815"><ele>113.6</ele><time>2026-04-24T16:02:12Z</time></trkpt><trkpt lat="44.531127789061124" lon="0.935611746999803"><ele>112.8</ele><time>2026-04-24T16:02:13Z</time></trkpt><trkpt lat="44.53105867865186" lon="0.9357144646812832"><ele>112.0</ele><time>2026-04-24T16:02:14Z</time></trkpt><trkpt lat="44.5310066532487" lon="0.9358156695575168"><ele>111.39999999999999</ele><time>2026-04-24T16:02:15Z</time></trkpt><trkpt lat="44.53096469110483" lon="0.9359255088696579"><ele>110.79999999999998</ele><time>2026-04-24T16:02:16Z</time></trkpt><trkpt lat="44.53090551222644" lon="0.9360758902442241"><ele>110.2</ele><time>2026-04-24T16:02:17Z</time></trkpt><trkpt lat="44.53084273907402" lon="0.9362274466239746"><ele>109.6</ele><time>2026-04-24T16:02:18Z</time></trkpt><trkpt lat="44.53078142728931" lon="0.9363599150537106"><ele>109.0</ele><time>2026-04-24T16:02:19Z</time></trkpt><trkpt lat="44.530743783375904" lon="0.9364465921523015"><ele>109.0</ele><time>2026-04-24T16:02:20Z</time></trkpt><trkpt lat="44.530678536629836" lon="0.9365781052271349"><ele>109.0</ele><time>2026-04-24T16:02:21Z</time></trkpt><trkpt lat="44.53063638312078" lon="0.9366833523498908"><ele>109.0</ele><time>2026-04-24T16:02:22Z</time></trkpt><trkpt lat="44.530590656426504" lon="0.9367890879134547"><ele>109.0</ele><time>2026-04-24T16:02:23Z</time></trkpt><trkpt lat="44.530543758343136" lon="0.9369291396013599"><ele>109.0</ele><time>2026-04-24T16:02:24Z</time></trkpt><trkpt lat="44.53051389271937" lon="0.9370318602094535"><ele>108.33333333333334</ele><time>2026-04-24T16:02:25Z</time></trkpt><trkpt lat="44.53051282754893" lon="0.9371358962577958"><ele>107.66666666666667</ele><time>2026-04-24T16:02:26Z</time></trkpt><trkpt lat="44.53051896632919" lon="0.9372727964575751"><ele>107.0</ele><time>2026-04-24T16:02:27Z</time></trkpt><trkpt lat="44.53051386720531" lon="0.9373799086846357"><ele>106.33333333333334</ele><time>2026-04-24T16:02:28Z</time></trkpt><trkpt lat="44.530499953960486" lon="0.9374663275371037"><ele>105.66666666666667</ele><time>2026-04-24T16:02:29Z</time></trkpt><trkpt lat="44.53055720759021" lon="0.9376125117513052"><ele>105.0</ele><time>2026-04-24T16:02:31Z</time></trkpt><trkpt lat="44.530631496101854" lon="0.9377647928294706"><ele>104.0</ele><time>2026-04-24T16:02:32Z</time></trkpt><trkpt lat="44.530704326468" lon="0.9379059916556821"><ele>103.0</ele><time>2026-04-24T16:02:33Z</time></trkpt><trkpt lat="44.53073241437794" lon="0.9380274723806807"><ele>102.0</ele><time>2026-04-24T16:02:34Z</time></trkpt><trkpt lat="44.530779187961514" lon="0.9381162427705557"><ele>101.0</ele><time>2026-04-24T16:02:35Z</time></trkpt><trkpt lat="44.53086211287518" lon="0.9381848330876389"><ele>100.0</ele><time>2026-04-24T16:02:36Z</time></trkpt><trkpt lat="44.530945958394305" lon="0.9382863783942431"><ele>100.33333333333334</ele><time>2026-04-24T16:02:37Z</time></trkpt><trkpt lat="44.53100894633019" lon="0.9384133479350197"><ele>100.66666666666667</ele><time>2026-04-24T16:02:38Z</time></trkpt><trkpt lat="44.531042268746155" lon="0.9385094932269811"><ele>101.0</ele><time>2026-04-24T16:02:39Z</time></trkpt><trkpt lat="44.53107241066416" lon="0.9385880387124861"><ele>101.33333333333334</ele><time>2026-04-24T16:02:40Z</time></trkpt><trkpt lat="44.531123895539565" lon="0.9387185738218006"><ele>101.66666666666667</ele><time>2026-04-24T16:02:42Z</time></trkpt><trkpt lat="44.5311944243588" lon="0.9387924542263676"><ele>102.0</ele><time>2026-04-24T16:02:44Z</time></trkpt><trkpt lat="44.53128122603698" lon="0.9388610990460364"><ele>102.0</ele><time>2026-04-24T16:02:46Z</time></trkpt><trkpt lat="44.531387655033946" lon="0.9388842689070627"><ele>102.0</ele><time>2026-04-24T16:02:48Z</time></trkpt><trkpt lat="44.53129067923324" lon="0.9388860308224873"><ele>102.0</ele><time>2026-04-24T16:02:55Z</time></trkpt><trkpt lat="44.531215019637884" lon="0.9388566799899525"><ele>102.0</ele><time>2026-04-24T16:02:57Z</time></trkpt><trkpt lat="44.53114346899541" lon="0.9387913057451801"><ele>102.0</ele><time>2026-04-24T16:02:59Z</time></trkpt><trkpt lat="44.5311057141533" lon="0.9386863823521268"><ele>101.6</ele><time>2026-04-24T16:03:03Z</time></trkpt><trkpt lat="44.53111392801706" lon="0.938552282993965"><ele>101.19999999999999</ele><time>2026-04-24T16:03:05Z</time></trkpt><trkpt lat="44.5311332491894" lon="0.9384372089911154"><ele>100.8</ele><time>2026-04-24T16:03:07Z</time></trkpt><trkpt lat="44.5311494926998" lon="0.9382927571402638"><ele>100.4</ele><time>2026-04-24T16:03:09Z</time></trkpt><trkpt lat="44.53116974985272" lon="0.9381522974217633"><ele>100.0</ele><time>2026-04-24T16:03:10Z</time></trkpt><trkpt lat="44.531192606605444" lon="0.9380201377497781"><ele>100.0</ele><time>2026-04-24T16:03:11Z</time></trkpt><trkpt lat="44.53121722001517" lon="0.9378746701914048"><ele>100.0</ele><time>2026-04-24T16:03:12Z</time></trkpt><trkpt lat="44.53124156141856" lon="0.9377104299126945"><ele>100.0</ele><time>2026-04-24T16:03:13Z</time></trkpt><trkpt lat="44.531268403175716" lon="0.9375539301731537"><ele>100.0</ele><time>2026-04-24T16:03:14Z</time></trkpt><trkpt lat="44.53128099284283" lon="0.9373533687898498"><ele>103.8</ele><time>2026-04-24T16:03:15Z</time></trkpt><trkpt lat="44.53129855553038" lon="0.9371738060522838"><ele>107.6</ele><time>2026-04-24T16:03:16Z</time></trkpt><trkpt lat="44.53132503553222" lon="0.9370225244652438"><ele>111.4</ele><time>2026-04-24T16:03:17Z</time></trkpt><trkpt lat="44.53136535693655" lon="0.9368903266068656"><ele>115.2</ele><time>2026-04-24T16:03:18Z</time></trkpt><trkpt lat="44.53141057364221" lon="0.9367748762162631"><ele>119.0</ele><time>2026-04-24T16:03:19Z</time></trkpt><trkpt lat="44.5314871433065" lon="0.9366722616960167"><ele>119.0</ele><time>2026-04-24T16:03:20Z</time></trkpt><trkpt lat="44.53156871362418" lon="0.9365926522968175"><ele>119.0</ele><time>2026-04-24T16:03:21Z</time></trkpt><trkpt lat="44.5316546908005" lon="0.9364991503543173"><ele>119.0</ele><time>2026-04-24T16:03:22Z</time></trkpt><trkpt lat="44.53174081083041" lon="0.9363690738589047"><ele>119.0</ele><time>2026-04-24T16:03:23Z</time></trkpt><trkpt lat="44.53179362547187" lon="0.9362244706848104"><ele>119.0</ele><time>2026-04-24T16:03:23.999Z</time></trkpt><trkpt lat="44.53184529524352" lon="0.9360720994781049"><ele>119.0</ele><time>2026-04-24T16:03:24.999Z</time></trkpt><trkpt lat="44.531906717804745" lon="0.9359684935646762"><ele>119.0</ele><time>2026-04-24T16:03:25.999Z</time></trkpt><trkpt lat="44.53199964936932" lon="0.9358661163859004"><ele>119.0</ele><time>2026-04-24T16:03:26.999Z</time></trkpt><trkpt lat="44.5321036746377" lon="0.9357755756104966"><ele>121.0</ele><time>2026-04-24T16:03:27.999Z</time></trkpt><trkpt lat="44.532200111501666" lon="0.935726846533146"><ele>123.0</ele><time>2026-04-24T16:03:28.999Z</time></trkpt><trkpt lat="44.53229381369599" lon="0.9356939885358773"><ele>125.0</ele><time>2026-04-24T16:03:29.999Z</time></trkpt><trkpt lat="44.53240741382942" lon="0.9357055437944556"><ele>127.0</ele><time>2026-04-24T16:03:30.999Z</time></trkpt><trkpt lat="44.532514648489254" lon="0.9357499653444368"><ele>129.0</ele><time>2026-04-24T16:03:31.999Z</time></trkpt><trkpt lat="44.53259976172197" lon="0.9357581912583737"><ele>129.0</ele><time>2026-04-24T16:03:32.999Z</time></trkpt><trkpt lat="44.53270329390987" lon="0.9356525081975523"><ele>129.0</ele><time>2026-04-24T16:03:34.999Z</time></trkpt><trkpt lat="44.5327409390813" lon="0.9355490085139967"><ele>129.0</ele><time>2026-04-24T16:03:35.999Z</time></trkpt><trkpt lat="44.53271736637972" lon="0.935442162559287"><ele>129.0</ele><time>2026-04-24T16:03:36.999Z</time></trkpt><trkpt lat="44.53270270919379" lon="0.935327545611181"><ele>129.0</ele><time>2026-04-24T16:03:37.999Z</time></trkpt><trkpt lat="44.53269821055372" lon="0.9352016705573345"><ele>129.0</ele><time>2026-04-24T16:03:39Z</time></trkpt><trkpt lat="44.53270282534202" lon="0.9350884133685837"><ele>129.0</ele><time>2026-04-24T16:03:40Z</time></trkpt><trkpt lat="44.532737525685164" lon="0.9349687208406127"><ele>129.0</ele><time>2026-04-24T16:03:41Z</time></trkpt><trkpt lat="44.532794312737444" lon="0.9348461170786746"><ele>129.0</ele><time>2026-04-24T16:03:42Z</time></trkpt><trkpt lat="44.53284663795144" lon="0.9347409718531159"><ele>129.0</ele><time>2026-04-24T16:03:43Z</time></trkpt><trkpt lat="44.532928011887506" lon="0.9345911010490371"><ele>130.5</ele><time>2026-04-24T16:03:45Z</time></trkpt><trkpt lat="44.53296299826654" lon="0.9345109067528232"><ele>132.0</ele><time>2026-04-24T16:03:46Z</time></trkpt><trkpt lat="44.533003786253936" lon="0.9344228701981612"><ele>133.5</ele><time>2026-04-24T16:03:47Z</time></trkpt><trkpt lat="44.533034405812806" lon="0.9343435738378703"><ele>135.0</ele><time>2026-04-24T16:03:48Z</time></trkpt><trkpt lat="44.533081265677446" lon="0.9342774065878728"><ele>136.5</ele><time>2026-04-24T16:03:49Z</time></trkpt><trkpt lat="44.53315496485782" lon="0.9341953808789754"><ele>138.0</ele><time>2026-04-24T16:03:51Z</time></trkpt><trkpt lat="44.5332430469636" lon="0.9341094205778883"><ele>138.8</ele><time>2026-04-24T16:03:53Z</time></trkpt><trkpt lat="44.53331020054349" lon="0.9340280330223577"><ele>139.60000000000002</ele><time>2026-04-24T16:03:54Z</time></trkpt><trkpt lat="44.53339493230471" lon="0.9339721094192031"><ele>140.39999999999998</ele><time>2026-04-24T16:03:55Z</time></trkpt><trkpt lat="44.53348626344611" lon="0.9339676073177023"><ele>141.2</ele><time>2026-04-24T16:03:56Z</time></trkpt><trkpt lat="44.53358456315739" lon="0.9339693924067892"><ele>142.0</ele><time>2026-04-24T16:03:57Z</time></trkpt><trkpt lat="44.53368510618941" lon="0.9339191088099978"><ele>143.2</ele><time>2026-04-24T16:03:58Z</time></trkpt><trkpt lat="44.53376760392271" lon="0.9338274830296546"><ele>144.39999999999998</ele><time>2026-04-24T16:03:59Z</time></trkpt><trkpt lat="44.53385277736904" lon="0.933728577820666"><ele>145.60000000000002</ele><time>2026-04-24T16:04:00Z</time></trkpt><trkpt lat="44.53395122340178" lon="0.9336400182052851"><ele>146.8</ele><time>2026-04-24T16:04:01Z</time></trkpt><trkpt lat="44.5340512042074" lon="0.9335824309815841"><ele>148.0</ele><time>2026-04-24T16:04:02Z</time></trkpt><trkpt lat="44.5341194468402" lon="0.9335499596010614"><ele>148.0</ele><time>2026-04-24T16:04:03Z</time></trkpt><trkpt lat="44.53419983957263" lon="0.9335448215932578"><ele>148.0</ele><time>2026-04-24T16:04:04Z</time></trkpt><trkpt lat="44.534270346062726" lon="0.9336096364578312"><ele>148.0</ele><time>2026-04-24T16:04:05Z</time></trkpt><trkpt lat="44.534340758230414" lon="0.933729295692976"><ele>148.0</ele><time>2026-04-24T16:04:06Z</time></trkpt><trkpt lat="44.53440404162046" lon="0.9338369094781219"><ele>148.0</ele><time>2026-04-24T16:04:07Z</time></trkpt><trkpt lat="44.53448525485757" lon="0.9338765227196495"><ele>149.20000000000002</ele><time>2026-04-24T16:04:08Z</time></trkpt><trkpt lat="44.53460182423732" lon="0.9338566014225934"><ele>150.4</ele><time>2026-04-24T16:04:09Z</time></trkpt><trkpt lat="44.53469599997918" lon="0.9338019770867424"><ele>151.60000000000002</ele><time>2026-04-24T16:04:10Z</time></trkpt><trkpt lat="44.53479542392271" lon="0.9337306858103315"><ele>152.8</ele><time>2026-04-24T16:04:11Z</time></trkpt><trkpt lat="44.534898385045246" lon="0.9336734315611015"><ele>154.0</ele><time>2026-04-24T16:04:12Z</time></trkpt><trkpt lat="44.53501110057133" lon="0.9336128675414603"><ele>154.0</ele><time>2026-04-24T16:04:13Z</time></trkpt><trkpt lat="44.535103680400276" lon="0.9335596891537463"><ele>154.0</ele><time>2026-04-24T16:04:14Z</time></trkpt><trkpt lat="44.53517381074549" lon="0.9335277483410517"><ele>154.0</ele><time>2026-04-24T16:04:15Z</time></trkpt><trkpt lat="44.53523766249543" lon="0.9335209750564589"><ele>154.0</ele><time>2026-04-24T16:04:16Z</time></trkpt><trkpt lat="44.535331184590156" lon="0.9336078807854077"><ele>154.0</ele><time>2026-04-24T16:04:18Z</time></trkpt><trkpt lat="44.53537224908272" lon="0.9336751948893733"><ele>154.0</ele><time>2026-04-24T16:04:19Z</time></trkpt><trkpt lat="44.535439379170704" lon="0.933735428001311"><ele>154.2</ele><time>2026-04-24T16:04:21Z</time></trkpt><trkpt lat="44.53550702598282" lon="0.9336990660546693"><ele>154.4</ele><time>2026-04-24T16:04:23Z</time></trkpt><trkpt lat="44.5355783343581" lon="0.9336492498312156"><ele>154.6</ele><time>2026-04-24T16:04:25Z</time></trkpt><trkpt lat="44.535654530058174" lon="0.9335690752388892"><ele>154.8</ele><time>2026-04-24T16:04:27Z</time></trkpt><trkpt lat="44.53574558824742" lon="0.9334811065659847"><ele>155.0</ele><time>2026-04-24T16:04:29Z</time></trkpt><trkpt lat="44.53584086772664" lon="0.9333904420022642"><ele>155.4</ele><time>2026-04-24T16:04:31Z</time></trkpt><trkpt lat="44.53593521732812" lon="0.9333072514043069"><ele>155.8</ele><time>2026-04-24T16:04:33Z</time></trkpt><trkpt lat="44.536027164336794" lon="0.9332146768673998"><ele>156.2</ele><time>2026-04-24T16:04:35Z</time></trkpt><trkpt lat="44.53609659672978" lon="0.9331432980519279"><ele>156.6</ele><time>2026-04-24T16:04:37Z</time></trkpt><trkpt lat="44.536167561976285" lon="0.9330692032020086"><ele>157.0</ele><time>2026-04-24T16:04:39Z</time></trkpt><trkpt lat="44.536236158779666" lon="0.932983438115491"><ele>157.16666666666669</ele><time>2026-04-24T16:04:41Z</time></trkpt><trkpt lat="44.536296941316735" lon="0.9329275608078202"><ele>157.33333333333334</ele><time>2026-04-24T16:04:43Z</time></trkpt><trkpt lat="44.536360336780106" lon="0.9328809418047735"><ele>157.5</ele><time>2026-04-24T16:04:45Z</time></trkpt><trkpt lat="44.53643247217666" lon="0.9329240981993602"><ele>157.66666666666666</ele><time>2026-04-24T16:04:47Z</time></trkpt><trkpt lat="44.53648223740991" lon="0.9330068778028041"><ele>157.83333333333331</ele><time>2026-04-24T16:04:49Z</time></trkpt><trkpt lat="44.53653696624612" lon="0.9330844997926235"><ele>158.0</ele><time>2026-04-24T16:04:52Z</time></trkpt><trkpt lat="44.53658466063251" lon="0.9331657505008162"><ele>158.0</ele><time>2026-04-24T16:04:54Z</time></trkpt><trkpt lat="44.53662145610826" lon="0.9332493943572351"><ele>158.0</ele><time>2026-04-24T16:04:56Z</time></trkpt><trkpt lat="44.536675812840016" lon="0.93334942807932"><ele>158.0</ele><time>2026-04-24T16:04:59Z</time></trkpt><trkpt lat="44.53673187229894" lon="0.9334674761907643"><ele>158.0</ele><time>2026-04-24T16:05:02Z</time></trkpt><trkpt lat="44.53676918101856" lon="0.9335760851136813"><ele>158.0</ele><time>2026-04-24T16:05:04Z</time></trkpt><trkpt lat="44.53680759663862" lon="0.9336579937156911"><ele>158.0</ele><time>2026-04-24T16:05:06Z</time></trkpt><trkpt lat="44.536853538004905" lon="0.9337616715205191"><ele>157.33333333333331</ele><time>2026-04-24T16:05:08Z</time></trkpt><trkpt lat="44.53690141352263" lon="0.9338681047021526"><ele>156.66666666666666</ele><time>2026-04-24T16:05:10Z</time></trkpt><trkpt lat="44.53695206393455" lon="0.9339663835828714"><ele>156.0</ele><time>2026-04-24T16:05:12Z</time></trkpt><trkpt lat="44.53702138618979" lon="0.9340393908400616"><ele>155.33333333333334</ele><time>2026-04-24T16:05:14Z</time></trkpt><trkpt lat="44.53710523657286" lon="0.9340342566906272"><ele>154.66666666666669</ele><time>2026-04-24T16:05:16Z</time></trkpt><trkpt lat="44.537150862044804" lon="0.9339727337618381"><ele>154.0</ele><time>2026-04-24T16:05:18Z</time></trkpt><trkpt lat="44.53719302023715" lon="0.933884516248333"><ele>153.83333333333334</ele><time>2026-04-24T16:05:21Z</time></trkpt><trkpt lat="44.53723050454658" lon="0.9338064911440417"><ele>153.66666666666669</ele><time>2026-04-24T16:05:24Z</time></trkpt><trkpt lat="44.537283063238725" lon="0.9337111523331593"><ele>153.5</ele><time>2026-04-24T16:05:28Z</time></trkpt><trkpt lat="44.53732656897298" lon="0.933616120922507"><ele>153.33333333333334</ele><time>2026-04-24T16:05:31Z</time></trkpt><trkpt lat="44.53737504330017" lon="0.9335459485666008"><ele>153.16666666666666</ele><time>2026-04-24T16:05:33Z</time></trkpt><trkpt lat="44.537425472473664" lon="0.9334381454561794"><ele>153.0</ele><time>2026-04-24T16:05:37Z</time></trkpt><trkpt lat="44.53749316494453" lon="0.9333228314882964"><ele>153.0</ele><time>2026-04-24T16:05:38.999Z</time></trkpt><trkpt lat="44.53752949689248" lon="0.9332365268839548"><ele>153.0</ele><time>2026-04-24T16:05:40.999Z</time></trkpt><trkpt lat="44.537579137954694" lon="0.9331700058162442"><ele>153.0</ele><time>2026-04-24T16:05:41.999Z</time></trkpt><trkpt lat="44.537630928731204" lon="0.933045514276586"><ele>153.0</ele><time>2026-04-24T16:05:43.999Z</time></trkpt><trkpt lat="44.53766425916027" lon="0.9329295369711165"><ele>153.0</ele><time>2026-04-24T16:05:45Z</time></trkpt><trkpt lat="44.5376774955598" lon="0.9328299757859735"><ele>153.0</ele><time>2026-04-24T16:05:46Z</time></trkpt><trkpt lat="44.53764082760426" lon="0.9327397810889086"><ele>153.0</ele><time>2026-04-24T16:05:47Z</time></trkpt><trkpt lat="44.5375997701084" lon="0.9326597659216936"><ele>153.0</ele><time>2026-04-24T16:05:48Z</time></trkpt><trkpt lat="44.537560902122884" lon="0.9325842613500488"><ele>153.0</ele><time>2026-04-24T16:05:49Z</time></trkpt><trkpt lat="44.53751507952782" lon="0.9325000020454783"><ele>153.0</ele><time>2026-04-24T16:05:50Z</time></trkpt><trkpt lat="44.537500416194625" lon="0.9323303878158775"><ele>153.0</ele><time>2026-04-24T16:05:52Z</time></trkpt><trkpt lat="44.53753138119534" lon="0.9322409042251901"><ele>153.0</ele><time>2026-04-24T16:05:53Z</time></trkpt><trkpt lat="44.537560403521894" lon="0.9321535640024966"><ele>153.6</ele><time>2026-04-24T16:05:54Z</time></trkpt><trkpt lat="44.5376064358237" lon="0.93204078779"><ele>154.20000000000002</ele><time>2026-04-24T16:05:55Z</time></trkpt><trkpt lat="44.537665075548595" lon="0.9319030037393229"><ele>154.8</ele><time>2026-04-24T16:05:56Z</time></trkpt><trkpt lat="44.53772745398702" lon="0.9317480662929487"><ele>155.4</ele><time>2026-04-24T16:05:57Z</time></trkpt><trkpt lat="44.537783540673104" lon="0.9316087564850659"><ele>156.0</ele><time>2026-04-24T16:05:58Z</time></trkpt><trkpt lat="44.53784053969968" lon="0.9314707877577889"><ele>156.2</ele><time>2026-04-24T16:05:59Z</time></trkpt><trkpt lat="44.53790299307381" lon="0.9313242334263976"><ele>156.39999999999998</ele><time>2026-04-24T16:06:00Z</time></trkpt><trkpt lat="44.537964629749716" lon="0.9311864640340769"><ele>156.6</ele><time>2026-04-24T16:06:01Z</time></trkpt><trkpt lat="44.53802327835958" lon="0.9310587157384722"><ele>156.79999999999998</ele><time>2026-04-24T16:06:02Z</time></trkpt><trkpt lat="44.538073528361544" lon="0.930938840251737"><ele>157.0</ele><time>2026-04-24T16:06:03Z</time></trkpt><trkpt lat="44.53812135934346" lon="0.9308390026284351"><ele>157.16666666666669</ele><time>2026-04-24T16:06:04Z</time></trkpt><trkpt lat="44.53816715456692" lon="0.9307410198844953"><ele>157.33333333333334</ele><time>2026-04-24T16:06:05Z</time></trkpt><trkpt lat="44.53820799055218" lon="0.9306435191370043"><ele>157.5</ele><time>2026-04-24T16:06:06Z</time></trkpt><trkpt lat="44.538246911379396" lon="0.9305527261130984"><ele>157.66666666666666</ele><time>2026-04-24T16:06:07Z</time></trkpt><trkpt lat="44.538290185727156" lon="0.9304541769156993"><ele>157.83333333333331</ele><time>2026-04-24T16:06:08Z</time></trkpt><trkpt lat="44.53833571850824" lon="0.9303502809757543"><ele>158.0</ele><time>2026-04-24T16:06:09Z</time></trkpt><trkpt lat="44.5383904992981" lon="0.9302531859880961"><ele>158.0</ele><time>2026-04-24T16:06:10Z</time></trkpt><trkpt lat="44.53842655029952" lon="0.9301358877264359"><ele>158.0</ele><time>2026-04-24T16:06:11Z</time></trkpt><trkpt lat="44.53847366505252" lon="0.9300323932094667"><ele>158.0</ele><time>2026-04-24T16:06:12Z</time></trkpt><trkpt lat="44.53851599947791" lon="0.9299299565346036"><ele>158.0</ele><time>2026-04-24T16:06:13Z</time></trkpt><trkpt lat="44.5385629109731" lon="0.9298398324235383"><ele>158.0</ele><time>2026-04-24T16:06:14Z</time></trkpt><trkpt lat="44.53860539859185" lon="0.9297481284943991"><ele>158.0</ele><time>2026-04-24T16:06:15Z</time></trkpt><trkpt lat="44.53864765446183" lon="0.9296550000603764"><ele>158.0</ele><time>2026-04-24T16:06:16Z</time></trkpt><trkpt lat="44.53869399078556" lon="0.9295634042807657"><ele>158.0</ele><time>2026-04-24T16:06:17Z</time></trkpt><trkpt lat="44.53874338020892" lon="0.9294806211089209"><ele>158.0</ele><time>2026-04-24T16:06:18Z</time></trkpt><trkpt lat="44.53879187813254" lon="0.9293885019916556"><ele>158.0</ele><time>2026-04-24T16:06:19Z</time></trkpt><trkpt lat="44.538840558523574" lon="0.9293004642748909"><ele>158.0</ele><time>2026-04-24T16:06:20Z</time></trkpt><trkpt lat="44.538890683460956" lon="0.929210743251223"><ele>158.0</ele><time>2026-04-24T16:06:21Z</time></trkpt><trkpt lat="44.538939111897825" lon="0.9291295802810094"><ele>158.0</ele><time>2026-04-24T16:06:22Z</time></trkpt><trkpt lat="44.538986471693114" lon="0.9290470305572699"><ele>158.0</ele><time>2026-04-24T16:06:23Z</time></trkpt><trkpt lat="44.539027927955296" lon="0.9289612228624394"><ele>158.0</ele><time>2026-04-24T16:06:24Z</time></trkpt><trkpt lat="44.53907684948231" lon="0.9288828545582268"><ele>158.0</ele><time>2026-04-24T16:06:25Z</time></trkpt><trkpt lat="44.53911889353776" lon="0.9287957328963552"><ele>158.0</ele><time>2026-04-24T16:06:26Z</time></trkpt><trkpt lat="44.53916958066895" lon="0.9287036435224753"><ele>158.0</ele><time>2026-04-24T16:06:27Z</time></trkpt><trkpt lat="44.53923009937174" lon="0.928603704665827"><ele>158.0</ele><time>2026-04-24T16:06:28Z</time></trkpt><trkpt lat="44.539287380329434" lon="0.9284847486149842"><ele>158.0</ele><time>2026-04-24T16:06:29Z</time></trkpt><trkpt lat="44.53936056562212" lon="0.9283599977671606"><ele>158.0</ele><time>2026-04-24T16:06:30Z</time></trkpt><trkpt lat="44.53943881701822" lon="0.9282197829783277"><ele>158.0</ele><time>2026-04-24T16:06:31Z</time></trkpt><trkpt lat="44.5395255127411" lon="0.9280614006806398"><ele>157.33333333333331</ele><time>2026-04-24T16:06:32Z</time></trkpt><trkpt lat="44.539614060878" lon="0.9278987387347786"><ele>156.66666666666666</ele><time>2026-04-24T16:06:33Z</time></trkpt><trkpt lat="44.539719337204254" lon="0.9277371980274258"><ele>156.0</ele><time>2026-04-24T16:06:34Z</time></trkpt><trkpt lat="44.539837287491764" lon="0.9275735509094469"><ele>157.0</ele><time>2026-04-24T16:06:35Z</time></trkpt><trkpt lat="44.53993397076386" lon="0.927405898321303"><ele>158.0</ele><time>2026-04-24T16:06:36Z</time></trkpt><trkpt lat="44.539993833348625" lon="0.9272531932145784"><ele>159.0</ele><time>2026-04-24T16:06:37Z</time></trkpt><trkpt lat="44.54006328775644" lon="0.9271440081539777"><ele>160.0</ele><time>2026-04-24T16:06:38Z</time></trkpt><trkpt lat="44.5400843623092" lon="0.9270215299346267"><ele>160.0</ele><time>2026-04-24T16:06:39Z</time></trkpt><trkpt lat="44.540137034563635" lon="0.9269447176904596"><ele>160.0</ele><time>2026-04-24T16:06:40Z</time></trkpt><trkpt lat="44.54027865641871" lon="0.9269251092744845"><ele>160.0</ele><time>2026-04-24T16:06:43Z</time></trkpt><trkpt lat="44.54040015009756" lon="0.9269222687480159"><ele>160.0</ele><time>2026-04-24T16:06:45Z</time></trkpt><trkpt lat="44.54051245294314" lon="0.9269060235924901"><ele>159.5</ele><time>2026-04-24T16:06:47Z</time></trkpt><trkpt lat="44.540589938533785" lon="0.926947126155928"><ele>159.0</ele><time>2026-04-24T16:06:48Z</time></trkpt><trkpt lat="44.540655921151696" lon="0.9269642349830401"><ele>158.5</ele><time>2026-04-24T16:06:49Z</time></trkpt><trkpt lat="44.54071953385936" lon="0.9269998140581296"><ele>158.0</ele><time>2026-04-24T16:06:50Z</time></trkpt><trkpt lat="44.54077439173869" lon="0.9270704253407847"><ele>157.5</ele><time>2026-04-24T16:06:51Z</time></trkpt><trkpt lat="44.540842551326826" lon="0.9271540038928772"><ele>157.0</ele><time>2026-04-24T16:06:52Z</time></trkpt><trkpt lat="44.54091998049865" lon="0.9272042936245528"><ele>157.0</ele><time>2026-04-24T16:06:53Z</time></trkpt><trkpt lat="44.54100092057807" lon="0.9272599240631058"><ele>157.0</ele><time>2026-04-24T16:06:54Z</time></trkpt><trkpt lat="44.541118334522025" lon="0.9272830167197457"><ele>157.0</ele><time>2026-04-24T16:06:56Z</time></trkpt><trkpt lat="44.54125088685888" lon="0.9273164630216407"><ele>157.0</ele><time>2026-04-24T16:06:58Z</time></trkpt><trkpt lat="44.541319979735675" lon="0.927362108228673"><ele>157.0</ele><time>2026-04-24T16:06:59Z</time></trkpt><trkpt lat="44.541380099705115" lon="0.9274362535856233"><ele>155.2</ele><time>2026-04-24T16:07:00Z</time></trkpt><trkpt lat="44.54147043422342" lon="0.9274388107512791"><ele>153.39999999999998</ele><time>2026-04-24T16:07:22Z</time></trkpt><trkpt lat="44.541538504853406" lon="0.9274464614307759"><ele>151.60000000000002</ele><time>2026-04-24T16:07:23Z</time></trkpt><trkpt lat="44.54162232547944" lon="0.9274893905883925"><ele>149.8</ele><time>2026-04-24T16:07:24Z</time></trkpt><trkpt lat="44.54172296174684" lon="0.9275409618883553"><ele>148.0</ele><time>2026-04-24T16:07:25Z</time></trkpt><trkpt lat="44.5418488351697" lon="0.9275786841644839"><ele>148.0</ele><time>2026-04-24T16:07:26Z</time></trkpt><trkpt lat="44.541922795086585" lon="0.9275968350224264"><ele>148.0</ele><time>2026-04-24T16:07:27Z</time></trkpt><trkpt lat="44.54203058612705" lon="0.9276342941192575"><ele>148.0</ele><time>2026-04-24T16:07:28Z</time></trkpt><trkpt lat="44.54212841714698" lon="0.9276732571517841"><ele>148.0</ele><time>2026-04-24T16:07:29Z</time></trkpt><trkpt lat="44.5422183465663" lon="0.927708913852157"><ele>148.0</ele><time>2026-04-24T16:07:30Z</time></trkpt><trkpt lat="44.54229514666524" lon="0.9277466144861508"><ele>147.6</ele><time>2026-04-24T16:07:31Z</time></trkpt><trkpt lat="44.54235568218911" lon="0.927776144435595"><ele>147.20000000000002</ele><time>2026-04-24T16:07:32Z</time></trkpt><trkpt lat="44.542475531111606" lon="0.9278550468070045"><ele>146.8</ele><time>2026-04-24T16:07:34Z</time></trkpt><trkpt lat="44.542539721760974" lon="0.9278950987257958"><ele>146.4</ele><time>2026-04-24T16:07:35Z</time></trkpt><trkpt lat="44.542623372934706" lon="0.9279819607269303"><ele>146.0</ele><time>2026-04-24T16:07:37Z</time></trkpt><trkpt lat="44.54265439954455" lon="0.9281431617562778"><ele>146.0</ele><time>2026-04-24T16:07:38.999Z</time></trkpt><trkpt lat="44.5427650104764" lon="0.9282223067848936"><ele>146.0</ele><time>2026-04-24T16:07:40.999Z</time></trkpt><trkpt lat="44.54284267459192" lon="0.9282577207775614"><ele>146.0</ele><time>2026-04-24T16:07:41.999Z</time></trkpt><trkpt lat="44.54291758034675" lon="0.9282806849464211"><ele>146.0</ele><time>2026-04-24T16:07:42.999Z</time></trkpt><trkpt lat="44.54298087112786" lon="0.9283102095828476"><ele>146.0</ele><time>2026-04-24T16:07:43.999Z</time></trkpt><trkpt lat="44.54303989031667" lon="0.9283528222391287"><ele>146.0</ele><time>2026-04-24T16:07:44.999Z</time></trkpt><trkpt lat="44.5431508559618" lon="0.928397740285319"><ele>144.33333333333331</ele><time>2026-04-24T16:07:46.999Z</time></trkpt><trkpt lat="44.543245173940726" lon="0.9284413505085729"><ele>142.66666666666666</ele><time>2026-04-24T16:07:48.999Z</time></trkpt><trkpt lat="44.54330185906751" lon="0.9285109463911785"><ele>141.0</ele><time>2026-04-24T16:07:52Z</time></trkpt><trkpt lat="44.5433655499375" lon="0.9285378783715106"><ele>139.33333333333334</ele><time>2026-04-24T16:07:54Z</time></trkpt><trkpt lat="44.54343077874305" lon="0.9285829706541673"><ele>137.66666666666669</ele><time>2026-04-24T16:07:56Z</time></trkpt><trkpt lat="44.543508937248" lon="0.9286209960938897"><ele>136.0</ele><time>2026-04-24T16:07:58Z</time></trkpt><trkpt lat="44.54360415512469" lon="0.9286473362139549"><ele>135.99999999999997</ele><time>2026-04-24T16:08:00Z</time></trkpt><trkpt lat="44.543672993722865" lon="0.9286767968917647"><ele>136.0</ele><time>2026-04-24T16:08:01Z</time></trkpt><trkpt lat="44.543740342236596" lon="0.9287166355846526"><ele>136.0</ele><time>2026-04-24T16:08:04Z</time></trkpt><trkpt lat="44.543805079838485" lon="0.9287698156075647"><ele>136.0</ele><time>2026-04-24T16:08:24Z</time></trkpt><trkpt lat="44.54388268166414" lon="0.928825144292559"><ele>136.0</ele><time>2026-04-24T16:08:29Z</time></trkpt><trkpt lat="44.54394179226163" lon="0.9288573364577981"><ele>135.99999999999997</ele><time>2026-04-24T16:08:32Z</time></trkpt><trkpt lat="44.543925945496156" lon="0.9289488323956413"><ele>136.0</ele><time>2026-04-24T16:08:41Z</time></trkpt><trkpt lat="44.54399828171105" lon="0.9289995654809634"><ele>136.2</ele><time>2026-04-24T16:08:53Z</time></trkpt><trkpt lat="44.544049957881384" lon="0.9289130569372206"><ele>136.39999999999998</ele><time>2026-04-24T16:09:15Z</time></trkpt><trkpt lat="44.54409763170305" lon="0.9288057754443524"><ele>136.6</ele><time>2026-04-24T16:09:17Z</time></trkpt><trkpt lat="44.54414380815945" lon="0.9286737073134644"><ele>136.79999999999998</ele><time>2026-04-24T16:09:19Z</time></trkpt><trkpt lat="44.54418772804823" lon="0.9285475530748627"><ele>137.0</ele><time>2026-04-24T16:09:21Z</time></trkpt><trkpt lat="44.54421014674753" lon="0.9284283070223712"><ele>138.6</ele><time>2026-04-24T16:09:22Z</time></trkpt><trkpt lat="44.54422870599261" lon="0.9282875700153923"><ele>140.2</ele><time>2026-04-24T16:09:24Z</time></trkpt><trkpt lat="44.54424150206472" lon="0.9281294342534449"><ele>141.8</ele><time>2026-04-24T16:09:27Z</time></trkpt><trkpt lat="44.54424331510866" lon="0.9280147340959525"><ele>143.4</ele><time>2026-04-24T16:09:28Z</time></trkpt><trkpt lat="44.544246458189214" lon="0.9278920133159767"><ele>145.0</ele><time>2026-04-24T16:09:29Z</time></trkpt><trkpt lat="44.54425019213542" lon="0.9278002109809198"><ele>145.0</ele><time>2026-04-24T16:09:30Z</time></trkpt><trkpt lat="44.544254158551375" lon="0.9277022786227704"><ele>145.0</ele><time>2026-04-24T16:09:32Z</time></trkpt><trkpt lat="44.54425956862045" lon="0.9275687019382945"><ele>145.0</ele><time>2026-04-24T16:09:34Z</time></trkpt><trkpt lat="44.54426392960239" lon="0.927461027660678"><ele>145.0</ele><time>2026-04-24T16:09:35Z</time></trkpt><trkpt lat="44.54426852270581" lon="0.9273476221592669"><ele>145.0</ele><time>2026-04-24T16:09:36Z</time></trkpt><trkpt lat="44.54427218093688" lon="0.9272572992290153"><ele>145.0</ele><time>2026-04-24T16:09:37Z</time></trkpt><trkpt lat="44.544283564153275" lon="0.927387943576498"><ele>145.0</ele><time>2026-04-24T16:09:42Z</time></trkpt><trkpt lat="44.54438368618296" lon="0.9274588571013965"><ele>145.0</ele><time>2026-04-24T16:09:43.999Z</time></trkpt><trkpt lat="44.54445096945863" lon="0.9275383102902822"><ele>145.0</ele><time>2026-04-24T16:09:45.999Z</time></trkpt><trkpt lat="44.54451557277835" lon="0.9276171116924017"><ele>145.0</ele><time>2026-04-24T16:09:46.999Z</time></trkpt><trkpt lat="44.54457661421103" lon="0.9277397963401686"><ele>145.0</ele><time>2026-04-24T16:09:47.999Z</time></trkpt><trkpt lat="44.544628494269205" lon="0.9278278710265723"><ele>145.14285714285714</ele><time>2026-04-24T16:09:48.999Z</time></trkpt><trkpt lat="44.54468519803623" lon="0.9278995956503567"><ele>145.2857142857143</ele><time>2026-04-24T16:09:49.999Z</time></trkpt><trkpt lat="44.5447202761095" lon="0.9279875460358857"><ele>145.42857142857144</ele><time>2026-04-24T16:09:50.999Z</time></trkpt><trkpt lat="44.54476407776619" lon="0.9280793674441908"><ele>145.57142857142858</ele><time>2026-04-24T16:09:51.999Z</time></trkpt><trkpt lat="44.54479769681683" lon="0.928158874320055"><ele>145.71428571428572</ele><time>2026-04-24T16:09:52.999Z</time></trkpt><trkpt lat="44.54483529900593" lon="0.9282372159326887"><ele>145.85714285714286</ele><time>2026-04-24T16:09:53.999Z</time></trkpt><trkpt lat="44.54487452413215" lon="0.9283110107324117"><ele>146.0</ele><time>2026-04-24T16:09:54.999Z</time></trkpt><trkpt lat="44.5449169579525" lon="0.9283813073012132"><ele>143.6</ele><time>2026-04-24T16:09:55.999Z</time></trkpt><trkpt lat="44.54496686689215" lon="0.928476896022508"><ele>141.2</ele><time>2026-04-24T16:09:58Z</time></trkpt><trkpt lat="44.54501315842197" lon="0.9285834679270571"><ele>138.8</ele><time>2026-04-24T16:10:00Z</time></trkpt><trkpt lat="44.54508532021665" lon="0.9286805232583044"><ele>136.4</ele><time>2026-04-24T16:10:02Z</time></trkpt><trkpt lat="44.54515819285961" lon="0.9287695718861178"><ele>134.0</ele><time>2026-04-24T16:10:04Z</time></trkpt><trkpt lat="44.545213818365504" lon="0.9288686228957903"><ele>134.0</ele><time>2026-04-24T16:10:06Z</time></trkpt><trkpt lat="44.5452636802925" lon="0.9289330435327575"><ele>134.0</ele><time>2026-04-24T16:10:07Z</time></trkpt><trkpt lat="44.545319483066855" lon="0.9290167446844635"><ele>134.0</ele><time>2026-04-24T16:10:08Z</time></trkpt><trkpt lat="44.54535583990531" lon="0.9291068994008362"><ele>134.0</ele><time>2026-04-24T16:10:09Z</time></trkpt><trkpt lat="44.54538319359267" lon="0.9292037904748528"><ele>134.0</ele><time>2026-04-24T16:10:10Z</time></trkpt><trkpt lat="44.54540645516284" lon="0.9293928765558043"><ele>134.0</ele><time>2026-04-24T16:10:12Z</time></trkpt><trkpt lat="44.545396284436386" lon="0.929488870247994"><ele>133.0</ele><time>2026-04-24T16:10:13Z</time></trkpt><trkpt lat="44.54537500769654" lon="0.9295807244865731"><ele>132.0</ele><time>2026-04-24T16:10:14Z</time></trkpt><trkpt lat="44.54534953951212" lon="0.9296730784616575"><ele>131.0</ele><time>2026-04-24T16:10:15Z</time></trkpt><trkpt lat="44.54532685782335" lon="0.9297900060298174"><ele>130.0</ele><time>2026-04-24T16:10:16Z</time></trkpt><trkpt lat="44.545296804478056" lon="0.9298957839541734"><ele>129.0</ele><time>2026-04-24T16:10:17Z</time></trkpt><trkpt lat="44.54529459816818" lon="0.9299917290882346"><ele>128.0</ele><time>2026-04-24T16:10:18Z</time></trkpt><trkpt lat="44.545295014888055" lon="0.9301035242827647"><ele>127.33333333333333</ele><time>2026-04-24T16:10:19Z</time></trkpt><trkpt lat="44.545294976005884" lon="0.9301993159205681"><ele>126.66666666666666</ele><time>2026-04-24T16:10:20Z</time></trkpt><trkpt lat="44.54530454315327" lon="0.930309470530808"><ele>126.0</ele><time>2026-04-24T16:10:21Z</time></trkpt><trkpt lat="44.5453272048881" lon="0.9304026074936509"><ele>125.33333333333334</ele><time>2026-04-24T16:10:22Z</time></trkpt><trkpt lat="44.5453565321146" lon="0.9304937513319617"><ele>124.66666666666667</ele><time>2026-04-24T16:10:23Z</time></trkpt><trkpt lat="44.54539484776889" lon="0.9305805421011215"><ele>124.0</ele><time>2026-04-24T16:10:24Z</time></trkpt><trkpt lat="44.545477823272" lon="0.9307029058456062"><ele>124.0</ele><time>2026-04-24T16:10:26Z</time></trkpt><trkpt lat="44.54557021303274" lon="0.9308032788117715"><ele>124.0</ele><time>2026-04-24T16:10:28Z</time></trkpt><trkpt lat="44.545624897595424" lon="0.930892100885123"><ele>124.0</ele><time>2026-04-24T16:10:30Z</time></trkpt><trkpt lat="44.545693102580245" lon="0.930972785592116"><ele>124.0</ele><time>2026-04-24T16:10:32Z</time></trkpt><trkpt lat="44.545761948791295" lon="0.9310757071260538"><ele>124.0</ele><time>2026-04-24T16:10:34Z</time></trkpt><trkpt lat="44.54581297077105" lon="0.9311859186620576"><ele>122.4</ele><time>2026-04-24T16:10:36Z</time></trkpt><trkpt lat="44.54583015820542" lon="0.9312766133372815"><ele>120.80000000000001</ele><time>2026-04-24T16:10:37Z</time></trkpt><trkpt lat="44.545815998407" lon="0.9313944955122686"><ele>119.19999999999999</ele><time>2026-04-24T16:10:38Z</time></trkpt><trkpt lat="44.545802718800836" lon="0.9315405099432856"><ele>117.6</ele><time>2026-04-24T16:10:39Z</time></trkpt><trkpt lat="44.54573684876762" lon="0.9317001504527777"><ele>116.0</ele><time>2026-04-24T16:10:40Z</time></trkpt><trkpt lat="44.54570884408185" lon="0.931845625642025"><ele>115.19999999999999</ele><time>2026-04-24T16:10:41Z</time></trkpt><trkpt lat="44.54571171030423" lon="0.9319790978926025"><ele>114.39999999999999</ele><time>2026-04-24T16:10:42Z</time></trkpt><trkpt lat="44.54572467272237" lon="0.9321192364401741"><ele>113.6</ele><time>2026-04-24T16:10:43Z</time></trkpt><trkpt lat="44.54577921981982" lon="0.9322282328518916"><ele>112.8</ele><time>2026-04-24T16:10:44Z</time></trkpt><trkpt lat="44.545888246490705" lon="0.9323244516710802"><ele>112.0</ele><time>2026-04-24T16:10:45Z</time></trkpt><trkpt lat="44.54600764018016" lon="0.9324153235579441"><ele>112.0</ele><time>2026-04-24T16:10:46Z</time></trkpt><trkpt lat="44.54613920684169" lon="0.9325151043790071"><ele>112.0</ele><time>2026-04-24T16:10:47Z</time></trkpt><trkpt lat="44.54626300145378" lon="0.9326737655717858"><ele>112.0</ele><time>2026-04-24T16:10:48Z</time></trkpt><trkpt lat="44.546392302149094" lon="0.9328223889876294"><ele>112.33333333333334</ele><time>2026-04-24T16:10:49Z</time></trkpt><trkpt lat="44.54653837431518" lon="0.9329717567658768"><ele>112.66666666666666</ele><time>2026-04-24T16:10:50Z</time></trkpt><trkpt lat="44.546671109704555" lon="0.9331327916131323"><ele>113.0</ele><time>2026-04-24T16:10:51Z</time></trkpt><trkpt lat="44.54675629733992" lon="0.9332879119034359"><ele>113.2</ele><time>2026-04-24T16:10:52Z</time></trkpt><trkpt lat="44.546824943865026" lon="0.9334356238946947"><ele>113.4</ele><time>2026-04-24T16:10:53Z</time></trkpt><trkpt lat="44.54686944785498" lon="0.9335656287204713"><ele>113.60000000000001</ele><time>2026-04-24T16:10:54Z</time></trkpt><trkpt lat="44.54688488755464" lon="0.9336684986103839"><ele>113.80000000000001</ele><time>2026-04-24T16:10:55Z</time></trkpt><trkpt lat="44.546901793161304" lon="0.9337871656420359"><ele>114.0</ele><time>2026-04-24T16:10:57Z</time></trkpt><trkpt lat="44.547051375328046" lon="0.9337465774194473"><ele>114.16666666666667</ele><time>2026-04-24T16:10:59Z</time></trkpt><trkpt lat="44.547114296022606" lon="0.9336697263915676"><ele>114.33333333333334</ele><time>2026-04-24T16:11:00Z</time></trkpt><trkpt lat="44.54716389804624" lon="0.9336091427538658"><ele>114.5</ele><time>2026-04-24T16:11:01Z</time></trkpt><trkpt lat="44.547218382143946" lon="0.9335425961580622"><ele>114.66666666666667</ele><time>2026-04-24T16:11:03Z</time></trkpt><trkpt lat="44.54727637397351" lon="0.9334419474996365"><ele>114.83333333333334</ele><time>2026-04-24T16:11:05Z</time></trkpt><trkpt lat="44.54733955270278" lon="0.9333731693796666"><ele>115.0</ele><time>2026-04-24T16:11:07Z</time></trkpt><trkpt lat="44.54740028415772" lon="0.9333236933736803"><ele>115.00000000000001</ele><time>2026-04-24T16:11:09Z</time></trkpt><trkpt lat="44.54746791448526" lon="0.9332261315736079"><ele>115.0</ele><time>2026-04-24T16:11:12Z</time></trkpt><trkpt lat="44.547526527199075" lon="0.933169658971714"><ele>115.0</ele><time>2026-04-24T16:11:14Z</time></trkpt><trkpt lat="44.547576175794035" lon="0.9330787350953461"><ele>115.0</ele><time>2026-04-24T16:11:16Z</time></trkpt><trkpt lat="44.54763077933236" lon="0.9330224702588086"><ele>115.00000000000001</ele><time>2026-04-24T16:11:17Z</time></trkpt><trkpt lat="44.54768254937215" lon="0.9329518432397718"><ele>115.0</ele><time>2026-04-24T16:11:18Z</time></trkpt><trkpt lat="44.54777668909379" lon="0.9328398923690848"><ele>115.0</ele><time>2026-04-24T16:11:20Z</time></trkpt><trkpt lat="44.547833394289924" lon="0.9327750635419806"><ele>115.0</ele><time>2026-04-24T16:11:21Z</time></trkpt><trkpt lat="44.54789750950631" lon="0.9327070533983927"><ele>115.0</ele><time>2026-04-24T16:11:22Z</time></trkpt><trkpt lat="44.547973822260545" lon="0.9326183222847017"><ele>115.0</ele><time>2026-04-24T16:11:23Z</time></trkpt><trkpt lat="44.548055600566265" lon="0.9325131886254139"><ele>115.0</ele><time>2026-04-24T16:11:24Z</time></trkpt><trkpt lat="44.548145564269674" lon="0.932401244993608"><ele>116.25</ele><time>2026-04-24T16:11:25Z</time></trkpt><trkpt lat="44.54823867617163" lon="0.9322862799727326"><ele>117.5</ele><time>2026-04-24T16:11:26Z</time></trkpt><trkpt lat="44.54834585226055" lon="0.932163570364398"><ele>118.75</ele><time>2026-04-24T16:11:27Z</time></trkpt><trkpt lat="44.548453169013776" lon="0.9320468645218032"><ele>120.0</ele><time>2026-04-24T16:11:28Z</time></trkpt><trkpt lat="44.54854495545029" lon="0.9319548573500573"><ele>120.0</ele><time>2026-04-24T16:11:29Z</time></trkpt><trkpt lat="44.54862752715164" lon="0.93186890870798"><ele>120.0</ele><time>2026-04-24T16:11:30Z</time></trkpt><trkpt lat="44.54870419336888" lon="0.9317828497706796"><ele>120.0</ele><time>2026-04-24T16:11:31Z</time></trkpt><trkpt lat="44.548782822328725" lon="0.9317040975592134"><ele>120.0</ele><time>2026-04-24T16:11:32Z</time></trkpt><trkpt lat="44.54886462278617" lon="0.9316156241941586"><ele>120.0</ele><time>2026-04-24T16:11:32.999Z</time></trkpt><trkpt lat="44.54895558705659" lon="0.931524496945157"><ele>120.0</ele><time>2026-04-24T16:11:33.999Z</time></trkpt><trkpt lat="44.54904384549178" lon="0.9314335747012011"><ele>120.0</ele><time>2026-04-24T16:11:34.999Z</time></trkpt><trkpt lat="44.54911562482333" lon="0.9313418454879872"><ele>120.0</ele><time>2026-04-24T16:11:35.999Z</time></trkpt><trkpt lat="44.54917895384887" lon="0.9312511316635477"><ele>120.0</ele><time>2026-04-24T16:11:36.999Z</time></trkpt><trkpt lat="44.54924227264889" lon="0.9311420812735436"><ele>120.0</ele><time>2026-04-24T16:11:37.999Z</time></trkpt><trkpt lat="44.54929875274591" lon="0.9310341503792243"><ele>120.0</ele><time>2026-04-24T16:11:38.999Z</time></trkpt><trkpt lat="44.54934826841394" lon="0.9309235652895901"><ele>120.0</ele><time>2026-04-24T16:11:39.999Z</time></trkpt><trkpt lat="44.54939544207895" lon="0.930803715462915"><ele>120.0</ele><time>2026-04-24T16:11:40.999Z</time></trkpt><trkpt lat="44.54944490098046" lon="0.9306744953930474"><ele>120.0</ele><time>2026-04-24T16:11:41.999Z</time></trkpt><trkpt lat="44.549486320138364" lon="0.9305369076331621"><ele>120.0</ele><time>2026-04-24T16:11:42.999Z</time></trkpt><trkpt lat="44.54953021627774" lon="0.9304036030856195"><ele>121.0</ele><time>2026-04-24T16:11:43.999Z</time></trkpt><trkpt lat="44.54958452161325" lon="0.9303075727927698"><ele>122.0</ele><time>2026-04-24T16:11:44.999Z</time></trkpt><trkpt lat="44.54963982617507" lon="0.9302010197374136"><ele>123.0</ele><time>2026-04-24T16:11:45.999Z</time></trkpt><trkpt lat="44.54969939234643" lon="0.9300990481408203"><ele>124.0</ele><time>2026-04-24T16:11:46.999Z</time></trkpt><trkpt lat="44.54976690800751" lon="0.9299975604522502"><ele>125.0</ele><time>2026-04-24T16:11:47.999Z</time></trkpt><trkpt lat="44.54982946406556" lon="0.9298979943041734"><ele>125.0</ele><time>2026-04-24T16:11:48.999Z</time></trkpt><trkpt lat="44.54988045780198" lon="0.9297874250897344"><ele>125.0</ele><time>2026-04-24T16:11:49.999Z</time></trkpt><trkpt lat="44.54993174153256" lon="0.9296763874885913"><ele>125.0</ele><time>2026-04-24T16:11:50.999Z</time></trkpt><trkpt lat="44.54998941554033" lon="0.9295544429196646"><ele>125.0</ele><time>2026-04-24T16:11:51.999Z</time></trkpt><trkpt lat="44.5500424523191" lon="0.9294270889015304"><ele>125.0</ele><time>2026-04-24T16:11:52.999Z</time></trkpt><trkpt lat="44.55009967207908" lon="0.9293112293904037"><ele>124.49999999999999</ele><time>2026-04-24T16:11:53.999Z</time></trkpt><trkpt lat="44.55014150210388" lon="0.9291866514079191"><ele>124.0</ele><time>2026-04-24T16:11:54.999Z</time></trkpt><trkpt lat="44.550185430653926" lon="0.92908537356692"><ele>123.5</ele><time>2026-04-24T16:11:55.999Z</time></trkpt><trkpt lat="44.55021719346818" lon="0.9289920942858608"><ele>123.0</ele><time>2026-04-24T16:11:56.999Z</time></trkpt><trkpt lat="44.550243799980564" lon="0.9289074068838808"><ele>122.49999999999999</ele><time>2026-04-24T16:11:57.999Z</time></trkpt><trkpt lat="44.550292553430054" lon="0.9288330497569661"><ele>122.0</ele><time>2026-04-24T16:11:58.999Z</time></trkpt><trkpt lat="44.55032967046618" lon="0.9287420402816989"><ele>121.99999999999999</ele><time>2026-04-24T16:11:59.999Z</time></trkpt><trkpt lat="44.550365580585094" lon="0.9286566493457679"><ele>122.0</ele><time>2026-04-24T16:12:00.999Z</time></trkpt><trkpt lat="44.55039966717183" lon="0.9285755946052148"><ele>122.0</ele><time>2026-04-24T16:12:01.999Z</time></trkpt><trkpt lat="44.550433566064825" lon="0.9284978279963191"><ele>122.0</ele><time>2026-04-24T16:12:02.999Z</time></trkpt><trkpt lat="44.550505411008984" lon="0.9283590261534851"><ele>121.99999999999999</ele><time>2026-04-24T16:12:04.999Z</time></trkpt><trkpt lat="44.55050534002342" lon="0.9281916145743705"><ele>122.0</ele><time>2026-04-24T16:12:06.999Z</time></trkpt><trkpt lat="44.550543167668856" lon="0.9281085695694866"><ele>122.0</ele><time>2026-04-24T16:12:10Z</time></trkpt><trkpt lat="44.55055741052185" lon="0.928005244439849"><ele>121.99999999999999</ele><time>2026-04-24T16:12:26Z</time></trkpt><trkpt lat="44.550597823062574" lon="0.9278713275553533"><ele>121.99999999999999</ele><time>2026-04-24T16:12:28Z</time></trkpt><trkpt lat="44.55061876796806" lon="0.9277686919235765"><ele>122.0</ele><time>2026-04-24T16:12:29Z</time></trkpt><trkpt lat="44.55065097492015" lon="0.9276433354606086"><ele>122.0</ele><time>2026-04-24T16:12:30Z</time></trkpt><trkpt lat="44.55071401986209" lon="0.9275127624211812"><ele>122.0</ele><time>2026-04-24T16:12:31Z</time></trkpt><trkpt lat="44.550771653601046" lon="0.9273626154905226"><ele>122.0</ele><time>2026-04-24T16:12:32Z</time></trkpt><trkpt lat="44.55083730739366" lon="0.9272073440936001"><ele>122.0</ele><time>2026-04-24T16:12:33Z</time></trkpt><trkpt lat="44.55091178106798" lon="0.9270411505144495"><ele>122.0</ele><time>2026-04-24T16:12:34Z</time></trkpt><trkpt lat="44.550995235259236" lon="0.9268622781256352"><ele>121.75</ele><time>2026-04-24T16:12:35Z</time></trkpt><trkpt lat="44.55105908118743" lon="0.9266741508659098"><ele>121.5</ele><time>2026-04-24T16:12:36Z</time></trkpt><trkpt lat="44.5511271384721" lon="0.9265069588344433"><ele>121.25</ele><time>2026-04-24T16:12:37Z</time></trkpt><trkpt lat="44.55116696525275" lon="0.9263391878279542"><ele>121.0</ele><time>2026-04-24T16:12:38Z</time></trkpt><trkpt lat="44.551207634840225" lon="0.9261898737308775"><ele>122.4</ele><time>2026-04-24T16:12:39Z</time></trkpt><trkpt lat="44.55123773634622" lon="0.9260280246255524"><ele>123.8</ele><time>2026-04-24T16:12:41Z</time></trkpt><trkpt lat="44.55127444449105" lon="0.925875469618581"><ele>125.20000000000002</ele><time>2026-04-24T16:12:43Z</time></trkpt><trkpt lat="44.55128068473883" lon="0.925735562846875"><ele>126.60000000000001</ele><time>2026-04-24T16:12:45Z</time></trkpt><trkpt lat="44.55129928617813" lon="0.9256468307274789"><ele>128.0</ele><time>2026-04-24T16:12:46Z</time></trkpt><trkpt lat="44.55130833212574" lon="0.9255559549374853"><ele>129.20000000000002</ele><time>2026-04-24T16:12:47Z</time></trkpt><trkpt lat="44.55130275648911" lon="0.9253952117318246"><ele>130.4</ele><time>2026-04-24T16:12:49Z</time></trkpt><trkpt lat="44.55131768631717" lon="0.9252391057273593"><ele>131.60000000000002</ele><time>2026-04-24T16:12:51Z</time></trkpt><trkpt lat="44.55132120574875" lon="0.9251063438525989"><ele>132.8</ele><time>2026-04-24T16:12:53Z</time></trkpt><trkpt lat="44.55133545945739" lon="0.9249508198875124"><ele>134.0</ele><time>2026-04-24T16:12:55Z</time></trkpt><trkpt lat="44.551358352361376" lon="0.9247741453796012"><ele>134.2</ele><time>2026-04-24T16:12:57Z</time></trkpt><trkpt lat="44.55137027690998" lon="0.9246545833894902"><ele>134.4</ele><time>2026-04-24T16:12:58Z</time></trkpt><trkpt lat="44.55138282025787" lon="0.9245523547912963"><ele>134.6</ele><time>2026-04-24T16:12:59Z</time></trkpt><trkpt lat="44.551403308317106" lon="0.9243938284404274"><ele>134.8</ele><time>2026-04-24T16:13:01Z</time></trkpt><trkpt lat="44.551425608455794" lon="0.9242267611937097"><ele>135.0</ele><time>2026-04-24T16:13:03Z</time></trkpt><trkpt lat="44.551436227452484" lon="0.9240963038864843"><ele>135.0</ele><time>2026-04-24T16:13:05Z</time></trkpt><trkpt lat="44.55145040646588" lon="0.9239524856222494"><ele>135.0</ele><time>2026-04-24T16:13:07Z</time></trkpt><trkpt lat="44.551460293529026" lon="0.9238201646979093"><ele>135.0</ele><time>2026-04-24T16:13:09Z</time></trkpt><trkpt lat="44.55147231294035" lon="0.9236809284721557"><ele>135.0</ele><time>2026-04-24T16:13:11Z</time></trkpt><trkpt lat="44.55149047815188" lon="0.9235370605762666"><ele>135.0</ele><time>2026-04-24T16:13:13Z</time></trkpt><trkpt lat="44.55155113420949" lon="0.9233948441682107"><ele>134.0</ele><time>2026-04-24T16:13:15Z</time></trkpt><trkpt lat="44.551587288169316" lon="0.9233200674868186"><ele>133.0</ele><time>2026-04-24T16:13:16Z</time></trkpt><trkpt lat="44.551636451259334" lon="0.9232267727999696"><ele>132.0</ele><time>2026-04-24T16:13:17Z</time></trkpt><trkpt lat="44.551672395859356" lon="0.9231305010233491"><ele>131.0</ele><time>2026-04-24T16:13:18Z</time></trkpt><trkpt lat="44.551723901516006" lon="0.923031774454458"><ele>130.0</ele><time>2026-04-24T16:13:19Z</time></trkpt><trkpt lat="44.55177590800212" lon="0.9229547391859134"><ele>129.0</ele><time>2026-04-24T16:13:20Z</time></trkpt><trkpt lat="44.551828760036564" lon="0.9228486256256886"><ele>129.0</ele><time>2026-04-24T16:13:21Z</time></trkpt><trkpt lat="44.55187252703731" lon="0.922734896598293"><ele>129.0</ele><time>2026-04-24T16:13:22Z</time></trkpt><trkpt lat="44.55191063584263" lon="0.9226530349724068"><ele>129.0</ele><time>2026-04-24T16:13:23Z</time></trkpt><trkpt lat="44.551958590436676" lon="0.9225683700482674"><ele>129.0</ele><time>2026-04-24T16:13:24Z</time></trkpt><trkpt lat="44.55203138975554" lon="0.9224797298886327"><ele>129.0</ele><time>2026-04-24T16:13:25Z</time></trkpt><trkpt lat="44.55212570850847" lon="0.9223993768002728"><ele>129.0</ele><time>2026-04-24T16:13:26Z</time></trkpt><trkpt lat="44.552242817884256" lon="0.9223349685966957"><ele>129.5</ele><time>2026-04-24T16:13:27Z</time></trkpt><trkpt lat="44.55235550369149" lon="0.922264982947973"><ele>130.0</ele><time>2026-04-24T16:13:28Z</time></trkpt><trkpt lat="44.55244850887153" lon="0.922192618846218"><ele>130.5</ele><time>2026-04-24T16:13:29Z</time></trkpt><trkpt lat="44.55250394001906" lon="0.9221371238159102"><ele>131.0</ele><time>2026-04-24T16:13:30Z</time></trkpt><trkpt lat="44.55256121149534" lon="0.922092754036516"><ele>131.5</ele><time>2026-04-24T16:13:32.999Z</time></trkpt><trkpt lat="44.55250649627719" lon="0.9221527637968511"><ele>132.0</ele><time>2026-04-24T16:13:54.999Z</time></trkpt><trkpt lat="44.552382493095486" lon="0.9222457052062963"><ele>132.0</ele><time>2026-04-24T16:15:43Z</time></trkpt><trkpt lat="44.552324169928276" lon="0.9222834224366132"><ele>132.0</ele><time>2026-04-24T16:15:46Z</time></trkpt><trkpt lat="44.552248314412346" lon="0.922331495869912"><ele>132.0</ele><time>2026-04-24T16:15:49Z</time></trkpt><trkpt lat="44.55217922178769" lon="0.922375147705664"><ele>132.0</ele><time>2026-04-24T16:15:51Z</time></trkpt><trkpt lat="44.552112243705274" lon="0.9224022733463174"><ele>132.0</ele><time>2026-04-24T16:15:53Z</time></trkpt><trkpt lat="44.552062900187295" lon="0.9224585410165658"><ele>132.0</ele><time>2026-04-24T16:15:55Z</time></trkpt><trkpt lat="44.55197956810749" lon="0.9225386150877286"><ele>131.5</ele><time>2026-04-24T16:15:58Z</time></trkpt><trkpt lat="44.551913708597915" lon="0.9226431719889314"><ele>131.0</ele><time>2026-04-24T16:16:00Z</time></trkpt><trkpt lat="44.55187385352322" lon="0.9227279255076888"><ele>130.5</ele><time>2026-04-24T16:16:01Z</time></trkpt><trkpt lat="44.55182775388336" lon="0.9228352785083495"><ele>130.0</ele><time>2026-04-24T16:16:02Z</time></trkpt><trkpt lat="44.551796203367964" lon="0.922936355347767"><ele>129.5</ele><time>2026-04-24T16:16:03Z</time></trkpt><trkpt lat="44.55171372258622" lon="0.9230354887776246"><ele>129.0</ele><time>2026-04-24T16:16:04Z</time></trkpt><trkpt lat="44.55167479645641" lon="0.9231521823238633"><ele>129.0</ele><time>2026-04-24T16:16:05Z</time></trkpt><trkpt lat="44.55161331656733" lon="0.923272614799836"><ele>129.0</ele><time>2026-04-24T16:16:06Z</time></trkpt><trkpt lat="44.55155114260034" lon="0.9233958204539494"><ele>129.0</ele><time>2026-04-24T16:16:07Z</time></trkpt><trkpt lat="44.551518842100386" lon="0.9234893744110668"><ele>129.0</ele><time>2026-04-24T16:16:08Z</time></trkpt><trkpt lat="44.55149740672242" lon="0.9235931066469598"><ele>129.0</ele><time>2026-04-24T16:16:09Z</time></trkpt><trkpt lat="44.551481125892316" lon="0.9237260934037488"><ele>130.5</ele><time>2026-04-24T16:16:10Z</time></trkpt><trkpt lat="44.55146568607373" lon="0.9238888690710294"><ele>132.0</ele><time>2026-04-24T16:16:11Z</time></trkpt><trkpt lat="44.551453982485775" lon="0.9240690987258362"><ele>133.5</ele><time>2026-04-24T16:16:12Z</time></trkpt><trkpt lat="44.551439510111905" lon="0.9242530937078718"><ele>135.0</ele><time>2026-04-24T16:16:13Z</time></trkpt><trkpt lat="44.551410504530146" lon="0.9244450372099732"><ele>135.33333333333334</ele><time>2026-04-24T16:16:14Z</time></trkpt><trkpt lat="44.551383496793314" lon="0.9246486871623799"><ele>135.66666666666669</ele><time>2026-04-24T16:16:15Z</time></trkpt><trkpt lat="44.55135705325902" lon="0.9248557082850645"><ele>136.0</ele><time>2026-04-24T16:16:16Z</time></trkpt><trkpt lat="44.55133296702869" lon="0.9250727460553159"><ele>135.5</ele><time>2026-04-24T16:16:17Z</time></trkpt><trkpt lat="44.551294567705064" lon="0.9252974123293694"><ele>135.0</ele><time>2026-04-24T16:16:18Z</time></trkpt><trkpt lat="44.55128430386681" lon="0.9254673308257814"><ele>134.5</ele><time>2026-04-24T16:16:19Z</time></trkpt><trkpt lat="44.55127417308666" lon="0.9256204216911131"><ele>134.0</ele><time>2026-04-24T16:16:20Z</time></trkpt><trkpt lat="44.551265453552766" lon="0.9257459773744663"><ele>134.0</ele><time>2026-04-24T16:16:21Z</time></trkpt><trkpt lat="44.55125019728505" lon="0.9258744864698425"><ele>134.0</ele><time>2026-04-24T16:16:23Z</time></trkpt><trkpt lat="44.551262661933514" lon="0.9257797993093919"><ele>134.0</ele><time>2026-04-24T16:16:42Z</time></trkpt><trkpt lat="44.55127216534859" lon="0.9256774657819355"><ele>134.0</ele><time>2026-04-24T16:16:46Z</time></trkpt><trkpt lat="44.55125644751682" lon="0.9258063523926102"><ele>134.0</ele><time>2026-04-24T16:17:25Z</time></trkpt><trkpt lat="44.55124699446016" lon="0.9259222345428095"><ele>134.0</ele><time>2026-04-24T16:17:27Z</time></trkpt><trkpt lat="44.55121959199459" lon="0.9260336881764606"><ele>132.8</ele><time>2026-04-24T16:17:30Z</time></trkpt><trkpt lat="44.55120865203173" lon="0.9261440333195804"><ele>131.60000000000002</ele><time>2026-04-24T16:17:35Z</time></trkpt><trkpt lat="44.55117631116729" lon="0.9262510716149406"><ele>130.4</ele><time>2026-04-24T16:17:37Z</time></trkpt><trkpt lat="44.55113891183857" lon="0.9264085387693667"><ele>129.20000000000002</ele><time>2026-04-24T16:17:39Z</time></trkpt><trkpt lat="44.55108898910046" lon="0.9265592111982632"><ele>128.0</ele><time>2026-04-24T16:17:41Z</time></trkpt><trkpt lat="44.55102439818092" lon="0.9267247210345262"><ele>126.99999999999999</ele><time>2026-04-24T16:17:43Z</time></trkpt><trkpt lat="44.55096690811657" lon="0.9268757248170458"><ele>126.0</ele><time>2026-04-24T16:17:45Z</time></trkpt><trkpt lat="44.55093061838986" lon="0.9269502532309426"><ele>125.0</ele><time>2026-04-24T16:17:46Z</time></trkpt><trkpt lat="44.5508832337924" lon="0.9270171259085848"><ele>124.0</ele><time>2026-04-24T16:17:47Z</time></trkpt><trkpt lat="44.55083006916531" lon="0.9271665445089914"><ele>122.99999999999999</ele><time>2026-04-24T16:17:49Z</time></trkpt><trkpt lat="44.55079439963461" lon="0.9272393669623226"><ele>122.0</ele><time>2026-04-24T16:17:50Z</time></trkpt><trkpt lat="44.5507643115387" lon="0.9273204728672257"><ele>121.99999999999999</ele><time>2026-04-24T16:17:51Z</time></trkpt><trkpt lat="44.55072346058545" lon="0.9273889787828862"><ele>122.0</ele><time>2026-04-24T16:17:52Z</time></trkpt><trkpt lat="44.550703037656746" lon="0.9274880133719041"><ele>121.99999999999999</ele><time>2026-04-24T16:17:53Z</time></trkpt><trkpt lat="44.550668566272634" lon="0.9275642426566554"><ele>121.99999999999999</ele><time>2026-04-24T16:17:54Z</time></trkpt><trkpt lat="44.55063257892767" lon="0.9276425452470696"><ele>122.0</ele><time>2026-04-24T16:17:55Z</time></trkpt><trkpt lat="44.55061675175893" lon="0.9277286048194929"><ele>121.99999999999999</ele><time>2026-04-24T16:17:56Z</time></trkpt><trkpt lat="44.55059098772167" lon="0.927818130106336"><ele>121.99999999999999</ele><time>2026-04-24T16:17:57Z</time></trkpt><trkpt lat="44.550558403000664" lon="0.9279368430926652"><ele>121.99999999999999</ele><time>2026-04-24T16:17:59Z</time></trkpt><trkpt lat="44.55051656281606" lon="0.9280208466874605"><ele>122.0</ele><time>2026-04-24T16:18:03Z</time></trkpt><trkpt lat="44.550492411851316" lon="0.9281026724491274"><ele>121.99999999999999</ele><time>2026-04-24T16:18:12Z</time></trkpt><trkpt lat="44.55047542812017" lon="0.928196052254457"><ele>121.99999999999999</ele><time>2026-04-24T16:18:15Z</time></trkpt><trkpt lat="44.5504435521472" lon="0.9283243816077896"><ele>122.0</ele><time>2026-04-24T16:18:17Z</time></trkpt><trkpt lat="44.55042944310737" lon="0.9284203467676823"><ele>121.99999999999999</ele><time>2026-04-24T16:18:20Z</time></trkpt><trkpt lat="44.550397547686046" lon="0.9285044717146548"><ele>121.99999999999999</ele><time>2026-04-24T16:18:26Z</time></trkpt><trkpt lat="44.55034977451081" lon="0.9285879909729221"><ele>121.99999999999999</ele><time>2026-04-24T16:18:32Z</time></trkpt><trkpt lat="44.55033217010097" lon="0.928684155348944"><ele>122.0</ele><time>2026-04-24T16:18:39Z</time></trkpt><trkpt lat="44.550295952261216" lon="0.9287605935055426"><ele>122.0</ele><time>2026-04-24T16:18:44Z</time></trkpt><trkpt lat="44.55026670136201" lon="0.928879863256792"><ele>122.0</ele><time>2026-04-24T16:18:49Z</time></trkpt><trkpt lat="44.55022536490097" lon="0.9289571654596426"><ele>121.99999999999999</ele><time>2026-04-24T16:18:52Z</time></trkpt><trkpt lat="44.550201438441995" lon="0.9290401759909185"><ele>122.0</ele><time>2026-04-24T16:18:58Z</time></trkpt><trkpt lat="44.55027035558399" lon="0.9289464418822752"><ele>122.0</ele><time>2026-04-24T16:19:01Z</time></trkpt><trkpt lat="44.55029232520723" lon="0.9288198165658207"><ele>121.99999999999999</ele><time>2026-04-24T16:19:03Z</time></trkpt><trkpt lat="44.5503318009122" lon="0.9287127831293822"><ele>121.99999999999999</ele><time>2026-04-24T16:19:04Z</time></trkpt><trkpt lat="44.55038020387891" lon="0.9285970815226883"><ele>122.0</ele><time>2026-04-24T16:19:05Z</time></trkpt><trkpt lat="44.550424557145035" lon="0.9285055999049809"><ele>122.0</ele><time>2026-04-24T16:19:06Z</time></trkpt><trkpt lat="44.55048103585714" lon="0.9283888704407817"><ele>121.99999999999999</ele><time>2026-04-24T16:19:08Z</time></trkpt><trkpt lat="44.55044842806012" lon="0.928466188135298"><ele>122.0</ele><time>2026-04-24T16:20:06Z</time></trkpt><trkpt lat="44.55040565866234" lon="0.9285523542894386"><ele>122.0</ele><time>2026-04-24T16:20:07Z</time></trkpt><trkpt lat="44.5503444046522" lon="0.9287030922868982"><ele>122.0</ele><time>2026-04-24T16:20:09Z</time></trkpt><trkpt lat="44.55028538561843" lon="0.9287682507751744"><ele>121.99999999999999</ele><time>2026-04-24T16:20:10Z</time></trkpt><trkpt lat="44.5502497381639" lon="0.9288550906152878"><ele>122.0</ele><time>2026-04-24T16:20:11Z</time></trkpt><trkpt lat="44.55021002709205" lon="0.9289489972166705"><ele>121.99999999999999</ele><time>2026-04-24T16:20:12Z</time></trkpt><trkpt lat="44.550170993332905" lon="0.9290501862853929"><ele>122.0</ele><time>2026-04-24T16:20:13Z</time></trkpt><trkpt lat="44.55013507821028" lon="0.9291530018025816"><ele>122.0</ele><time>2026-04-24T16:20:14Z</time></trkpt><trkpt lat="44.550096730229924" lon="0.9292606832403856"><ele>122.0</ele><time>2026-04-24T16:20:15Z</time></trkpt><trkpt lat="44.550058103846865" lon="0.9293723875853962"><ele>121.99999999999999</ele><time>2026-04-24T16:20:16Z</time></trkpt><trkpt lat="44.55001412330046" lon="0.9294817109936423"><ele>122.0</ele><time>2026-04-24T16:20:17Z</time></trkpt><trkpt lat="44.54996371624526" lon="0.9296006938228547"><ele>122.6</ele><time>2026-04-24T16:20:18Z</time></trkpt><trkpt lat="44.549910577134575" lon="0.92971043657878"><ele>123.19999999999999</ele><time>2026-04-24T16:20:19Z</time></trkpt><trkpt lat="44.54984138785126" lon="0.9298054121702444"><ele>123.8</ele><time>2026-04-24T16:20:20Z</time></trkpt><trkpt lat="44.5497883422026" lon="0.9299262627969385"><ele>124.4</ele><time>2026-04-24T16:20:21Z</time></trkpt><trkpt lat="44.549718604419965" lon="0.9300243550887327"><ele>125.0</ele><time>2026-04-24T16:20:22Z</time></trkpt><trkpt lat="44.549661247351565" lon="0.9301146227735606"><ele>125.33333333333333</ele><time>2026-04-24T16:20:23Z</time></trkpt><trkpt lat="44.549610202545146" lon="0.930197002277119"><ele>125.66666666666666</ele><time>2026-04-24T16:20:24Z</time></trkpt><trkpt lat="44.54956640683751" lon="0.9302868813912603"><ele>126.0</ele><time>2026-04-24T16:20:25Z</time></trkpt><trkpt lat="44.54952485727611" lon="0.930369911050816"><ele>126.33333333333334</ele><time>2026-04-24T16:20:26Z</time></trkpt><trkpt lat="44.54949049849206" lon="0.9304627087739121"><ele>126.66666666666667</ele><time>2026-04-24T16:20:27Z</time></trkpt><trkpt lat="44.54945258888732" lon="0.9305549802985797"><ele>127.0</ele><time>2026-04-24T16:20:28Z</time></trkpt><trkpt lat="44.5494233592163" lon="0.9306558103123697"><ele>125.6</ele><time>2026-04-24T16:20:29Z</time></trkpt><trkpt lat="44.54939512665426" lon="0.9307764727597594"><ele>124.19999999999999</ele><time>2026-04-24T16:20:30Z</time></trkpt><trkpt lat="44.549351672095575" lon="0.9308914647416344"><ele>122.8</ele><time>2026-04-24T16:20:31Z</time></trkpt><trkpt lat="44.549298591237005" lon="0.9310008935100383"><ele>121.4</ele><time>2026-04-24T16:20:32Z</time></trkpt><trkpt lat="44.549245866939295" lon="0.9311131504200107"><ele>120.0</ele><time>2026-04-24T16:20:33Z</time></trkpt><trkpt lat="44.54917527421222" lon="0.9312127451229766"><ele>120.0</ele><time>2026-04-24T16:20:34Z</time></trkpt><trkpt lat="44.5491218270003" lon="0.9313251352439037"><ele>120.0</ele><time>2026-04-24T16:20:35Z</time></trkpt><trkpt lat="44.549039026157935" lon="0.9313946757769376"><ele>120.0</ele><time>2026-04-24T16:20:36Z</time></trkpt><trkpt lat="44.5489758064524" lon="0.9314929866784397"><ele>120.0</ele><time>2026-04-24T16:20:37Z</time></trkpt><trkpt lat="44.54889415952794" lon="0.931560094970909"><ele>120.0</ele><time>2026-04-24T16:20:38Z</time></trkpt><trkpt lat="44.548821995489256" lon="0.9316340595789641"><ele>120.0</ele><time>2026-04-24T16:20:39Z</time></trkpt><trkpt lat="44.548742064327215" lon="0.931705422598363"><ele>120.0</ele><time>2026-04-24T16:20:40Z</time></trkpt><trkpt lat="44.54867584021565" lon="0.93176812679753"><ele>120.0</ele><time>2026-04-24T16:20:41Z</time></trkpt><trkpt lat="44.548617092858585" lon="0.9318283769899123"><ele>120.0</ele><time>2026-04-24T16:20:42Z</time></trkpt><trkpt lat="44.54856582638763" lon="0.9318816143297363"><ele>120.0</ele><time>2026-04-24T16:20:43Z</time></trkpt><trkpt lat="44.54851113057409" lon="0.9319445707984664"><ele>120.0</ele><time>2026-04-24T16:20:44Z</time></trkpt><trkpt lat="44.54844780767835" lon="0.9320156887239639"><ele>120.0</ele><time>2026-04-24T16:20:45Z</time></trkpt><trkpt lat="44.5483834773818" lon="0.9320923821552547"><ele>120.0</ele><time>2026-04-24T16:20:46Z</time></trkpt><trkpt lat="44.54831951294812" lon="0.932155514209892"><ele>120.0</ele><time>2026-04-24T16:20:47Z</time></trkpt><trkpt lat="44.54824739247697" lon="0.9322310075459154"><ele>120.0</ele><time>2026-04-24T16:20:48Z</time></trkpt><trkpt lat="44.548180186133216" lon="0.9323148610477351"><ele>120.0</ele><time>2026-04-24T16:20:49Z</time></trkpt><trkpt lat="44.548106513219075" lon="0.9323942591157263"><ele>120.0</ele><time>2026-04-24T16:20:50Z</time></trkpt><trkpt lat="44.54804085721932" lon="0.9324852905617576"><ele>120.8</ele><time>2026-04-24T16:20:51Z</time></trkpt><trkpt lat="44.547967062797895" lon="0.9325797240663264"><ele>121.6</ele><time>2026-04-24T16:20:52Z</time></trkpt><trkpt lat="44.54789598272208" lon="0.9326700642622394"><ele>122.4</ele><time>2026-04-24T16:20:53Z</time></trkpt><trkpt lat="44.54782021211779" lon="0.9327607110594804"><ele>123.2</ele><time>2026-04-24T16:20:54Z</time></trkpt><trkpt lat="44.54774634582136" lon="0.9328584462829769"><ele>124.0</ele><time>2026-04-24T16:20:55Z</time></trkpt><trkpt lat="44.54767303066722" lon="0.9329505672688756"><ele>123.0</ele><time>2026-04-24T16:20:56Z</time></trkpt><trkpt lat="44.547596984727306" lon="0.9330438350886008"><ele>122.0</ele><time>2026-04-24T16:20:57Z</time></trkpt><trkpt lat="44.54752055532661" lon="0.9331336548089197"><ele>121.0</ele><time>2026-04-24T16:20:58Z</time></trkpt><trkpt lat="44.547445696963806" lon="0.9332283090753656"><ele>120.0</ele><time>2026-04-24T16:20:59Z</time></trkpt><trkpt lat="44.547364966244785" lon="0.9333124312622123"><ele>119.0</ele><time>2026-04-24T16:21:00Z</time></trkpt><trkpt lat="44.547290482424444" lon="0.9334182401768434"><ele>119.0</ele><time>2026-04-24T16:21:01Z</time></trkpt><trkpt lat="44.54721535651869" lon="0.933508608615006"><ele>119.0</ele><time>2026-04-24T16:21:02Z</time></trkpt><trkpt lat="44.5471382321199" lon="0.9335983716437447"><ele>119.0</ele><time>2026-04-24T16:21:03Z</time></trkpt><trkpt lat="44.5470627273046" lon="0.9336962926794367"><ele>119.0</ele><time>2026-04-24T16:21:04Z</time></trkpt><trkpt lat="44.54697927746314" lon="0.9337864117536998"><ele>119.0</ele><time>2026-04-24T16:21:05Z</time></trkpt><trkpt lat="44.546900603992235" lon="0.9338814190544175"><ele>118.4</ele><time>2026-04-24T16:21:06Z</time></trkpt><trkpt lat="44.546826110133416" lon="0.9339775908034528"><ele>117.80000000000001</ele><time>2026-04-24T16:21:07Z</time></trkpt><trkpt lat="44.546744816532716" lon="0.9340611615304668"><ele>117.19999999999999</ele><time>2026-04-24T16:21:08Z</time></trkpt><trkpt lat="44.546670040571684" lon="0.9341477007896725"><ele>116.6</ele><time>2026-04-24T16:21:09Z</time></trkpt><trkpt lat="44.54659289005195" lon="0.9342416966227647"><ele>116.0</ele><time>2026-04-24T16:21:10Z</time></trkpt><trkpt lat="44.54651952897251" lon="0.9343365836550548"><ele>116.0</ele><time>2026-04-24T16:21:11Z</time></trkpt><trkpt lat="44.54645209600655" lon="0.9344253132710408"><ele>116.0</ele><time>2026-04-24T16:21:12Z</time></trkpt><trkpt lat="44.54637706217355" lon="0.9345151510495405"><ele>116.0</ele><time>2026-04-24T16:21:13Z</time></trkpt><trkpt lat="44.546306615872" lon="0.9346078400314182"><ele>116.0</ele><time>2026-04-24T16:21:14Z</time></trkpt><trkpt lat="44.54622633224171" lon="0.934689383739286"><ele>116.0</ele><time>2026-04-24T16:21:15Z</time></trkpt><trkpt lat="44.54615126840305" lon="0.9347886341227174"><ele>115.8</ele><time>2026-04-24T16:21:16Z</time></trkpt><trkpt lat="44.54608115793375" lon="0.9348867366983223"><ele>115.6</ele><time>2026-04-24T16:21:17Z</time></trkpt><trkpt lat="44.546005750781056" lon="0.9349786142937481"><ele>115.4</ele><time>2026-04-24T16:21:18Z</time></trkpt><trkpt lat="44.54592798975662" lon="0.93506459875592"><ele>115.2</ele><time>2026-04-24T16:21:19Z</time></trkpt><trkpt lat="44.54584488941411" lon="0.9351509157253803"><ele>115.0</ele><time>2026-04-24T16:21:20Z</time></trkpt><trkpt lat="44.545756693580984" lon="0.9352382431941851"><ele>115.0</ele><time>2026-04-24T16:21:21Z</time></trkpt><trkpt lat="44.54566140309632" lon="0.9353201471001173"><ele>115.0</ele><time>2026-04-24T16:21:22Z</time></trkpt><trkpt lat="44.54555675113621" lon="0.9353958415218541"><ele>115.0</ele><time>2026-04-24T16:21:23Z</time></trkpt><trkpt lat="44.54544882993623" lon="0.9354613501830426"><ele>115.0</ele><time>2026-04-24T16:21:24Z</time></trkpt><trkpt lat="44.54534106638876" lon="0.9355312170250287"><ele>113.5</ele><time>2026-04-24T16:21:25Z</time></trkpt><trkpt lat="44.5452303031538" lon="0.935591801190965"><ele>112.0</ele><time>2026-04-24T16:21:26Z</time></trkpt><trkpt lat="44.54512215407312" lon="0.9356590240043384"><ele>110.5</ele><time>2026-04-24T16:21:27Z</time></trkpt><trkpt lat="44.54501623388613" lon="0.9357321402400629"><ele>109.0</ele><time>2026-04-24T16:21:28Z</time></trkpt><trkpt lat="44.54490763144965" lon="0.9357981076271541"><ele>109.0</ele><time>2026-04-24T16:21:29Z</time></trkpt><trkpt lat="44.544796300014866" lon="0.935864123856184"><ele>109.0</ele><time>2026-04-24T16:21:30Z</time></trkpt><trkpt lat="44.54467842694457" lon="0.9359231042753298"><ele>109.0</ele><time>2026-04-24T16:21:31Z</time></trkpt><trkpt lat="44.544556156323864" lon="0.9359526977297133"><ele>109.0</ele><time>2026-04-24T16:21:32Z</time></trkpt><trkpt lat="44.54443722338302" lon="0.9359809006151953"><ele>112.75</ele><time>2026-04-24T16:21:33Z</time></trkpt><trkpt lat="44.544316295869784" lon="0.9359964224567325"><ele>116.5</ele><time>2026-04-24T16:21:34Z</time></trkpt><trkpt lat="44.54419327594033" lon="0.9360224707124567"><ele>120.25</ele><time>2026-04-24T16:21:35Z</time></trkpt><trkpt lat="44.54406574487731" lon="0.9359903791319613"><ele>124.0</ele><time>2026-04-24T16:21:36Z</time></trkpt><trkpt lat="44.543951413982626" lon="0.935960035331906"><ele>124.0</ele><time>2026-04-24T16:21:37Z</time></trkpt><trkpt lat="44.543843900878784" lon="0.9359076230810321"><ele>124.0</ele><time>2026-04-24T16:21:38Z</time></trkpt><trkpt lat="44.54375345624326" lon="0.9358356474415337"><ele>124.0</ele><time>2026-04-24T16:21:39Z</time></trkpt><trkpt lat="44.543646926481316" lon="0.9357471756779594"><ele>124.0</ele><time>2026-04-24T16:21:40Z</time></trkpt><trkpt lat="44.54354787206685" lon="0.9356725943482458"><ele>123.16666666666667</ele><time>2026-04-24T16:21:41Z</time></trkpt><trkpt lat="44.543466852926976" lon="0.9356197395162715"><ele>122.33333333333334</ele><time>2026-04-24T16:21:42Z</time></trkpt><trkpt lat="44.54338538107663" lon="0.9356044799161614"><ele>121.5</ele><time>2026-04-24T16:21:43Z</time></trkpt><trkpt lat="44.54330380943303" lon="0.9355667799981431"><ele>120.66666666666666</ele><time>2026-04-24T16:21:44Z</time></trkpt><trkpt lat="44.54324009046989" lon="0.9355569685753576"><ele>119.83333333333333</ele><time>2026-04-24T16:21:45Z</time></trkpt><trkpt lat="44.54316469026812" lon="0.935582569588276"><ele>119.0</ele><time>2026-04-24T16:21:48Z</time></trkpt><trkpt lat="44.5430894308505" lon="0.9359450235718358"><ele>119.0</ele><time>2026-04-24T16:21:49Z</time></trkpt><trkpt lat="44.54298684288891" lon="0.9359980745996845"><ele>119.0</ele><time>2026-04-24T16:21:50Z</time></trkpt><trkpt lat="44.5428808644296" lon="0.9360315500587801"><ele>119.0</ele><time>2026-04-24T16:21:51Z</time></trkpt><trkpt lat="44.54276856699371" lon="0.9360728456019524"><ele>119.0</ele><time>2026-04-24T16:21:52Z</time></trkpt><trkpt lat="44.542653986793994" lon="0.9361372530612144"><ele>121.0</ele><time>2026-04-24T16:21:53Z</time></trkpt><trkpt lat="44.54252927430335" lon="0.9361741298399826"><ele>123.0</ele><time>2026-04-24T16:21:54Z</time></trkpt><trkpt lat="44.542394719216745" lon="0.9362074957852281"><ele>125.0</ele><time>2026-04-24T16:21:55Z</time></trkpt><trkpt lat="44.54227648386428" lon="0.9362413475851317"><ele>127.0</ele><time>2026-04-24T16:21:56Z</time></trkpt><trkpt lat="44.5421897971936" lon="0.9362915479396816"><ele>127.0</ele><time>2026-04-24T16:21:57Z</time></trkpt><trkpt lat="44.54212513444396" lon="0.9363877175561934"><ele>127.0</ele><time>2026-04-24T16:21:58Z</time></trkpt><trkpt lat="44.5420582944142" lon="0.9365115364149029"><ele>127.0</ele><time>2026-04-24T16:21:59Z</time></trkpt><trkpt lat="44.541972475547844" lon="0.9366359464013583"><ele>127.0</ele><time>2026-04-24T16:22:00Z</time></trkpt><trkpt lat="44.54188738081364" lon="0.9367621139369166"><ele>129.0</ele><time>2026-04-24T16:22:01Z</time></trkpt><trkpt lat="44.541793039332696" lon="0.9368728894343749"><ele>131.0</ele><time>2026-04-24T16:22:02Z</time></trkpt><trkpt lat="44.54168769080142" lon="0.9369857376604781"><ele>133.0</ele><time>2026-04-24T16:22:03Z</time></trkpt><trkpt lat="44.54157842819383" lon="0.9371304404980929"><ele>135.0</ele><time>2026-04-24T16:22:04Z</time></trkpt><trkpt lat="44.5414875841748" lon="0.9372819366476688"><ele>135.0</ele><time>2026-04-24T16:22:05Z</time></trkpt><trkpt lat="44.54139218144919" lon="0.9374333334668667"><ele>135.0</ele><time>2026-04-24T16:22:06Z</time></trkpt><trkpt lat="44.54130868073412" lon="0.9376037092097071"><ele>135.0</ele><time>2026-04-24T16:22:07Z</time></trkpt><trkpt lat="44.54122580677675" lon="0.9377610029322679"><ele>135.0</ele><time>2026-04-24T16:22:08Z</time></trkpt><trkpt lat="44.54113968229387" lon="0.9378760297821385"><ele>137.5</ele><time>2026-04-24T16:22:09Z</time></trkpt><trkpt lat="44.541049205319744" lon="0.9379610932803025"><ele>140.0</ele><time>2026-04-24T16:22:10Z</time></trkpt><trkpt lat="44.540937127820946" lon="0.9380013305646893"><ele>142.5</ele><time>2026-04-24T16:22:11Z</time></trkpt><trkpt lat="44.54080157891592" lon="0.9380284729695756"><ele>145.0</ele><time>2026-04-24T16:22:12Z</time></trkpt><trkpt lat="44.540673168112406" lon="0.9380688598189769"><ele>145.0</ele><time>2026-04-24T16:22:13Z</time></trkpt><trkpt lat="44.540567264604704" lon="0.9381324898020315"><ele>145.0</ele><time>2026-04-24T16:22:14Z</time></trkpt><trkpt lat="44.540497194617835" lon="0.9381947189621777"><ele>145.0</ele><time>2026-04-24T16:22:15Z</time></trkpt><trkpt lat="44.54046963026933" lon="0.9383114248572401"><ele>145.0</ele><time>2026-04-24T16:22:16Z</time></trkpt><trkpt lat="44.54043386954471" lon="0.9384684710220669"><ele>145.0</ele><time>2026-04-24T16:22:17Z</time></trkpt><trkpt lat="44.54039428621313" lon="0.9386402449265517"><ele>144.5</ele><time>2026-04-24T16:22:18Z</time></trkpt><trkpt lat="44.54035389876611" lon="0.9388049636482962"><ele>144.0</ele><time>2026-04-24T16:22:19Z</time></trkpt><trkpt lat="44.540307147510845" lon="0.9389863601151108"><ele>143.5</ele><time>2026-04-24T16:22:20Z</time></trkpt><trkpt lat="44.54025710407216" lon="0.9391778558333128"><ele>143.0</ele><time>2026-04-24T16:22:21Z</time></trkpt><trkpt lat="44.54020402642701" lon="0.9393373156044811"><ele>143.0</ele><time>2026-04-24T16:22:22Z</time></trkpt><trkpt lat="44.54016304455198" lon="0.9395153257526477"><ele>143.0</ele><time>2026-04-24T16:22:23Z</time></trkpt><trkpt lat="44.54015163769243" lon="0.9396714863071329"><ele>143.0</ele><time>2026-04-24T16:22:24Z</time></trkpt><trkpt lat="44.54013634738773" lon="0.9398441113314214"><ele>143.0</ele><time>2026-04-24T16:22:25Z</time></trkpt><trkpt lat="44.54014363368768" lon="0.9400514864193726"><ele>140.66666666666666</ele><time>2026-04-24T16:22:26Z</time></trkpt><trkpt lat="44.54017047235872" lon="0.9402888922129193"><ele>138.33333333333334</ele><time>2026-04-24T16:22:27Z</time></trkpt><trkpt lat="44.54018992449377" lon="0.9405495482963169"><ele>136.0</ele><time>2026-04-24T16:22:28Z</time></trkpt><trkpt lat="44.54019906922241" lon="0.9407881763251491"><ele>133.66666666666669</ele><time>2026-04-24T16:22:29Z</time></trkpt><trkpt lat="44.54021050108343" lon="0.941034474983707"><ele>131.33333333333334</ele><time>2026-04-24T16:22:30Z</time></trkpt><trkpt lat="44.540225405721905" lon="0.941256346367794"><ele>129.0</ele><time>2026-04-24T16:22:31Z</time></trkpt><trkpt lat="44.540229657143215" lon="0.9414672517007646"><ele>129.0</ele><time>2026-04-24T16:22:32Z</time></trkpt><trkpt lat="44.54023569243563" lon="0.9416619575326662"><ele>129.0</ele><time>2026-04-24T16:22:33Z</time></trkpt><trkpt lat="44.54023552434218" lon="0.9418433907090974"><ele>129.0</ele><time>2026-04-24T16:22:34Z</time></trkpt><trkpt lat="44.540240161084284" lon="0.9420154720073719"><ele>129.0</ele><time>2026-04-24T16:22:35Z</time></trkpt><trkpt lat="44.54023581256937" lon="0.9421600063709554"><ele>127.0</ele><time>2026-04-24T16:22:36Z</time></trkpt><trkpt lat="44.5402225315033" lon="0.9423056849561683"><ele>125.0</ele><time>2026-04-24T16:22:37Z</time></trkpt><trkpt lat="44.54021114963095" lon="0.9424459467430377"><ele>123.0</ele><time>2026-04-24T16:22:38Z</time></trkpt><trkpt lat="44.540202219642445" lon="0.9425663672362655"><ele>121.0</ele><time>2026-04-24T16:22:39Z</time></trkpt><trkpt lat="44.54019329039834" lon="0.9426664110864708"><ele>119.0</ele><time>2026-04-24T16:22:40Z</time></trkpt><trkpt lat="44.54018528701024" lon="0.9428055450904728"><ele>117.16666666666666</ele><time>2026-04-24T16:22:42Z</time></trkpt><trkpt lat="44.540172482787916" lon="0.9429130400939146"><ele>115.33333333333333</ele><time>2026-04-24T16:22:45Z</time></trkpt><trkpt lat="44.54009669550441" lon="0.9429340327775948"><ele>113.5</ele><time>2026-04-24T16:22:51Z</time></trkpt><trkpt lat="44.54001286354328" lon="0.942907345442318"><ele>111.66666666666666</ele><time>2026-04-24T16:22:54Z</time></trkpt><trkpt lat="44.53994526312816" lon="0.9429181887177263"><ele>109.83333333333333</ele><time>2026-04-24T16:22:56Z</time></trkpt><trkpt lat="44.53990154485374" lon="0.9429968939401736"><ele>108.0</ele><time>2026-04-24T16:23:01Z</time></trkpt><trkpt lat="44.53993051782031" lon="0.9430887678918511"><ele>108.0</ele><time>2026-04-24T16:23:04Z</time></trkpt><trkpt lat="44.53996896252964" lon="0.9431842461517214"><ele>108.0</ele><time>2026-04-24T16:23:09Z</time></trkpt><trkpt lat="44.53999167436236" lon="0.9432728864341567"><ele>108.0</ele><time>2026-04-24T16:23:12Z</time></trkpt><trkpt lat="44.540037511491136" lon="0.9434155758277972"><ele>108.0</ele><time>2026-04-24T16:23:14Z</time></trkpt><trkpt lat="44.540062990983884" lon="0.9435140693229976"><ele>108.0</ele><time>2026-04-24T16:23:15Z</time></trkpt><trkpt lat="44.54010012447269" lon="0.9436358810416784"><ele>108.0</ele><time>2026-04-24T16:23:16Z</time></trkpt><trkpt lat="44.54014628880707" lon="0.9437689918970162"><ele>105.80000000000001</ele><time>2026-04-24T16:23:17Z</time></trkpt><trkpt lat="44.540193827868826" lon="0.9438993509091058"><ele>103.60000000000001</ele><time>2026-04-24T16:23:18Z</time></trkpt><trkpt lat="44.54022532594049" lon="0.944017340931848"><ele>101.4</ele><time>2026-04-24T16:23:19Z</time></trkpt><trkpt lat="44.54023248552581" lon="0.9441579719868666"><ele>99.19999999999999</ele><time>2026-04-24T16:23:20Z</time></trkpt><trkpt lat="44.54026768975154" lon="0.9442756312607405"><ele>97.0</ele><time>2026-04-24T16:23:21Z</time></trkpt><trkpt lat="44.54030330302768" lon="0.9443946577118814"><ele>96.19999999999999</ele><time>2026-04-24T16:23:22Z</time></trkpt><trkpt lat="44.54033662059956" lon="0.9444959277572352"><ele>95.4</ele><time>2026-04-24T16:23:23Z</time></trkpt><trkpt lat="44.54036252340901" lon="0.9445841808703604"><ele>94.6</ele><time>2026-04-24T16:23:26Z</time></trkpt><trkpt lat="44.54019127406814" lon="0.9446268411363463"><ele>93.80000000000001</ele><time>2026-04-24T16:23:31Z</time></trkpt><trkpt lat="44.54009234578211" lon="0.944651999172121"><ele>93.0</ele><time>2026-04-24T16:23:33Z</time></trkpt><trkpt lat="44.54001600088385" lon="0.9446672899531263"><ele>93.0</ele><time>2026-04-24T16:23:34Z</time></trkpt><trkpt lat="44.53990791738672" lon="0.9446897691128894"><ele>93.0</ele><time>2026-04-24T16:23:35Z</time></trkpt><trkpt lat="44.53979220846216" lon="0.9447145329974467"><ele>93.0</ele><time>2026-04-24T16:23:36Z</time></trkpt><trkpt lat="44.53966744356283" lon="0.9447407720632491"><ele>93.0</ele><time>2026-04-24T16:23:37Z</time></trkpt><trkpt lat="44.53952381039839" lon="0.9447538086155278"><ele>93.0</ele><time>2026-04-24T16:23:38Z</time></trkpt><trkpt lat="44.539376339759684" lon="0.9447441374586701"><ele>93.0</ele><time>2026-04-24T16:23:39Z</time></trkpt><trkpt lat="44.539240827503555" lon="0.9446987149417312"><ele>93.0</ele><time>2026-04-24T16:23:40Z</time></trkpt><trkpt lat="44.53908725701607" lon="0.9446179619121567"><ele>93.0</ele><time>2026-04-24T16:23:41Z</time></trkpt><trkpt lat="44.53894350472085" lon="0.94453818305245"><ele>93.0</ele><time>2026-04-24T16:23:42Z</time></trkpt><trkpt lat="44.53882259579719" lon="0.94442351406474"><ele>93.0</ele><time>2026-04-24T16:23:43Z</time></trkpt><trkpt lat="44.538696424761234" lon="0.9442887337699968"><ele>93.0</ele><time>2026-04-24T16:23:44Z</time></trkpt><trkpt lat="44.53855398068367" lon="0.9441650915095958"><ele>93.0</ele><time>2026-04-24T16:23:45Z</time></trkpt><trkpt lat="44.538400364160466" lon="0.944074752537926"><ele>93.0</ele><time>2026-04-24T16:23:46Z</time></trkpt><trkpt lat="44.53822416533788" lon="0.9439549797197233"><ele>93.0</ele><time>2026-04-24T16:23:47Z</time></trkpt><trkpt lat="44.538088804928655" lon="0.9438722911815297"><ele>93.0</ele><time>2026-04-24T16:23:48Z</time></trkpt><trkpt lat="44.53792801949097" lon="0.9437676247108405"><ele>93.0</ele><time>2026-04-24T16:23:49Z</time></trkpt><trkpt lat="44.537765590393185" lon="0.9436814974761464"><ele>93.0</ele><time>2026-04-24T16:23:50Z</time></trkpt><trkpt lat="44.537598563195566" lon="0.9436115122079611"><ele>93.0</ele><time>2026-04-24T16:23:51Z</time></trkpt><trkpt lat="44.53744678991436" lon="0.9435362728933243"><ele>93.0</ele><time>2026-04-24T16:23:52Z</time></trkpt><trkpt lat="44.537324131004205" lon="0.9434685615581222"><ele>93.0</ele><time>2026-04-24T16:23:53Z</time></trkpt><trkpt lat="44.53722866634431" lon="0.9433891662932542"><ele>93.0</ele><time>2026-04-24T16:23:54Z</time></trkpt><trkpt lat="44.53713862544162" lon="0.9433206541003583"><ele>93.0</ele><time>2026-04-24T16:23:55Z</time></trkpt><trkpt lat="44.53706664529779" lon="0.943312798552551"><ele>93.0</ele><time>2026-04-24T16:23:56Z</time></trkpt><trkpt lat="44.536964241039044" lon="0.9433754479034531"><ele>93.0</ele><time>2026-04-24T16:23:58Z</time></trkpt><trkpt lat="44.536863170546766" lon="0.9433868585882553"><ele>93.0</ele><time>2026-04-24T16:24:00Z</time></trkpt><trkpt lat="44.53679038691301" lon="0.9433644704916052"><ele>93.0</ele><time>2026-04-24T16:24:02Z</time></trkpt><trkpt lat="44.53668326199851" lon="0.9432418943187754"><ele>93.0</ele><time>2026-04-24T16:24:04Z</time></trkpt><trkpt lat="44.53658244644571" lon="0.9432101906341057"><ele>93.0</ele><time>2026-04-24T16:24:05Z</time></trkpt><trkpt lat="44.53649028593674" lon="0.9431535471428412"><ele>93.0</ele><time>2026-04-24T16:24:06Z</time></trkpt><trkpt lat="44.53641561721812" lon="0.9430882469661586"><ele>93.0</ele><time>2026-04-24T16:24:07Z</time></trkpt><trkpt lat="44.53635790830152" lon="0.9430375186585355"><ele>93.0</ele><time>2026-04-24T16:24:08Z</time></trkpt><trkpt lat="44.536271685989924" lon="0.9429974971518723"><ele>93.0</ele><time>2026-04-24T16:24:09Z</time></trkpt><trkpt lat="44.536189318522105" lon="0.9429664600473686"><ele>93.0</ele><time>2026-04-24T16:24:10Z</time></trkpt><trkpt lat="44.536127014249196" lon="0.9429200866045514"><ele>93.0</ele><time>2026-04-24T16:24:11Z</time></trkpt><trkpt lat="44.5360656579253" lon="0.9428748308253382"><ele>93.0</ele><time>2026-04-24T16:24:12Z</time></trkpt><trkpt lat="44.53596431975873" lon="0.9428008751327622"><ele>92.83333333333333</ele><time>2026-04-24T16:24:14Z</time></trkpt><trkpt lat="44.53589818737012" lon="0.9427656264931881"><ele>92.66666666666667</ele><time>2026-04-24T16:24:17Z</time></trkpt><trkpt lat="44.535822894346644" lon="0.9427505650793266"><ele>92.5</ele><time>2026-04-24T16:24:32Z</time></trkpt><trkpt lat="44.535757874958776" lon="0.9427324341629599"><ele>92.33333333333334</ele><time>2026-04-24T16:24:33Z</time></trkpt><trkpt lat="44.535675589919144" lon="0.9427053683834505"><ele>92.16666666666667</ele><time>2026-04-24T16:24:34Z</time></trkpt><trkpt lat="44.535578991999834" lon="0.9426761951711415"><ele>92.0</ele><time>2026-04-24T16:24:35Z</time></trkpt><trkpt lat="44.53546918585323" lon="0.9426270703640959"><ele>91.8</ele><time>2026-04-24T16:24:36Z</time></trkpt><trkpt lat="44.53537381397537" lon="0.9425855685582878"><ele>91.6</ele><time>2026-04-24T16:24:37Z</time></trkpt><trkpt lat="44.535284216226806" lon="0.9425590608616807"><ele>91.39999999999999</ele><time>2026-04-24T16:24:38Z</time></trkpt><trkpt lat="44.53520771064128" lon="0.9425377340121553"><ele>91.19999999999999</ele><time>2026-04-24T16:24:39Z</time></trkpt><trkpt lat="44.53508900768195" lon="0.9425205059144982"><ele>91.0</ele><time>2026-04-24T16:24:41Z</time></trkpt><trkpt lat="44.53497290112515" lon="0.9424948596322715"><ele>91.0</ele><time>2026-04-24T16:24:43Z</time></trkpt><trkpt lat="44.53493962378798" lon="0.9426335569754035"><ele>91.0</ele><time>2026-04-24T16:24:44Z</time></trkpt><trkpt lat="44.534909151422795" lon="0.942712690567691"><ele>91.0</ele><time>2026-04-24T16:24:45Z</time></trkpt><trkpt lat="44.534917156167445" lon="0.9429005172360958"><ele>91.0</ele><time>2026-04-24T16:24:47Z</time></trkpt><trkpt lat="44.53490218345119" lon="0.943007489992325"><ele>91.0</ele><time>2026-04-24T16:24:48Z</time></trkpt><trkpt lat="44.53502097204677" lon="0.9430941954502627"><ele>91.0</ele><time>2026-04-24T16:24:49Z</time></trkpt><trkpt lat="44.53512194781799" lon="0.9431219542655782"><ele>91.0</ele><time>2026-04-24T16:24:50Z</time></trkpt><trkpt lat="44.53522931988611" lon="0.9431487493679783"><ele>91.0</ele><time>2026-04-24T16:24:51Z</time></trkpt><trkpt lat="44.53534758313836" lon="0.9432158088483621"><ele>91.0</ele><time>2026-04-24T16:24:52Z</time></trkpt><trkpt lat="44.53547081466187" lon="0.9432939722009503"><ele>90.33333333333333</ele><time>2026-04-24T16:24:53Z</time></trkpt><trkpt lat="44.53560367402166" lon="0.943387371939564"><ele>89.66666666666667</ele><time>2026-04-24T16:24:54Z</time></trkpt><trkpt lat="44.53574708064768" lon="0.9434772002836319"><ele>89.0</ele><time>2026-04-24T16:24:55Z</time></trkpt><trkpt lat="44.53589098873373" lon="0.9435872800138747"><ele>89.0</ele><time>2026-04-24T16:24:56Z</time></trkpt><trkpt lat="44.53601862834021" lon="0.9437498596787945"><ele>89.0</ele><time>2026-04-24T16:24:57Z</time></trkpt><trkpt lat="44.53616013667908" lon="0.9439044978400919"><ele>89.0</ele><time>2026-04-24T16:24:58Z</time></trkpt><trkpt lat="44.53630514388912" lon="0.9440580333721732"><ele>90.33333333333334</ele><time>2026-04-24T16:24:59Z</time></trkpt><trkpt lat="44.53646434376276" lon="0.944202753773873"><ele>91.66666666666667</ele><time>2026-04-24T16:25:00Z</time></trkpt><trkpt lat="44.53663639018567" lon="0.9443093641563578"><ele>93.0</ele><time>2026-04-24T16:25:01Z</time></trkpt><trkpt lat="44.53680319687453" lon="0.9443646857886743"><ele>93.0</ele><time>2026-04-24T16:25:02Z</time></trkpt><trkpt lat="44.53694812679648" lon="0.9444091228135867"><ele>93.0</ele><time>2026-04-24T16:25:03Z</time></trkpt><trkpt lat="44.53706655022713" lon="0.9444443588774285"><ele>93.0</ele><time>2026-04-24T16:25:04Z</time></trkpt><trkpt lat="44.53714625340188" lon="0.9445659485326452"><ele>93.0</ele><time>2026-04-24T16:25:05Z</time></trkpt><trkpt lat="44.53721262987731" lon="0.9446933017130449"><ele>92.5</ele><time>2026-04-24T16:25:06Z</time></trkpt><trkpt lat="44.537201162566106" lon="0.9448667302935745"><ele>92.0</ele><time>2026-04-24T16:25:07Z</time></trkpt><trkpt lat="44.537236090404036" lon="0.9450559607964908"><ele>91.5</ele><time>2026-04-24T16:25:08Z</time></trkpt><trkpt lat="44.53725158927231" lon="0.9452538485817169"><ele>91.0</ele><time>2026-04-24T16:25:09Z</time></trkpt><trkpt lat="44.53728962716737" lon="0.945467098376056"><ele>91.0</ele><time>2026-04-24T16:25:10Z</time></trkpt><trkpt lat="44.53732022004112" lon="0.9456906331524899"><ele>91.0</ele><time>2026-04-24T16:25:11Z</time></trkpt><trkpt lat="44.537359353537525" lon="0.9459008494152524"><ele>91.0</ele><time>2026-04-24T16:25:12Z</time></trkpt><trkpt lat="44.53739371685476" lon="0.9460705291744989"><ele>91.0</ele><time>2026-04-24T16:25:13Z</time></trkpt><trkpt lat="44.537418313502776" lon="0.946198809808679"><ele>91.0</ele><time>2026-04-24T16:25:14Z</time></trkpt><trkpt lat="44.53741279510354" lon="0.9463206871753779"><ele>91.0</ele><time>2026-04-24T16:25:16Z</time></trkpt><trkpt lat="44.537327964917694" lon="0.9464076309372697"><ele>91.0</ele><time>2026-04-24T16:25:49Z</time></trkpt><trkpt lat="44.53726493006426" lon="0.9464528855435148"><ele>91.0</ele><time>2026-04-24T16:25:50Z</time></trkpt><trkpt lat="44.53719588653686" lon="0.9465053674501089"><ele>91.0</ele><time>2026-04-24T16:25:51Z</time></trkpt><trkpt lat="44.537120613066584" lon="0.9465596696047313"><ele>91.0</ele><time>2026-04-24T16:25:52Z</time></trkpt><trkpt lat="44.53704817327571" lon="0.9466170628177074"><ele>91.0</ele><time>2026-04-24T16:25:53Z</time></trkpt><trkpt lat="44.53698471305048" lon="0.9466793613533796"><ele>91.0</ele><time>2026-04-24T16:25:54Z</time></trkpt><trkpt lat="44.53690735578045" lon="0.9467544037607106"><ele>91.0</ele><time>2026-04-24T16:25:55Z</time></trkpt><trkpt lat="44.53682566652313" lon="0.9468429680140394"><ele>91.0</ele><time>2026-04-24T16:25:56Z</time></trkpt><trkpt lat="44.53673377532435" lon="0.9469358742504936"><ele>91.0</ele><time>2026-04-24T16:25:57Z</time></trkpt><trkpt lat="44.536627593542626" lon="0.947036852863175"><ele>92.25</ele><time>2026-04-24T16:25:58Z</time></trkpt><trkpt lat="44.53652058005874" lon="0.9471303841415688"><ele>93.5</ele><time>2026-04-24T16:25:59Z</time></trkpt><trkpt lat="44.53641952618115" lon="0.9472342622947757"><ele>94.75</ele><time>2026-04-24T16:26:00Z</time></trkpt><trkpt lat="44.53632964847279" lon="0.9473291372393262"><ele>96.0</ele><time>2026-04-24T16:26:01Z</time></trkpt><trkpt lat="44.53624321606504" lon="0.9474152984651802"><ele>96.5</ele><time>2026-04-24T16:26:02Z</time></trkpt><trkpt lat="44.53614971346512" lon="0.947512554292307"><ele>97.0</ele><time>2026-04-24T16:26:03Z</time></trkpt><trkpt lat="44.53604742326929" lon="0.9476182820775645"><ele>97.5</ele><time>2026-04-24T16:26:04Z</time></trkpt><trkpt lat="44.53594679904582" lon="0.9477117229502084"><ele>98.0</ele><time>2026-04-24T16:26:05Z</time></trkpt><trkpt lat="44.53582467228542" lon="0.9478026410046859"><ele>98.0</ele><time>2026-04-24T16:26:06Z</time></trkpt><trkpt lat="44.53572276885236" lon="0.9478922729324943"><ele>98.0</ele><time>2026-04-24T16:26:07Z</time></trkpt><trkpt lat="44.535605169227765" lon="0.947974096914986"><ele>98.0</ele><time>2026-04-24T16:26:08Z</time></trkpt><trkpt lat="44.535499280321815" lon="0.948055181174194"><ele>98.0</ele><time>2026-04-24T16:26:09Z</time></trkpt><trkpt lat="44.53538944561273" lon="0.9481295369921039"><ele>97.4</ele><time>2026-04-24T16:26:10Z</time></trkpt><trkpt lat="44.53528398594546" lon="0.9482022966295808"><ele>96.80000000000001</ele><time>2026-04-24T16:26:11Z</time></trkpt><trkpt lat="44.535183116688636" lon="0.9482594685765997"><ele>96.2</ele><time>2026-04-24T16:26:12Z</time></trkpt><trkpt lat="44.53509196790902" lon="0.9483079924706374"><ele>95.6</ele><time>2026-04-24T16:26:13Z</time></trkpt><trkpt lat="44.53500869887679" lon="0.9483571621574776"><ele>95.0</ele><time>2026-04-24T16:26:14Z</time></trkpt><trkpt lat="44.53493140975724" lon="0.9484015925836521"><ele>95.0</ele><time>2026-04-24T16:26:15Z</time></trkpt><trkpt lat="44.53486068507711" lon="0.9484364783260292"><ele>95.0</ele><time>2026-04-24T16:26:16Z</time></trkpt><trkpt lat="44.53481097776372" lon="0.9485570176774035"><ele>95.0</ele><time>2026-04-24T16:26:17Z</time></trkpt><trkpt lat="44.53474811519594" lon="0.9486531237527495"><ele>95.0</ele><time>2026-04-24T16:26:18Z</time></trkpt><trkpt lat="44.534672695284776" lon="0.9487337555800186"><ele>95.0</ele><time>2026-04-24T16:26:19Z</time></trkpt><trkpt lat="44.5345801397268" lon="0.9488051998118335"><ele>95.4</ele><time>2026-04-24T16:26:20Z</time></trkpt><trkpt lat="44.53449709081398" lon="0.9488830064659879"><ele>95.8</ele><time>2026-04-24T16:26:21Z</time></trkpt><trkpt lat="44.534383932538766" lon="0.948905228938788"><ele>96.19999999999999</ele><time>2026-04-24T16:26:22Z</time></trkpt><trkpt lat="44.53429813213364" lon="0.94898684254185"><ele>96.6</ele><time>2026-04-24T16:26:23Z</time></trkpt><trkpt lat="44.53425047919079" lon="0.9491058099552134"><ele>97.0</ele><time>2026-04-24T16:26:24Z</time></trkpt><trkpt lat="44.53425868184092" lon="0.9492571261624803"><ele>98.6</ele><time>2026-04-24T16:26:25Z</time></trkpt><trkpt lat="44.53423284973538" lon="0.9493990529367667"><ele>100.19999999999999</ele><time>2026-04-24T16:26:26Z</time></trkpt><trkpt lat="44.534218755418664" lon="0.9495366515248864"><ele>101.8</ele><time>2026-04-24T16:26:27Z</time></trkpt><trkpt lat="44.53420538409361" lon="0.9496671878100295"><ele>103.4</ele><time>2026-04-24T16:26:28Z</time></trkpt><trkpt lat="44.53419379831922" lon="0.9497764662465489"><ele>105.0</ele><time>2026-04-24T16:26:29Z</time></trkpt><trkpt lat="44.534182463426255" lon="0.9498847928581767"><ele>105.0</ele><time>2026-04-24T16:26:30Z</time></trkpt><trkpt lat="44.53417300554248" lon="0.9499783235652154"><ele>105.0</ele><time>2026-04-24T16:26:31Z</time></trkpt><trkpt lat="44.534157644171856" lon="0.9501331594542363"><ele>105.0</ele><time>2026-04-24T16:26:33Z</time></trkpt><trkpt lat="44.53414456052622" lon="0.950305719327054"><ele>105.0</ele><time>2026-04-24T16:26:35Z</time></trkpt><trkpt lat="44.53413379622296" lon="0.9504714630755304"><ele>105.0</ele><time>2026-04-24T16:26:37Z</time></trkpt><trkpt lat="44.53412683544699" lon="0.9506202958983178"><ele>105.5</ele><time>2026-04-24T16:26:39Z</time></trkpt><trkpt lat="44.53412398600089" lon="0.9507787552813626"><ele>106.0</ele><time>2026-04-24T16:26:41Z</time></trkpt><trkpt lat="44.534138079488216" lon="0.950941899627798"><ele>106.5</ele><time>2026-04-24T16:26:43Z</time></trkpt><trkpt lat="44.5341365572303" lon="0.951035079073291"><ele>107.0</ele><time>2026-04-24T16:26:44Z</time></trkpt><trkpt lat="44.53412112037543" lon="0.951123220311599"><ele>107.5</ele><time>2026-04-24T16:26:45Z</time></trkpt><trkpt lat="44.53411976970568" lon="0.9512187238488914"><ele>108.0</ele><time>2026-04-24T16:26:46Z</time></trkpt><trkpt lat="44.534118390283666" lon="0.9513162604620177"><ele>108.0</ele><time>2026-04-24T16:26:47Z</time></trkpt><trkpt lat="44.534116931302385" lon="0.9514194228354692"><ele>108.0</ele><time>2026-04-24T16:26:48Z</time></trkpt><trkpt lat="44.534114525861455" lon="0.9515325813775161"><ele>108.0</ele><time>2026-04-24T16:26:49Z</time></trkpt><trkpt lat="44.53411198527983" lon="0.9516443672479185"><ele>108.0</ele><time>2026-04-24T16:26:50Z</time></trkpt><trkpt lat="44.534108001166004" lon="0.9517653338533685"><ele>108.0</ele><time>2026-04-24T16:26:51Z</time></trkpt><trkpt lat="44.53410275337898" lon="0.9519000770163561"><ele>108.0</ele><time>2026-04-24T16:26:52Z</time></trkpt><trkpt lat="44.53409170327451" lon="0.9520465944190368"><ele>108.80000000000001</ele><time>2026-04-24T16:26:53Z</time></trkpt><trkpt lat="44.534064906818365" lon="0.9521823459506882"><ele>109.60000000000001</ele><time>2026-04-24T16:26:54Z</time></trkpt><trkpt lat="44.534024516375666" lon="0.9523140862397349"><ele>110.39999999999999</ele><time>2026-04-24T16:26:55Z</time></trkpt><trkpt lat="44.53398749054488" lon="0.9524440676104501"><ele>111.19999999999999</ele><time>2026-04-24T16:26:56Z</time></trkpt><trkpt lat="44.533956023778664" lon="0.9525489026561944"><ele>112.0</ele><time>2026-04-24T16:26:57Z</time></trkpt><trkpt lat="44.533914869865455" lon="0.9526569532624956"><ele>112.50000000000001</ele><time>2026-04-24T16:26:58Z</time></trkpt><trkpt lat="44.53387275863902" lon="0.952759742005038"><ele>113.0</ele><time>2026-04-24T16:26:59Z</time></trkpt><trkpt lat="44.53382277096213" lon="0.9528478860149231"><ele>113.5</ele><time>2026-04-24T16:27:00Z</time></trkpt><trkpt lat="44.533801219154086" lon="0.9529579724934786"><ele>114.0</ele><time>2026-04-24T16:27:01Z</time></trkpt><trkpt lat="44.53376565642876" lon="0.9530570516483896"><ele>114.50000000000001</ele><time>2026-04-24T16:27:02Z</time></trkpt><trkpt lat="44.533731916849575" lon="0.953147643762032"><ele>115.0</ele><time>2026-04-24T16:27:03Z</time></trkpt><trkpt lat="44.53370250475133" lon="0.9532370088130603"><ele>115.0</ele><time>2026-04-24T16:27:04Z</time></trkpt><trkpt lat="44.533667230870634" lon="0.9533434673219676"><ele>115.0</ele><time>2026-04-24T16:27:05Z</time></trkpt><trkpt lat="44.53363832499133" lon="0.9534576748471788"><ele>115.0</ele><time>2026-04-24T16:27:06Z</time></trkpt><trkpt lat="44.53360778574773" lon="0.9535794516224195"><ele>115.0</ele><time>2026-04-24T16:27:07Z</time></trkpt><trkpt lat="44.53358001994368" lon="0.9537065863500015"><ele>115.0</ele><time>2026-04-24T16:27:08Z</time></trkpt><trkpt lat="44.53354121229623" lon="0.9538381708226545"><ele>116.33333333333334</ele><time>2026-04-24T16:27:09Z</time></trkpt><trkpt lat="44.533511040252456" lon="0.9539555610739189"><ele>117.66666666666667</ele><time>2026-04-24T16:27:10Z</time></trkpt><trkpt lat="44.53348863986101" lon="0.9540628042423934"><ele>119.0</ele><time>2026-04-24T16:27:11Z</time></trkpt><trkpt lat="44.53346862320259" lon="0.9541602664933206"><ele>120.33333333333334</ele><time>2026-04-24T16:27:12Z</time></trkpt><trkpt lat="44.533434320252994" lon="0.9542567576546387"><ele>121.66666666666667</ele><time>2026-04-24T16:27:13Z</time></trkpt><trkpt lat="44.53341801908723" lon="0.9543572249341563"><ele>123.0</ele><time>2026-04-24T16:27:14Z</time></trkpt><trkpt lat="44.53340697144879" lon="0.954455757240055"><ele>123.2857142857143</ele><time>2026-04-24T16:27:15Z</time></trkpt><trkpt lat="44.533401357657844" lon="0.9545575404318225"><ele>123.57142857142858</ele><time>2026-04-24T16:27:16Z</time></trkpt><trkpt lat="44.53341113726539" lon="0.9546567254531589"><ele>123.85714285714286</ele><time>2026-04-24T16:27:17Z</time></trkpt><trkpt lat="44.533399649901305" lon="0.954756156323183"><ele>124.14285714285715</ele><time>2026-04-24T16:27:18Z</time></trkpt><trkpt lat="44.53339921885384" lon="0.9548612767435898"><ele>124.42857142857144</ele><time>2026-04-24T16:27:19Z</time></trkpt><trkpt lat="44.533392715204904" lon="0.9549622495296894"><ele>124.71428571428571</ele><time>2026-04-24T16:27:20Z</time></trkpt><trkpt lat="44.53338779783311" lon="0.9550548874052257"><ele>125.0</ele><time>2026-04-24T16:27:21Z</time></trkpt><trkpt lat="44.533358977615116" lon="0.9551461891846872"><ele>124.99999999999999</ele><time>2026-04-24T16:27:22Z</time></trkpt><trkpt lat="44.533336673960385" lon="0.9552404126477677"><ele>125.0</ele><time>2026-04-24T16:27:23Z</time></trkpt><trkpt lat="44.53330609529178" lon="0.9553227908292399"><ele>125.0</ele><time>2026-04-24T16:27:24Z</time></trkpt><trkpt lat="44.533261287543176" lon="0.9554164311248994"><ele>125.0</ele><time>2026-04-24T16:27:25Z</time></trkpt><trkpt lat="44.53321523141976" lon="0.9555080573995351"><ele>124.99999999999999</ele><time>2026-04-24T16:27:26Z</time></trkpt><trkpt lat="44.533172543189785" lon="0.9556096773508248"><ele>125.0</ele><time>2026-04-24T16:27:27Z</time></trkpt><trkpt lat="44.533116070207605" lon="0.9557111925701743"><ele>125.0</ele><time>2026-04-24T16:27:28Z</time></trkpt><trkpt lat="44.53305487076749" lon="0.9558154333363132"><ele>125.0</ele><time>2026-04-24T16:27:29Z</time></trkpt><trkpt lat="44.532991493956104" lon="0.9559231697038079"><ele>125.0</ele><time>2026-04-24T16:27:30Z</time></trkpt><trkpt lat="44.53292715756416" lon="0.956028256453024"><ele>125.0</ele><time>2026-04-24T16:27:31Z</time></trkpt><trkpt lat="44.532862101339994" lon="0.9561474310989897"><ele>125.0</ele><time>2026-04-24T16:27:32Z</time></trkpt><trkpt lat="44.532796755360074" lon="0.9562678343389893"><ele>126.5</ele><time>2026-04-24T16:27:33Z</time></trkpt><trkpt lat="44.53272955852714" lon="0.9563951888738471"><ele>128.0</ele><time>2026-04-24T16:27:34Z</time></trkpt><trkpt lat="44.532653841786654" lon="0.9565314122402305"><ele>129.5</ele><time>2026-04-24T16:27:35Z</time></trkpt><trkpt lat="44.53257259725174" lon="0.9566579878507584"><ele>131.0</ele><time>2026-04-24T16:27:36Z</time></trkpt><trkpt lat="44.53250784349585" lon="0.9567748511131364"><ele>131.2</ele><time>2026-04-24T16:27:37Z</time></trkpt><trkpt lat="44.532465476990815" lon="0.9568901223234194"><ele>131.39999999999998</ele><time>2026-04-24T16:27:38Z</time></trkpt><trkpt lat="44.532412620513504" lon="0.9569861500382999"><ele>131.6</ele><time>2026-04-24T16:27:39Z</time></trkpt><trkpt lat="44.53235303517766" lon="0.9570816813950708"><ele>131.79999999999998</ele><time>2026-04-24T16:27:40Z</time></trkpt><trkpt lat="44.5322907415194" lon="0.9571929498444721"><ele>132.0</ele><time>2026-04-24T16:27:41Z</time></trkpt><trkpt lat="44.532231549130934" lon="0.9572939949246907"><ele>132.0</ele><time>2026-04-24T16:27:42Z</time></trkpt><trkpt lat="44.53216643821185" lon="0.9573861776838737"><ele>132.0</ele><time>2026-04-24T16:27:43Z</time></trkpt><trkpt lat="44.53208548918342" lon="0.9574443090822722"><ele>132.0</ele><time>2026-04-24T16:27:44Z</time></trkpt><trkpt lat="44.53200985029499" lon="0.9575101586725705"><ele>132.0</ele><time>2026-04-24T16:27:45Z</time></trkpt><trkpt lat="44.531929840255174" lon="0.9575805930413944"><ele>132.0</ele><time>2026-04-24T16:27:46Z</time></trkpt><trkpt lat="44.531856526154684" lon="0.9576444303163435"><ele>133.0</ele><time>2026-04-24T16:27:47Z</time></trkpt><trkpt lat="44.53178089751986" lon="0.957715666088934"><ele>134.0</ele><time>2026-04-24T16:27:48Z</time></trkpt><trkpt lat="44.53170678528544" lon="0.9577951331434985"><ele>135.0</ele><time>2026-04-24T16:27:49Z</time></trkpt><trkpt lat="44.53163746659203" lon="0.9578524237477463"><ele>136.0</ele><time>2026-04-24T16:27:50Z</time></trkpt><trkpt lat="44.53157226767786" lon="0.9579027833065504"><ele>137.0</ele><time>2026-04-24T16:27:51Z</time></trkpt><trkpt lat="44.531501296384285" lon="0.9579516220797386"><ele>138.0</ele><time>2026-04-24T16:27:52Z</time></trkpt><trkpt lat="44.53138283193252" lon="0.9580585963456856"><ele>138.0</ele><time>2026-04-24T16:27:54Z</time></trkpt><trkpt lat="44.531317913480805" lon="0.9581049472599629"><ele>138.0</ele><time>2026-04-24T16:27:55Z</time></trkpt><trkpt lat="44.531241597038644" lon="0.9581561462754052"><ele>138.0</ele><time>2026-04-24T16:27:56Z</time></trkpt><trkpt lat="44.531155130817105" lon="0.9582225531581061"><ele>138.0</ele><time>2026-04-24T16:27:57Z</time></trkpt><trkpt lat="44.53105188604826" lon="0.9582882934824462"><ele>138.0</ele><time>2026-04-24T16:27:58Z</time></trkpt><trkpt lat="44.53094314483952" lon="0.9583754697912766"><ele>138.5</ele><time>2026-04-24T16:27:59Z</time></trkpt><trkpt lat="44.530823176362766" lon="0.9584565586492207"><ele>139.0</ele><time>2026-04-24T16:28:00Z</time></trkpt><trkpt lat="44.530696728564266" lon="0.9585143874486748"><ele>139.5</ele><time>2026-04-24T16:28:01Z</time></trkpt><trkpt lat="44.53057041941193" lon="0.9585534909202963"><ele>140.0</ele><time>2026-04-24T16:28:02Z</time></trkpt><trkpt lat="44.530480458668556" lon="0.9585805294617997"><ele>140.0</ele><time>2026-04-24T16:28:03Z</time></trkpt><trkpt lat="44.530410742365284" lon="0.9585979827184858"><ele>140.0</ele><time>2026-04-24T16:28:04Z</time></trkpt><trkpt lat="44.530340961538975" lon="0.9586120530879837"><ele>140.0</ele><time>2026-04-24T16:28:06Z</time></trkpt><trkpt lat="44.53026699933843" lon="0.9586348606461768"><ele>140.0</ele><time>2026-04-24T16:28:09Z</time></trkpt><trkpt lat="44.53005431063316" lon="0.9587164908927575"><ele>140.0</ele><time>2026-04-24T16:28:12Z</time></trkpt><trkpt lat="44.52992842368172" lon="0.9588654279368092"><ele>141.2</ele><time>2026-04-24T16:28:13Z</time></trkpt><trkpt lat="44.52987404269801" lon="0.9589702943490237"><ele>142.4</ele><time>2026-04-24T16:28:14Z</time></trkpt><trkpt lat="44.529836940628236" lon="0.9590746270311459"><ele>143.6</ele><time>2026-04-24T16:28:15Z</time></trkpt><trkpt lat="44.52979884677979" lon="0.959231416304223"><ele>144.8</ele><time>2026-04-24T16:28:17Z</time></trkpt><trkpt lat="44.52977450117542" lon="0.9593295964948227"><ele>146.0</ele><time>2026-04-24T16:28:18Z</time></trkpt><trkpt lat="44.53023713228804" lon="0.9599211240529689"><ele>147.0</ele><time>2026-04-24T16:28:19Z</time></trkpt><trkpt lat="44.53024737534042" lon="0.9600624320821963"><ele>148.0</ele><time>2026-04-24T16:28:20Z</time></trkpt><trkpt lat="44.53024532899446" lon="0.960211966393392"><ele>149.0</ele><time>2026-04-24T16:28:21Z</time></trkpt><trkpt lat="44.53024005259761" lon="0.9603647256686062"><ele>150.0</ele><time>2026-04-24T16:28:22Z</time></trkpt><trkpt lat="44.53022878115943" lon="0.9604976594802662"><ele>151.0</ele><time>2026-04-24T16:28:23Z</time></trkpt><trkpt lat="44.5302224411875" lon="0.9606123242859931"><ele>151.0</ele><time>2026-04-24T16:28:24Z</time></trkpt><trkpt lat="44.53019847602765" lon="0.9607492762655384"><ele>151.0</ele><time>2026-04-24T16:28:25Z</time></trkpt><trkpt lat="44.53015033433549" lon="0.9609020336009955"><ele>151.0</ele><time>2026-04-24T16:28:26Z</time></trkpt><trkpt lat="44.53010722598386" lon="0.9610294081979646"><ele>151.0</ele><time>2026-04-24T16:28:27Z</time></trkpt><trkpt lat="44.530047438252744" lon="0.9611365378394762"><ele>151.0</ele><time>2026-04-24T16:28:28Z</time></trkpt><trkpt lat="44.530025897428146" lon="0.9612309176988424"><ele>150.4</ele><time>2026-04-24T16:28:29Z</time></trkpt><trkpt lat="44.53001461950509" lon="0.9613928165834976"><ele>149.8</ele><time>2026-04-24T16:28:30Z</time></trkpt><trkpt lat="44.52998668852029" lon="0.961532622325921"><ele>149.20000000000002</ele><time>2026-04-24T16:28:31Z</time></trkpt><trkpt lat="44.5299443186483" lon="0.9616734656702869"><ele>148.6</ele><time>2026-04-24T16:28:32Z</time></trkpt><trkpt lat="44.5298874867633" lon="0.9618087117156242"><ele>148.0</ele><time>2026-04-24T16:28:33Z</time></trkpt><trkpt lat="44.52985365663934" lon="0.9619019306919973"><ele>149.0</ele><time>2026-04-24T16:28:34Z</time></trkpt><trkpt lat="44.5297953977309" lon="0.9620239457905237"><ele>150.0</ele><time>2026-04-24T16:28:36Z</time></trkpt><trkpt lat="44.52973036777577" lon="0.9621178228931927"><ele>151.0</ele><time>2026-04-24T16:28:37Z</time></trkpt><trkpt lat="44.52966629480215" lon="0.9622296076382107"><ele>152.0</ele><time>2026-04-24T16:28:38Z</time></trkpt><trkpt lat="44.529595719376786" lon="0.9623206703558674"><ele>153.0</ele><time>2026-04-24T16:28:39Z</time></trkpt><trkpt lat="44.52954440854227" lon="0.9624056734817463"><ele>153.0</ele><time>2026-04-24T16:28:40Z</time></trkpt><trkpt lat="44.52951021277736" lon="0.9624932298476818"><ele>153.0</ele><time>2026-04-24T16:28:41Z</time></trkpt><trkpt lat="44.52950169509236" lon="0.9626230002483477"><ele>153.0</ele><time>2026-04-24T16:28:43Z</time></trkpt><trkpt lat="44.52950656637089" lon="0.9628355611135003"><ele>153.0</ele><time>2026-04-24T16:28:45Z</time></trkpt><trkpt lat="44.52948917104766" lon="0.9629843441798257"><ele>153.0</ele><time>2026-04-24T16:28:46Z</time></trkpt><trkpt lat="44.529473406515784" lon="0.9631301465876045"><ele>152.20000000000002</ele><time>2026-04-24T16:28:47Z</time></trkpt><trkpt lat="44.529456070640755" lon="0.9632912407609955"><ele>151.4</ele><time>2026-04-24T16:28:48Z</time></trkpt><trkpt lat="44.529439435565216" lon="0.9634527030537401"><ele>150.60000000000002</ele><time>2026-04-24T16:28:49Z</time></trkpt><trkpt lat="44.52941201689525" lon="0.9635925849154984"><ele>149.8</ele><time>2026-04-24T16:28:50Z</time></trkpt><trkpt lat="44.52934937014682" lon="0.9636609321829573"><ele>149.0</ele><time>2026-04-24T16:28:51Z</time></trkpt><trkpt lat="44.529297648737156" lon="0.9637173926408568"><ele>148.4</ele><time>2026-04-24T16:28:52Z</time></trkpt><trkpt lat="44.52922276885455" lon="0.9637410377630112"><ele>147.8</ele><time>2026-04-24T16:28:54Z</time></trkpt><trkpt lat="44.52916773412429" lon="0.9638023473229335"><ele>147.2</ele><time>2026-04-24T16:28:56Z</time></trkpt><trkpt lat="44.529291288543654" lon="0.9637724720463633"><ele>146.6</ele><time>2026-04-24T16:29:12Z</time></trkpt><trkpt lat="44.52936200271989" lon="0.9636922217604609"><ele>146.0</ele><time>2026-04-24T16:29:13Z</time></trkpt><trkpt lat="44.529430182004525" lon="0.963568255109189"><ele>146.0</ele><time>2026-04-24T16:29:14Z</time></trkpt><trkpt lat="44.52946514126439" lon="0.9634094775161055"><ele>146.0</ele><time>2026-04-24T16:29:15Z</time></trkpt><trkpt lat="44.529478130597944" lon="0.9632346689296698"><ele>146.0</ele><time>2026-04-24T16:29:16Z</time></trkpt><trkpt lat="44.52947766660991" lon="0.9630726298707155"><ele>146.0</ele><time>2026-04-24T16:29:17Z</time></trkpt><trkpt lat="44.52946913823866" lon="0.9629472001897047"><ele>146.0</ele><time>2026-04-24T16:29:18Z</time></trkpt><trkpt lat="44.52946950656455" lon="0.9628340199405772"><ele>146.6</ele><time>2026-04-24T16:29:19Z</time></trkpt><trkpt lat="44.52950391553625" lon="0.9626864771832951"><ele>147.2</ele><time>2026-04-24T16:29:21Z</time></trkpt><trkpt lat="44.529476313424745" lon="0.9625917252983558"><ele>147.8</ele><time>2026-04-24T16:29:23Z</time></trkpt><trkpt lat="44.529496430106896" lon="0.9624972285346682"><ele>148.4</ele><time>2026-04-24T16:29:25Z</time></trkpt><trkpt lat="44.529538655969596" lon="0.962397022388818"><ele>149.0</ele><time>2026-04-24T16:29:27Z</time></trkpt><trkpt lat="44.5296113281572" lon="0.9622723947336234"><ele>148.83333333333331</ele><time>2026-04-24T16:29:29Z</time></trkpt><trkpt lat="44.529664283490575" lon="0.9622034015829625"><ele>148.66666666666666</ele><time>2026-04-24T16:29:30Z</time></trkpt><trkpt lat="44.52971739568723" lon="0.9621338061393512"><ele>148.5</ele><time>2026-04-24T16:29:31Z</time></trkpt><trkpt lat="44.52977958743967" lon="0.9620280212465315"><ele>148.33333333333334</ele><time>2026-04-24T16:29:33Z</time></trkpt><trkpt lat="44.52982817669493" lon="0.9619443013019648"><ele>148.16666666666669</ele><time>2026-04-24T16:29:35Z</time></trkpt><trkpt lat="44.52987325906283" lon="0.9618019849264109"><ele>148.0</ele><time>2026-04-24T16:29:37Z</time></trkpt><trkpt lat="44.529914499763606" lon="0.9616652076317084"><ele>148.0</ele><time>2026-04-24T16:29:39Z</time></trkpt><trkpt lat="44.529951914480016" lon="0.961562381889018"><ele>148.0</ele><time>2026-04-24T16:29:41Z</time></trkpt><trkpt lat="44.52998567330613" lon="0.9614637817392065"><ele>148.0</ele><time>2026-04-24T16:29:43Z</time></trkpt><trkpt lat="44.529963422486624" lon="0.9615494589638246"><ele>148.0</ele><time>2026-04-24T16:29:59Z</time></trkpt><trkpt lat="44.529916160782" lon="0.9616721847250287"><ele>148.0</ele><time>2026-04-24T16:30:22Z</time></trkpt><trkpt lat="44.52986241527207" lon="0.961798000008139"><ele>148.0</ele><time>2026-04-24T16:30:24Z</time></trkpt><trkpt lat="44.529823495481764" lon="0.9619528726355614"><ele>149.0</ele><time>2026-04-24T16:30:26Z</time></trkpt><trkpt lat="44.52975420162441" lon="0.962059608867713"><ele>150.0</ele><time>2026-04-24T16:30:28Z</time></trkpt><trkpt lat="44.5296906046175" lon="0.9621567638946206"><ele>151.0</ele><time>2026-04-24T16:30:30Z</time></trkpt><trkpt lat="44.52961324211929" lon="0.9622632192188653"><ele>152.0</ele><time>2026-04-24T16:30:32Z</time></trkpt><trkpt lat="44.529564397951575" lon="0.9623668676999133"><ele>153.0</ele><time>2026-04-24T16:30:34Z</time></trkpt><trkpt lat="44.529521355568114" lon="0.9624415563946102"><ele>152.33333333333334</ele><time>2026-04-24T16:30:36Z</time></trkpt><trkpt lat="44.52951138644222" lon="0.9625406816635633"><ele>151.66666666666666</ele><time>2026-04-24T16:30:40Z</time></trkpt><trkpt lat="44.52950108526999" lon="0.9626316871613767"><ele>151.0</ele><time>2026-04-24T16:30:42Z</time></trkpt><trkpt lat="44.52949363558933" lon="0.9627271349025792"><ele>150.33333333333331</ele><time>2026-04-24T16:30:43Z</time></trkpt><trkpt lat="44.52950381914923" lon="0.9628736231417784"><ele>149.66666666666666</ele><time>2026-04-24T16:30:44Z</time></trkpt><trkpt lat="44.52950864501643" lon="0.9630092014233816"><ele>149.0</ele><time>2026-04-24T16:30:45Z</time></trkpt><trkpt lat="44.52950727572345" lon="0.9631610496722942"><ele>149.0</ele><time>2026-04-24T16:30:46Z</time></trkpt><trkpt lat="44.529503599452006" lon="0.9632784460196275"><ele>149.0</ele><time>2026-04-24T16:30:47Z</time></trkpt><trkpt lat="44.529527166763195" lon="0.9634129073842062"><ele>149.0</ele><time>2026-04-24T16:30:49Z</time></trkpt><trkpt lat="44.52953284425237" lon="0.9635172512079291"><ele>149.0</ele><time>2026-04-24T16:31:02Z</time></trkpt><trkpt lat="44.52949655118032" lon="0.9636264472750483"><ele>149.0</ele><time>2026-04-24T16:31:13Z</time></trkpt><trkpt lat="44.52947691028845" lon="0.9637443082621564"><ele>149.0</ele><time>2026-04-24T16:31:15Z</time></trkpt><trkpt lat="44.52944248521753" lon="0.9638891173572759"><ele>148.8</ele><time>2026-04-24T16:31:17Z</time></trkpt><trkpt lat="44.52941977700943" lon="0.9640362408332334"><ele>148.60000000000002</ele><time>2026-04-24T16:31:19Z</time></trkpt><trkpt lat="44.52940135066568" lon="0.9641366302637713"><ele>148.4</ele><time>2026-04-24T16:31:21Z</time></trkpt><trkpt lat="44.52938236227742" lon="0.9642471615623488"><ele>148.20000000000002</ele><time>2026-04-24T16:31:24Z</time></trkpt><trkpt lat="44.52931403817522" lon="0.9642900324880319"><ele>148.0</ele><time>2026-04-24T16:31:26Z</time></trkpt><trkpt lat="44.52917925903991" lon="0.9643555014793694"><ele>148.0</ele><time>2026-04-24T16:31:28Z</time></trkpt><trkpt lat="44.52909946841063" lon="0.9644186119920363"><ele>148.0</ele><time>2026-04-24T16:31:29Z</time></trkpt><trkpt lat="44.529034218899966" lon="0.9644712138945295"><ele>148.0</ele><time>2026-04-24T16:31:30Z</time></trkpt><trkpt lat="44.52896894519568" lon="0.9645336074902697"><ele>148.0</ele><time>2026-04-24T16:31:32Z</time></trkpt><trkpt lat="44.52893264904103" lon="0.9646238853792743"><ele>148.0</ele><time>2026-04-24T16:31:35Z</time></trkpt><trkpt lat="44.528946417228596" lon="0.9647155356451536"><ele>148.0</ele><time>2026-04-24T16:31:54Z</time></trkpt><trkpt lat="44.52896369277022" lon="0.9648433722272655"><ele>148.0</ele><time>2026-04-24T16:31:56Z</time></trkpt><trkpt lat="44.52898268511653" lon="0.965000188143793"><ele>148.0</ele><time>2026-04-24T16:31:58Z</time></trkpt><trkpt lat="44.52895707258833" lon="0.9650851431200029"><ele>148.0</ele><time>2026-04-24T16:32:01Z</time></trkpt><trkpt lat="44.528965037792794" lon="0.9651882104871108"><ele>148.0</ele><time>2026-04-24T16:32:03Z</time></trkpt><trkpt lat="44.52899683035243" lon="0.9652834157656336"><ele>148.0</ele><time>2026-04-24T16:32:04Z</time></trkpt><trkpt lat="44.52905017929254" lon="0.9653740192729894"><ele>148.0</ele><time>2026-04-24T16:32:05Z</time></trkpt><trkpt lat="44.52907594262779" lon="0.9654728434702285"><ele>149.16666666666669</ele><time>2026-04-24T16:32:07Z</time></trkpt><trkpt lat="44.52902541924376" lon="0.965561762881486"><ele>150.33333333333334</ele><time>2026-04-24T16:32:10Z</time></trkpt><trkpt lat="44.528984240606114" lon="0.9656445115197457"><ele>151.5</ele><time>2026-04-24T16:32:11Z</time></trkpt><trkpt lat="44.5289339392215" lon="0.9657392437208129"><ele>152.66666666666666</ele><time>2026-04-24T16:32:12Z</time></trkpt><trkpt lat="44.52888174066956" lon="0.9658359778761111"><ele>153.83333333333331</ele><time>2026-04-24T16:32:13Z</time></trkpt><trkpt lat="44.52883696706356" lon="0.9659175001812906"><ele>155.0</ele><time>2026-04-24T16:32:14Z</time></trkpt><trkpt lat="44.52878455651962" lon="0.9659925505006669"><ele>156.16666666666666</ele><time>2026-04-24T16:32:15Z</time></trkpt><trkpt lat="44.52877771432066" lon="0.9660873471106027"><ele>157.33333333333331</ele><time>2026-04-24T16:32:16Z</time></trkpt><trkpt lat="44.52879230248341" lon="0.966208367479349"><ele>158.5</ele><time>2026-04-24T16:32:17Z</time></trkpt><trkpt lat="44.52878367575702" lon="0.9663071177430107"><ele>159.66666666666666</ele><time>2026-04-24T16:32:18Z</time></trkpt><trkpt lat="44.528748588808426" lon="0.9664077572127026"><ele>160.83333333333334</ele><time>2026-04-24T16:32:24Z</time></trkpt><trkpt lat="44.528674804321376" lon="0.9665207249642468"><ele>162.0</ele><time>2026-04-24T16:32:27Z</time></trkpt><trkpt lat="44.52861605892263" lon="0.9666247512386644"><ele>163.0</ele><time>2026-04-24T16:32:29Z</time></trkpt><trkpt lat="44.52859486046134" lon="0.9667239470273838"><ele>164.0</ele><time>2026-04-24T16:32:32Z</time></trkpt><trkpt lat="44.52861451664308" lon="0.9668748932502764"><ele>165.0</ele><time>2026-04-24T16:32:34Z</time></trkpt><trkpt lat="44.528628904458664" lon="0.9669687654686097"><ele>166.0</ele><time>2026-04-24T16:32:35Z</time></trkpt><trkpt lat="44.528637827663104" lon="0.9670662806475374"><ele>167.0</ele><time>2026-04-24T16:32:37Z</time></trkpt><trkpt lat="44.52871541143255" lon="0.9671048814342295"><ele>168.0</ele><time>2026-04-24T16:32:45Z</time></trkpt><trkpt lat="44.528796631425344" lon="0.9671185506283649"><ele>168.0</ele><time>2026-04-24T16:32:46Z</time></trkpt><trkpt lat="44.52887253807702" lon="0.9671451160812475"><ele>168.0</ele><time>2026-04-24T16:32:47Z</time></trkpt><trkpt lat="44.52895609717155" lon="0.9671690146341408"><ele>168.0</ele><time>2026-04-24T16:32:48Z</time></trkpt><trkpt lat="44.52902461408278" lon="0.9671895219645145"><ele>168.0</ele><time>2026-04-24T16:32:49Z</time></trkpt><trkpt lat="44.52909024785296" lon="0.9672164645118525"><ele>168.0</ele><time>2026-04-24T16:32:50Z</time></trkpt><trkpt lat="44.529154932881035" lon="0.9672490163880296"><ele>168.0</ele><time>2026-04-24T16:32:51Z</time></trkpt><trkpt lat="44.529225959210535" lon="0.9673048147285206"><ele>168.0</ele><time>2026-04-24T16:32:52Z</time></trkpt><trkpt lat="44.52929114444874" lon="0.9673703241865649"><ele>168.0</ele><time>2026-04-24T16:32:53Z</time></trkpt><trkpt lat="44.529367569618756" lon="0.9674223632065067"><ele>168.0</ele><time>2026-04-24T16:32:54Z</time></trkpt><trkpt lat="44.529445304" lon="0.9674754993385365"><ele>168.0</ele><time>2026-04-24T16:32:55Z</time></trkpt><trkpt lat="44.529530280529464" lon="0.9675208237082292"><ele>168.0</ele><time>2026-04-24T16:32:56Z</time></trkpt><trkpt lat="44.52961170133689" lon="0.9675492732305975"><ele>168.0</ele><time>2026-04-24T16:32:57Z</time></trkpt><trkpt lat="44.52970498375233" lon="0.9675772881195801"><ele>167.33333333333334</ele><time>2026-04-24T16:32:58Z</time></trkpt><trkpt lat="44.529777762241046" lon="0.9675865458039804"><ele>166.66666666666666</ele><time>2026-04-24T16:32:59Z</time></trkpt><trkpt lat="44.52986415352349" lon="0.9676056070164547"><ele>166.0</ele><time>2026-04-24T16:33:00Z</time></trkpt><trkpt lat="44.52998772469983" lon="0.9676184431670326"><ele>165.33333333333331</ele><time>2026-04-24T16:33:02Z</time></trkpt><trkpt lat="44.53005198944788" lon="0.9676165855258941"><ele>164.66666666666666</ele><time>2026-04-24T16:33:03Z</time></trkpt><trkpt lat="44.530119335758044" lon="0.967595037207832"><ele>164.0</ele><time>2026-04-24T16:33:04Z</time></trkpt><trkpt lat="44.530238660298544" lon="0.9675677458755902"><ele>164.0</ele><time>2026-04-24T16:33:06Z</time></trkpt><trkpt lat="44.53034244203325" lon="0.9675397608846642"><ele>164.0</ele><time>2026-04-24T16:33:08Z</time></trkpt><trkpt lat="44.53040383644429" lon="0.9675593696797556"><ele>164.0</ele><time>2026-04-24T16:33:11Z</time></trkpt><trkpt lat="44.53040759078248" lon="0.9676691609142023"><ele>164.0</ele><time>2026-04-24T16:33:15Z</time></trkpt><trkpt lat="44.530336460537164" lon="0.9677954431613628"><ele>164.0</ele><time>2026-04-24T16:33:17Z</time></trkpt><trkpt lat="44.53027497107344" lon="0.9678377474907102"><ele>164.0</ele><time>2026-04-24T16:33:18Z</time></trkpt><trkpt lat="44.530221867176415" lon="0.9678892913759444"><ele>164.0</ele><time>2026-04-24T16:33:19Z</time></trkpt><trkpt lat="44.53011425206027" lon="0.9679499882578563"><ele>164.0</ele><time>2026-04-24T16:33:21Z</time></trkpt><trkpt lat="44.5300606166017" lon="0.9681053831600879"><ele>164.0</ele><time>2026-04-24T16:33:23Z</time></trkpt><trkpt lat="44.53002468790164" lon="0.9682166293762682"><ele>164.0</ele><time>2026-04-24T16:33:25Z</time></trkpt><trkpt lat="44.52993860784521" lon="0.9683401660199324"><ele>164.0</ele><time>2026-04-24T16:33:27Z</time></trkpt><trkpt lat="44.52990736499475" lon="0.9684834987551059"><ele>165.39999999999998</ele><time>2026-04-24T16:33:29Z</time></trkpt><trkpt lat="44.52984885380632" lon="0.9686046565001871"><ele>166.8</ele><time>2026-04-24T16:33:31Z</time></trkpt><trkpt lat="44.529784999063835" lon="0.9687342377791409"><ele>168.2</ele><time>2026-04-24T16:33:33Z</time></trkpt><trkpt lat="44.52974867198536" lon="0.9688921931449344"><ele>169.60000000000002</ele><time>2026-04-24T16:33:35Z</time></trkpt><trkpt lat="44.529725565137056" lon="0.9689894372346186"><ele>171.0</ele><time>2026-04-24T16:33:38Z</time></trkpt><trkpt lat="44.52969251710489" lon="0.9690743778229057"><ele>171.0</ele><time>2026-04-24T16:34:03Z</time></trkpt><trkpt lat="44.52958002129508" lon="0.9691388031501083"><ele>171.0</ele><time>2026-04-24T16:34:05Z</time></trkpt><trkpt lat="44.52951809871628" lon="0.9691572524216011"><ele>171.0</ele><time>2026-04-24T16:34:06Z</time></trkpt><trkpt lat="44.52947101853839" lon="0.9692199776935818"><ele>171.0</ele><time>2026-04-24T16:34:07Z</time></trkpt><trkpt lat="44.52945266171801" lon="0.9693304396616694"><ele>171.0</ele><time>2026-04-24T16:34:08Z</time></trkpt><trkpt lat="44.529402491015354" lon="0.9693879643685344"><ele>171.0</ele><time>2026-04-24T16:34:09Z</time></trkpt><trkpt lat="44.52935670141506" lon="0.9694617559653789"><ele>173.16666666666666</ele><time>2026-04-24T16:34:10Z</time></trkpt><trkpt lat="44.52929933581472" lon="0.9695315363942155"><ele>175.33333333333334</ele><time>2026-04-24T16:34:11Z</time></trkpt><trkpt lat="44.52933353444959" lon="0.9696516746669461"><ele>177.5</ele><time>2026-04-24T16:34:13Z</time></trkpt><trkpt lat="44.52932624385156" lon="0.9697660023830761"><ele>179.66666666666669</ele><time>2026-04-24T16:34:15Z</time></trkpt><trkpt lat="44.529261714660045" lon="0.9697793499526703"><ele>181.83333333333334</ele><time>2026-04-24T16:34:16Z</time></trkpt><trkpt lat="44.52918948496844" lon="0.9697579285142712"><ele>184.0</ele><time>2026-04-24T16:34:17Z</time></trkpt><trkpt lat="44.52915351887447" lon="0.9698569165861144"><ele>184.0</ele><time>2026-04-24T16:34:19Z</time></trkpt><trkpt lat="44.52910470623363" lon="0.9699521720298062"><ele>184.0</ele><time>2026-04-24T16:34:20Z</time></trkpt><trkpt lat="44.52904956467315" lon="0.9700088392719002"><ele>184.0</ele><time>2026-04-24T16:34:21Z</time></trkpt><trkpt lat="44.5289791950713" lon="0.9700408421985465"><ele>184.0</ele><time>2026-04-24T16:34:22Z</time></trkpt><trkpt lat="44.52890987969564" lon="0.9700633552253366"><ele>184.0</ele><time>2026-04-24T16:34:23Z</time></trkpt><trkpt lat="44.528826597692515" lon="0.9701243139352076"><ele>184.0</ele><time>2026-04-24T16:34:25Z</time></trkpt><trkpt lat="44.528742070412946" lon="0.9702382752976074"><ele>184.85714285714286</ele><time>2026-04-24T16:34:27Z</time></trkpt><trkpt lat="44.52869569917109" lon="0.970312580781513"><ele>185.7142857142857</ele><time>2026-04-24T16:34:28Z</time></trkpt><trkpt lat="44.52864105230695" lon="0.970372536111594"><ele>186.57142857142856</ele><time>2026-04-24T16:34:29Z</time></trkpt><trkpt lat="44.528581206380544" lon="0.9704039927882641"><ele>187.42857142857144</ele><time>2026-04-24T16:34:30Z</time></trkpt><trkpt lat="44.52852133192317" lon="0.9704494468442445"><ele>188.28571428571428</ele><time>2026-04-24T16:34:31Z</time></trkpt><trkpt lat="44.52846606136219" lon="0.9704942901287439"><ele>189.14285714285714</ele><time>2026-04-24T16:34:32Z</time></trkpt><trkpt lat="44.528384161996826" lon="0.9705554903513981"><ele>190.0</ele><time>2026-04-24T16:34:34Z</time></trkpt><trkpt lat="44.528410004035976" lon="0.9706384467406008"><ele>190.0</ele><time>2026-04-24T16:34:38Z</time></trkpt><trkpt lat="44.52843747287234" lon="0.9707330143646056"><ele>190.0</ele><time>2026-04-24T16:34:45Z</time></trkpt><trkpt lat="44.528416228007536" lon="0.9708181637735787"><ele>190.0</ele><time>2026-04-24T16:34:47Z</time></trkpt><trkpt lat="44.5284243776345" lon="0.9709181074804282"><ele>190.0</ele><time>2026-04-24T16:34:49Z</time></trkpt><trkpt lat="44.52851554585151" lon="0.9709271928175849"><ele>190.0</ele><time>2026-04-24T16:34:51Z</time></trkpt><trkpt lat="44.528556175452444" lon="0.9710364253693913"><ele>190.0</ele><time>2026-04-24T16:34:53Z</time></trkpt><trkpt lat="44.52858647135225" lon="0.9711296154549025"><ele>190.0</ele><time>2026-04-24T16:34:55Z</time></trkpt><trkpt lat="44.528633643658154" lon="0.9712512290429092"><ele>190.0</ele><time>2026-04-24T16:34:57Z</time></trkpt><trkpt lat="44.528651174160295" lon="0.9713838516780838"><ele>190.0</ele><time>2026-04-24T16:34:59Z</time></trkpt><trkpt lat="44.52866480272141" lon="0.9714811996233057"><ele>190.0</ele><time>2026-04-24T16:35:01Z</time></trkpt><trkpt lat="44.52859885072115" lon="0.9715294718515283"><ele>190.0</ele><time>2026-04-24T16:35:05Z</time></trkpt><trkpt lat="44.528595097314486" lon="0.9716482061400044"><ele>190.0</ele><time>2026-04-24T16:35:07Z</time></trkpt><trkpt lat="44.52859611902979" lon="0.9717810149302304"><ele>190.0</ele><time>2026-04-24T16:35:09Z</time></trkpt><trkpt lat="44.52856195042872" lon="0.9719017064060809"><ele>190.0</ele><time>2026-04-24T16:35:11Z</time></trkpt><trkpt lat="44.52851360912449" lon="0.9719820132210027"><ele>190.0</ele><time>2026-04-24T16:35:14Z</time></trkpt><trkpt lat="44.5284527264587" lon="0.9720306757501189"><ele>190.0</ele><time>2026-04-24T16:35:16Z</time></trkpt><trkpt lat="44.52846500257274" lon="0.9721211136975585"><ele>190.0</ele><time>2026-04-24T16:35:21Z</time></trkpt><trkpt lat="44.52844482978546" lon="0.972205391939384"><ele>190.0</ele><time>2026-04-24T16:35:28Z</time></trkpt><trkpt lat="44.5284880996625" lon="0.9722849952735212"><ele>190.0</ele><time>2026-04-24T16:35:44Z</time></trkpt><trkpt lat="44.52842378500732" lon="0.9723363435104352"><ele>190.0</ele><time>2026-04-24T16:37:40Z</time></trkpt><trkpt lat="44.528575136899434" lon="0.9723307870560449"><ele>190.0</ele><time>2026-04-24T16:59:18.001Z</time></trkpt><trkpt lat="44.528606216905835" lon="0.9724258358544992"><ele>190.0</ele><time>2026-04-24T16:59:20.001Z</time></trkpt><trkpt lat="44.528626084024935" lon="0.9725128466021461"><ele>190.0</ele><time>2026-04-24T16:59:22.001Z</time></trkpt><trkpt lat="44.52861004174371" lon="0.9726198637345081"><ele>190.0</ele><time>2026-04-24T16:59:24.001Z</time></trkpt><trkpt lat="44.52863780062772" lon="0.9727306674198078"><ele>189.16666666666669</ele><time>2026-04-24T16:59:26.001Z</time></trkpt><trkpt lat="44.52858813934383" lon="0.9728362295374168"><ele>188.33333333333334</ele><time>2026-04-24T16:59:28.001Z</time></trkpt><trkpt lat="44.52854951081217" lon="0.9729387661451809"><ele>187.5</ele><time>2026-04-24T16:59:30.001Z</time></trkpt><trkpt lat="44.52853050359363" lon="0.9730368000422329"><ele>186.66666666666666</ele><time>2026-04-24T16:59:32.001Z</time></trkpt><trkpt lat="44.52844840752628" lon="0.9730932361758137"><ele>185.83333333333331</ele><time>2026-04-24T16:59:35.001Z</time></trkpt><trkpt lat="44.52838981448293" lon="0.9731621098358212"><ele>185.0</ele><time>2026-04-24T16:59:37.001Z</time></trkpt><trkpt lat="44.528333704247736" lon="0.9732351352741515"><ele>185.0</ele><time>2026-04-24T16:59:39.001Z</time></trkpt><trkpt lat="44.52823632525484" lon="0.973204839918602"><ele>185.0</ele><time>2026-04-24T16:59:41.001Z</time></trkpt><trkpt lat="44.528130585040294" lon="0.973273523010893"><ele>185.0</ele><time>2026-04-24T16:59:43.001Z</time></trkpt><trkpt lat="44.52803178944408" lon="0.9733320361289628"><ele>185.0</ele><time>2026-04-24T16:59:45.001Z</time></trkpt><trkpt lat="44.52793385298504" lon="0.9733834029407301"><ele>185.0</ele><time>2026-04-24T16:59:47.001Z</time></trkpt><trkpt lat="44.52784676270565" lon="0.9734392020164243"><ele>182.83333333333331</ele><time>2026-04-24T16:59:49.001Z</time></trkpt><trkpt lat="44.52775584119657" lon="0.9734579607043716"><ele>180.66666666666666</ele><time>2026-04-24T16:59:51.001Z</time></trkpt><trkpt lat="44.527672846121334" lon="0.973492895483293"><ele>178.5</ele><time>2026-04-24T16:59:53.001Z</time></trkpt><trkpt lat="44.52760482096706" lon="0.9735623967996828"><ele>176.33333333333334</ele><time>2026-04-24T16:59:55.001Z</time></trkpt><trkpt lat="44.52754846920918" lon="0.9735211818963352"><ele>174.16666666666669</ele><time>2026-04-24T16:59:57.001Z</time></trkpt><trkpt lat="44.52750616911864" lon="0.9734492969156971"><ele>172.0</ele><time>2026-04-24T16:59:59.001Z</time></trkpt><trkpt lat="44.52746209899211" lon="0.9733729194889039"><ele>171.5</ele><time>2026-04-24T17:00:01.001Z</time></trkpt><trkpt lat="44.52743885279467" lon="0.9732472713285938"><ele>171.0</ele><time>2026-04-24T17:00:03.001Z</time></trkpt><trkpt lat="44.527390107937045" lon="0.9731256546074448"><ele>170.5</ele><time>2026-04-24T17:00:05.001Z</time></trkpt><trkpt lat="44.52736142651964" lon="0.9730237075935787"><ele>170.0</ele><time>2026-04-24T17:00:07.001Z</time></trkpt><trkpt lat="44.52733386013367" lon="0.9729408872677453"><ele>169.5</ele><time>2026-04-24T17:00:09.001Z</time></trkpt><trkpt lat="44.527308901216436" lon="0.9728475575054919"><ele>169.0</ele><time>2026-04-24T17:00:11.001Z</time></trkpt><trkpt lat="44.52727860294458" lon="0.9727502463957264"><ele>169.0</ele><time>2026-04-24T17:00:13.002Z</time></trkpt><trkpt lat="44.52720763494727" lon="0.9725958888060316"><ele>169.0</ele><time>2026-04-24T17:00:15.002Z</time></trkpt><trkpt lat="44.527165733214694" lon="0.9724785343209821"><ele>169.0</ele><time>2026-04-24T17:00:16.002Z</time></trkpt><trkpt lat="44.52710220488412" lon="0.9723395413554585"><ele>169.0</ele><time>2026-04-24T17:00:17.002Z</time></trkpt><trkpt lat="44.527053780299006" lon="0.9722181954722808"><ele>169.0</ele><time>2026-04-24T17:00:18.002Z</time></trkpt><trkpt lat="44.527012248173804" lon="0.9721083870353372"><ele>167.71428571428572</ele><time>2026-04-24T17:00:19.002Z</time></trkpt><trkpt lat="44.52697386606783" lon="0.9720118328086317"><ele>166.42857142857142</ele><time>2026-04-24T17:00:20.002Z</time></trkpt><trkpt lat="44.52693391423235" lon="0.9719185068385793"><ele>165.14285714285714</ele><time>2026-04-24T17:00:21.001Z</time></trkpt><trkpt lat="44.52691148896116" lon="0.9718198706260691"><ele>163.85714285714286</ele><time>2026-04-24T17:00:22.001Z</time></trkpt><trkpt lat="44.526881885530784" lon="0.971728794729091"><ele>162.57142857142858</ele><time>2026-04-24T17:00:23.001Z</time></trkpt><trkpt lat="44.52685593523678" lon="0.9716459604435915"><ele>161.28571428571428</ele><time>2026-04-24T17:00:24.001Z</time></trkpt><trkpt lat="44.52682015772606" lon="0.9715661502483743"><ele>160.0</ele><time>2026-04-24T17:00:25.001Z</time></trkpt><trkpt lat="44.526782289371184" lon="0.9714898979577151"><ele>159.42857142857142</ele><time>2026-04-24T17:00:26.001Z</time></trkpt><trkpt lat="44.52674891862982" lon="0.971414627255138"><ele>158.85714285714286</ele><time>2026-04-24T17:00:27.001Z</time></trkpt><trkpt lat="44.52670894892831" lon="0.9713130815385762"><ele>158.28571428571428</ele><time>2026-04-24T17:00:28.001Z</time></trkpt><trkpt lat="44.52665768573843" lon="0.9712365917869914"><ele>157.71428571428572</ele><time>2026-04-24T17:00:29.001Z</time></trkpt><trkpt lat="44.526616367364745" lon="0.9711558450856348"><ele>157.14285714285714</ele><time>2026-04-24T17:00:30.001Z</time></trkpt><trkpt lat="44.52656723887857" lon="0.9710769308857288"><ele>156.57142857142858</ele><time>2026-04-24T17:00:31.001Z</time></trkpt><trkpt lat="44.526519873637284" lon="0.9709860959526412"><ele>156.0</ele><time>2026-04-24T17:00:32.001Z</time></trkpt><trkpt lat="44.52647646502522" lon="0.9709129937257595"><ele>155.83333333333334</ele><time>2026-04-24T17:00:33.001Z</time></trkpt><trkpt lat="44.52642978302728" lon="0.9708365957580393"><ele>155.66666666666666</ele><time>2026-04-24T17:00:34.001Z</time></trkpt><trkpt lat="44.526389381089864" lon="0.9707480042307906"><ele>155.5</ele><time>2026-04-24T17:00:35.001Z</time></trkpt><trkpt lat="44.52636282872299" lon="0.9706544170137835"><ele>155.33333333333331</ele><time>2026-04-24T17:00:36.001Z</time></trkpt><trkpt lat="44.52633325912054" lon="0.9705508514133047"><ele>155.16666666666666</ele><time>2026-04-24T17:00:37.001Z</time></trkpt><trkpt lat="44.52631074688204" lon="0.9704357550141385"><ele>155.0</ele><time>2026-04-24T17:00:38.001Z</time></trkpt><trkpt lat="44.52628401710215" lon="0.9703063819990695"><ele>155.0</ele><time>2026-04-24T17:00:39.001Z</time></trkpt><trkpt lat="44.5262570349104" lon="0.9701946009005682"><ele>155.0</ele><time>2026-04-24T17:00:40.001Z</time></trkpt><trkpt lat="44.52623779947494" lon="0.9701013014835658"><ele>155.0</ele><time>2026-04-24T17:00:41.001Z</time></trkpt><trkpt lat="44.526214778224734" lon="0.9700114068398628"><ele>155.0</ele><time>2026-04-24T17:00:42.001Z</time></trkpt><trkpt lat="44.52618912566087" lon="0.9699307127823078"><ele>155.0</ele><time>2026-04-24T17:00:43.001Z</time></trkpt><trkpt lat="44.526160025950986" lon="0.9698288154758996"><ele>155.0</ele><time>2026-04-24T17:00:44.001Z</time></trkpt><trkpt lat="44.5261366988684" lon="0.9697461329463973"><ele>155.0</ele><time>2026-04-24T17:00:45.001Z</time></trkpt><trkpt lat="44.52611821147275" lon="0.9696523716306684"><ele>153.2</ele><time>2026-04-24T17:00:46.001Z</time></trkpt><trkpt lat="44.52605867346842" lon="0.9695248626507749"><ele>151.4</ele><time>2026-04-24T17:00:48.001Z</time></trkpt><trkpt lat="44.52602321263133" lon="0.9694099903257296"><ele>149.6</ele><time>2026-04-24T17:00:50.001Z</time></trkpt><trkpt lat="44.52596985090529" lon="0.9692781060650658"><ele>147.8</ele><time>2026-04-24T17:00:52.001Z</time></trkpt><trkpt lat="44.525911217964754" lon="0.9691260284286094"><ele>146.0</ele><time>2026-04-24T17:00:54.001Z</time></trkpt><trkpt lat="44.525849761061934" lon="0.9689582336355113"><ele>146.0</ele><time>2026-04-24T17:00:56.001Z</time></trkpt><trkpt lat="44.52581611692204" lon="0.968860604417759"><ele>146.0</ele><time>2026-04-24T17:00:57.001Z</time></trkpt><trkpt lat="44.52577108970911" lon="0.9687869297075081"><ele>146.0</ele><time>2026-04-24T17:00:58.001Z</time></trkpt><trkpt lat="44.52573560931389" lon="0.9687022736745273"><ele>146.0</ele><time>2026-04-24T17:00:59.001Z</time></trkpt><trkpt lat="44.52568548190386" lon="0.968634070598069"><ele>146.0</ele><time>2026-04-24T17:01:00.001Z</time></trkpt><trkpt lat="44.525596660546654" lon="0.9684732274159747"><ele>146.0</ele><time>2026-04-24T17:01:02.001Z</time></trkpt><trkpt lat="44.525552815890805" lon="0.9683987002941815"><ele>145.66666666666666</ele><time>2026-04-24T17:01:03.001Z</time></trkpt><trkpt lat="44.52549879096802" lon="0.9683328523527099"><ele>145.33333333333331</ele><time>2026-04-24T17:01:04.001Z</time></trkpt><trkpt lat="44.525463476630506" lon="0.9682542825442103"><ele>145.0</ele><time>2026-04-24T17:01:05.001Z</time></trkpt><trkpt lat="44.52541682799463" lon="0.9681368399355691"><ele>144.66666666666666</ele><time>2026-04-24T17:01:07.001Z</time></trkpt><trkpt lat="44.5254050502912" lon="0.9680481570409881"><ele>144.33333333333334</ele><time>2026-04-24T17:01:09.001Z</time></trkpt><trkpt lat="44.525465871642865" lon="0.9680204737173459"><ele>144.0</ele><time>2026-04-24T17:01:11.001Z</time></trkpt><trkpt lat="44.52554707683461" lon="0.967952849500826"><ele>144.0</ele><time>2026-04-24T17:01:13.001Z</time></trkpt><trkpt lat="44.52563557573642" lon="0.9678555161655649"><ele>144.0</ele><time>2026-04-24T17:01:15.001Z</time></trkpt><trkpt lat="44.52570665561291" lon="0.9677348594428905"><ele>144.0</ele><time>2026-04-24T17:01:17.001Z</time></trkpt><trkpt lat="44.525787856367316" lon="0.96764063898121"><ele>144.0</ele><time>2026-04-24T17:01:19.001Z</time></trkpt><trkpt lat="44.525841193661755" lon="0.9675924703135889"><ele>144.0</ele><time>2026-04-24T17:01:20.001Z</time></trkpt><trkpt lat="44.52593906323192" lon="0.9674968114806445"><ele>144.4</ele><time>2026-04-24T17:01:22.001Z</time></trkpt><trkpt lat="44.526002764440534" lon="0.9674551738643135"><ele>144.8</ele><time>2026-04-24T17:01:24.001Z</time></trkpt><trkpt lat="44.52606592307734" lon="0.967387470696472"><ele>145.2</ele><time>2026-04-24T17:01:26.001Z</time></trkpt><trkpt lat="44.526119429402705" lon="0.9673040460226208"><ele>145.6</ele><time>2026-04-24T17:01:27.001Z</time></trkpt><trkpt lat="44.5262020332355" lon="0.9672112738167643"><ele>146.0</ele><time>2026-04-24T17:01:29.001Z</time></trkpt><trkpt lat="44.526320396838656" lon="0.967101256493881"><ele>149.4</ele><time>2026-04-24T17:01:31.001Z</time></trkpt><trkpt lat="44.52638577979272" lon="0.9670304028759118"><ele>152.8</ele><time>2026-04-24T17:01:32.001Z</time></trkpt><trkpt lat="44.52645756489138" lon="0.9669253582926255"><ele>156.20000000000002</ele><time>2026-04-24T17:01:33.001Z</time></trkpt><trkpt lat="44.526530524505226" lon="0.966828000454703"><ele>159.6</ele><time>2026-04-24T17:01:34.001Z</time></trkpt><trkpt lat="44.52660946600891" lon="0.9667390909540834"><ele>163.0</ele><time>2026-04-24T17:01:35.001Z</time></trkpt><trkpt lat="44.526698781825374" lon="0.9666723640048245"><ele>163.60000000000002</ele><time>2026-04-24T17:01:36.001Z</time></trkpt><trkpt lat="44.526780692334135" lon="0.966589988892876"><ele>164.20000000000002</ele><time>2026-04-24T17:01:37.001Z</time></trkpt><trkpt lat="44.526875124710685" lon="0.9665024619749244"><ele>164.8</ele><time>2026-04-24T17:01:38.001Z</time></trkpt><trkpt lat="44.52694471527781" lon="0.9664275783659964"><ele>165.4</ele><time>2026-04-24T17:01:39.001Z</time></trkpt><trkpt lat="44.52699921444975" lon="0.966381548240396"><ele>166.0</ele><time>2026-04-24T17:01:40.001Z</time></trkpt><trkpt lat="44.52708244476114" lon="0.9663309490806092"><ele>165.66666666666669</ele><time>2026-04-24T17:01:42.001Z</time></trkpt><trkpt lat="44.527113514480384" lon="0.9661961340861367"><ele>165.33333333333334</ele><time>2026-04-24T17:01:44.001Z</time></trkpt><trkpt lat="44.52712241720261" lon="0.9661078217363843"><ele>165.0</ele><time>2026-04-24T17:01:45.001Z</time></trkpt><trkpt lat="44.52710154547298" lon="0.9660121503979986"><ele>164.66666666666666</ele><time>2026-04-24T17:01:46.001Z</time></trkpt><trkpt lat="44.52708957317735" lon="0.9659038342914839"><ele>164.33333333333331</ele><time>2026-04-24T17:01:47.001Z</time></trkpt><trkpt lat="44.527071706181175" lon="0.9658094327912304"><ele>164.0</ele><time>2026-04-24T17:01:48.001Z</time></trkpt><trkpt lat="44.52704156870153" lon="0.9657069944144637"><ele>164.85714285714283</ele><time>2026-04-24T17:01:49.001Z</time></trkpt><trkpt lat="44.52703429685618" lon="0.9655953599570097"><ele>165.71428571428572</ele><time>2026-04-24T17:01:50.001Z</time></trkpt><trkpt lat="44.52703977579831" lon="0.9654929730983135"><ele>166.57142857142856</ele><time>2026-04-24T17:01:51.001Z</time></trkpt><trkpt lat="44.527060590163266" lon="0.9653885984225643"><ele>167.42857142857142</ele><time>2026-04-24T17:01:52.001Z</time></trkpt><trkpt lat="44.52706003600304" lon="0.9652889205471997"><ele>168.28571428571428</ele><time>2026-04-24T17:01:53.001Z</time></trkpt><trkpt lat="44.527054647711594" lon="0.965193917537386"><ele>169.14285714285714</ele><time>2026-04-24T17:01:54.001Z</time></trkpt><trkpt lat="44.52704701791516" lon="0.9651018496024943"><ele>170.0</ele><time>2026-04-24T17:01:55.001Z</time></trkpt><trkpt lat="44.527029076274445" lon="0.9649943664171547"><ele>170.0</ele><time>2026-04-24T17:01:56.001Z</time></trkpt><trkpt lat="44.52701673063235" lon="0.9648933914427179"><ele>170.0</ele><time>2026-04-24T17:01:57.001Z</time></trkpt><trkpt lat="44.52701867175058" lon="0.9647918408168182"><ele>170.0</ele><time>2026-04-24T17:01:58.001Z</time></trkpt><trkpt lat="44.52705586823406" lon="0.9647136437146385"><ele>170.0</ele><time>2026-04-24T17:01:59.001Z</time></trkpt><trkpt lat="44.52709009420926" lon="0.964572885942604"><ele>170.0</ele><time>2026-04-24T17:02:01.001Z</time></trkpt><trkpt lat="44.5271341590551" lon="0.9644405188211868"><ele>170.0</ele><time>2026-04-24T17:02:03.001Z</time></trkpt><trkpt lat="44.52719400360367" lon="0.9643132122634248"><ele>168.4</ele><time>2026-04-24T17:02:05.001Z</time></trkpt><trkpt lat="44.527256057108154" lon="0.9641841876842056"><ele>166.8</ele><time>2026-04-24T17:02:07.001Z</time></trkpt><trkpt lat="44.52733217387814" lon="0.9640931131795795"><ele>165.2</ele><time>2026-04-24T17:02:09.001Z</time></trkpt><trkpt lat="44.52740284129904" lon="0.9639894555732627"><ele>163.6</ele><time>2026-04-24T17:02:11.001Z</time></trkpt><trkpt lat="44.52747595690006" lon="0.963881871204746"><ele>162.0</ele><time>2026-04-24T17:02:13.001Z</time></trkpt><trkpt lat="44.52752172854134" lon="0.963813968544057"><ele>162.0</ele><time>2026-04-24T17:02:14.001Z</time></trkpt><trkpt lat="44.52756589064406" lon="0.9637331983366025"><ele>162.0</ele><time>2026-04-24T17:02:15.001Z</time></trkpt><trkpt lat="44.527612705623774" lon="0.9636432822244767"><ele>162.0</ele><time>2026-04-24T17:02:16.001Z</time></trkpt><trkpt lat="44.527660379446644" lon="0.9635451620438958"><ele>162.0</ele><time>2026-04-24T17:02:17.001Z</time></trkpt><trkpt lat="44.52741052246749" lon="0.9630746664051273"><ele>161.8</ele><time>2026-04-24T17:02:18.001Z</time></trkpt><trkpt lat="44.527426065057554" lon="0.9629392518888358"><ele>161.6</ele><time>2026-04-24T17:02:19.001Z</time></trkpt><trkpt lat="44.52744093248314" lon="0.9627883038497091"><ele>161.4</ele><time>2026-04-24T17:02:20.001Z</time></trkpt><trkpt lat="44.527457862521885" lon="0.9626426702996888"><ele>161.20000000000002</ele><time>2026-04-24T17:02:21.001Z</time></trkpt><trkpt lat="44.52747442693301" lon="0.9625182415286327"><ele>161.0</ele><time>2026-04-24T17:02:22.001Z</time></trkpt><trkpt lat="44.52749172667918" lon="0.9623679132966346"><ele>160.5</ele><time>2026-04-24T17:02:23.001Z</time></trkpt><trkpt lat="44.527498845662734" lon="0.9622349934339848"><ele>160.0</ele><time>2026-04-24T17:02:24.001Z</time></trkpt><trkpt lat="44.52750922142455" lon="0.9621199560510657"><ele>159.5</ele><time>2026-04-24T17:02:25.001Z</time></trkpt><trkpt lat="44.527528547789956" lon="0.9620156935732134"><ele>159.0</ele><time>2026-04-24T17:02:26.001Z</time></trkpt><trkpt lat="44.52753532328257" lon="0.9619058410407022"><ele>158.5</ele><time>2026-04-24T17:02:27.001Z</time></trkpt><trkpt lat="44.527541029569086" lon="0.9618056140326585"><ele>158.0</ele><time>2026-04-24T17:02:28.001Z</time></trkpt><trkpt lat="44.52755134523019" lon="0.9617079080280562"><ele>158.60000000000002</ele><time>2026-04-24T17:02:29.001Z</time></trkpt><trkpt lat="44.52757666440879" lon="0.9615463803075018"><ele>159.20000000000002</ele><time>2026-04-24T17:02:31.001Z</time></trkpt><trkpt lat="44.52756148503708" lon="0.9613950463157249"><ele>159.8</ele><time>2026-04-24T17:02:33.001Z</time></trkpt><trkpt lat="44.52756521481032" lon="0.9612667185233206"><ele>160.4</ele><time>2026-04-24T17:02:35.001Z</time></trkpt><trkpt lat="44.52752713605301" lon="0.9611780371389382"><ele>161.0</ele><time>2026-04-24T17:02:36.001Z</time></trkpt><trkpt lat="44.52749867960266" lon="0.96101823008935"><ele>161.0</ele><time>2026-04-24T17:02:38.001Z</time></trkpt><trkpt lat="44.52746832336805" lon="0.9608679236534085"><ele>161.0</ele><time>2026-04-24T17:02:40.001Z</time></trkpt><trkpt lat="44.527452136542365" lon="0.9607391153178432"><ele>161.0</ele><time>2026-04-24T17:02:42.001Z</time></trkpt><trkpt lat="44.527429072758935" lon="0.960572691722834"><ele>161.0</ele><time>2026-04-24T17:02:44.001Z</time></trkpt><trkpt lat="44.52742109836073" lon="0.9604768566823475"><ele>161.0</ele><time>2026-04-24T17:02:46.001Z</time></trkpt><trkpt lat="44.52736290508292" lon="0.9603993043797567"><ele>161.0</ele><time>2026-04-24T17:02:49.001Z</time></trkpt><trkpt lat="44.52733170857666" lon="0.9602989604207159"><ele>161.0</ele><time>2026-04-24T17:02:51.001Z</time></trkpt><trkpt lat="44.52728419179247" lon="0.9601731260932338"><ele>161.0</ele><time>2026-04-24T17:02:53.001Z</time></trkpt><trkpt lat="44.52717545097971" lon="0.960076383027098"><ele>161.0</ele><time>2026-04-24T17:02:55.001Z</time></trkpt><trkpt lat="44.5270932572079" lon="0.960004558990324"><ele>161.0</ele><time>2026-04-24T17:02:56.001Z</time></trkpt><trkpt lat="44.52699912868066" lon="0.959933133896391"><ele>161.0</ele><time>2026-04-24T17:02:57.001Z</time></trkpt><trkpt lat="44.5268919133365" lon="0.9598482738724569"><ele>161.0</ele><time>2026-04-24T17:02:58.001Z</time></trkpt><trkpt lat="44.52679789482989" lon="0.9597478733161652"><ele>161.0</ele><time>2026-04-24T17:02:59.001Z</time></trkpt><trkpt lat="44.526698311943164" lon="0.9596716067566643"><ele>161.0</ele><time>2026-04-24T17:03:00.001Z</time></trkpt><trkpt lat="44.526633048346774" lon="0.9595937329460049"><ele>161.0</ele><time>2026-04-24T17:03:01.001Z</time></trkpt><trkpt lat="44.52657027273386" lon="0.9595278872041588"><ele>161.0</ele><time>2026-04-24T17:03:02.001Z</time></trkpt><trkpt lat="44.52649360061913" lon="0.9594271827305387"><ele>161.0</ele><time>2026-04-24T17:03:04.001Z</time></trkpt><trkpt lat="44.526416735050525" lon="0.9594207308509485"><ele>161.0</ele><time>2026-04-24T17:03:06.001Z</time></trkpt><trkpt lat="44.52634605418991" lon="0.9594155527056237"><ele>161.0</ele><time>2026-04-24T17:03:08.001Z</time></trkpt><trkpt lat="44.52627497783289" lon="0.9593169841002858"><ele>161.0</ele><time>2026-04-24T17:03:10.001Z</time></trkpt><trkpt lat="44.526260491119956" lon="0.9592189429745722"><ele>161.0</ele><time>2026-04-24T17:03:14.001Z</time></trkpt><trkpt lat="44.52629444571746" lon="0.9590889555896365"><ele>161.33333333333331</ele><time>2026-04-24T17:03:18.001Z</time></trkpt><trkpt lat="44.52631753967785" lon="0.9589560745073936"><ele>161.66666666666666</ele><time>2026-04-24T17:03:20.001Z</time></trkpt><trkpt lat="44.52635840505672" lon="0.958819521180306"><ele>162.0</ele><time>2026-04-24T17:03:22.001Z</time></trkpt><trkpt lat="44.52641917861049" lon="0.9586812373589378"><ele>162.33333333333334</ele><time>2026-04-24T17:03:24.001Z</time></trkpt><trkpt lat="44.52644334401008" lon="0.9585962833959439"><ele>162.66666666666669</ele><time>2026-04-24T17:03:25.001Z</time></trkpt><trkpt lat="44.52646163099385" lon="0.9585117385425768"><ele>163.0</ele><time>2026-04-24T17:03:26.001Z</time></trkpt><trkpt lat="44.526466070734486" lon="0.9583516999133151"><ele>163.0</ele><time>2026-04-24T17:03:28.001Z</time></trkpt><trkpt lat="44.526494007953914" lon="0.9581863514959327"><ele>163.0</ele><time>2026-04-24T17:03:30.001Z</time></trkpt><trkpt lat="44.52648734808488" lon="0.9580063193901635"><ele>163.0</ele><time>2026-04-24T17:03:32.001Z</time></trkpt><trkpt lat="44.526491237158055" lon="0.957910182642982"><ele>163.0</ele><time>2026-04-24T17:03:33.001Z</time></trkpt><trkpt lat="44.52646950359495" lon="0.9578211414343621"><ele>163.0</ele><time>2026-04-24T17:03:34.001Z</time></trkpt><trkpt lat="44.526458641592605" lon="0.9577216820469653"><ele>163.0</ele><time>2026-04-24T17:03:35.001Z</time></trkpt><trkpt lat="44.52643930059301" lon="0.9575717919690165"><ele>163.0</ele><time>2026-04-24T17:03:37.001Z</time></trkpt><trkpt lat="44.526426943149815" lon="0.9574550479247208"><ele>163.0</ele><time>2026-04-24T17:03:39.001Z</time></trkpt><trkpt lat="44.52652275903791" lon="0.9573988129277611"><ele>163.0</ele><time>2026-04-24T17:03:41.001Z</time></trkpt><trkpt lat="44.52658555422287" lon="0.957419484883026"><ele>163.0</ele><time>2026-04-24T17:03:42.001Z</time></trkpt><trkpt lat="44.52666516788643" lon="0.9573954068587389"><ele>163.0</ele><time>2026-04-24T17:03:44.001Z</time></trkpt><trkpt lat="44.52669042357119" lon="0.9572868309268584"><ele>161.4</ele><time>2026-04-24T17:03:45.001Z</time></trkpt><trkpt lat="44.52668114072066" lon="0.9571589410733471"><ele>159.8</ele><time>2026-04-24T17:03:46.001Z</time></trkpt><trkpt lat="44.52666823586358" lon="0.9570549165004081"><ele>158.2</ele><time>2026-04-24T17:03:47.001Z</time></trkpt><trkpt lat="44.52668122603337" lon="0.9568814977969793"><ele>156.6</ele><time>2026-04-24T17:03:49.001Z</time></trkpt><trkpt lat="44.526682532044475" lon="0.9566732158329802"><ele>155.0</ele><time>2026-04-24T17:03:51.001Z</time></trkpt><trkpt lat="44.52666907064086" lon="0.9565625311043281"><ele>154.0</ele><time>2026-04-24T17:03:52.001Z</time></trkpt><trkpt lat="44.52665326961037" lon="0.9564597602567331"><ele>153.0</ele><time>2026-04-24T17:03:53.001Z</time></trkpt><trkpt lat="44.52663650575282" lon="0.9563702150930186"><ele>152.0</ele><time>2026-04-24T17:03:54.001Z</time></trkpt><trkpt lat="44.52660727170846" lon="0.956256141759469"><ele>151.0</ele><time>2026-04-24T17:03:56.001Z</time></trkpt><trkpt lat="44.52661618676026" lon="0.9561385058674519"><ele>150.0</ele><time>2026-04-24T17:03:58.001Z</time></trkpt><trkpt lat="44.526666134684085" lon="0.9560750748584136"><ele>149.0</ele><time>2026-04-24T17:03:59.001Z</time></trkpt><trkpt lat="44.52673817871549" lon="0.9559979073278563"><ele>149.0</ele><time>2026-04-24T17:04:00.001Z</time></trkpt><trkpt lat="44.526806903392284" lon="0.955899995173065"><ele>149.0</ele><time>2026-04-24T17:04:01.001Z</time></trkpt><trkpt lat="44.52686579946995" lon="0.9558177840409364"><ele>149.0</ele><time>2026-04-24T17:04:02.001Z</time></trkpt><trkpt lat="44.52690765030536" lon="0.9557320604059406"><ele>149.0</ele><time>2026-04-24T17:04:04.001Z</time></trkpt><trkpt lat="44.52681511003956" lon="0.9556072857600573"><ele>149.0</ele><time>2026-04-24T17:04:06.001Z</time></trkpt><trkpt lat="44.52670912838038" lon="0.9555181833029331"><ele>147.25</ele><time>2026-04-24T17:04:07.001Z</time></trkpt><trkpt lat="44.526594484733415" lon="0.9553978785812166"><ele>145.5</ele><time>2026-04-24T17:04:08.001Z</time></trkpt><trkpt lat="44.52647677123177" lon="0.955305536258336"><ele>143.75</ele><time>2026-04-24T17:04:09.001Z</time></trkpt><trkpt lat="44.52637025557369" lon="0.9552476007843489"><ele>142.0</ele><time>2026-04-24T17:04:10.001Z</time></trkpt><trkpt lat="44.52629315361192" lon="0.9551927216304615"><ele>142.0</ele><time>2026-04-24T17:04:11.001Z</time></trkpt><trkpt lat="44.526258398292235" lon="0.9551064400164648"><ele>142.0</ele><time>2026-04-24T17:04:12.001Z</time></trkpt><trkpt lat="44.526208150409644" lon="0.9550438707284097"><ele>142.0</ele><time>2026-04-24T17:04:13.001Z</time></trkpt><trkpt lat="44.52614241995956" lon="0.9549439561302772"><ele>142.0</ele><time>2026-04-24T17:04:15.001Z</time></trkpt><trkpt lat="44.52616968211864" lon="0.9548130445656813"><ele>142.0</ele><time>2026-04-24T17:04:17.001Z</time></trkpt><trkpt lat="44.52622327895016" lon="0.954735485935494"><ele>142.0</ele><time>2026-04-24T17:04:19.001Z</time></trkpt><trkpt lat="44.526264391335424" lon="0.9546320133612451"><ele>140.83333333333334</ele><time>2026-04-24T17:04:22.001Z</time></trkpt><trkpt lat="44.526312699649814" lon="0.9545375254890113"><ele>139.66666666666669</ele><time>2026-04-24T17:04:25.001Z</time></trkpt><trkpt lat="44.52635870355867" lon="0.9544326885140737"><ele>138.5</ele><time>2026-04-24T17:04:28.001Z</time></trkpt><trkpt lat="44.52639188986599" lon="0.9543478392756873"><ele>137.33333333333334</ele><time>2026-04-24T17:04:30.001Z</time></trkpt><trkpt lat="44.52643862284066" lon="0.9542170297079446"><ele>136.16666666666666</ele><time>2026-04-24T17:04:32.001Z</time></trkpt><trkpt lat="44.526473234678825" lon="0.9541383914115424"><ele>135.0</ele><time>2026-04-24T17:04:33.001Z</time></trkpt><trkpt lat="44.52652327208363" lon="0.9540126707783733"><ele>134.0</ele><time>2026-04-24T17:04:35.001Z</time></trkpt><trkpt lat="44.526588816279734" lon="0.9539387475743378"><ele>133.0</ele><time>2026-04-24T17:04:37.001Z</time></trkpt><trkpt lat="44.526691887549354" lon="0.9539477861812468"><ele>132.0</ele><time>2026-04-24T17:04:39.001Z</time></trkpt><trkpt lat="44.52679108910426" lon="0.9539614271047958"><ele>131.0</ele><time>2026-04-24T17:04:41.001Z</time></trkpt><trkpt lat="44.52688308840686" lon="0.9539988214073194"><ele>130.0</ele><time>2026-04-24T17:04:43.001Z</time></trkpt><trkpt lat="44.52695788184354" lon="0.9540183168686311"><ele>130.0</ele><time>2026-04-24T17:04:44.001Z</time></trkpt><trkpt lat="44.52703187627336" lon="0.9540321871699124"><ele>130.0</ele><time>2026-04-24T17:04:45.001Z</time></trkpt><trkpt lat="44.527085950705995" lon="0.9540945034659377"><ele>130.0</ele><time>2026-04-24T17:04:46.001Z</time></trkpt><trkpt lat="44.52715216881041" lon="0.9541154500231696"><ele>130.0</ele><time>2026-04-24T17:04:47.001Z</time></trkpt><trkpt lat="44.52723938827152" lon="0.9541255070254142"><ele>130.0</ele><time>2026-04-24T17:04:48.001Z</time></trkpt><trkpt lat="44.527330320574734" lon="0.9541779732626803"><ele>130.0</ele><time>2026-04-24T17:04:49.001Z</time></trkpt><trkpt lat="44.52742224022266" lon="0.9542151341527998"><ele>132.0</ele><time>2026-04-24T17:04:50.001Z</time></trkpt><trkpt lat="44.52751292519865" lon="0.9542527952664527"><ele>134.0</ele><time>2026-04-24T17:04:51.001Z</time></trkpt><trkpt lat="44.527598722525845" lon="0.9542650225418655"><ele>136.0</ele><time>2026-04-24T17:04:52.001Z</time></trkpt><trkpt lat="44.52767046498561" lon="0.9543020382057447"><ele>138.0</ele><time>2026-04-24T17:04:53.001Z</time></trkpt><trkpt lat="44.52773559138726" lon="0.9543352252197018"><ele>140.0</ele><time>2026-04-24T17:04:54.001Z</time></trkpt><trkpt lat="44.527800815033345" lon="0.9543957543878685"><ele>142.0</ele><time>2026-04-24T17:04:55.001Z</time></trkpt><trkpt lat="44.5278684244372" lon="0.9544438073854963"><ele>141.2</ele><time>2026-04-24T17:04:56.001Z</time></trkpt><trkpt lat="44.52795101839815" lon="0.9544968027102952"><ele>140.39999999999998</ele><time>2026-04-24T17:04:57.001Z</time></trkpt><trkpt lat="44.52800658848453" lon="0.9545931867568416"><ele>139.60000000000002</ele><time>2026-04-24T17:04:58.001Z</time></trkpt><trkpt lat="44.52808582753558" lon="0.9546770463284835"><ele>138.8</ele><time>2026-04-24T17:04:59.001Z</time></trkpt><trkpt lat="44.528171142287746" lon="0.9547388887776143"><ele>138.0</ele><time>2026-04-24T17:05:00.001Z</time></trkpt><trkpt lat="44.528264003112305" lon="0.954800651788146"><ele>138.0</ele><time>2026-04-24T17:05:01.001Z</time></trkpt><trkpt lat="44.5283596615783" lon="0.9548727501756616"><ele>138.0</ele><time>2026-04-24T17:05:02.001Z</time></trkpt><trkpt lat="44.528461563222095" lon="0.9549495045600033"><ele>138.0</ele><time>2026-04-24T17:05:03.001Z</time></trkpt><trkpt lat="44.52858407108647" lon="0.9550544582220936"><ele>138.0</ele><time>2026-04-24T17:05:04.001Z</time></trkpt><trkpt lat="44.52871292097344" lon="0.9551497372009872"><ele>139.33333333333334</ele><time>2026-04-24T17:05:05.001Z</time></trkpt><trkpt lat="44.52883867201571" lon="0.9552626634715901"><ele>140.66666666666669</ele><time>2026-04-24T17:05:06.001Z</time></trkpt><trkpt lat="44.5289934209623" lon="0.9553204147403632"><ele>142.0</ele><time>2026-04-24T17:05:07.001Z</time></trkpt><trkpt lat="44.529135817532755" lon="0.9553957193340312"><ele>142.0</ele><time>2026-04-24T17:05:08.001Z</time></trkpt><trkpt lat="44.52923089699646" lon="0.9554764531998117"><ele>142.0</ele><time>2026-04-24T17:05:09.001Z</time></trkpt><trkpt lat="44.52930834076058" lon="0.9555542249332273"><ele>142.0</ele><time>2026-04-24T17:05:10.001Z</time></trkpt><trkpt lat="44.52933262630436" lon="0.9556583739411663"><ele>142.0</ele><time>2026-04-24T17:05:11.001Z</time></trkpt><trkpt lat="44.529396744166085" lon="0.9557960485156095"><ele>142.0</ele><time>2026-04-24T17:05:13.001Z</time></trkpt><trkpt lat="44.5294321728071" lon="0.9558742591112461"><ele>141.42857142857142</ele><time>2026-04-24T17:05:14.001Z</time></trkpt><trkpt lat="44.52948244388766" lon="0.9559436611493982"><ele>140.85714285714283</ele><time>2026-04-24T17:05:15.001Z</time></trkpt><trkpt lat="44.52951816697165" lon="0.9560398069391166"><ele>140.28571428571428</ele><time>2026-04-24T17:05:17.001Z</time></trkpt><trkpt lat="44.52955699522198" lon="0.9561254147206885"><ele>139.71428571428572</ele><time>2026-04-24T17:05:19.001Z</time></trkpt><trkpt lat="44.52959385316047" lon="0.9561999232302828"><ele>139.14285714285717</ele><time>2026-04-24T17:05:20.001Z</time></trkpt><trkpt lat="44.5296157088439" lon="0.9563006139364045"><ele>138.57142857142858</ele><time>2026-04-24T17:05:21.001Z</time></trkpt><trkpt lat="44.52965754615895" lon="0.9564056843510552"><ele>138.0</ele><time>2026-04-24T17:05:22.001Z</time></trkpt><trkpt lat="44.5297148559668" lon="0.9565159764383968"><ele>138.0</ele><time>2026-04-24T17:05:23.001Z</time></trkpt><trkpt lat="44.529774407225304" lon="0.9566235859475578"><ele>138.0</ele><time>2026-04-24T17:05:24.001Z</time></trkpt><trkpt lat="44.529810035513" lon="0.9567014261164722"><ele>138.0</ele><time>2026-04-24T17:05:25.001Z</time></trkpt><trkpt lat="44.52984144120793" lon="0.9567796161854888"><ele>138.0</ele><time>2026-04-24T17:05:26.001Z</time></trkpt><trkpt lat="44.529872665302456" lon="0.9568675400738975"><ele>138.0</ele><time>2026-04-24T17:05:27.001Z</time></trkpt><trkpt lat="44.52986668575176" lon="0.9569743288695634"><ele>138.0</ele><time>2026-04-24T17:05:28.001Z</time></trkpt><trkpt lat="44.529861388651" lon="0.9570831607887276"><ele>138.0</ele><time>2026-04-24T17:05:29.001Z</time></trkpt><trkpt lat="44.529834318425564" lon="0.9572073749682637"><ele>138.0</ele><time>2026-04-24T17:05:30.001Z</time></trkpt><trkpt lat="44.52985055371688" lon="0.9573445242187002"><ele>138.0</ele><time>2026-04-24T17:05:31.001Z</time></trkpt><trkpt lat="44.52988400536941" lon="0.9574825781500117"><ele>138.0</ele><time>2026-04-24T17:05:32.001Z</time></trkpt><trkpt lat="44.529959740837874" lon="0.957632607224213"><ele>138.0</ele><time>2026-04-24T17:05:33.001Z</time></trkpt><trkpt lat="44.53005133645" lon="0.9577625055196912"><ele>138.5</ele><time>2026-04-24T17:05:34.001Z</time></trkpt><trkpt lat="44.5301574666591" lon="0.9578696641379659"><ele>139.0</ele><time>2026-04-24T17:05:35.001Z</time></trkpt><trkpt lat="44.53027353032941" lon="0.9579712708518058"><ele>139.5</ele><time>2026-04-24T17:05:36.001Z</time></trkpt><trkpt lat="44.5303944571746" lon="0.9580755496961947"><ele>140.0</ele><time>2026-04-24T17:05:37.001Z</time></trkpt><trkpt lat="44.53049602382199" lon="0.9581781734791849"><ele>140.0</ele><time>2026-04-24T17:05:38.001Z</time></trkpt><trkpt lat="44.530569248495205" lon="0.9582802247466214"><ele>140.0</ele><time>2026-04-24T17:05:39.001Z</time></trkpt><trkpt lat="44.53063889361835" lon="0.9583318708016534"><ele>140.0</ele><time>2026-04-24T17:05:40.001Z</time></trkpt><trkpt lat="44.530710299319" lon="0.9584401883352797"><ele>140.0</ele><time>2026-04-24T17:05:42.001Z</time></trkpt><trkpt lat="44.53075528449017" lon="0.9585033840344211"><ele>140.0</ele><time>2026-04-24T17:05:44.001Z</time></trkpt><trkpt lat="44.53086634108518" lon="0.9584666369840383"><ele>140.0</ele><time>2026-04-24T17:05:46.001Z</time></trkpt><trkpt lat="44.530925495578636" lon="0.9584342708087534"><ele>140.0</ele><time>2026-04-24T17:05:47.001Z</time></trkpt><trkpt lat="44.531027084226224" lon="0.958366265955296"><ele>140.0</ele><time>2026-04-24T17:05:49.001Z</time></trkpt><trkpt lat="44.53112165273645" lon="0.9582923986412152"><ele>140.0</ele><time>2026-04-24T17:05:51.001Z</time></trkpt><trkpt lat="44.53121518389279" lon="0.9582034681702515"><ele>140.0</ele><time>2026-04-24T17:05:53.001Z</time></trkpt><trkpt lat="44.531302743033336" lon="0.9581275927153216"><ele>139.6</ele><time>2026-04-24T17:05:55.001Z</time></trkpt><trkpt lat="44.531387125970014" lon="0.9580801004771586"><ele>139.2</ele><time>2026-04-24T17:05:57.001Z</time></trkpt><trkpt lat="44.53146486301716" lon="0.9580028468306537"><ele>138.8</ele><time>2026-04-24T17:05:59.001Z</time></trkpt><trkpt lat="44.53157298127228" lon="0.9579108211883556"><ele>138.4</ele><time>2026-04-24T17:06:01.001Z</time></trkpt><trkpt lat="44.531635102890014" lon="0.9578583747092265"><ele>138.0</ele><time>2026-04-24T17:06:02.001Z</time></trkpt><trkpt lat="44.53171177516279" lon="0.9578207986469527"><ele>138.0</ele><time>2026-04-24T17:06:03.001Z</time></trkpt><trkpt lat="44.53178317694492" lon="0.9577612972183454"><ele>138.0</ele><time>2026-04-24T17:06:04.001Z</time></trkpt><trkpt lat="44.531858260085095" lon="0.9576976642009599"><ele>138.0</ele><time>2026-04-24T17:06:05.001Z</time></trkpt><trkpt lat="44.53193594391047" lon="0.9576234720869086"><ele>138.0</ele><time>2026-04-24T17:06:06.001Z</time></trkpt><trkpt lat="44.53201687199432" lon="0.9575562194862878"><ele>138.0</ele><time>2026-04-24T17:06:07.001Z</time></trkpt><trkpt lat="44.53209748747634" lon="0.9574825616646481"><ele>136.8</ele><time>2026-04-24T17:06:08.001Z</time></trkpt><trkpt lat="44.53217450057454" lon="0.9573947260186135"><ele>135.60000000000002</ele><time>2026-04-24T17:06:09.001Z</time></trkpt><trkpt lat="44.53224578249892" lon="0.9572958500740717"><ele>134.39999999999998</ele><time>2026-04-24T17:06:10.001Z</time></trkpt><trkpt lat="44.53231896159041" lon="0.9571812028287451"><ele>133.2</ele><time>2026-04-24T17:06:11.001Z</time></trkpt><trkpt lat="44.53238808261598" lon="0.9570653217370186"><ele>132.0</ele><time>2026-04-24T17:06:12.001Z</time></trkpt><trkpt lat="44.53245331079622" lon="0.9569528242240387"><ele>132.0</ele><time>2026-04-24T17:06:13.001Z</time></trkpt><trkpt lat="44.53250492429532" lon="0.9568302032456439"><ele>132.0</ele><time>2026-04-24T17:06:14.001Z</time></trkpt><trkpt lat="44.532572655906044" lon="0.9567183585223523"><ele>132.0</ele><time>2026-04-24T17:06:15.001Z</time></trkpt><trkpt lat="44.53263407125111" lon="0.9566081653269277"><ele>132.0</ele><time>2026-04-24T17:06:16.001Z</time></trkpt><trkpt lat="44.5326925523371" lon="0.9564901201251088"><ele>132.0</ele><time>2026-04-24T17:06:17.001Z</time></trkpt><trkpt lat="44.53275693257472" lon="0.9563781166047312"><ele>131.79999999999998</ele><time>2026-04-24T17:06:18.001Z</time></trkpt><trkpt lat="44.53282383390162" lon="0.9562790128290763"><ele>131.6</ele><time>2026-04-24T17:06:19.001Z</time></trkpt><trkpt lat="44.53288825439257" lon="0.9561681158260009"><ele>131.39999999999998</ele><time>2026-04-24T17:06:20.001Z</time></trkpt><trkpt lat="44.532944520457164" lon="0.9560547194320349"><ele>131.2</ele><time>2026-04-24T17:06:21.001Z</time></trkpt><trkpt lat="44.533006596412086" lon="0.9559445499253907"><ele>131.0</ele><time>2026-04-24T17:06:22.001Z</time></trkpt><trkpt lat="44.533071410108306" lon="0.9558380858866381"><ele>129.8</ele><time>2026-04-24T17:06:23.001Z</time></trkpt><trkpt lat="44.5331388245705" lon="0.9557257790275301"><ele>128.6</ele><time>2026-04-24T17:06:24.001Z</time></trkpt><trkpt lat="44.53319735861389" lon="0.9556176820569797"><ele>127.4</ele><time>2026-04-24T17:06:25.001Z</time></trkpt><trkpt lat="44.53326124085303" lon="0.9555080498756925"><ele>126.2</ele><time>2026-04-24T17:06:26.001Z</time></trkpt><trkpt lat="44.53331369842957" lon="0.9553993438947165"><ele>125.0</ele><time>2026-04-24T17:06:27.001Z</time></trkpt><trkpt lat="44.53336373654107" lon="0.955274185877339"><ele>124.99999999999999</ele><time>2026-04-24T17:06:28.001Z</time></trkpt><trkpt lat="44.53339755588185" lon="0.9551547924575423"><ele>125.0</ele><time>2026-04-24T17:06:29.001Z</time></trkpt><trkpt lat="44.53342063086019" lon="0.9550391732543545"><ele>125.0</ele><time>2026-04-24T17:06:30.001Z</time></trkpt><trkpt lat="44.533426146765784" lon="0.9549356079821558"><ele>125.0</ele><time>2026-04-24T17:06:31.001Z</time></trkpt><trkpt lat="44.53341478535952" lon="0.9548396909102688"><ele>124.99999999999999</ele><time>2026-04-24T17:06:32.001Z</time></trkpt><trkpt lat="44.533409264514844" lon="0.9547412388021673"><ele>125.0</ele><time>2026-04-24T17:06:33.001Z</time></trkpt><trkpt lat="44.533419183258346" lon="0.9546454240958215"><ele>125.0</ele><time>2026-04-24T17:06:34.001Z</time></trkpt><trkpt lat="44.533441963479746" lon="0.95448385075657"><ele>125.0</ele><time>2026-04-24T17:06:36.001Z</time></trkpt><trkpt lat="44.53345509408216" lon="0.9543309597234648"><ele>125.0</ele><time>2026-04-24T17:06:38.001Z</time></trkpt><trkpt lat="44.53347568678616" lon="0.9541782070246584"><ele>125.0</ele><time>2026-04-24T17:06:40.001Z</time></trkpt><trkpt lat="44.53350906362065" lon="0.9540106847249126"><ele>124.71428571428571</ele><time>2026-04-24T17:06:42.001Z</time></trkpt><trkpt lat="44.53354420180853" lon="0.9539319814863408"><ele>124.42857142857144</ele><time>2026-04-24T17:06:43.001Z</time></trkpt><trkpt lat="44.53355380754358" lon="0.9538406076477575"><ele>124.14285714285715</ele><time>2026-04-24T17:06:44.001Z</time></trkpt><trkpt lat="44.5335771413978" lon="0.9537493724919498"><ele>123.85714285714286</ele><time>2026-04-24T17:06:45.001Z</time></trkpt><trkpt lat="44.53360198161582" lon="0.9536597058405751"><ele>123.57142857142858</ele><time>2026-04-24T17:06:46.001Z</time></trkpt><trkpt lat="44.533627870328885" lon="0.9535695105581546"><ele>123.2857142857143</ele><time>2026-04-24T17:06:47.001Z</time></trkpt><trkpt lat="44.53365112464912" lon="0.9534812132495959"><ele>123.00000000000001</ele><time>2026-04-24T17:06:48.001Z</time></trkpt><trkpt lat="44.53367762265055" lon="0.9533909878608204"><ele>122.0</ele><time>2026-04-24T17:06:49.001Z</time></trkpt><trkpt lat="44.5337029237086" lon="0.9533029169241901"><ele>121.0</ele><time>2026-04-24T17:06:50.001Z</time></trkpt><trkpt lat="44.533729009639" lon="0.9532193146860061"><ele>120.0</ele><time>2026-04-24T17:06:51.001Z</time></trkpt><trkpt lat="44.53378648219538" lon="0.9530600081602839"><ele>119.0</ele><time>2026-04-24T17:06:53.001Z</time></trkpt><trkpt lat="44.53381562912082" lon="0.9529813628380904"><ele>118.0</ele><time>2026-04-24T17:06:54.001Z</time></trkpt><trkpt lat="44.5338453088947" lon="0.952902820086398"><ele>117.0</ele><time>2026-04-24T17:06:55.001Z</time></trkpt><trkpt lat="44.53386985965989" lon="0.9528192661131204"><ele>117.0</ele><time>2026-04-24T17:06:56.001Z</time></trkpt><trkpt lat="44.53390137286662" lon="0.9527312571289024"><ele>117.0</ele><time>2026-04-24T17:06:57.001Z</time></trkpt><trkpt lat="44.533935083396614" lon="0.9526380780907825"><ele>117.0</ele><time>2026-04-24T17:06:58.001Z</time></trkpt><trkpt lat="44.533971086360815" lon="0.9525457104191819"><ele>117.0</ele><time>2026-04-24T17:06:59.001Z</time></trkpt><trkpt lat="44.5340055401602" lon="0.9524484808926738"><ele>117.0</ele><time>2026-04-24T17:07:00.001Z</time></trkpt><trkpt lat="44.53404483484781" lon="0.9523478984344358"><ele>117.0</ele><time>2026-04-24T17:07:01.001Z</time></trkpt><trkpt lat="44.53407842316356" lon="0.9522404147253906"><ele>116.16666666666667</ele><time>2026-04-24T17:07:02.001Z</time></trkpt><trkpt lat="44.53410844637165" lon="0.9521297307508975"><ele>115.33333333333334</ele><time>2026-04-24T17:07:03.001Z</time></trkpt><trkpt lat="44.53413097679825" lon="0.952020826774738"><ele>114.5</ele><time>2026-04-24T17:07:04.001Z</time></trkpt><trkpt lat="44.53414008107761" lon="0.9519082410770333"><ele>113.66666666666667</ele><time>2026-04-24T17:07:05.001Z</time></trkpt><trkpt lat="44.534139365720286" lon="0.9517868172700534"><ele>112.83333333333334</ele><time>2026-04-24T17:07:06.001Z</time></trkpt><trkpt lat="44.53414032120773" lon="0.9516626933454532"><ele>112.0</ele><time>2026-04-24T17:07:07.001Z</time></trkpt><trkpt lat="44.53413710403465" lon="0.9515357334763609"><ele>111.33333333333334</ele><time>2026-04-24T17:07:08.001Z</time></trkpt><trkpt lat="44.534137943268384" lon="0.9514098878919238"><ele>110.66666666666667</ele><time>2026-04-24T17:07:09.001Z</time></trkpt><trkpt lat="44.534152036645075" lon="0.9512919439673706"><ele>110.0</ele><time>2026-04-24T17:07:10.001Z</time></trkpt><trkpt lat="44.53413856231491" lon="0.9511799259582974"><ele>109.33333333333334</ele><time>2026-04-24T17:07:11.001Z</time></trkpt><trkpt lat="44.53414861914007" lon="0.9510783679710335"><ele>108.66666666666667</ele><time>2026-04-24T17:07:12.001Z</time></trkpt><trkpt lat="44.53414801883668" lon="0.950980010121486"><ele>108.0</ele><time>2026-04-24T17:07:13.001Z</time></trkpt><trkpt lat="44.53414797351875" lon="0.9508768821597253"><ele>108.0</ele><time>2026-04-24T17:07:14.001Z</time></trkpt><trkpt lat="44.5341555110375" lon="0.950779189320266"><ele>108.0</ele><time>2026-04-24T17:07:15.001Z</time></trkpt><trkpt lat="44.534160528926414" lon="0.9506790818710174"><ele>108.0</ele><time>2026-04-24T17:07:16.001Z</time></trkpt><trkpt lat="44.53416091885919" lon="0.9505794039498449"><ele>108.0</ele><time>2026-04-24T17:07:17.001Z</time></trkpt><trkpt lat="44.5341627746319" lon="0.9504735566613312"><ele>108.0</ele><time>2026-04-24T17:07:18.001Z</time></trkpt><trkpt lat="44.534172458531025" lon="0.9503690121176043"><ele>108.0</ele><time>2026-04-24T17:07:19.001Z</time></trkpt><trkpt lat="44.53418170087657" lon="0.9502611957979346"><ele>108.0</ele><time>2026-04-24T17:07:20.001Z</time></trkpt><trkpt lat="44.53418994508598" lon="0.9501525869804255"><ele>108.0</ele><time>2026-04-24T17:07:21.001Z</time></trkpt><trkpt lat="44.53419741577352" lon="0.9500437267269688"><ele>108.0</ele><time>2026-04-24T17:07:22.001Z</time></trkpt><trkpt lat="44.534205230853566" lon="0.94994128124675"><ele>108.0</ele><time>2026-04-24T17:07:23.001Z</time></trkpt><trkpt lat="44.53421544612931" lon="0.9498370277913275"><ele>108.0</ele><time>2026-04-24T17:07:24.001Z</time></trkpt><trkpt lat="44.53422107382849" lon="0.9497387255242904"><ele>108.0</ele><time>2026-04-24T17:07:25.001Z</time></trkpt><trkpt lat="44.53422723936265" lon="0.9496433240089978"><ele>108.0</ele><time>2026-04-24T17:07:26.001Z</time></trkpt><trkpt lat="44.534240666653965" lon="0.9495426427938577"><ele>108.0</ele><time>2026-04-24T17:07:27.001Z</time></trkpt><trkpt lat="44.53425851892582" lon="0.9494447663437389"><ele>107.5</ele><time>2026-04-24T17:07:28.001Z</time></trkpt><trkpt lat="44.534268970096086" lon="0.9493487273529305"><ele>107.0</ele><time>2026-04-24T17:07:29.001Z</time></trkpt><trkpt lat="44.534276469889406" lon="0.9492472274994859"><ele>106.5</ele><time>2026-04-24T17:07:30.001Z</time></trkpt><trkpt lat="44.53429198036514" lon="0.9491415171977577"><ele>106.0</ele><time>2026-04-24T17:07:31Z</time></trkpt><trkpt lat="44.534327021899585" lon="0.9490425269875774"><ele>105.5</ele><time>2026-04-24T17:07:32Z</time></trkpt><trkpt lat="44.53437437843481" lon="0.9489488287780148"><ele>105.0</ele><time>2026-04-24T17:07:33Z</time></trkpt><trkpt lat="44.5344466233072" lon="0.9488950026375627"><ele>103.66666666666667</ele><time>2026-04-24T17:07:34Z</time></trkpt><trkpt lat="44.534554114839636" lon="0.9489307034075416"><ele>102.33333333333334</ele><time>2026-04-24T17:07:35Z</time></trkpt><trkpt lat="44.53461465233236" lon="0.948893864897924"><ele>101.0</ele><time>2026-04-24T17:07:36Z</time></trkpt><trkpt lat="44.534683339558306" lon="0.9488242162762082"><ele>99.66666666666667</ele><time>2026-04-24T17:07:37Z</time></trkpt><trkpt lat="44.53474812738197" lon="0.9487505187559473"><ele>98.33333333333334</ele><time>2026-04-24T17:07:38Z</time></trkpt><trkpt lat="44.53479197156244" lon="0.9486732864657446"><ele>97.0</ele><time>2026-04-24T17:07:39Z</time></trkpt><trkpt lat="44.53483271506409" lon="0.9485721263168606"><ele>96.66666666666667</ele><time>2026-04-24T17:07:41Z</time></trkpt><trkpt lat="44.534859939225974" lon="0.9484830673207277"><ele>96.33333333333334</ele><time>2026-04-24T17:08:04Z</time></trkpt><trkpt lat="44.53495959970875" lon="0.9484436059021225"><ele>96.0</ele><time>2026-04-24T17:08:06Z</time></trkpt><trkpt lat="44.53502248830679" lon="0.9484145167826786"><ele>95.66666666666667</ele><time>2026-04-24T17:08:07Z</time></trkpt><trkpt lat="44.53511536627706" lon="0.9483654050367493"><ele>95.33333333333334</ele><time>2026-04-24T17:08:08Z</time></trkpt><trkpt lat="44.53521524617724" lon="0.9483082010727987"><ele>95.0</ele><time>2026-04-24T17:08:09Z</time></trkpt><trkpt lat="44.53532681201754" lon="0.948243185534691"><ele>95.75</ele><time>2026-04-24T17:08:10Z</time></trkpt><trkpt lat="44.53545448891443" lon="0.9481595130906185"><ele>96.5</ele><time>2026-04-24T17:08:11Z</time></trkpt><trkpt lat="44.53558581599267" lon="0.9480698834398898"><ele>97.25</ele><time>2026-04-24T17:08:12Z</time></trkpt><trkpt lat="44.53571779616709" lon="0.9479711146935286"><ele>98.0</ele><time>2026-04-24T17:08:13Z</time></trkpt><trkpt lat="44.53585615635769" lon="0.9478670142509014"><ele>98.0</ele><time>2026-04-24T17:08:14Z</time></trkpt><trkpt lat="44.53599671007394" lon="0.9477435861689837"><ele>98.0</ele><time>2026-04-24T17:08:15Z</time></trkpt><trkpt lat="44.53614101048587" lon="0.9476064950696184"><ele>98.0</ele><time>2026-04-24T17:08:16Z</time></trkpt><trkpt lat="44.536288489658446" lon="0.9474694817458695"><ele>97.33333333333333</ele><time>2026-04-24T17:08:17Z</time></trkpt><trkpt lat="44.53643789579488" lon="0.947324311583254"><ele>96.66666666666666</ele><time>2026-04-24T17:08:18Z</time></trkpt><trkpt lat="44.53658198543159" lon="0.9471709169634397"><ele>96.0</ele><time>2026-04-24T17:08:19Z</time></trkpt><trkpt lat="44.536723008600134" lon="0.9470232193158503"><ele>96.0</ele><time>2026-04-24T17:08:20Z</time></trkpt><trkpt lat="44.53685274985162" lon="0.9468946223159767"><ele>96.0</ele><time>2026-04-24T17:08:21Z</time></trkpt><trkpt lat="44.53697093058738" lon="0.9467801125146641"><ele>96.0</ele><time>2026-04-24T17:08:22Z</time></trkpt><trkpt lat="44.53708270356667" lon="0.9466725165906834"><ele>96.0</ele><time>2026-04-24T17:08:23Z</time></trkpt><trkpt lat="44.537186373997514" lon="0.9465856280168921"><ele>97.0</ele><time>2026-04-24T17:08:24Z</time></trkpt><trkpt lat="44.53728020646521" lon="0.9465158467819575"><ele>98.0</ele><time>2026-04-24T17:08:25Z</time></trkpt><trkpt lat="44.53736591744667" lon="0.9464498627463339"><ele>99.0</ele><time>2026-04-24T17:08:26Z</time></trkpt><trkpt lat="44.537435292289324" lon="0.9463996738261516"><ele>100.0</ele><time>2026-04-24T17:08:27Z</time></trkpt><trkpt lat="44.53752704132762" lon="0.9463742880825673"><ele>101.0</ele><time>2026-04-24T17:08:29Z</time></trkpt><trkpt lat="44.53747557683171" lon="0.9461526652745428"><ele>101.0</ele><time>2026-04-24T17:08:30Z</time></trkpt><trkpt lat="44.53743002105979" lon="0.9460220865027708"><ele>101.0</ele><time>2026-04-24T17:08:31Z</time></trkpt><trkpt lat="44.53738538221767" lon="0.9458644568110339"><ele>101.0</ele><time>2026-04-24T17:08:32Z</time></trkpt><trkpt lat="44.537346457347475" lon="0.9456753804150019"><ele>101.0</ele><time>2026-04-24T17:08:33Z</time></trkpt><trkpt lat="44.53731346149813" lon="0.9454782357317413"><ele>97.66666666666666</ele><time>2026-04-24T17:08:34Z</time></trkpt><trkpt lat="44.53727735392709" lon="0.9452594876995073"><ele>94.33333333333333</ele><time>2026-04-24T17:08:35Z</time></trkpt><trkpt lat="44.53724851014996" lon="0.9450448528771118"><ele>91.0</ele><time>2026-04-24T17:08:36Z</time></trkpt><trkpt lat="44.53722998157275" lon="0.9448573710368766"><ele>91.0</ele><time>2026-04-24T17:08:37Z</time></trkpt><trkpt lat="44.537212197362564" lon="0.944684197532447"><ele>91.0</ele><time>2026-04-24T17:08:38Z</time></trkpt><trkpt lat="44.5371864728208" lon="0.9445471315573948"><ele>91.0</ele><time>2026-04-24T17:08:39Z</time></trkpt><trkpt lat="44.53714227978627" lon="0.9444627038882828"><ele>91.0</ele><time>2026-04-24T17:08:40Z</time></trkpt><trkpt lat="44.537078761163016" lon="0.944416065425799"><ele>91.0</ele><time>2026-04-24T17:08:41Z</time></trkpt><trkpt lat="44.53701097374501" lon="0.9443978319045807"><ele>91.0</ele><time>2026-04-24T17:08:42Z</time></trkpt><trkpt lat="44.53694282549381" lon="0.9443772479830117"><ele>91.33333333333333</ele><time>2026-04-24T17:08:43Z</time></trkpt><trkpt lat="44.53687409846547" lon="0.9443574950075627"><ele>91.66666666666666</ele><time>2026-04-24T17:08:44Z</time></trkpt><trkpt lat="44.536797024341624" lon="0.9443333608970069"><ele>92.0</ele><time>2026-04-24T17:08:45.001Z</time></trkpt><trkpt lat="44.53672236497502" lon="0.9443078125265209"><ele>92.33333333333333</ele><time>2026-04-24T17:08:46.001Z</time></trkpt><trkpt lat="44.53664612595005" lon="0.9442818413253975"><ele>92.66666666666667</ele><time>2026-04-24T17:08:47.001Z</time></trkpt><trkpt lat="44.53657543202272" lon="0.9442255421675436"><ele>93.0</ele><time>2026-04-24T17:08:48.001Z</time></trkpt><trkpt lat="44.536501972488765" lon="0.9441779168567309"><ele>93.0</ele><time>2026-04-24T17:08:49.001Z</time></trkpt><trkpt lat="44.53643295847052" lon="0.9441243747047804"><ele>93.0</ele><time>2026-04-24T17:08:50.001Z</time></trkpt><trkpt lat="44.53636436740015" lon="0.944065245630424"><ele>93.0</ele><time>2026-04-24T17:08:51.001Z</time></trkpt><trkpt lat="44.53630201002637" lon="0.9439965707215573"><ele>93.0</ele><time>2026-04-24T17:08:52.001Z</time></trkpt><trkpt lat="44.53623591359649" lon="0.9439272997559233"><ele>93.0</ele><time>2026-04-24T17:08:53.001Z</time></trkpt><trkpt lat="44.536161638834784" lon="0.943876324998174"><ele>93.0</ele><time>2026-04-24T17:08:54.001Z</time></trkpt><trkpt lat="44.536097327780595" lon="0.9438004070522391"><ele>92.2</ele><time>2026-04-24T17:08:55.001Z</time></trkpt><trkpt lat="44.536025827111885" lon="0.9437181447273899"><ele>91.4</ele><time>2026-04-24T17:08:56.001Z</time></trkpt><trkpt lat="44.53595855549862" lon="0.9436264318176439"><ele>90.60000000000001</ele><time>2026-04-24T17:08:57.001Z</time></trkpt><trkpt lat="44.535865396843064" lon="0.9435588004773134"><ele>89.80000000000001</ele><time>2026-04-24T17:08:58.001Z</time></trkpt><trkpt lat="44.53577357472057" lon="0.9434751251535975"><ele>89.0</ele><time>2026-04-24T17:08:59.001Z</time></trkpt><trkpt lat="44.53567949323609" lon="0.9434042180085618"><ele>89.5</ele><time>2026-04-24T17:09:00.001Z</time></trkpt><trkpt lat="44.535567320165896" lon="0.9433259122328589"><ele>90.0</ele><time>2026-04-24T17:09:01.001Z</time></trkpt><trkpt lat="44.53544493089343" lon="0.9432453485013236"><ele>90.5</ele><time>2026-04-24T17:09:02.001Z</time></trkpt><trkpt lat="44.53532056297977" lon="0.9431659926387601"><ele>91.0</ele><time>2026-04-24T17:09:03.001Z</time></trkpt><trkpt lat="44.535215161543626" lon="0.9431071735928412"><ele>91.0</ele><time>2026-04-24T17:09:04.001Z</time></trkpt><trkpt lat="44.535112043470846" lon="0.9430719322697352"><ele>91.0</ele><time>2026-04-24T17:09:05.001Z</time></trkpt><trkpt lat="44.535018395558836" lon="0.9430426606576209"><ele>91.0</ele><time>2026-04-24T17:09:06.001Z</time></trkpt><trkpt lat="44.53494038650591" lon="0.9429705392023895"><ele>91.0</ele><time>2026-04-24T17:09:07.001Z</time></trkpt><trkpt lat="44.53490077138901" lon="0.942858908720308"><ele>91.0</ele><time>2026-04-24T17:09:08.001Z</time></trkpt><trkpt lat="44.53489367511406" lon="0.942733735970372"><ele>91.0</ele><time>2026-04-24T17:09:09.001Z</time></trkpt><trkpt lat="44.53490233231395" lon="0.9426269665422481"><ele>91.0</ele><time>2026-04-24T17:09:10.001Z</time></trkpt><trkpt lat="44.53489168178536" lon="0.9425218263603427"><ele>91.0</ele><time>2026-04-24T17:09:11Z</time></trkpt><trkpt lat="44.5348640769102" lon="0.9424154929971276"><ele>91.0</ele><time>2026-04-24T17:09:12Z</time></trkpt><trkpt lat="44.534812995441946" lon="0.9423301386001178"><ele>91.0</ele><time>2026-04-24T17:09:13Z</time></trkpt><trkpt lat="44.53474055585988" lon="0.9422627755608461"><ele>91.0</ele><time>2026-04-24T17:09:14Z</time></trkpt><trkpt lat="44.534656500850744" lon="0.9422023536747202"><ele>90.8</ele><time>2026-04-24T17:09:15Z</time></trkpt><trkpt lat="44.534562460591076" lon="0.942144374044602"><ele>90.6</ele><time>2026-04-24T17:09:16Z</time></trkpt><trkpt lat="44.534462753578175" lon="0.9420883243521393"><ele>90.4</ele><time>2026-04-24T17:09:17Z</time></trkpt><trkpt lat="44.53436224676582" lon="0.942034941391803"><ele>90.2</ele><time>2026-04-24T17:09:18Z</time></trkpt><trkpt lat="44.53425775571827" lon="0.9419690370904582"><ele>90.0</ele><time>2026-04-24T17:09:19Z</time></trkpt><trkpt lat="44.53414987152543" lon="0.9419029625757848"><ele>90.0</ele><time>2026-04-24T17:09:20Z</time></trkpt><trkpt lat="44.53404954304377" lon="0.9418362493888607"><ele>90.0</ele><time>2026-04-24T17:09:21Z</time></trkpt><trkpt lat="44.53393096135264" lon="0.941763882409252"><ele>90.0</ele><time>2026-04-24T17:09:22Z</time></trkpt><trkpt lat="44.53382280694068" lon="0.9417064531922256"><ele>90.0</ele><time>2026-04-24T17:09:23Z</time></trkpt><trkpt lat="44.53370896883771" lon="0.941645147007207"><ele>90.0</ele><time>2026-04-24T17:09:24Z</time></trkpt><trkpt lat="44.53358612579497" lon="0.9416016650621383"><ele>90.0</ele><time>2026-04-24T17:09:25Z</time></trkpt><trkpt lat="44.53344556059353" lon="0.9415606760057186"><ele>90.0</ele><time>2026-04-24T17:09:26Z</time></trkpt><trkpt lat="44.5333036712136" lon="0.9415260356042852"><ele>90.0</ele><time>2026-04-24T17:09:27Z</time></trkpt><trkpt lat="44.53314563998018" lon="0.9414722815633347"><ele>90.0</ele><time>2026-04-24T17:09:28Z</time></trkpt><trkpt lat="44.53298030225678" lon="0.9414184314234924"><ele>90.0</ele><time>2026-04-24T17:09:29Z</time></trkpt><trkpt lat="44.532823114615645" lon="0.9413324786796303"><ele>90.0</ele><time>2026-04-24T17:09:30Z</time></trkpt><trkpt lat="44.53266396077963" lon="0.9412246536719528"><ele>89.33333333333333</ele><time>2026-04-24T17:09:31Z</time></trkpt><trkpt lat="44.532510326387474" lon="0.9410946454797574"><ele>88.66666666666666</ele><time>2026-04-24T17:09:32Z</time></trkpt><trkpt lat="44.532355514911565" lon="0.9409525477851589"><ele>88.0</ele><time>2026-04-24T17:09:33Z</time></trkpt><trkpt lat="44.53217477869676" lon="0.9408221815873955"><ele>87.66666666666666</ele><time>2026-04-24T17:09:34Z</time></trkpt><trkpt lat="44.531981836404" lon="0.9407237946389168"><ele>87.33333333333333</ele><time>2026-04-24T17:09:35Z</time></trkpt><trkpt lat="44.531854056200885" lon="0.9406757937864815"><ele>87.0</ele><time>2026-04-24T17:09:36Z</time></trkpt><trkpt lat="44.53168230557934" lon="0.940623519648397"><ele>87.0</ele><time>2026-04-24T17:09:37Z</time></trkpt><trkpt lat="44.53149634224027" lon="0.940576631590863"><ele>87.0</ele><time>2026-04-24T17:09:38Z</time></trkpt><trkpt lat="44.531312771793324" lon="0.9405113768688721"><ele>87.0</ele><time>2026-04-24T17:09:39Z</time></trkpt><trkpt lat="44.5311344327574" lon="0.9404755396434971"><ele>88.0</ele><time>2026-04-24T17:09:40Z</time></trkpt><trkpt lat="44.5309562445549" lon="0.9404002137567916"><ele>89.0</ele><time>2026-04-24T17:09:41Z</time></trkpt><trkpt lat="44.53077756419915" lon="0.9403340018734756"><ele>90.0</ele><time>2026-04-24T17:09:42Z</time></trkpt><trkpt lat="44.53060444653273" lon="0.9402470076635475"><ele>90.0</ele><time>2026-04-24T17:09:43Z</time></trkpt><trkpt lat="44.53043223852223" lon="0.9401262794314073"><ele>90.0</ele><time>2026-04-24T17:09:44Z</time></trkpt><trkpt lat="44.530265862555694" lon="0.9400085459177884"><ele>90.0</ele><time>2026-04-24T17:09:45Z</time></trkpt><trkpt lat="44.53013045807421" lon="0.9398996026440386"><ele>90.25</ele><time>2026-04-24T17:09:46Z</time></trkpt><trkpt lat="44.52999750327165" lon="0.9398171994893174"><ele>90.5</ele><time>2026-04-24T17:09:47Z</time></trkpt><trkpt lat="44.52986649626234" lon="0.9397442292708317"><ele>90.75</ele><time>2026-04-24T17:09:48Z</time></trkpt><trkpt lat="44.52975412925647" lon="0.9396898776572298"><ele>91.0</ele><time>2026-04-24T17:09:49Z</time></trkpt><trkpt lat="44.529642264717694" lon="0.9396367190633345"><ele>91.4</ele><time>2026-04-24T17:09:50Z</time></trkpt><trkpt lat="44.52952860606003" lon="0.9395940887401596"><ele>91.8</ele><time>2026-04-24T17:09:51Z</time></trkpt><trkpt lat="44.52942180394685" lon="0.9395518809310942"><ele>92.2</ele><time>2026-04-24T17:09:52Z</time></trkpt><trkpt lat="44.52932879465365" lon="0.9395125738366984"><ele>92.60000000000001</ele><time>2026-04-24T17:09:53Z</time></trkpt><trkpt lat="44.529236505914035" lon="0.9394769929940918"><ele>93.0</ele><time>2026-04-24T17:09:54Z</time></trkpt><trkpt lat="44.529142924071934" lon="0.9394490909261527"><ele>93.0</ele><time>2026-04-24T17:09:55Z</time></trkpt><trkpt lat="44.52904753160765" lon="0.939411890217781"><ele>93.0</ele><time>2026-04-24T17:09:56Z</time></trkpt><trkpt lat="44.52895124561379" lon="0.9393731925357347"><ele>93.0</ele><time>2026-04-24T17:09:57Z</time></trkpt><trkpt lat="44.52885985579786" lon="0.9393323712978487"><ele>93.0</ele><time>2026-04-24T17:09:58Z</time></trkpt><trkpt lat="44.52876590157515" lon="0.9392877892813266"><ele>93.0</ele><time>2026-04-24T17:09:59Z</time></trkpt><trkpt lat="44.52867187813533" lon="0.9392435595977772"><ele>93.5</ele><time>2026-04-24T17:10:00Z</time></trkpt><trkpt lat="44.52856987058471" lon="0.9392070344569347"><ele>94.0</ele><time>2026-04-24T17:10:01Z</time></trkpt><trkpt lat="44.528456398637644" lon="0.9391563698989177"><ele>94.5</ele><time>2026-04-24T17:10:02Z</time></trkpt><trkpt lat="44.528334616269" lon="0.9391146093302314"><ele>95.0</ele><time>2026-04-24T17:10:03Z</time></trkpt><trkpt lat="44.528197000589024" lon="0.9390688229346912"><ele>95.0</ele><time>2026-04-24T17:10:04Z</time></trkpt><trkpt lat="44.52805790213427" lon="0.9390165810309002"><ele>95.0</ele><time>2026-04-24T17:10:05Z</time></trkpt><trkpt lat="44.52792287259312" lon="0.9389646002683572"><ele>95.0</ele><time>2026-04-24T17:10:06Z</time></trkpt><trkpt lat="44.52779735538001" lon="0.938925824845144"><ele>95.0</ele><time>2026-04-24T17:10:07Z</time></trkpt><trkpt lat="44.52770420723703" lon="0.9388925256422995"><ele>94.6</ele><time>2026-04-24T17:10:08Z</time></trkpt><trkpt lat="44.52763288533099" lon="0.9388639032746643"><ele>94.2</ele><time>2026-04-24T17:10:09Z</time></trkpt><trkpt lat="44.52753756384903" lon="0.938826730425889"><ele>93.80000000000001</ele><time>2026-04-24T17:10:15Z</time></trkpt><trkpt lat="44.52741246606233" lon="0.9387744270484598"><ele>93.4</ele><time>2026-04-24T17:10:17Z</time></trkpt><trkpt lat="44.52735039939529" lon="0.9387094332030401"><ele>93.0</ele><time>2026-04-24T17:10:18Z</time></trkpt><trkpt lat="44.527278670096415" lon="0.9386524637387151"><ele>93.0</ele><time>2026-04-24T17:10:19Z</time></trkpt><trkpt lat="44.52719891851004" lon="0.938587113977513"><ele>93.0</ele><time>2026-04-24T17:10:20Z</time></trkpt><trkpt lat="44.52710477505775" lon="0.9385065834902308"><ele>93.0</ele><time>2026-04-24T17:10:21Z</time></trkpt><trkpt lat="44.527007927111306" lon="0.9384230294083983"><ele>93.0</ele><time>2026-04-24T17:10:22Z</time></trkpt><trkpt lat="44.52689769484022" lon="0.9383315420437209"><ele>93.0</ele><time>2026-04-24T17:10:23Z</time></trkpt><trkpt lat="44.52678315257932" lon="0.9382459247050127"><ele>92.5</ele><time>2026-04-24T17:10:24Z</time></trkpt><trkpt lat="44.5266576670144" lon="0.9381563826123528"><ele>92.0</ele><time>2026-04-24T17:10:25Z</time></trkpt><trkpt lat="44.52653030022626" lon="0.938071911846308"><ele>91.5</ele><time>2026-04-24T17:10:26Z</time></trkpt><trkpt lat="44.52639918549064" lon="0.938012161659777"><ele>91.0</ele><time>2026-04-24T17:10:27Z</time></trkpt><trkpt lat="44.526278313081775" lon="0.9379166878408552"><ele>90.25</ele><time>2026-04-24T17:10:28Z</time></trkpt><trkpt lat="44.52615319963602" lon="0.9378433332517379"><ele>89.5</ele><time>2026-04-24T17:10:29Z</time></trkpt><trkpt lat="44.526031371890504" lon="0.9377990777613932"><ele>88.75</ele><time>2026-04-24T17:10:30Z</time></trkpt><trkpt lat="44.5259264335072" lon="0.9377295416206599"><ele>88.0</ele><time>2026-04-24T17:10:31Z</time></trkpt><trkpt lat="44.5258097888228" lon="0.937669734215082"><ele>88.0</ele><time>2026-04-24T17:10:32Z</time></trkpt><trkpt lat="44.52569461861917" lon="0.9375977820051326"><ele>88.0</ele><time>2026-04-24T17:10:33Z</time></trkpt><trkpt lat="44.525588971168084" lon="0.9375059890539156"><ele>88.0</ele><time>2026-04-24T17:10:34Z</time></trkpt><trkpt lat="44.52547854719535" lon="0.9374301478005329"><ele>88.0</ele><time>2026-04-24T17:10:35Z</time></trkpt><trkpt lat="44.525353547528866" lon="0.9373660897740387"><ele>89.25</ele><time>2026-04-24T17:10:36Z</time></trkpt><trkpt lat="44.525238356405836" lon="0.9372668826638794"><ele>90.5</ele><time>2026-04-24T17:10:37Z</time></trkpt><trkpt lat="44.525117856253004" lon="0.9371898631582822"><ele>91.75</ele><time>2026-04-24T17:10:38Z</time></trkpt><trkpt lat="44.525004063453956" lon="0.9371043935801978"><ele>93.0</ele><time>2026-04-24T17:10:39Z</time></trkpt><trkpt lat="44.524879503527316" lon="0.9370064098663127"><ele>93.0</ele><time>2026-04-24T17:10:40Z</time></trkpt><trkpt lat="44.524762536248296" lon="0.936932142860537"><ele>93.0</ele><time>2026-04-24T17:10:41Z</time></trkpt><trkpt lat="44.52467505016787" lon="0.9368626381672764"><ele>93.0</ele><time>2026-04-24T17:10:42Z</time></trkpt><trkpt lat="44.52458135098275" lon="0.9367895444604426"><ele>93.0</ele><time>2026-04-24T17:10:43Z</time></trkpt><trkpt lat="44.52449097690858" lon="0.9367203042561535"><ele>93.0</ele><time>2026-04-24T17:10:44Z</time></trkpt><trkpt lat="44.52440912669299" lon="0.9366665922859604"><ele>93.42857142857143</ele><time>2026-04-24T17:10:45Z</time></trkpt><trkpt lat="44.52433231252586" lon="0.9366277677868855"><ele>93.85714285714286</ele><time>2026-04-24T17:10:46Z</time></trkpt><trkpt lat="44.524262456177965" lon="0.9365852125339312"><ele>94.28571428571428</ele><time>2026-04-24T17:10:47Z</time></trkpt><trkpt lat="44.524194123155176" lon="0.9365407192993732"><ele>94.71428571428572</ele><time>2026-04-24T17:10:48Z</time></trkpt><trkpt lat="44.52412922285641" lon="0.9365048052362851"><ele>95.14285714285714</ele><time>2026-04-24T17:10:49Z</time></trkpt><trkpt lat="44.52406620171078" lon="0.9364687435999343"><ele>95.57142857142857</ele><time>2026-04-24T17:10:50Z</time></trkpt><trkpt lat="44.52400582439601" lon="0.9364432298267864"><ele>96.0</ele><time>2026-04-24T17:10:51Z</time></trkpt><trkpt lat="44.52389595307316" lon="0.936380830853352"><ele>96.0</ele><time>2026-04-24T17:10:53Z</time></trkpt><trkpt lat="44.52378317284712" lon="0.9363192679195654"><ele>96.0</ele><time>2026-04-24T17:10:55Z</time></trkpt><trkpt lat="44.523690063098904" lon="0.9362676924714"><ele>96.0</ele><time>2026-04-24T17:10:57Z</time></trkpt><trkpt lat="44.52358633952514" lon="0.9362480658123165"><ele>96.0</ele><time>2026-04-24T17:10:59Z</time></trkpt><trkpt lat="44.52349436530225" lon="0.9362190138509674"><ele>96.0</ele><time>2026-04-24T17:11:01Z</time></trkpt><trkpt lat="44.52340808403045" lon="0.936204747505902"><ele>94.0</ele><time>2026-04-24T17:11:03Z</time></trkpt><trkpt lat="44.523307536382596" lon="0.9361818791874421"><ele>92.0</ele><time>2026-04-24T17:11:05Z</time></trkpt><trkpt lat="44.52319530357377" lon="0.936190077206941"><ele>90.0</ele><time>2026-04-24T17:11:07Z</time></trkpt><trkpt lat="44.52308136788208" lon="0.9361903354252552"><ele>88.0</ele><time>2026-04-24T17:11:09Z</time></trkpt><trkpt lat="44.52295492138321" lon="0.9361761695930368"><ele>87.60000000000001</ele><time>2026-04-24T17:11:11Z</time></trkpt><trkpt lat="44.52283812763825" lon="0.936150591998158"><ele>87.2</ele><time>2026-04-24T17:11:13Z</time></trkpt><trkpt lat="44.522719515625745" lon="0.9361310417390227"><ele>86.8</ele><time>2026-04-24T17:11:15Z</time></trkpt><trkpt lat="44.52264232381514" lon="0.9361297665470953"><ele>86.4</ele><time>2026-04-24T17:11:16Z</time></trkpt><trkpt lat="44.522569856837904" lon="0.9361181981888355"><ele>86.0</ele><time>2026-04-24T17:11:17Z</time></trkpt><trkpt lat="44.522498499084996" lon="0.936090878909701"><ele>86.0</ele><time>2026-04-24T17:11:18Z</time></trkpt><trkpt lat="44.522413725327894" lon="0.9360740727321036"><ele>86.0</ele><time>2026-04-24T17:11:19Z</time></trkpt><trkpt lat="44.52233185193822" lon="0.9360618910500699"><ele>86.0</ele><time>2026-04-24T17:11:20Z</time></trkpt><trkpt lat="44.52225609828717" lon="0.9360617923062818"><ele>86.0</ele><time>2026-04-24T17:11:21Z</time></trkpt><trkpt lat="44.52216913742129" lon="0.9360181916686727"><ele>86.0</ele><time>2026-04-24T17:11:22Z</time></trkpt><trkpt lat="44.52208906717684" lon="0.9360000458281565"><ele>86.0</ele><time>2026-04-24T17:11:23Z</time></trkpt><trkpt lat="44.522012231398065" lon="0.9359885937663018"><ele>86.4</ele><time>2026-04-24T17:11:24Z</time></trkpt><trkpt lat="44.5219285011715" lon="0.9359837119065294"><ele>86.8</ele><time>2026-04-24T17:11:25Z</time></trkpt><trkpt lat="44.52183946634671" lon="0.9359686057390445"><ele>87.2</ele><time>2026-04-24T17:11:26Z</time></trkpt><trkpt lat="44.52173332438011" lon="0.9359360716128785"><ele>87.60000000000001</ele><time>2026-04-24T17:11:27Z</time></trkpt><trkpt lat="44.52160961547454" lon="0.935900025550895"><ele>88.0</ele><time>2026-04-24T17:11:28Z</time></trkpt><trkpt lat="44.52148163124259" lon="0.9358458532504947"><ele>88.25</ele><time>2026-04-24T17:11:29Z</time></trkpt><trkpt lat="44.521363493112176" lon="0.9357461446427571"><ele>88.5</ele><time>2026-04-24T17:11:30Z</time></trkpt><trkpt lat="44.521275213130465" lon="0.9356384357433052"><ele>88.75</ele><time>2026-04-24T17:11:31Z</time></trkpt><trkpt lat="44.521223251011484" lon="0.9355086786922829"><ele>89.0</ele><time>2026-04-24T17:11:32Z</time></trkpt><trkpt lat="44.52120069618566" lon="0.9353684618535653"><ele>89.0</ele><time>2026-04-24T17:11:33Z</time></trkpt><trkpt lat="44.521189048251074" lon="0.9352298909268653"><ele>89.0</ele><time>2026-04-24T17:11:34Z</time></trkpt><trkpt lat="44.52119882088225" lon="0.9351026904566494"><ele>89.0</ele><time>2026-04-24T17:11:35Z</time></trkpt><trkpt lat="44.52122682422617" lon="0.9349874629928836"><ele>89.0</ele><time>2026-04-24T17:11:36Z</time></trkpt><trkpt lat="44.52126975293222" lon="0.9348913847405022"><ele>89.0</ele><time>2026-04-24T17:11:37Z</time></trkpt><trkpt lat="44.52131765294316" lon="0.9348112154134682"><ele>89.0</ele><time>2026-04-24T17:11:38Z</time></trkpt><trkpt lat="44.52136603506036" lon="0.9347329749273987"><ele>90.0</ele><time>2026-04-24T17:11:39Z</time></trkpt><trkpt lat="44.521414002545384" lon="0.9346631127556067"><ele>91.0</ele><time>2026-04-24T17:11:40Z</time></trkpt><trkpt lat="44.52145835290826" lon="0.9345997522589713"><ele>92.0</ele><time>2026-04-24T17:11:41Z</time></trkpt><trkpt lat="44.52149740089638" lon="0.9345260906265329"><ele>93.0</ele><time>2026-04-24T17:11:42Z</time></trkpt><trkpt lat="44.52157761345793" lon="0.9343994037653851"><ele>94.0</ele><time>2026-04-24T17:11:44Z</time></trkpt><trkpt lat="44.52164726966694" lon="0.93426890473364"><ele>95.0</ele><time>2026-04-24T17:11:46Z</time></trkpt><trkpt lat="44.521689047393835" lon="0.9341296188925202"><ele>95.0</ele><time>2026-04-24T17:11:48Z</time></trkpt><trkpt lat="44.52174057772784" lon="0.9340095908986833"><ele>95.0</ele><time>2026-04-24T17:11:50Z</time></trkpt><trkpt lat="44.521761742290884" lon="0.9338800565583777"><ele>95.0</ele><time>2026-04-24T17:11:52Z</time></trkpt><trkpt lat="44.521795641257384" lon="0.9337328990438274"><ele>95.0</ele><time>2026-04-24T17:11:54Z</time></trkpt><trkpt lat="44.52181077832273" lon="0.9335926333837274"><ele>95.0</ele><time>2026-04-24T17:11:56Z</time></trkpt><trkpt lat="44.52181365994752" lon="0.9335037274585655"><ele>94.33333333333334</ele><time>2026-04-24T17:11:57Z</time></trkpt><trkpt lat="44.521796447438" lon="0.9333887486897076"><ele>93.66666666666667</ele><time>2026-04-24T17:11:58Z</time></trkpt><trkpt lat="44.521790731710496" lon="0.93328831111156"><ele>93.0</ele><time>2026-04-24T17:11:59Z</time></trkpt><trkpt lat="44.52177061197282" lon="0.9331910569726528"><ele>92.33333333333333</ele><time>2026-04-24T17:12:00Z</time></trkpt><trkpt lat="44.52175193472792" lon="0.9330818311270652"><ele>91.66666666666666</ele><time>2026-04-24T17:12:01Z</time></trkpt><trkpt lat="44.52173030419196" lon="0.932984242792409"><ele>91.0</ele><time>2026-04-24T17:12:02Z</time></trkpt><trkpt lat="44.52170377806363" lon="0.9328776619169877"><ele>91.0</ele><time>2026-04-24T17:12:03Z</time></trkpt><trkpt lat="44.5216848165261" lon="0.9327892354927565"><ele>91.0</ele><time>2026-04-24T17:12:04Z</time></trkpt><trkpt lat="44.5216487500973" lon="0.9327069914324759"><ele>91.0</ele><time>2026-04-24T17:12:05Z</time></trkpt><trkpt lat="44.521625493124674" lon="0.9326162533105814"><ele>91.0</ele><time>2026-04-24T17:12:06Z</time></trkpt><trkpt lat="44.52159058974799" lon="0.9325385953637669"><ele>91.0</ele><time>2026-04-24T17:12:07Z</time></trkpt><trkpt lat="44.52154155927471" lon="0.9323767066977504"><ele>91.0</ele><time>2026-04-24T17:12:09Z</time></trkpt><trkpt lat="44.521485335960485" lon="0.9322304849172578"><ele>91.33333333333333</ele><time>2026-04-24T17:12:11Z</time></trkpt><trkpt lat="44.52144449006549" lon="0.9321516976065827"><ele>91.66666666666666</ele><time>2026-04-24T17:12:12Z</time></trkpt><trkpt lat="44.52140224842796" lon="0.9320752873432323"><ele>92.0</ele><time>2026-04-24T17:12:13Z</time></trkpt><trkpt lat="44.52135547009422" lon="0.9319993988328356"><ele>92.33333333333333</ele><time>2026-04-24T17:12:14Z</time></trkpt><trkpt lat="44.521297489075394" lon="0.9319245063216076"><ele>92.66666666666667</ele><time>2026-04-24T17:12:15Z</time></trkpt><trkpt lat="44.52122291949571" lon="0.9318740843284604"><ele>93.0</ele><time>2026-04-24T17:12:16Z</time></trkpt><trkpt lat="44.52114113200607" lon="0.9318249312476761"><ele>91.4</ele><time>2026-04-24T17:12:17Z</time></trkpt><trkpt lat="44.52105928720793" lon="0.9317948900296248"><ele>89.80000000000001</ele><time>2026-04-24T17:12:18Z</time></trkpt><trkpt lat="44.52097340935764" lon="0.9317961653577812"><ele>88.2</ele><time>2026-04-24T17:12:19Z</time></trkpt><trkpt lat="44.52087581926448" lon="0.9318206728427995"><ele>86.6</ele><time>2026-04-24T17:12:20Z</time></trkpt><trkpt lat="44.52076439749351" lon="0.9318722578104143"><ele>85.0</ele><time>2026-04-24T17:12:21Z</time></trkpt><trkpt lat="44.520644272277195" lon="0.9319335756125492"><ele>85.0</ele><time>2026-04-24T17:12:22Z</time></trkpt><trkpt lat="44.520503758962555" lon="0.9319930871939696"><ele>85.0</ele><time>2026-04-24T17:12:23Z</time></trkpt><trkpt lat="44.5203622026455" lon="0.9320616592176805"><ele>85.0</ele><time>2026-04-24T17:12:24Z</time></trkpt><trkpt lat="44.52021777797636" lon="0.9321527136767055"><ele>85.75</ele><time>2026-04-24T17:12:25Z</time></trkpt><trkpt lat="44.52008620471501" lon="0.9321941379517344"><ele>86.5</ele><time>2026-04-24T17:12:26Z</time></trkpt><trkpt lat="44.51997158089979" lon="0.932248518491368"><ele>87.25</ele><time>2026-04-24T17:12:27Z</time></trkpt><trkpt lat="44.51985446868363" lon="0.932303517663557"><ele>88.0</ele><time>2026-04-24T17:12:28Z</time></trkpt><trkpt lat="44.519720683095606" lon="0.9323806976949568"><ele>88.0</ele><time>2026-04-24T17:12:29Z</time></trkpt><trkpt lat="44.51961189575222" lon="0.9324760059030118"><ele>88.0</ele><time>2026-04-24T17:12:30Z</time></trkpt><trkpt lat="44.519497662371634" lon="0.9325486146548856"><ele>88.0</ele><time>2026-04-24T17:12:31Z</time></trkpt><trkpt lat="44.519397380414844" lon="0.9326352114313615"><ele>88.0</ele><time>2026-04-24T17:12:32Z</time></trkpt><trkpt lat="44.519282741790036" lon="0.9327346341735548"><ele>88.5</ele><time>2026-04-24T17:12:33Z</time></trkpt><trkpt lat="44.51915916675876" lon="0.9328281361185069"><ele>89.0</ele><time>2026-04-24T17:12:34Z</time></trkpt><trkpt lat="44.519023659534234" lon="0.932929009119171"><ele>89.5</ele><time>2026-04-24T17:12:35Z</time></trkpt><trkpt lat="44.5188872126512" lon="0.9330271612400126"><ele>90.0</ele><time>2026-04-24T17:12:36Z</time></trkpt><trkpt lat="44.51873853989535" lon="0.9331165368822155"><ele>92.0</ele><time>2026-04-24T17:12:37Z</time></trkpt><trkpt lat="44.51858475077343" lon="0.9331885792747261"><ele>94.0</ele><time>2026-04-24T17:12:38Z</time></trkpt><trkpt lat="44.5184250264681" lon="0.9332498597521814"><ele>96.0</ele><time>2026-04-24T17:12:39Z</time></trkpt><trkpt lat="44.51827045970812" lon="0.9333211408796425"><ele>96.0</ele><time>2026-04-24T17:12:40Z</time></trkpt><trkpt lat="44.51811571868607" lon="0.9333510584487571"><ele>96.0</ele><time>2026-04-24T17:12:41Z</time></trkpt><trkpt lat="44.517996703206755" lon="0.9334020830038257"><ele>96.0</ele><time>2026-04-24T17:12:42Z</time></trkpt><trkpt lat="44.517884311445314" lon="0.9334593730669809"><ele>96.0</ele><time>2026-04-24T17:12:43Z</time></trkpt><trkpt lat="44.51778344671231" lon="0.9334822467414279"><ele>96.0</ele><time>2026-04-24T17:12:44Z</time></trkpt><trkpt lat="44.51768378346699" lon="0.9334972501646892"><ele>96.0</ele><time>2026-04-24T17:12:45Z</time></trkpt><trkpt lat="44.517595824176965" lon="0.9334991312525254"><ele>96.0</ele><time>2026-04-24T17:12:46Z</time></trkpt><trkpt lat="44.51750122247678" lon="0.9334873202902149"><ele>96.0</ele><time>2026-04-24T17:12:47Z</time></trkpt><trkpt lat="44.51741478321086" lon="0.9334642576488947"><ele>96.0</ele><time>2026-04-24T17:12:48Z</time></trkpt><trkpt lat="44.51733101014329" lon="0.9334343303200892"><ele>96.0</ele><time>2026-04-24T17:12:49Z</time></trkpt><trkpt lat="44.517247804823384" lon="0.9334197259624467"><ele>96.0</ele><time>2026-04-24T17:12:50Z</time></trkpt><trkpt lat="44.51717270841823" lon="0.93340220960523"><ele>96.0</ele><time>2026-04-24T17:12:51Z</time></trkpt><trkpt lat="44.51707187364828" lon="0.9333624236698065"><ele>96.0</ele><time>2026-04-24T17:12:53Z</time></trkpt><trkpt lat="44.51702018557885" lon="0.9335383475172307"><ele>96.0</ele><time>2026-04-24T17:12:55Z</time></trkpt><trkpt lat="44.51703544884924" lon="0.9336908817134115"><ele>95.8</ele><time>2026-04-24T17:12:57Z</time></trkpt><trkpt lat="44.51703815877815" lon="0.933829704617312"><ele>95.6</ele><time>2026-04-24T17:12:59Z</time></trkpt><trkpt lat="44.517035095161965" lon="0.9339674785587382"><ele>95.4</ele><time>2026-04-24T17:13:01Z</time></trkpt><trkpt lat="44.517031097916" lon="0.934096226632692"><ele>95.2</ele><time>2026-04-24T17:13:03Z</time></trkpt><trkpt lat="44.51702826244519" lon="0.9341891567730031"><ele>95.0</ele><time>2026-04-24T17:13:04Z</time></trkpt><trkpt lat="44.51702268289415" lon="0.9343763719207339"><ele>94.16666666666667</ele><time>2026-04-24T17:13:06Z</time></trkpt><trkpt lat="44.51702040762525" lon="0.9344863789947289"><ele>93.33333333333334</ele><time>2026-04-24T17:13:07Z</time></trkpt><trkpt lat="44.51703396180079" lon="0.9346044342503261"><ele>92.5</ele><time>2026-04-24T17:13:08Z</time></trkpt><trkpt lat="44.517015587174214" lon="0.9347194416369309"><ele>91.66666666666667</ele><time>2026-04-24T17:13:09Z</time></trkpt><trkpt lat="44.51702714879892" lon="0.9348256137087502"><ele>90.83333333333333</ele><time>2026-04-24T17:13:10Z</time></trkpt><trkpt lat="44.517025733105214" lon="0.9349459723761324"><ele>90.0</ele><time>2026-04-24T17:13:11Z</time></trkpt><trkpt lat="44.51699900239724" lon="0.9350588855877237"><ele>89.16666666666667</ele><time>2026-04-24T17:13:12Z</time></trkpt><trkpt lat="44.51698057938777" lon="0.9351804087236413"><ele>88.33333333333333</ele><time>2026-04-24T17:13:13Z</time></trkpt><trkpt lat="44.51698437079652" lon="0.9353126630778058"><ele>87.5</ele><time>2026-04-24T17:13:14Z</time></trkpt><trkpt lat="44.516973315468135" lon="0.9354433127306937"><ele>86.66666666666666</ele><time>2026-04-24T17:13:15Z</time></trkpt><trkpt lat="44.516981764356515" lon="0.9355567215406135"><ele>85.83333333333333</ele><time>2026-04-24T17:13:16Z</time></trkpt><trkpt lat="44.51698152247866" lon="0.9356644250986105"><ele>85.0</ele><time>2026-04-24T17:13:17Z</time></trkpt><trkpt lat="44.51696060437172" lon="0.9357671534573861"><ele>85.0</ele><time>2026-04-24T17:13:18Z</time></trkpt><trkpt lat="44.516942683652" lon="0.9358627840045941"><ele>85.0</ele><time>2026-04-24T17:13:19Z</time></trkpt><trkpt lat="44.516884406068485" lon="0.9359352732561325"><ele>85.0</ele><time>2026-04-24T17:13:20Z</time></trkpt><trkpt lat="44.51680136161763" lon="0.9359445791125618"><ele>85.0</ele><time>2026-04-24T17:13:21Z</time></trkpt><trkpt lat="44.51670405523703" lon="0.9360236841819554"><ele>85.0</ele><time>2026-04-24T17:13:23Z</time></trkpt><trkpt lat="44.51663540115526" lon="0.9360431642265776"><ele>85.0</ele><time>2026-04-24T17:13:25Z</time></trkpt><trkpt lat="44.516675525970236" lon="0.93631117730918"><ele>84.0</ele><time>2026-04-24T17:13:28Z</time></trkpt><trkpt lat="44.516684439079725" lon="0.9364094779887617"><ele>83.0</ele><time>2026-04-24T17:13:30Z</time></trkpt><trkpt lat="44.51665953442976" lon="0.9365481534815566"><ele>82.0</ele><time>2026-04-24T17:13:32Z</time></trkpt><trkpt lat="44.51657561839011" lon="0.9366017769307825"><ele>81.0</ele><time>2026-04-24T17:13:34Z</time></trkpt><trkpt lat="44.51647074858064" lon="0.9365714916386825"><ele>80.0</ele><time>2026-04-24T17:13:36Z</time></trkpt><trkpt lat="44.516379771262514" lon="0.9365430595596737"><ele>80.0</ele><time>2026-04-24T17:13:37Z</time></trkpt><trkpt lat="44.51625607640104" lon="0.9365207795161036"><ele>80.0</ele><time>2026-04-24T17:13:38Z</time></trkpt><trkpt lat="44.51613250508521" lon="0.936500876058553"><ele>80.0</ele><time>2026-04-24T17:13:39Z</time></trkpt><trkpt lat="44.515997400391186" lon="0.9364960903601685"><ele>80.0</ele><time>2026-04-24T17:13:40Z</time></trkpt><trkpt lat="44.515856882330944" lon="0.9365076526070097"><ele>80.0</ele><time>2026-04-24T17:13:41Z</time></trkpt><trkpt lat="44.51571119449445" lon="0.9365362373589929"><ele>80.0</ele><time>2026-04-24T17:13:42Z</time></trkpt><trkpt lat="44.51554973746291" lon="0.9365572209746076"><ele>80.0</ele><time>2026-04-24T17:13:43Z</time></trkpt><trkpt lat="44.51539066025966" lon="0.9365792675311141"><ele>80.66666666666667</ele><time>2026-04-24T17:13:44Z</time></trkpt><trkpt lat="44.515227353286235" lon="0.9366327539022107"><ele>81.33333333333333</ele><time>2026-04-24T17:13:45Z</time></trkpt><trkpt lat="44.515060571467764" lon="0.9366650040321771"><ele>82.0</ele><time>2026-04-24T17:13:46Z</time></trkpt><trkpt lat="44.514884393726135" lon="0.9366977633994951"><ele>80.66666666666666</ele><time>2026-04-24T17:13:47Z</time></trkpt><trkpt lat="44.514721751076074" lon="0.9367549392954988"><ele>79.33333333333333</ele><time>2026-04-24T17:13:48Z</time></trkpt><trkpt lat="44.5145585206103" lon="0.9367622600734405"><ele>78.0</ele><time>2026-04-24T17:13:49Z</time></trkpt><trkpt lat="44.51437535433258" lon="0.9368040618225079"><ele>78.0</ele><time>2026-04-24T17:13:50Z</time></trkpt><trkpt lat="44.51422059336445" lon="0.9368571632613935"><ele>78.0</ele><time>2026-04-24T17:13:51Z</time></trkpt><trkpt lat="44.51406071435598" lon="0.9368896349409341"><ele>78.0</ele><time>2026-04-24T17:13:52Z</time></trkpt><trkpt lat="44.51387908953836" lon="0.9369168369902457"><ele>78.33333333333333</ele><time>2026-04-24T17:13:53Z</time></trkpt><trkpt lat="44.51370868618309" lon="0.9368597682533469"><ele>78.66666666666666</ele><time>2026-04-24T17:13:54Z</time></trkpt><trkpt lat="44.51354020031841" lon="0.9368052590881486"><ele>79.0</ele><time>2026-04-24T17:13:55Z</time></trkpt><trkpt lat="44.513406845652" lon="0.9371336352797934"><ele>79.0</ele><time>2026-04-24T17:13:56Z</time></trkpt><trkpt lat="44.51324101508624" lon="0.9372138466555955"><ele>79.0</ele><time>2026-04-24T17:13:57Z</time></trkpt><trkpt lat="44.513070906017965" lon="0.9373018302858536"><ele>79.0</ele><time>2026-04-24T17:13:58Z</time></trkpt><trkpt lat="44.512900000414255" lon="0.9373899059728072"><ele>79.66666666666666</ele><time>2026-04-24T17:13:59Z</time></trkpt><trkpt lat="44.51272452243375" lon="0.9374748939285601"><ele>80.33333333333333</ele><time>2026-04-24T17:14:00Z</time></trkpt><trkpt lat="44.51254823063734" lon="0.9375542096021491"><ele>81.0</ele><time>2026-04-24T17:14:01Z</time></trkpt><trkpt lat="44.51236916596593" lon="0.937627837002583"><ele>81.0</ele><time>2026-04-24T17:14:02Z</time></trkpt><trkpt lat="44.512195404975905" lon="0.9377150265332266"><ele>81.0</ele><time>2026-04-24T17:14:03Z</time></trkpt><trkpt lat="44.51203158493973" lon="0.9378049799489592"><ele>81.0</ele><time>2026-04-24T17:14:04Z</time></trkpt><trkpt lat="44.51188819704411" lon="0.9378845443125733"><ele>81.0</ele><time>2026-04-24T17:14:05Z</time></trkpt><trkpt lat="44.511761320508015" lon="0.937959443457628"><ele>81.0</ele><time>2026-04-24T17:14:06Z</time></trkpt><trkpt lat="44.5116449318788" lon="0.9380347501665377"><ele>81.0</ele><time>2026-04-24T17:14:07Z</time></trkpt><trkpt lat="44.51154970242064" lon="0.9381235703769593"><ele>81.0</ele><time>2026-04-24T17:14:08Z</time></trkpt><trkpt lat="44.511490371624355" lon="0.9382657989932599"><ele>81.0</ele><time>2026-04-24T17:14:09Z</time></trkpt><trkpt lat="44.51141056995006" lon="0.9383214164946615"><ele>81.0</ele><time>2026-04-24T17:14:10Z</time></trkpt><trkpt lat="44.51132913171951" lon="0.9383686268092084"><ele>81.0</ele><time>2026-04-24T17:14:11Z</time></trkpt><trkpt lat="44.51125689947841" lon="0.9383965547762576"><ele>81.0</ele><time>2026-04-24T17:14:12Z</time></trkpt><trkpt lat="44.511188769898766" lon="0.9384137798726014"><ele>81.0</ele><time>2026-04-24T17:14:13Z</time></trkpt><trkpt lat="44.51106876351581" lon="0.9384684686292228"><ele>81.0</ele><time>2026-04-24T17:14:15Z</time></trkpt><trkpt lat="44.51100359771088" lon="0.9384805120941776"><ele>80.83333333333333</ele><time>2026-04-24T17:14:16Z</time></trkpt><trkpt lat="44.5109359356073" lon="0.9384961437367593"><ele>80.66666666666667</ele><time>2026-04-24T17:14:17Z</time></trkpt><trkpt lat="44.51086322740235" lon="0.9385181485764333"><ele>80.5</ele><time>2026-04-24T17:14:18Z</time></trkpt><trkpt lat="44.510785869457386" lon="0.9385514503061273"><ele>80.33333333333334</ele><time>2026-04-24T17:14:19Z</time></trkpt><trkpt lat="44.51070642705861" lon="0.9386172855271595"><ele>80.16666666666667</ele><time>2026-04-24T17:14:20Z</time></trkpt><trkpt lat="44.510607174318245" lon="0.9386949547508666"><ele>80.0</ele><time>2026-04-24T17:14:21Z</time></trkpt><trkpt lat="44.51048509347868" lon="0.9387630234789094"><ele>79.75</ele><time>2026-04-24T17:14:22Z</time></trkpt><trkpt lat="44.51036161126967" lon="0.9388574710564989"><ele>79.5</ele><time>2026-04-24T17:14:23Z</time></trkpt><trkpt lat="44.510240938567975" lon="0.9389738234543661"><ele>79.25</ele><time>2026-04-24T17:14:24Z</time></trkpt><trkpt lat="44.51010422338359" lon="0.9390772478072116"><ele>79.0</ele><time>2026-04-24T17:14:25Z</time></trkpt><trkpt lat="44.5099516213034" lon="0.9391633267408805"><ele>79.0</ele><time>2026-04-24T17:14:26Z</time></trkpt><trkpt lat="44.509781672735755" lon="0.9392780420911407"><ele>79.0</ele><time>2026-04-24T17:14:27Z</time></trkpt><trkpt lat="44.50963467918109" lon="0.93938308139213"><ele>79.0</ele><time>2026-04-24T17:14:28Z</time></trkpt><trkpt lat="44.50951752228405" lon="0.9394916566250231"><ele>79.0</ele><time>2026-04-24T17:14:29Z</time></trkpt><trkpt lat="44.50938893641305" lon="0.9396065998533939"><ele>79.0</ele><time>2026-04-24T17:14:30Z</time></trkpt><trkpt lat="44.509251335608475" lon="0.93971956302558"><ele>79.0</ele><time>2026-04-24T17:14:31Z</time></trkpt><trkpt lat="44.509111922952364" lon="0.9398070064394046"><ele>79.0</ele><time>2026-04-24T17:14:32Z</time></trkpt><trkpt lat="44.50897799711262" lon="0.9399061546907626"><ele>79.0</ele><time>2026-04-24T17:14:33Z</time></trkpt><trkpt lat="44.5088321148438" lon="0.939999315638698"><ele>79.0</ele><time>2026-04-24T17:14:34Z</time></trkpt><trkpt lat="44.508681557052306" lon="0.9401060232654872"><ele>79.0</ele><time>2026-04-24T17:14:35Z</time></trkpt><trkpt lat="44.5085334180623" lon="0.9402297775074422"><ele>79.0</ele><time>2026-04-24T17:14:36Z</time></trkpt><trkpt lat="44.50836505098389" lon="0.9403527511582908"><ele>79.0</ele><time>2026-04-24T17:14:37Z</time></trkpt><trkpt lat="44.50824197339939" lon="0.9404586657248467"><ele>79.0</ele><time>2026-04-24T17:14:38Z</time></trkpt><trkpt lat="44.50815064505466" lon="0.9405350689837684"><ele>79.0</ele><time>2026-04-24T17:14:39Z</time></trkpt><trkpt lat="44.50801495015383" lon="0.9406422847943651"><ele>79.0</ele><time>2026-04-24T17:14:40Z</time></trkpt><trkpt lat="44.507926217590295" lon="0.9407271296697785"><ele>79.0</ele><time>2026-04-24T17:14:41Z</time></trkpt><trkpt lat="44.50771263088097" lon="0.9408957932247597"><ele>79.4</ele><time>2026-04-24T17:14:42Z</time></trkpt><trkpt lat="44.50758477742179" lon="0.9409895457748344"><ele>79.80000000000001</ele><time>2026-04-24T17:14:43Z</time></trkpt><trkpt lat="44.50747133265339" lon="0.9410437189075233"><ele>80.19999999999999</ele><time>2026-04-24T17:14:44Z</time></trkpt><trkpt lat="44.50738707992153" lon="0.9411167017566149"><ele>80.6</ele><time>2026-04-24T17:14:45Z</time></trkpt><trkpt lat="44.507316227334265" lon="0.9411708780030489"><ele>81.0</ele><time>2026-04-24T17:14:45.999Z</time></trkpt><trkpt lat="44.50725904323541" lon="0.9412093422476018"><ele>81.0</ele><time>2026-04-24T17:14:46.999Z</time></trkpt><trkpt lat="44.50719313988032" lon="0.941276107634486"><ele>81.0</ele><time>2026-04-24T17:14:48.999Z</time></trkpt><trkpt lat="44.507153109685966" lon="0.9414102084014432"><ele>81.0</ele><time>2026-04-24T17:14:51.999Z</time></trkpt><trkpt lat="44.50706592246896" lon="0.9414288563560861"><ele>81.0</ele><time>2026-04-24T17:14:54.999Z</time></trkpt><trkpt lat="44.506991963650655" lon="0.9414678308195489"><ele>81.0</ele><time>2026-04-24T17:14:56.999Z</time></trkpt><trkpt lat="44.50689387539054" lon="0.9414807272599044"><ele>80.83333333333333</ele><time>2026-04-24T17:14:59.999Z</time></trkpt><trkpt lat="44.50682378805434" lon="0.9415151539398929"><ele>80.66666666666667</ele><time>2026-04-24T17:15:01.999Z</time></trkpt><trkpt lat="44.50673276424319" lon="0.9415258941860037"><ele>80.5</ele><time>2026-04-24T17:15:04Z</time></trkpt><trkpt lat="44.50664480285642" lon="0.9415152023422906"><ele>80.33333333333334</ele><time>2026-04-24T17:15:06Z</time></trkpt><trkpt lat="44.506564050999906" lon="0.941528233039977"><ele>80.16666666666667</ele><time>2026-04-24T17:15:08Z</time></trkpt><trkpt lat="44.50650018995501" lon="0.9415549051180896"><ele>80.0</ele><time>2026-04-24T17:15:10Z</time></trkpt><trkpt lat="44.506416061870844" lon="0.9415754890916771"><ele>80.0</ele><time>2026-04-24T17:15:13Z</time></trkpt><trkpt lat="44.506303708725035" lon="0.9415755521659692"><ele>80.0</ele><time>2026-04-24T17:15:16Z</time></trkpt><trkpt lat="44.50618622333091" lon="0.9415739903426635"><ele>80.0</ele><time>2026-04-24T17:15:18Z</time></trkpt><trkpt lat="44.506106255674446" lon="0.941586408028098"><ele>80.0</ele><time>2026-04-24T17:15:19Z</time></trkpt><trkpt lat="44.50602220498997" lon="0.9415888246780101"><ele>80.0</ele><time>2026-04-24T17:15:20Z</time></trkpt><trkpt lat="44.50592098454313" lon="0.9416074357288626"><ele>79.5</ele><time>2026-04-24T17:15:21Z</time></trkpt><trkpt lat="44.50581252326482" lon="0.9416223100590939"><ele>79.0</ele><time>2026-04-24T17:15:22Z</time></trkpt><trkpt lat="44.5056875234618" lon="0.9416468432941116"><ele>78.5</ele><time>2026-04-24T17:15:23Z</time></trkpt><trkpt lat="44.50554604705682" lon="0.941676163423139"><ele>78.0</ele><time>2026-04-24T17:15:24Z</time></trkpt><trkpt lat="44.50540122770978" lon="0.9416943402272949"><ele>77.66666666666667</ele><time>2026-04-24T17:15:25Z</time></trkpt><trkpt lat="44.505252139441986" lon="0.9416994724944"><ele>77.33333333333334</ele><time>2026-04-24T17:15:26Z</time></trkpt><trkpt lat="44.505093578612524" lon="0.9417079064826546"><ele>77.0</ele><time>2026-04-24T17:15:27Z</time></trkpt><trkpt lat="44.50493590228767" lon="0.9417156833887984"><ele>77.0</ele><time>2026-04-24T17:15:28Z</time></trkpt><trkpt lat="44.504754146377564" lon="0.9417148129813913"><ele>77.0</ele><time>2026-04-24T17:15:29Z</time></trkpt><trkpt lat="44.504591074808125" lon="0.9417396247150784"><ele>77.0</ele><time>2026-04-24T17:15:30Z</time></trkpt><trkpt lat="44.50441899363686" lon="0.9417559719041455"><ele>76.33333333333334</ele><time>2026-04-24T17:15:31Z</time></trkpt><trkpt lat="44.50423822223351" lon="0.94177595450706"><ele>75.66666666666667</ele><time>2026-04-24T17:15:32Z</time></trkpt><trkpt lat="44.50405322429994" lon="0.9417831004125202"><ele>75.0</ele><time>2026-04-24T17:15:33Z</time></trkpt><trkpt lat="44.50386604207947" lon="0.9418090869244912"><ele>75.0</ele><time>2026-04-24T17:15:34Z</time></trkpt><trkpt lat="44.50369985360108" lon="0.9418037305946344"><ele>75.0</ele><time>2026-04-24T17:15:35Z</time></trkpt><trkpt lat="44.50351118583036" lon="0.9418111677456223"><ele>75.0</ele><time>2026-04-24T17:15:36Z</time></trkpt><trkpt lat="44.503325162226446" lon="0.9418320345669564"><ele>75.0</ele><time>2026-04-24T17:15:37Z</time></trkpt><trkpt lat="44.50314032234889" lon="0.9418328063185403"><ele>75.0</ele><time>2026-04-24T17:15:38Z</time></trkpt><trkpt lat="44.5029524859222" lon="0.9418606285355577"><ele>75.0</ele><time>2026-04-24T17:15:39Z</time></trkpt><trkpt lat="44.50277655290137" lon="0.9418672726313222"><ele>75.33333333333333</ele><time>2026-04-24T17:15:40Z</time></trkpt><trkpt lat="44.50261790819556" lon="0.9418836603802236"><ele>75.66666666666666</ele><time>2026-04-24T17:15:41Z</time></trkpt><trkpt lat="44.50244716439495" lon="0.9418890886102669"><ele>76.0</ele><time>2026-04-24T17:15:42Z</time></trkpt><trkpt lat="44.50227483760634" lon="0.9418877445086471"><ele>76.0</ele><time>2026-04-24T17:15:43Z</time></trkpt><trkpt lat="44.502092717845024" lon="0.9418925540639923"><ele>76.0</ele><time>2026-04-24T17:15:44Z</time></trkpt><trkpt lat="44.501922859692144" lon="0.941944768387773"><ele>76.0</ele><time>2026-04-24T17:15:45Z</time></trkpt><trkpt lat="44.50175307547529" lon="0.9419970126372188"><ele>76.25</ele><time>2026-04-24T17:15:46Z</time></trkpt><trkpt lat="44.501605884720455" lon="0.942022709531301"><ele>76.5</ele><time>2026-04-24T17:15:47Z</time></trkpt><trkpt lat="44.50146521341138" lon="0.9420643873202811"><ele>76.75</ele><time>2026-04-24T17:15:48Z</time></trkpt><trkpt lat="44.501321612564624" lon="0.9420947599300776"><ele>77.0</ele><time>2026-04-24T17:15:49Z</time></trkpt><trkpt lat="44.501204860091875" lon="0.9420873598841194"><ele>77.0</ele><time>2026-04-24T17:15:50Z</time></trkpt><trkpt lat="44.501099979200006" lon="0.9420887945647427"><ele>77.0</ele><time>2026-04-24T17:15:51Z</time></trkpt><trkpt lat="44.500973066400825" lon="0.9421461751507219"><ele>77.0</ele><time>2026-04-24T17:15:52Z</time></trkpt><trkpt lat="44.500833877033514" lon="0.9421891496639682"><ele>77.0</ele><time>2026-04-24T17:15:53Z</time></trkpt><trkpt lat="44.50067971598446" lon="0.9421993365760253"><ele>77.0</ele><time>2026-04-24T17:15:54Z</time></trkpt><trkpt lat="44.500510411847436" lon="0.9421871827467765"><ele>77.0</ele><time>2026-04-24T17:15:55Z</time></trkpt><trkpt lat="44.50034668840514" lon="0.9421658367566016"><ele>77.0</ele><time>2026-04-24T17:15:56Z</time></trkpt><trkpt lat="44.500204729418755" lon="0.9421384824137903"><ele>76.5</ele><time>2026-04-24T17:15:57Z</time></trkpt><trkpt lat="44.500069708610795" lon="0.9420739879601585"><ele>76.0</ele><time>2026-04-24T17:15:58Z</time></trkpt><trkpt lat="44.499930254560425" lon="0.9420206158009212"><ele>75.5</ele><time>2026-04-24T17:15:59Z</time></trkpt><trkpt lat="44.49977362719341" lon="0.9420251826176564"><ele>75.0</ele><time>2026-04-24T17:16:00Z</time></trkpt><trkpt lat="44.4996084600411" lon="0.942057004327456"><ele>74.33333333333333</ele><time>2026-04-24T17:16:01Z</time></trkpt><trkpt lat="44.49944185630688" lon="0.9420754429185931"><ele>73.66666666666666</ele><time>2026-04-24T17:16:02Z</time></trkpt><trkpt lat="44.49926845868375" lon="0.9420976546471677"><ele>73.0</ele><time>2026-04-24T17:16:03Z</time></trkpt><trkpt lat="44.499103648539446" lon="0.942116285494719"><ele>73.0</ele><time>2026-04-24T17:16:04Z</time></trkpt><trkpt lat="44.49896254423348" lon="0.9421376532537622"><ele>73.0</ele><time>2026-04-24T17:16:05Z</time></trkpt><trkpt lat="44.498837289795674" lon="0.9421441969605384"><ele>73.0</ele><time>2026-04-24T17:16:06Z</time></trkpt><trkpt lat="44.49872899747927" lon="0.9421546574739744"><ele>73.0</ele><time>2026-04-24T17:16:07Z</time></trkpt><trkpt lat="44.49863007719297" lon="0.942161917226426"><ele>73.0</ele><time>2026-04-24T17:16:08Z</time></trkpt><trkpt lat="44.49853768422726" lon="0.9421691366697037"><ele>73.0</ele><time>2026-04-24T17:16:09Z</time></trkpt><trkpt lat="44.49846855211374" lon="0.9421880462182556"><ele>73.0</ele><time>2026-04-24T17:16:10Z</time></trkpt><trkpt lat="44.498359430686946" lon="0.9421889918317882"><ele>73.0</ele><time>2026-04-24T17:16:12Z</time></trkpt><trkpt lat="44.49828951103748" lon="0.9422006446930637"><ele>73.0</ele><time>2026-04-24T17:16:14Z</time></trkpt><trkpt lat="44.498226663461494" lon="0.9422319891274089"><ele>73.0</ele><time>2026-04-24T17:16:49.999Z</time></trkpt><trkpt lat="44.49812482269898" lon="0.9422825759063934"><ele>73.0</ele><time>2026-04-24T17:16:51.999Z</time></trkpt><trkpt lat="44.49804493777174" lon="0.9423288898777037"><ele>73.0</ele><time>2026-04-24T17:16:52.999Z</time></trkpt><trkpt lat="44.49797710908456" lon="0.9423659128486973"><ele>73.0</ele><time>2026-04-24T17:16:53.999Z</time></trkpt><trkpt lat="44.4978919936535" lon="0.9423361088712153"><ele>73.0</ele><time>2026-04-24T17:16:55.999Z</time></trkpt><trkpt lat="44.497857154614245" lon="0.9422081358302005"><ele>73.0</ele><time>2026-04-24T17:16:57.999Z</time></trkpt><trkpt lat="44.49784671624663" lon="0.9420294338664725"><ele>73.2</ele><time>2026-04-24T17:16:59.999Z</time></trkpt><trkpt lat="44.49782769705091" lon="0.9418872497512277"><ele>73.4</ele><time>2026-04-24T17:17:01.999Z</time></trkpt><trkpt lat="44.49780995508429" lon="0.9417727263751192"><ele>73.60000000000001</ele><time>2026-04-24T17:17:03.999Z</time></trkpt><trkpt lat="44.497804547405416" lon="0.9416834109527384"><ele>73.8</ele><time>2026-04-24T17:17:04.999Z</time></trkpt><trkpt lat="44.49780153835163" lon="0.9415551756714631"><ele>74.0</ele><time>2026-04-24T17:17:06.999Z</time></trkpt><trkpt lat="44.49777754370066" lon="0.9413591642161476"><ele>75.33333333333334</ele><time>2026-04-24T17:17:09Z</time></trkpt><trkpt lat="44.49777191272182" lon="0.9412440267555305"><ele>76.66666666666667</ele><time>2026-04-24T17:17:10Z</time></trkpt><trkpt lat="44.49775383960065" lon="0.9411340694923956"><ele>78.0</ele><time>2026-04-24T17:17:11Z</time></trkpt><trkpt lat="44.49773873815391" lon="0.941043545510662"><ele>79.33333333333333</ele><time>2026-04-24T17:17:12Z</time></trkpt><trkpt lat="44.49768658108052" lon="0.9409181516097759"><ele>80.66666666666666</ele><time>2026-04-24T17:17:14Z</time></trkpt><trkpt lat="44.497639469000646" lon="0.9408468832484406"><ele>82.0</ele><time>2026-04-24T17:17:15Z</time></trkpt><trkpt lat="44.49758815965405" lon="0.9407544140045274"><ele>82.66666666666666</ele><time>2026-04-24T17:17:17Z</time></trkpt><trkpt lat="44.49753608645729" lon="0.9406832561922073"><ele>83.33333333333333</ele><time>2026-04-24T17:17:19Z</time></trkpt><trkpt lat="44.497452023864824" lon="0.9405546106683271"><ele>84.0</ele><time>2026-04-24T17:17:21Z</time></trkpt><trkpt lat="44.497415355424565" lon="0.9404671550903043"><ele>84.66666666666667</ele><time>2026-04-24T17:17:22Z</time></trkpt><trkpt lat="44.49737076285904" lon="0.9403901898762836"><ele>85.33333333333334</ele><time>2026-04-24T17:17:23Z</time></trkpt><trkpt lat="44.49732394542695" lon="0.9403217599532693"><ele>86.0</ele><time>2026-04-24T17:17:24Z</time></trkpt><trkpt lat="44.497283333587255" lon="0.9402392705152529"><ele>86.0</ele><time>2026-04-24T17:17:25Z</time></trkpt><trkpt lat="44.49720844565248" lon="0.9401176216263356"><ele>86.0</ele><time>2026-04-24T17:17:27Z</time></trkpt><trkpt lat="44.49714935984201" lon="0.9400286064518205"><ele>86.0</ele><time>2026-04-24T17:17:30Z</time></trkpt><trkpt lat="44.49707621964895" lon="0.939926329918024"><ele>86.0</ele><time>2026-04-24T17:17:32Z</time></trkpt><trkpt lat="44.497046686574194" lon="0.939844406753426"><ele>86.0</ele><time>2026-04-24T17:17:34Z</time></trkpt><trkpt lat="44.49699071540596" lon="0.9397687260987985"><ele>86.0</ele><time>2026-04-24T17:17:41Z</time></trkpt><trkpt lat="44.49686557770907" lon="0.9398863689010244"><ele>86.6</ele><time>2026-04-24T17:17:42Z</time></trkpt><trkpt lat="44.49677752323222" lon="0.9399942094275836"><ele>87.19999999999999</ele><time>2026-04-24T17:17:44Z</time></trkpt><trkpt lat="44.4966880382061" lon="0.939971037972731"><ele>87.80000000000001</ele><time>2026-04-24T17:17:45Z</time></trkpt><trkpt lat="44.49661063514711" lon="0.9400121430400885"><ele>88.4</ele><time>2026-04-24T17:17:47Z</time></trkpt><trkpt lat="44.49652478629541" lon="0.9400758385921887"><ele>89.0</ele><time>2026-04-24T17:17:50Z</time></trkpt><trkpt lat="44.49646739244116" lon="0.9401178618344945"><ele>89.0</ele><time>2026-04-24T17:17:51Z</time></trkpt><trkpt lat="44.49639834386388" lon="0.9401884448974501"><ele>89.0</ele><time>2026-04-24T17:17:54Z</time></trkpt><trkpt lat="44.49629799484891" lon="0.9402470606912671"><ele>89.0</ele><time>2026-04-24T17:17:56Z</time></trkpt><trkpt lat="44.49622147155501" lon="0.9403126914689585"><ele>89.0</ele><time>2026-04-24T17:17:59Z</time></trkpt><trkpt lat="44.49613189390258" lon="0.9403453939835598"><ele>89.0</ele><time>2026-04-24T17:18:01Z</time></trkpt><trkpt lat="44.49606845751847" lon="0.9403852476237123"><ele>89.0</ele><time>2026-04-24T17:18:03Z</time></trkpt><trkpt lat="44.49598786075044" lon="0.9404336419744826"><ele>90.83333333333334</ele><time>2026-04-24T17:18:07Z</time></trkpt><trkpt lat="44.495890694863235" lon="0.9405131513843838"><ele>92.66666666666667</ele><time>2026-04-24T17:18:09Z</time></trkpt><trkpt lat="44.49582910034165" lon="0.9405616105403687"><ele>94.5</ele><time>2026-04-24T17:18:10Z</time></trkpt><trkpt lat="44.49576567787661" lon="0.9405920921647049"><ele>96.33333333333334</ele><time>2026-04-24T17:18:11Z</time></trkpt><trkpt lat="44.49565879558639" lon="0.9406408111218069"><ele>98.16666666666667</ele><time>2026-04-24T17:18:13Z</time></trkpt><trkpt lat="44.49559591670943" lon="0.9406870136696605"><ele>100.0</ele><time>2026-04-24T17:18:14Z</time></trkpt><trkpt lat="44.49552281030193" lon="0.9407005208095712"><ele>100.00000000000001</ele><time>2026-04-24T17:18:15Z</time></trkpt><trkpt lat="44.49545895270004" lon="0.9407298693269823"><ele>100.0</ele><time>2026-04-24T17:18:16Z</time></trkpt><trkpt lat="44.49537397752189" lon="0.9407582310110721"><ele>100.0</ele><time>2026-04-24T17:18:17Z</time></trkpt><trkpt lat="44.49529865121796" lon="0.9407516399180899"><ele>100.0</ele><time>2026-04-24T17:18:18Z</time></trkpt><trkpt lat="44.49521570427896" lon="0.940724541904974"><ele>100.00000000000001</ele><time>2026-04-24T17:18:19Z</time></trkpt><trkpt lat="44.49514894345228" lon="0.9406780051124702"><ele>100.0</ele><time>2026-04-24T17:18:20Z</time></trkpt><trkpt lat="44.49507262605099" lon="0.9406309980064679"><ele>102.0</ele><time>2026-04-24T17:18:21Z</time></trkpt><trkpt lat="44.49501720062154" lon="0.9405839190487724"><ele>104.0</ele><time>2026-04-24T17:18:22Z</time></trkpt><trkpt lat="44.49492089222874" lon="0.9405201222038586"><ele>106.0</ele><time>2026-04-24T17:18:24Z</time></trkpt><trkpt lat="44.494802345813994" lon="0.94055852939692"><ele>108.0</ele><time>2026-04-24T17:18:26Z</time></trkpt><trkpt lat="44.494714503446346" lon="0.9406096456255159"><ele>110.0</ele><time>2026-04-24T17:18:27Z</time></trkpt><trkpt lat="44.49460284406226" lon="0.9406698964773533"><ele>109.0</ele><time>2026-04-24T17:18:28Z</time></trkpt><trkpt lat="44.494472613714215" lon="0.9407333049936139"><ele>108.0</ele><time>2026-04-24T17:18:29Z</time></trkpt><trkpt lat="44.494332744791855" lon="0.9407499107446293"><ele>107.0</ele><time>2026-04-24T17:18:30Z</time></trkpt><trkpt lat="44.49418926472566" lon="0.9407189788452497"><ele>106.0</ele><time>2026-04-24T17:18:31Z</time></trkpt><trkpt lat="44.49406686779249" lon="0.9406427639245231"><ele>106.0</ele><time>2026-04-24T17:18:32Z</time></trkpt><trkpt lat="44.49395224663025" lon="0.9405568192012173"><ele>106.0</ele><time>2026-04-24T17:18:33Z</time></trkpt><trkpt lat="44.493867203565635" lon="0.9404280204161545"><ele>106.0</ele><time>2026-04-24T17:18:34Z</time></trkpt><trkpt lat="44.493812364323354" lon="0.9402861817213392"><ele>106.0</ele><time>2026-04-24T17:18:35Z</time></trkpt><trkpt lat="44.493766054117" lon="0.9401403624959445"><ele>103.4</ele><time>2026-04-24T17:18:36Z</time></trkpt><trkpt lat="44.493728191233394" lon="0.9400132108986854"><ele>100.8</ele><time>2026-04-24T17:18:37Z</time></trkpt><trkpt lat="44.493722320044995" lon="0.9398646447385862"><ele>98.2</ele><time>2026-04-24T17:18:38Z</time></trkpt><trkpt lat="44.49371328312527" lon="0.9397180640772977"><ele>95.60000000000001</ele><time>2026-04-24T17:18:39Z</time></trkpt><trkpt lat="44.49370265009152" lon="0.9395838698409421"><ele>93.0</ele><time>2026-04-24T17:18:40Z</time></trkpt><trkpt lat="44.493713571797684" lon="0.9394477360019033"><ele>93.0</ele><time>2026-04-24T17:18:41Z</time></trkpt><trkpt lat="44.493711573014146" lon="0.9393095233798409"><ele>93.0</ele><time>2026-04-24T17:18:42Z</time></trkpt><trkpt lat="44.49366053175488" lon="0.9391983747214955"><ele>93.0</ele><time>2026-04-24T17:18:43Z</time></trkpt><trkpt lat="44.49358327394669" lon="0.939113130548416"><ele>93.0</ele><time>2026-04-24T17:18:44Z</time></trkpt><trkpt lat="44.4934920186482" lon="0.9390724966438991"><ele>93.0</ele><time>2026-04-24T17:18:45Z</time></trkpt><trkpt lat="44.49340062764034" lon="0.939056172587201"><ele>93.0</ele><time>2026-04-24T17:18:46Z</time></trkpt><trkpt lat="44.493316311338226" lon="0.9390526772718816"><ele>93.0</ele><time>2026-04-24T17:18:47Z</time></trkpt><trkpt lat="44.493246811263674" lon="0.9390550845530342"><ele>93.0</ele><time>2026-04-24T17:18:47.999Z</time></trkpt><trkpt lat="44.49317464703279" lon="0.9391113410867137"><ele>93.0</ele><time>2026-04-24T17:18:48.999Z</time></trkpt><trkpt lat="44.4931372848229" lon="0.939241416033591"><ele>93.0</ele><time>2026-04-24T17:18:49.999Z</time></trkpt><trkpt lat="44.493103677803454" lon="0.9393405400335514"><ele>93.0</ele><time>2026-04-24T17:18:50.999Z</time></trkpt><trkpt lat="44.49307203975561" lon="0.9394360362011032"><ele>93.0</ele><time>2026-04-24T17:18:51.999Z</time></trkpt><trkpt lat="44.493031152819235" lon="0.9395403911766103"><ele>93.0</ele><time>2026-04-24T17:18:52.999Z</time></trkpt><trkpt lat="44.492990131785746" lon="0.9396311255621772"><ele>93.0</ele><time>2026-04-24T17:18:53.999Z</time></trkpt><trkpt lat="44.49294453324231" lon="0.9397179310339744"><ele>93.0</ele><time>2026-04-24T17:18:54.999Z</time></trkpt><trkpt lat="44.492899444090405" lon="0.9398058078934354"><ele>93.0</ele><time>2026-04-24T17:18:55.999Z</time></trkpt><trkpt lat="44.492854143793146" lon="0.9398925952756673"><ele>93.0</ele><time>2026-04-24T17:18:56.999Z</time></trkpt><trkpt lat="44.49280977150133" lon="0.9399706043736583"><ele>93.5</ele><time>2026-04-24T17:18:57.999Z</time></trkpt><trkpt lat="44.49276294788811" lon="0.9400443691987722"><ele>94.0</ele><time>2026-04-24T17:18:58.999Z</time></trkpt><trkpt lat="44.49270965333804" lon="0.9401176680001996"><ele>94.5</ele><time>2026-04-24T17:18:59.999Z</time></trkpt><trkpt lat="44.492649508874344" lon="0.9401902278978705"><ele>95.0</ele><time>2026-04-24T17:19:00.999Z</time></trkpt><trkpt lat="44.49257676178033" lon="0.940274679736871"><ele>95.5</ele><time>2026-04-24T17:19:01.999Z</time></trkpt><trkpt lat="44.49248919805475" lon="0.9403681192365829"><ele>96.0</ele><time>2026-04-24T17:19:02.999Z</time></trkpt><trkpt lat="44.492408597349076" lon="0.9404522252480055"><ele>96.0</ele><time>2026-04-24T17:19:03.999Z</time></trkpt><trkpt lat="44.49232045359303" lon="0.9405468410763796"><ele>96.0</ele><time>2026-04-24T17:19:04.999Z</time></trkpt><trkpt lat="44.492246409178236" lon="0.9406364015904021"><ele>96.0</ele><time>2026-04-24T17:19:05.999Z</time></trkpt><trkpt lat="44.49215603100997" lon="0.9407157759892527"><ele>96.0</ele><time>2026-04-24T17:19:06.999Z</time></trkpt><trkpt lat="44.49207660600716" lon="0.9407850736959278"><ele>96.0</ele><time>2026-04-24T17:19:07.999Z</time></trkpt><trkpt lat="44.491981187396156" lon="0.940857466193358"><ele>98.0</ele><time>2026-04-24T17:19:08.999Z</time></trkpt><trkpt lat="44.4918951068178" lon="0.9409063449922173"><ele>100.0</ele><time>2026-04-24T17:19:09.999Z</time></trkpt><trkpt lat="44.49180996187801" lon="0.94095539481292"><ele>102.0</ele><time>2026-04-24T17:19:10.999Z</time></trkpt><trkpt lat="44.491735361778" lon="0.9409957357236174"><ele>104.0</ele><time>2026-04-24T17:19:11.999Z</time></trkpt><trkpt lat="44.49166832633753" lon="0.9410255845496378"><ele>106.0</ele><time>2026-04-24T17:19:12.999Z</time></trkpt><trkpt lat="44.491555087037725" lon="0.9410493137118796"><ele>106.00000000000001</ele><time>2026-04-24T17:19:15Z</time></trkpt><trkpt lat="44.49146627673044" lon="0.9410226333559374"><ele>106.0</ele><time>2026-04-24T17:19:17Z</time></trkpt><trkpt lat="44.49138823653878" lon="0.9409529743675733"><ele>106.0</ele><time>2026-04-24T17:19:20Z</time></trkpt><trkpt lat="44.49137197748674" lon="0.9408091112710372"><ele>106.0</ele><time>2026-04-24T17:19:22Z</time></trkpt><trkpt lat="44.49139428898417" lon="0.9407208353456423"><ele>106.00000000000001</ele><time>2026-04-24T17:19:23Z</time></trkpt><trkpt lat="44.491397398377885" lon="0.9406226484496344"><ele>106.0</ele><time>2026-04-24T17:19:24Z</time></trkpt><trkpt lat="44.49138892314494" lon="0.9404422535428046"><ele>106.42857142857143</ele><time>2026-04-24T17:19:26Z</time></trkpt><trkpt lat="44.491378078533465" lon="0.9403224738946506"><ele>106.85714285714285</ele><time>2026-04-24T17:19:27Z</time></trkpt><trkpt lat="44.491368140299876" lon="0.9402068777424734"><ele>107.28571428571428</ele><time>2026-04-24T17:19:28Z</time></trkpt><trkpt lat="44.491358334569824" lon="0.94009338596102"><ele>107.71428571428572</ele><time>2026-04-24T17:19:29Z</time></trkpt><trkpt lat="44.49135702807634" lon="0.9400026806434829"><ele>108.14285714285714</ele><time>2026-04-24T17:19:30Z</time></trkpt><trkpt lat="44.491353255761155" lon="0.9399134484014176"><ele>108.57142857142857</ele><time>2026-04-24T17:19:31Z</time></trkpt><trkpt lat="44.491344705490384" lon="0.9398230929817778"><ele>109.0</ele><time>2026-04-24T17:19:32Z</time></trkpt><trkpt lat="44.49133456499449" lon="0.9397224705827654"><ele>109.00000000000001</ele><time>2026-04-24T17:19:33Z</time></trkpt><trkpt lat="44.49133144930651" lon="0.939627502866938"><ele>109.0</ele><time>2026-04-24T17:19:34Z</time></trkpt><trkpt lat="44.49133354275016" lon="0.9395244575400012"><ele>109.0</ele><time>2026-04-24T17:19:35Z</time></trkpt><trkpt lat="44.491322562903456" lon="0.9394158798396645"><ele>109.0</ele><time>2026-04-24T17:19:36Z</time></trkpt><trkpt lat="44.491318229733466" lon="0.9393066792311131"><ele>109.00000000000001</ele><time>2026-04-24T17:19:37Z</time></trkpt><trkpt lat="44.49131309892124" lon="0.9391867700032804"><ele>109.0</ele><time>2026-04-24T17:19:38Z</time></trkpt><trkpt lat="44.491298481134756" lon="0.9390740370208362"><ele>109.4</ele><time>2026-04-24T17:19:39Z</time></trkpt><trkpt lat="44.49127999635374" lon="0.9389418182397048"><ele>109.80000000000001</ele><time>2026-04-24T17:19:40Z</time></trkpt><trkpt lat="44.491257585920735" lon="0.9388183215449007"><ele>110.19999999999999</ele><time>2026-04-24T17:19:41Z</time></trkpt><trkpt lat="44.49122355022539" lon="0.9386859535708874"><ele>110.6</ele><time>2026-04-24T17:19:42Z</time></trkpt><trkpt lat="44.49120044089856" lon="0.9385498641480594"><ele>111.0</ele><time>2026-04-24T17:19:43Z</time></trkpt><trkpt lat="44.491180733856666" lon="0.9384111425462035"><ele>112.8</ele><time>2026-04-24T17:19:44Z</time></trkpt><trkpt lat="44.49115408738176" lon="0.9382893662733406"><ele>114.6</ele><time>2026-04-24T17:19:45Z</time></trkpt><trkpt lat="44.49112191075396" lon="0.938162974094296"><ele>116.4</ele><time>2026-04-24T17:19:46Z</time></trkpt><trkpt lat="44.49108864082653" lon="0.9380379715743252"><ele>118.2</ele><time>2026-04-24T17:19:47Z</time></trkpt><trkpt lat="44.49104997263244" lon="0.9379121109639799"><ele>120.0</ele><time>2026-04-24T17:19:48Z</time></trkpt><trkpt lat="44.49100196655755" lon="0.9377993636533946"><ele>120.0</ele><time>2026-04-24T17:19:49Z</time></trkpt><trkpt lat="44.49094710606923" lon="0.9376945265388235"><ele>120.0</ele><time>2026-04-24T17:19:50Z</time></trkpt><trkpt lat="44.490872295577354" lon="0.9376138430253174"><ele>120.0</ele><time>2026-04-24T17:19:51Z</time></trkpt><trkpt lat="44.490797101612195" lon="0.9375357929943503"><ele>120.0</ele><time>2026-04-24T17:19:52Z</time></trkpt><trkpt lat="44.49073087655497" lon="0.9374484278431052"><ele>120.0</ele><time>2026-04-24T17:19:53Z</time></trkpt><trkpt lat="44.49066253450295" lon="0.9373678709271395"><ele>120.0</ele><time>2026-04-24T17:19:54Z</time></trkpt><trkpt lat="44.49061654944877" lon="0.9372706091140678"><ele>120.0</ele><time>2026-04-24T17:19:55Z</time></trkpt><trkpt lat="44.49054889612566" lon="0.9372032788515889"><ele>120.0</ele><time>2026-04-24T17:19:56Z</time></trkpt><trkpt lat="44.490495878625126" lon="0.9371117435041949"><ele>120.0</ele><time>2026-04-24T17:19:57Z</time></trkpt><trkpt lat="44.49043921717643" lon="0.9370205671946794"><ele>120.0</ele><time>2026-04-24T17:19:58Z</time></trkpt><trkpt lat="44.490385038851606" lon="0.9369263647655386"><ele>120.0</ele><time>2026-04-24T17:19:59Z</time></trkpt><trkpt lat="44.4903324586833" lon="0.9368329080741857"><ele>120.16666666666667</ele><time>2026-04-24T17:20:00Z</time></trkpt><trkpt lat="44.4902802369181" lon="0.9367533156440374"><ele>120.33333333333334</ele><time>2026-04-24T17:20:01Z</time></trkpt><trkpt lat="44.490216796005" lon="0.9366562565743881"><ele>120.5</ele><time>2026-04-24T17:20:02Z</time></trkpt><trkpt lat="44.490171972677246" lon="0.9365485698013996"><ele>120.66666666666667</ele><time>2026-04-24T17:20:03Z</time></trkpt><trkpt lat="44.49014057187977" lon="0.9364624486784136"><ele>120.83333333333334</ele><time>2026-04-24T17:20:04Z</time></trkpt><trkpt lat="44.49010355192848" lon="0.9363703968947924"><ele>121.0</ele><time>2026-04-24T17:20:05Z</time></trkpt><trkpt lat="44.49007048161411" lon="0.9362626446497877"><ele>121.0</ele><time>2026-04-24T17:20:06Z</time></trkpt><trkpt lat="44.49003078809234" lon="0.9361372350265136"><ele>121.0</ele><time>2026-04-24T17:20:07Z</time></trkpt><trkpt lat="44.489993685200155" lon="0.9360190411166625"><ele>121.0</ele><time>2026-04-24T17:20:08Z</time></trkpt><trkpt lat="44.48994679023475" lon="0.9358950037755756"><ele>121.0</ele><time>2026-04-24T17:20:09Z</time></trkpt><trkpt lat="44.48989932054094" lon="0.935770614137604"><ele>121.0</ele><time>2026-04-24T17:20:10Z</time></trkpt><trkpt lat="44.48985051198899" lon="0.9356381028022603"><ele>121.4</ele><time>2026-04-24T17:20:11Z</time></trkpt><trkpt lat="44.489802586690246" lon="0.9354956497757343"><ele>121.8</ele><time>2026-04-24T17:20:12Z</time></trkpt><trkpt lat="44.489764390695335" lon="0.9353723616950635"><ele>122.20000000000002</ele><time>2026-04-24T17:20:13Z</time></trkpt><trkpt lat="44.489716235263295" lon="0.9352288465975122"><ele>122.60000000000001</ele><time>2026-04-24T17:20:14Z</time></trkpt><trkpt lat="44.489678821902274" lon="0.9351085868463632"><ele>123.0</ele><time>2026-04-24T17:20:15Z</time></trkpt><trkpt lat="44.48966210371072" lon="0.9350092214857644"><ele>123.2</ele><time>2026-04-24T17:20:16Z</time></trkpt><trkpt lat="44.48965592393892" lon="0.9348569238256226"><ele>123.4</ele><time>2026-04-24T17:20:18Z</time></trkpt><trkpt lat="44.48957707677351" lon="0.9347397584430285"><ele>123.60000000000001</ele><time>2026-04-24T17:20:20Z</time></trkpt><trkpt lat="44.489507762638524" lon="0.9347061817281256"><ele>123.80000000000001</ele><time>2026-04-24T17:20:21Z</time></trkpt><trkpt lat="44.48946185404816" lon="0.9346128541974609"><ele>124.0</ele><time>2026-04-24T17:20:22Z</time></trkpt><trkpt lat="44.489445574350704" lon="0.9344918363601068"><ele>124.0</ele><time>2026-04-24T17:20:23Z</time></trkpt><trkpt lat="44.489419126343826" lon="0.9343388392519396"><ele>124.0</ele><time>2026-04-24T17:20:24Z</time></trkpt><trkpt lat="44.4893820733453" lon="0.9341790814004922"><ele>124.0</ele><time>2026-04-24T17:20:25Z</time></trkpt><trkpt lat="44.48936030500006" lon="0.9340123875030979"><ele>124.0</ele><time>2026-04-24T17:20:26Z</time></trkpt><trkpt lat="44.489338411278574" lon="0.933828076833534"><ele>125.4</ele><time>2026-04-24T17:20:27Z</time></trkpt><trkpt lat="44.48931957583134" lon="0.9336587607251381"><ele>126.80000000000001</ele><time>2026-04-24T17:20:28Z</time></trkpt><trkpt lat="44.48927535795314" lon="0.9335329591665484"><ele>128.2</ele><time>2026-04-24T17:20:29Z</time></trkpt><trkpt lat="44.4892248094175" lon="0.9334182132516072"><ele>129.6</ele><time>2026-04-24T17:20:30Z</time></trkpt><trkpt lat="44.489189157316865" lon="0.9333126113164221"><ele>131.0</ele><time>2026-04-24T17:20:31Z</time></trkpt><trkpt lat="44.48912647600052" lon="0.9332409406319888"><ele>131.0</ele><time>2026-04-24T17:20:32Z</time></trkpt><trkpt lat="44.489059967647634" lon="0.9331916001332772"><ele>131.0</ele><time>2026-04-24T17:20:33Z</time></trkpt><trkpt lat="44.48897231999726" lon="0.9331541774825555"><ele>131.0</ele><time>2026-04-24T17:20:34Z</time></trkpt><trkpt lat="44.488882081933426" lon="0.9331397000668175"><ele>131.0</ele><time>2026-04-24T17:20:35Z</time></trkpt><trkpt lat="44.488795584020146" lon="0.9331389108514895"><ele>131.0</ele><time>2026-04-24T17:20:36Z</time></trkpt><trkpt lat="44.48872116771115" lon="0.9331378966213439"><ele>131.0</ele><time>2026-04-24T17:20:37Z</time></trkpt><trkpt lat="44.48865539835249" lon="0.9331368498554397"><ele>131.0</ele><time>2026-04-24T17:20:38Z</time></trkpt><trkpt lat="44.488587220797854" lon="0.9331217381949858"><ele>131.0</ele><time>2026-04-24T17:20:39Z</time></trkpt><trkpt lat="44.48851650027106" lon="0.933063710364604"><ele>131.0</ele><time>2026-04-24T17:20:40Z</time></trkpt><trkpt lat="44.4884412417474" lon="0.9330319590206142"><ele>131.0</ele><time>2026-04-24T17:20:41Z</time></trkpt><trkpt lat="44.488380914726484" lon="0.9329638195419842"><ele>131.0</ele><time>2026-04-24T17:20:42Z</time></trkpt><trkpt lat="44.48832386075907" lon="0.9328810442935683"><ele>131.0</ele><time>2026-04-24T17:20:43Z</time></trkpt><trkpt lat="44.48827836656952" lon="0.9327978757892091"><ele>131.0</ele><time>2026-04-24T17:20:44Z</time></trkpt><trkpt lat="44.48824440523143" lon="0.932703980056036"><ele>131.0</ele><time>2026-04-24T17:20:45Z</time></trkpt><trkpt lat="44.4881973105475" lon="0.9325991547424015"><ele>131.0</ele><time>2026-04-24T17:20:46Z</time></trkpt><trkpt lat="44.48815432352247" lon="0.9325020790302428"><ele>131.0</ele><time>2026-04-24T17:20:47Z</time></trkpt><trkpt lat="44.48811112344377" lon="0.9324097724660806"><ele>131.0</ele><time>2026-04-24T17:20:48Z</time></trkpt><trkpt lat="44.48807520008512" lon="0.9323179984568106"><ele>131.0</ele><time>2026-04-24T17:20:49Z</time></trkpt><trkpt lat="44.488015518743175" lon="0.9322604387072932"><ele>130.8</ele><time>2026-04-24T17:20:50Z</time></trkpt><trkpt lat="44.48795975113431" lon="0.9321838752590994"><ele>130.6</ele><time>2026-04-24T17:20:51Z</time></trkpt><trkpt lat="44.48788176912593" lon="0.9321341643336187"><ele>130.4</ele><time>2026-04-24T17:20:52Z</time></trkpt><trkpt lat="44.48779372330651" lon="0.9321224228914047"><ele>130.2</ele><time>2026-04-24T17:20:53Z</time></trkpt><trkpt lat="44.48767807842223" lon="0.9321799729600976"><ele>130.0</ele><time>2026-04-24T17:20:54Z</time></trkpt><trkpt lat="44.48758052043439" lon="0.9322229690264137"><ele>129.2</ele><time>2026-04-24T17:20:55Z</time></trkpt><trkpt lat="44.48749114659014" lon="0.9322596015473918"><ele>128.4</ele><time>2026-04-24T17:20:56Z</time></trkpt><trkpt lat="44.4874030588442" lon="0.9322924241951811"><ele>127.6</ele><time>2026-04-24T17:20:57Z</time></trkpt><trkpt lat="44.48731183011061" lon="0.9323264153712044"><ele>126.8</ele><time>2026-04-24T17:20:58Z</time></trkpt><trkpt lat="44.48722039661051" lon="0.9323604826478259"><ele>126.0</ele><time>2026-04-24T17:20:58.999Z</time></trkpt><trkpt lat="44.487130407699034" lon="0.9323928226235014"><ele>124.4</ele><time>2026-04-24T17:20:59.999Z</time></trkpt><trkpt lat="44.48703437987711" lon="0.9324262102806347"><ele>122.8</ele><time>2026-04-24T17:21:00.999Z</time></trkpt><trkpt lat="44.48694138467775" lon="0.9324573112141287"><ele>121.20000000000002</ele><time>2026-04-24T17:21:01.999Z</time></trkpt><trkpt lat="44.48684936674871" lon="0.9324770095863278"><ele>119.60000000000001</ele><time>2026-04-24T17:21:02.999Z</time></trkpt><trkpt lat="44.48675751864644" lon="0.9324920901449131"><ele>118.0</ele><time>2026-04-24T17:21:03.999Z</time></trkpt><trkpt lat="44.48666145324964" lon="0.9325007801334312"><ele>118.00000000000001</ele><time>2026-04-24T17:21:04.999Z</time></trkpt><trkpt lat="44.48657502682644" lon="0.9324981767769466"><ele>118.0</ele><time>2026-04-24T17:21:05.999Z</time></trkpt><trkpt lat="44.48648530488267" lon="0.9324963287436007"><ele>118.0</ele><time>2026-04-24T17:21:06.999Z</time></trkpt><trkpt lat="44.48640096595514" lon="0.9324929141449217"><ele>118.0</ele><time>2026-04-24T17:21:07.999Z</time></trkpt><trkpt lat="44.48632014897028" lon="0.9324894566050466"><ele>118.00000000000001</ele><time>2026-04-24T17:21:08.999Z</time></trkpt><trkpt lat="44.48625148297735" lon="0.9324865189101922"><ele>118.0</ele><time>2026-04-24T17:21:09.999Z</time></trkpt><trkpt lat="44.48617257441598" lon="0.9324831430179941"><ele>116.57142857142857</ele><time>2026-04-24T17:21:10.999Z</time></trkpt><trkpt lat="44.48609904438398" lon="0.9324791689832439"><ele>115.14285714285715</ele><time>2026-04-24T17:21:11.999Z</time></trkpt><trkpt lat="44.48602281797595" lon="0.9324688666922859"><ele>113.71428571428572</ele><time>2026-04-24T17:21:12.999Z</time></trkpt><trkpt lat="44.48595137138726" lon="0.9324400966443266"><ele>112.28571428571428</ele><time>2026-04-24T17:21:13.999Z</time></trkpt><trkpt lat="44.48589361087566" lon="0.9323908266794123"><ele>110.85714285714286</ele><time>2026-04-24T17:21:14.999Z</time></trkpt><trkpt lat="44.48583868034908" lon="0.9323149164855595"><ele>109.42857142857143</ele><time>2026-04-24T17:21:15.999Z</time></trkpt><trkpt lat="44.48576915512292" lon="0.9322623251420445"><ele>108.0</ele><time>2026-04-24T17:21:16.999Z</time></trkpt><trkpt lat="44.48571559135643" lon="0.9322005844742758"><ele>108.0</ele><time>2026-04-24T17:21:17.999Z</time></trkpt><trkpt lat="44.48566363617268" lon="0.9321385133935537"><ele>108.0</ele><time>2026-04-24T17:21:18.999Z</time></trkpt><trkpt lat="44.48562080629969" lon="0.9320564021312001"><ele>108.0</ele><time>2026-04-24T17:21:19.999Z</time></trkpt><trkpt lat="44.48555141265306" lon="0.9319986487137485"><ele>108.0</ele><time>2026-04-24T17:21:21Z</time></trkpt><trkpt lat="44.485491880428945" lon="0.9319208919043591"><ele>108.0</ele><time>2026-04-24T17:21:22Z</time></trkpt><trkpt lat="44.48542404449708" lon="0.9318518562093522"><ele>108.0</ele><time>2026-04-24T17:21:23Z</time></trkpt><trkpt lat="44.48535827862737" lon="0.9317817087670273"><ele>106.0</ele><time>2026-04-24T17:21:24Z</time></trkpt><trkpt lat="44.48526356976762" lon="0.9317320980604715"><ele>104.0</ele><time>2026-04-24T17:21:25Z</time></trkpt><trkpt lat="44.48511545168004" lon="0.9317696642771739"><ele>102.0</ele><time>2026-04-24T17:21:26Z</time></trkpt><trkpt lat="44.484975517170064" lon="0.9318174430770116"><ele>100.0</ele><time>2026-04-24T17:21:27Z</time></trkpt><trkpt lat="44.484859545127904" lon="0.9318420210080927"><ele>100.0</ele><time>2026-04-24T17:21:28Z</time></trkpt><trkpt lat="44.484806399481876" lon="0.9317010576517455"><ele>100.0</ele><time>2026-04-24T17:21:29Z</time></trkpt><trkpt lat="44.48473687227214" lon="0.9316341044693175"><ele>100.0</ele><time>2026-04-24T17:21:30Z</time></trkpt><trkpt lat="44.48468124813662" lon="0.9315805396575971"><ele>100.0</ele><time>2026-04-24T17:21:31Z</time></trkpt><trkpt lat="44.48459127291416" lon="0.9315705824990587"><ele>100.0</ele><time>2026-04-24T17:21:32Z</time></trkpt><trkpt lat="44.48449027114348" lon="0.9316559187096191"><ele>97.0</ele><time>2026-04-24T17:21:33Z</time></trkpt><trkpt lat="44.48439294107128" lon="0.9317629737596682"><ele>94.0</ele><time>2026-04-24T17:21:34Z</time></trkpt><trkpt lat="44.48430626279453" lon="0.9319289712643679"><ele>91.0</ele><time>2026-04-24T17:21:35Z</time></trkpt><trkpt lat="44.48426611021777" lon="0.9321421022998486"><ele>88.0</ele><time>2026-04-24T17:21:36Z</time></trkpt><trkpt lat="44.48421101187329" lon="0.9323611401801114"><ele>88.0</ele><time>2026-04-24T17:21:37Z</time></trkpt><trkpt lat="44.484142831651596" lon="0.9325261149832461"><ele>88.0</ele><time>2026-04-24T17:21:38Z</time></trkpt><trkpt lat="44.484074820913605" lon="0.9326522045932284"><ele>88.0</ele><time>2026-04-24T17:21:39Z</time></trkpt><trkpt lat="44.48400969527077" lon="0.9327701858676855"><ele>88.0</ele><time>2026-04-24T17:21:40Z</time></trkpt><trkpt lat="44.48395399202532" lon="0.932871098333297"><ele>88.0</ele><time>2026-04-24T17:21:41Z</time></trkpt><trkpt lat="44.48390492640625" lon="0.9329614503564306"><ele>87.57142857142857</ele><time>2026-04-24T17:21:42Z</time></trkpt><trkpt lat="44.48386057102332" lon="0.9330435859645297"><ele>87.14285714285714</ele><time>2026-04-24T17:21:43Z</time></trkpt><trkpt lat="44.48381624076344" lon="0.9331263248967325"><ele>86.71428571428572</ele><time>2026-04-24T17:21:44Z</time></trkpt><trkpt lat="44.48378173953316" lon="0.9332288302071331"><ele>86.28571428571428</ele><time>2026-04-24T17:21:45Z</time></trkpt><trkpt lat="44.483741617316326" lon="0.9332998680972323"><ele>85.85714285714285</ele><time>2026-04-24T17:21:46Z</time></trkpt><trkpt lat="44.48368925025374" lon="0.9333650695186001"><ele>85.42857142857143</ele><time>2026-04-24T17:21:47Z</time></trkpt><trkpt lat="44.483651304634385" lon="0.9334377720230883"><ele>85.0</ele><time>2026-04-24T17:21:48Z</time></trkpt><trkpt lat="44.483611928599046" lon="0.933513215221028"><ele>83.66666666666666</ele><time>2026-04-24T17:21:49Z</time></trkpt><trkpt lat="44.48354389825889" lon="0.9336601309624342"><ele>82.33333333333333</ele><time>2026-04-24T17:21:51Z</time></trkpt><trkpt lat="44.483466896540364" lon="0.9337532602150653"><ele>81.0</ele><time>2026-04-24T17:21:53Z</time></trkpt><trkpt lat="44.48340798160714" lon="0.933790580452355"><ele>79.66666666666667</ele><time>2026-04-24T17:21:57Z</time></trkpt><trkpt lat="44.48336628297788" lon="0.9337114449076312"><ele>78.33333333333334</ele><time>2026-04-24T17:22:28Z</time></trkpt><trkpt lat="44.48333194597374" lon="0.9336310827868832"><ele>77.0</ele><time>2026-04-24T17:22:29Z</time></trkpt><trkpt lat="44.48329125156844" lon="0.9335292680454834"><ele>77.0</ele><time>2026-04-24T17:22:30Z</time></trkpt><trkpt lat="44.48325439453137" lon="0.9334436204618062"><ele>77.0</ele><time>2026-04-24T17:22:31Z</time></trkpt><trkpt lat="44.483223770783134" lon="0.9333588922616809"><ele>77.0</ele><time>2026-04-24T17:22:32Z</time></trkpt><trkpt lat="44.48320528391333" lon="0.9332739376754796"><ele>77.0</ele><time>2026-04-24T17:22:33Z</time></trkpt><trkpt lat="44.483191616506765" lon="0.9331479085005492"><ele>77.0</ele><time>2026-04-24T17:22:35Z</time></trkpt><trkpt lat="44.483293683995605" lon="0.9330264336626019"><ele>77.0</ele><time>2026-04-24T17:22:36Z</time></trkpt><trkpt lat="44.483354718888094" lon="0.9329199569082055"><ele>77.0</ele><time>2026-04-24T17:22:37Z</time></trkpt><trkpt lat="44.483395509331025" lon="0.9328205356674301"><ele>77.0</ele><time>2026-04-24T17:22:38Z</time></trkpt><trkpt lat="44.48343283509406" lon="0.9327220564803406"><ele>77.0</ele><time>2026-04-24T17:22:39Z</time></trkpt><trkpt lat="44.483470285450835" lon="0.9326138203724463"><ele>77.0</ele><time>2026-04-24T17:22:40Z</time></trkpt><trkpt lat="44.48350645332457" lon="0.9325071117502461"><ele>77.0</ele><time>2026-04-24T17:22:41Z</time></trkpt><trkpt lat="44.48354567236459" lon="0.9323875076897657"><ele>77.0</ele><time>2026-04-24T17:22:42Z</time></trkpt><trkpt lat="44.48357572768893" lon="0.9322745558404765"><ele>76.83333333333334</ele><time>2026-04-24T17:22:43Z</time></trkpt><trkpt lat="44.4836162206071" lon="0.9321672779469627"><ele>76.66666666666667</ele><time>2026-04-24T17:22:44Z</time></trkpt><trkpt lat="44.48365617063108" lon="0.9320642137402624"><ele>76.5</ele><time>2026-04-24T17:22:45Z</time></trkpt><trkpt lat="44.48369000881169" lon="0.9319707800941858"><ele>76.33333333333333</ele><time>2026-04-24T17:22:46Z</time></trkpt><trkpt lat="44.483728279955415" lon="0.9318807388274452"><ele>76.16666666666666</ele><time>2026-04-24T17:22:46.999Z</time></trkpt><trkpt lat="44.48376432581898" lon="0.9317849523583153"><ele>76.0</ele><time>2026-04-24T17:22:47.999Z</time></trkpt><trkpt lat="44.483801358907556" lon="0.9316907569720208"><ele>78.33333333333333</ele><time>2026-04-24T17:22:48.999Z</time></trkpt><trkpt lat="44.48383998469071" lon="0.9315936673454959"><ele>80.66666666666666</ele><time>2026-04-24T17:22:49.999Z</time></trkpt><trkpt lat="44.483871468792955" lon="0.9314795858984524"><ele>83.0</ele><time>2026-04-24T17:22:50.999Z</time></trkpt><trkpt lat="44.48392334139745" lon="0.9313889199028953"><ele>85.33333333333333</ele><time>2026-04-24T17:22:51.999Z</time></trkpt><trkpt lat="44.48399336120875" lon="0.9313096333799759"><ele>87.66666666666667</ele><time>2026-04-24T17:22:52.999Z</time></trkpt><trkpt lat="44.48406177540711" lon="0.9312349477997113"><ele>90.0</ele><time>2026-04-24T17:22:53.999Z</time></trkpt><trkpt lat="44.48413408957644" lon="0.9311591892048825"><ele>90.0</ele><time>2026-04-24T17:22:54.999Z</time></trkpt><trkpt lat="44.48420048425171" lon="0.9310918790985103"><ele>90.0</ele><time>2026-04-24T17:22:55.999Z</time></trkpt><trkpt lat="44.48427414063962" lon="0.9310551805879629"><ele>90.0</ele><time>2026-04-24T17:22:56.999Z</time></trkpt><trkpt lat="44.484338318696025" lon="0.9310080601644667"><ele>90.0</ele><time>2026-04-24T17:22:57.999Z</time></trkpt><trkpt lat="44.48441430381093" lon="0.9309551264915364"><ele>90.0</ele><time>2026-04-24T17:22:59.999Z</time></trkpt><trkpt lat="44.4843415746502" lon="0.9310034247669876"><ele>90.0</ele><time>2026-04-24T17:23:12.999Z</time></trkpt><trkpt lat="44.4842338900862" lon="0.9310645057443506"><ele>90.0</ele><time>2026-04-24T17:23:14.999Z</time></trkpt><trkpt lat="44.484157206761445" lon="0.9311246545103752"><ele>90.0</ele><time>2026-04-24T17:23:16.999Z</time></trkpt><trkpt lat="44.48409097339876" lon="0.9311907246924835"><ele>90.0</ele><time>2026-04-24T17:23:18.999Z</time></trkpt><trkpt lat="44.48415158087311" lon="0.9311271133010834"><ele>90.0</ele><time>2026-04-24T17:23:33Z</time></trkpt><trkpt lat="44.48410220516896" lon="0.9309369368764919"><ele>90.0</ele><time>2026-04-24T17:23:41Z</time></trkpt><trkpt lat="44.48406895674482" lon="0.9308331980087872"><ele>89.4</ele><time>2026-04-24T17:23:44Z</time></trkpt><trkpt lat="44.4841075874519" lon="0.9307591458962537"><ele>88.8</ele><time>2026-04-24T17:23:48Z</time></trkpt><trkpt lat="44.48417887290399" lon="0.9306845196680491"><ele>88.19999999999999</ele><time>2026-04-24T17:23:50Z</time></trkpt><trkpt lat="44.4843000480677" lon="0.9305617023654743"><ele>87.6</ele><time>2026-04-24T17:23:52Z</time></trkpt><trkpt lat="44.48439021902596" lon="0.9304961438978148"><ele>87.0</ele><time>2026-04-24T17:23:53Z</time></trkpt><trkpt lat="44.48450162160075" lon="0.9304516663664238"><ele>87.0</ele><time>2026-04-24T17:23:54Z</time></trkpt><trkpt lat="44.48458605248807" lon="0.9303745877092889"><ele>87.0</ele><time>2026-04-24T17:23:55Z</time></trkpt><trkpt lat="44.48465084085406" lon="0.9303254699337895"><ele>87.0</ele><time>2026-04-24T17:23:56Z</time></trkpt><trkpt lat="44.48472613485585" lon="0.9302907496597635"><ele>87.0</ele><time>2026-04-24T17:23:57Z</time></trkpt><trkpt lat="44.48479145412779" lon="0.9302606930133092"><ele>87.0</ele><time>2026-04-24T17:23:58Z</time></trkpt><trkpt lat="44.484878883475666" lon="0.93022681901511"><ele>87.0</ele><time>2026-04-24T17:23:59Z</time></trkpt><trkpt lat="44.48495423706055" lon="0.930178433384207"><ele>88.0</ele><time>2026-04-24T17:24:00Z</time></trkpt><trkpt lat="44.48503289544335" lon="0.9300926454007473"><ele>89.0</ele><time>2026-04-24T17:24:01Z</time></trkpt><trkpt lat="44.485103179549384" lon="0.930039542388879"><ele>90.0</ele><time>2026-04-24T17:24:02Z</time></trkpt><trkpt lat="44.485162255097606" lon="0.9299909432178032"><ele>91.0</ele><time>2026-04-24T17:24:03Z</time></trkpt><trkpt lat="44.4852380256661" lon="0.9299410495586435"><ele>92.0</ele><time>2026-04-24T17:24:04Z</time></trkpt><trkpt lat="44.48530891304744" lon="0.9298772340512905"><ele>93.0</ele><time>2026-04-24T17:24:05Z</time></trkpt><trkpt lat="44.48538103802407" lon="0.9298117081608339"><ele>93.80000000000001</ele><time>2026-04-24T17:24:06Z</time></trkpt><trkpt lat="44.485434710769866" lon="0.9297347655056867"><ele>94.6</ele><time>2026-04-24T17:24:07Z</time></trkpt><trkpt lat="44.48547925500967" lon="0.9296409927209436"><ele>95.4</ele><time>2026-04-24T17:24:08Z</time></trkpt><trkpt lat="44.48550782802795" lon="0.9295254123438101"><ele>96.19999999999999</ele><time>2026-04-24T17:24:09Z</time></trkpt><trkpt lat="44.485564498313984" lon="0.9293775523123348"><ele>97.0</ele><time>2026-04-24T17:24:10Z</time></trkpt><trkpt lat="44.4856035210005" lon="0.9292182049818204"><ele>97.00000000000001</ele><time>2026-04-24T17:24:11Z</time></trkpt><trkpt lat="44.485614730719234" lon="0.9290880444767458"><ele>97.0</ele><time>2026-04-24T17:24:12Z</time></trkpt><trkpt lat="44.4856417642722" lon="0.9289869761995928"><ele>97.0</ele><time>2026-04-24T17:24:13Z</time></trkpt><trkpt lat="44.485659880307324" lon="0.9288953173309852"><ele>97.0</ele><time>2026-04-24T17:24:14Z</time></trkpt><trkpt lat="44.48566487738283" lon="0.9287773683650206"><ele>97.00000000000001</ele><time>2026-04-24T17:24:16Z</time></trkpt><trkpt lat="44.485705286969406" lon="0.9286905649268918"><ele>97.0</ele><time>2026-04-24T17:24:18Z</time></trkpt><trkpt lat="44.48574050593335" lon="0.9286060350593018"><ele>97.00000000000001</ele><time>2026-04-24T17:24:22Z</time></trkpt><trkpt lat="44.48572580282548" lon="0.9285060710387694"><ele>97.0</ele><time>2026-04-24T17:24:42Z</time></trkpt><trkpt lat="44.485680682383666" lon="0.9284199478245075"><ele>97.0</ele><time>2026-04-24T17:24:44.999Z</time></trkpt><trkpt lat="44.485622830919866" lon="0.928320621853282"><ele>97.0</ele><time>2026-04-24T17:24:46.999Z</time></trkpt><trkpt lat="44.485571043329806" lon="0.9282429438884071"><ele>97.00000000000001</ele><time>2026-04-24T17:24:49.999Z</time></trkpt><trkpt lat="44.48549831492069" lon="0.928175087628874"><ele>97.0</ele><time>2026-04-24T17:24:51.999Z</time></trkpt><trkpt lat="44.48548632751804" lon="0.9280813324745629"><ele>97.50000000000001</ele><time>2026-04-24T17:25:00.999Z</time></trkpt><trkpt lat="44.48553258077513" lon="0.9280132937310067"><ele>98.0</ele><time>2026-04-24T17:25:02.999Z</time></trkpt><trkpt lat="44.48559222279256" lon="0.9279563814347535"><ele>98.5</ele><time>2026-04-24T17:25:04.999Z</time></trkpt><trkpt lat="44.48567055346839" lon="0.9279065710109636"><ele>99.0</ele><time>2026-04-24T17:25:06.999Z</time></trkpt><trkpt lat="44.48576075287311" lon="0.927926383916635"><ele>99.50000000000001</ele><time>2026-04-24T17:25:08.999Z</time></trkpt><trkpt lat="44.48584145408078" lon="0.9280130074174182"><ele>100.0</ele><time>2026-04-24T17:25:10.999Z</time></trkpt><trkpt lat="44.48586217938347" lon="0.9281157564648291"><ele>100.00000000000001</ele><time>2026-04-24T17:25:13.999Z</time></trkpt><trkpt lat="44.48584943071309" lon="0.9282393959005837"><ele>100.0</ele><time>2026-04-24T17:25:14.999Z</time></trkpt><trkpt lat="44.48583828269627" lon="0.9283362424520691"><ele>100.0</ele><time>2026-04-24T17:25:15.999Z</time></trkpt><trkpt lat="44.48579982974465" lon="0.9284588490521971"><ele>100.0</ele><time>2026-04-24T17:25:17.999Z</time></trkpt><trkpt lat="44.48577497368424" lon="0.9285458322533667"><ele>100.00000000000001</ele><time>2026-04-24T17:25:26.999Z</time></trkpt><trkpt lat="44.48569698466231" lon="0.9284867743619413"><ele>100.0</ele><time>2026-04-24T17:25:39Z</time></trkpt><trkpt lat="44.485664677864555" lon="0.9283959748712332"><ele>100.00000000000001</ele><time>2026-04-24T17:25:41Z</time></trkpt><trkpt lat="44.485688081632176" lon="0.9284888774535914"><ele>100.0</ele><time>2026-04-24T17:26:03Z</time></trkpt><trkpt lat="44.48564011013666" lon="0.9283585903911603"><ele>100.0</ele><time>2026-04-24T17:26:25Z</time></trkpt><trkpt lat="44.48560435425711" lon="0.9282845570878092"><ele>100.0</ele><time>2026-04-24T17:26:26Z</time></trkpt><trkpt lat="44.48554051706662" lon="0.9282113574316218"><ele>100.00000000000001</ele><time>2026-04-24T17:26:28Z</time></trkpt><trkpt lat="44.485483897284794" lon="0.9281327135305472"><ele>100.0</ele><time>2026-04-24T17:26:31Z</time></trkpt><trkpt lat="44.48550996791245" lon="0.9280302063417687"><ele>100.00000000000001</ele><time>2026-04-24T17:26:34Z</time></trkpt><trkpt lat="44.48558726307478" lon="0.9279539606507605"><ele>100.0</ele><time>2026-04-24T17:26:35Z</time></trkpt><trkpt lat="44.48565501329627" lon="0.9279001281759489"><ele>100.0</ele><time>2026-04-24T17:26:36Z</time></trkpt><trkpt lat="44.48574226688341" lon="0.927895283511732"><ele>100.0</ele><time>2026-04-24T17:26:38Z</time></trkpt><trkpt lat="44.485799000847706" lon="0.9279394776409144"><ele>100.00000000000001</ele><time>2026-04-24T17:26:39Z</time></trkpt><trkpt lat="44.485871795157856" lon="0.9280090714844083"><ele>100.0</ele><time>2026-04-24T17:26:41Z</time></trkpt><trkpt lat="44.48588264488316" lon="0.9280977921333717"><ele>100.00000000000001</ele><time>2026-04-24T17:26:43Z</time></trkpt><trkpt lat="44.485855809805514" lon="0.9281985741503171"><ele>100.0</ele><time>2026-04-24T17:26:44Z</time></trkpt><trkpt lat="44.48585283803545" lon="0.9283136338713657"><ele>100.0</ele><time>2026-04-24T17:26:45Z</time></trkpt><trkpt lat="44.48580611947011" lon="0.9284494253720256"><ele>100.0</ele><time>2026-04-24T17:26:47Z</time></trkpt><trkpt lat="44.48579645172448" lon="0.928548568987887"><ele>100.00000000000001</ele><time>2026-04-24T17:26:50Z</time></trkpt><trkpt lat="44.485732442046164" lon="0.9285915918091566"><ele>100.0</ele><time>2026-04-24T17:27:52Z</time></trkpt><trkpt lat="44.485681653293184" lon="0.9284924119713138"><ele>100.0</ele><time>2026-04-24T17:27:57Z</time></trkpt><trkpt lat="44.48561689481017" lon="0.9283473615893532"><ele>100.0</ele><time>2026-04-24T17:27:59Z</time></trkpt><trkpt lat="44.48558256517955" lon="0.9282495460691145"><ele>100.0</ele><time>2026-04-24T17:28:01Z</time></trkpt><trkpt lat="44.485504097131006" lon="0.9281904267457987"><ele>100.0</ele><time>2026-04-24T17:28:04Z</time></trkpt><trkpt lat="44.485457413758674" lon="0.9281263877502778"><ele>100.0</ele><time>2026-04-24T17:28:07Z</time></trkpt><trkpt lat="44.48552186120288" lon="0.9280167564863253"><ele>100.00000000000001</ele><time>2026-04-24T17:28:17Z</time></trkpt><trkpt lat="44.485592969667884" lon="0.9279441674623672"><ele>100.0</ele><time>2026-04-24T17:28:22Z</time></trkpt><trkpt lat="44.48567986697489" lon="0.9279048740182345"><ele>100.0</ele><time>2026-04-24T17:28:25Z</time></trkpt><trkpt lat="44.48574321121538" lon="0.927932626094119"><ele>100.0</ele><time>2026-04-24T17:28:27Z</time></trkpt><trkpt lat="44.485824916746566" lon="0.9279783644204606"><ele>100.00000000000001</ele><time>2026-04-24T17:28:29Z</time></trkpt><trkpt lat="44.48589738706106" lon="0.9279953406775908"><ele>100.0</ele><time>2026-04-24T17:28:32Z</time></trkpt><trkpt lat="44.48589390842961" lon="0.9278779599958761"><ele>100.0</ele><time>2026-04-24T17:28:35Z</time></trkpt><trkpt lat="44.485963348163516" lon="0.927779866318646"><ele>100.0</ele><time>2026-04-24T17:28:37Z</time></trkpt><trkpt lat="44.48595284034145" lon="0.9276512911600175"><ele>100.0</ele><time>2026-04-24T17:28:38Z</time></trkpt><trkpt lat="44.48594575037567" lon="0.9275316211375214"><ele>100.0</ele><time>2026-04-24T17:28:39Z</time></trkpt><trkpt lat="44.48587541635912" lon="0.9274420337753868"><ele>100.0</ele><time>2026-04-24T17:28:40Z</time></trkpt><trkpt lat="44.48582724839325" lon="0.9273194672684442"><ele>101.2</ele><time>2026-04-24T17:28:42Z</time></trkpt><trkpt lat="44.48585698334979" lon="0.9271911440899168"><ele>102.4</ele><time>2026-04-24T17:28:44Z</time></trkpt><trkpt lat="44.48588265477527" lon="0.9270845470437121"><ele>103.6</ele><time>2026-04-24T17:28:46Z</time></trkpt><trkpt lat="44.485812633825006" lon="0.9269615606503462"><ele>104.8</ele><time>2026-04-24T17:28:49Z</time></trkpt><trkpt lat="44.485724215410855" lon="0.9268118929166957"><ele>106.0</ele><time>2026-04-24T17:28:51Z</time></trkpt><trkpt lat="44.485675709886166" lon="0.9267133296144391"><ele>106.6</ele><time>2026-04-24T17:28:52Z</time></trkpt><trkpt lat="44.48564285323221" lon="0.9266258869201675"><ele>107.19999999999999</ele><time>2026-04-24T17:28:53Z</time></trkpt><trkpt lat="44.485575750073416" lon="0.9264838059682171"><ele>107.80000000000001</ele><time>2026-04-24T17:28:55Z</time></trkpt><trkpt lat="44.485472679402854" lon="0.9265491825260103"><ele>108.4</ele><time>2026-04-24T17:28:59Z</time></trkpt><trkpt lat="44.48538950038066" lon="0.9266570397916393"><ele>109.0</ele><time>2026-04-24T17:29:01Z</time></trkpt><trkpt lat="44.48531914106835" lon="0.9267066883872863"><ele>109.0</ele><time>2026-04-24T17:29:03Z</time></trkpt><trkpt lat="44.48525814460212" lon="0.9267318812677454"><ele>109.0</ele><time>2026-04-24T17:29:03.999Z</time></trkpt><trkpt lat="44.48517162919882" lon="0.9268029961784188"><ele>109.0</ele><time>2026-04-24T17:29:05.999Z</time></trkpt><trkpt lat="44.48514306847046" lon="0.9267154489026672"><ele>109.0</ele><time>2026-04-24T17:29:08.999Z</time></trkpt><trkpt lat="44.48505668560485" lon="0.9267976358776807"><ele>109.0</ele><time>2026-04-24T17:29:33.999Z</time></trkpt><trkpt lat="44.48495331452255" lon="0.9268704584955215"><ele>109.00000000000001</ele><time>2026-04-24T17:29:35.999Z</time></trkpt><trkpt lat="44.48486635403569" lon="0.9269363002647965"><ele>109.0</ele><time>2026-04-24T17:29:37.999Z</time></trkpt><trkpt lat="44.484805864995614" lon="0.9270296986922513"><ele>109.0</ele><time>2026-04-24T17:29:39.999Z</time></trkpt><trkpt lat="44.48477213465214" lon="0.9271318830181773"><ele>109.0</ele><time>2026-04-24T17:29:41.999Z</time></trkpt><trkpt lat="44.4847220053114" lon="0.927219810951208"><ele>109.00000000000001</ele><time>2026-04-24T17:29:45Z</time></trkpt><trkpt lat="44.484645201952944" lon="0.9272625140890285"><ele>109.0</ele><time>2026-04-24T17:29:48Z</time></trkpt><trkpt lat="44.48454645428958" lon="0.9272923211840874"><ele>108.6</ele><time>2026-04-24T17:29:50Z</time></trkpt><trkpt lat="44.484483978607386" lon="0.9273191414881784"><ele>108.2</ele><time>2026-04-24T17:29:51Z</time></trkpt><trkpt lat="44.484395150683945" lon="0.9273486354495476"><ele>107.79999999999998</ele><time>2026-04-24T17:29:53Z</time></trkpt><trkpt lat="44.48433692072851" lon="0.9275122854456731"><ele>107.39999999999999</ele><time>2026-04-24T17:29:56Z</time></trkpt><trkpt lat="44.48432231030975" lon="0.9276070141717804"><ele>107.0</ele><time>2026-04-24T17:29:57Z</time></trkpt><trkpt lat="44.48422076752787" lon="0.9276906739674922"><ele>106.99999999999999</ele><time>2026-04-24T17:29:59Z</time></trkpt><trkpt lat="44.48416678992781" lon="0.9276321021111998"><ele>107.0</ele><time>2026-04-24T17:30:00Z</time></trkpt><trkpt lat="44.484121297346974" lon="0.927558159679072"><ele>107.0</ele><time>2026-04-24T17:30:01Z</time></trkpt><trkpt lat="44.48407537063678" lon="0.9274763437188331"><ele>107.0</ele><time>2026-04-24T17:30:02Z</time></trkpt><trkpt lat="44.48402574418419" lon="0.9274126493975143"><ele>106.99999999999999</ele><time>2026-04-24T17:30:03Z</time></trkpt><trkpt lat="44.4839762149948" lon="0.9273531836193392"><ele>107.0</ele><time>2026-04-24T17:30:04Z</time></trkpt><trkpt lat="44.4838534616168" lon="0.9273194680930661"><ele>107.0</ele><time>2026-04-24T17:30:06Z</time></trkpt><trkpt lat="44.48380203355912" lon="0.9273849156023466"><ele>106.99999999999999</ele><time>2026-04-24T17:30:07Z</time></trkpt><trkpt lat="44.48377170983367" lon="0.9274989585532475"><ele>106.99999999999999</ele><time>2026-04-24T17:30:08Z</time></trkpt><trkpt lat="44.48371994840401" lon="0.9276393245212311"><ele>107.0</ele><time>2026-04-24T17:30:09Z</time></trkpt><trkpt lat="44.483684440204954" lon="0.9277717298052506"><ele>107.0</ele><time>2026-04-24T17:30:10Z</time></trkpt><trkpt lat="44.48364368881629" lon="0.9278950760635771"><ele>104.49999999999999</ele><time>2026-04-24T17:30:11Z</time></trkpt><trkpt lat="44.483589387233515" lon="0.92799388937002"><ele>102.0</ele><time>2026-04-24T17:30:12Z</time></trkpt><trkpt lat="44.48352528052109" lon="0.9280573330646728"><ele>99.5</ele><time>2026-04-24T17:30:13Z</time></trkpt><trkpt lat="44.48344670092433" lon="0.9280623657254596"><ele>97.0</ele><time>2026-04-24T17:30:14Z</time></trkpt><trkpt lat="44.483369046455934" lon="0.9280486214867634"><ele>94.5</ele><time>2026-04-24T17:30:15Z</time></trkpt><trkpt lat="44.48331127147175" lon="0.9279551570365112"><ele>92.0</ele><time>2026-04-24T17:30:16Z</time></trkpt><trkpt lat="44.48330536162711" lon="0.9278332576500652"><ele>92.0</ele><time>2026-04-24T17:30:17Z</time></trkpt><trkpt lat="44.48326373035956" lon="0.9277448685573761"><ele>92.0</ele><time>2026-04-24T17:30:19Z</time></trkpt><trkpt lat="44.48323897856005" lon="0.9276519067451477"><ele>92.0</ele><time>2026-04-24T17:30:21Z</time></trkpt><trkpt lat="44.48320495683319" lon="0.9275768572213464"><ele>92.0</ele><time>2026-04-24T17:30:24Z</time></trkpt><trkpt lat="44.48314595295316" lon="0.9274731508844992"><ele>92.0</ele><time>2026-04-24T17:30:26Z</time></trkpt><trkpt lat="44.48308514968515" lon="0.9273766430665642"><ele>92.0</ele><time>2026-04-24T17:30:27Z</time></trkpt><trkpt lat="44.48300921517228" lon="0.9272574208888202"><ele>90.5</ele><time>2026-04-24T17:30:28Z</time></trkpt><trkpt lat="44.48292769751091" lon="0.927133882504769"><ele>89.0</ele><time>2026-04-24T17:30:29Z</time></trkpt><trkpt lat="44.482827221778" lon="0.9269850961945914"><ele>87.5</ele><time>2026-04-24T17:30:30Z</time></trkpt><trkpt lat="44.482713731117435" lon="0.9268211421981972"><ele>86.0</ele><time>2026-04-24T17:30:31Z</time></trkpt><trkpt lat="44.48263692041947" lon="0.9267097449998472"><ele>86.0</ele><time>2026-04-24T17:30:33Z</time></trkpt><trkpt lat="44.48258524200486" lon="0.9266318739639687"><ele>86.0</ele><time>2026-04-24T17:30:34Z</time></trkpt><trkpt lat="44.482538707509576" lon="0.9265622566945367"><ele>86.0</ele><time>2026-04-24T17:30:35Z</time></trkpt><trkpt lat="44.48231624380107" lon="0.926781358357224"><ele>86.0</ele><time>2026-04-24T17:30:37Z</time></trkpt><trkpt lat="44.48222495859133" lon="0.9268809548387046"><ele>85.5</ele><time>2026-04-24T17:30:38Z</time></trkpt><trkpt lat="44.48212425512678" lon="0.926988923741283"><ele>85.0</ele><time>2026-04-24T17:30:39Z</time></trkpt><trkpt lat="44.48195911523702" lon="0.9269980591794041"><ele>84.5</ele><time>2026-04-24T17:30:40Z</time></trkpt><trkpt lat="44.48186625882645" lon="0.9270975289397677"><ele>84.0</ele><time>2026-04-24T17:30:41Z</time></trkpt><trkpt lat="44.48179494333749" lon="0.9271751673373907"><ele>83.66666666666667</ele><time>2026-04-24T17:30:42Z</time></trkpt><trkpt lat="44.481723160782416" lon="0.9272533141342412"><ele>83.33333333333333</ele><time>2026-04-24T17:30:43Z</time></trkpt><trkpt lat="44.48166290767325" lon="0.9273182088419514"><ele>83.0</ele><time>2026-04-24T17:30:44Z</time></trkpt><trkpt lat="44.48159957560706" lon="0.9273858444814157"><ele>82.66666666666666</ele><time>2026-04-24T17:30:45Z</time></trkpt><trkpt lat="44.481533902394816" lon="0.9274559803184818"><ele>82.33333333333333</ele><time>2026-04-24T17:30:46Z</time></trkpt><trkpt lat="44.481472205650036" lon="0.9275229402315842"><ele>82.0</ele><time>2026-04-24T17:30:47Z</time></trkpt><trkpt lat="44.48140733893594" lon="0.9275947621829156"><ele>81.71428571428571</ele><time>2026-04-24T17:30:48Z</time></trkpt><trkpt lat="44.481357226571994" lon="0.9276502477170466"><ele>81.42857142857143</ele><time>2026-04-24T17:30:49Z</time></trkpt><trkpt lat="44.481306654757475" lon="0.9277062419597593"><ele>81.14285714285714</ele><time>2026-04-24T17:30:50Z</time></trkpt><trkpt lat="44.48125250756451" lon="0.9277648197359739"><ele>80.85714285714286</ele><time>2026-04-24T17:30:53Z</time></trkpt><trkpt lat="44.481187123246684" lon="0.9278334864020321"><ele>80.57142857142857</ele><time>2026-04-24T17:30:58Z</time></trkpt><trkpt lat="44.48114134093378" lon="0.9278975775895626"><ele>80.28571428571428</ele><time>2026-04-24T17:30:59Z</time></trkpt><trkpt lat="44.48106404790084" lon="0.927940395109137"><ele>80.0</ele><time>2026-04-24T17:31:00Z</time></trkpt><trkpt lat="44.48099118647155" lon="0.9280309378852132"><ele>79.66666666666667</ele><time>2026-04-24T17:31:01Z</time></trkpt><trkpt lat="44.48094183108814" lon="0.928114804237166"><ele>79.33333333333334</ele><time>2026-04-24T17:31:02Z</time></trkpt><trkpt lat="44.480883241306444" lon="0.928184865533608"><ele>79.0</ele><time>2026-04-24T17:31:03Z</time></trkpt><trkpt lat="44.480824310387774" lon="0.9282513613596955"><ele>78.66666666666667</ele><time>2026-04-24T17:31:04Z</time></trkpt><trkpt lat="44.48075457693055" lon="0.9283287621666538"><ele>78.33333333333333</ele><time>2026-04-24T17:31:05Z</time></trkpt><trkpt lat="44.480678283410505" lon="0.9284162464807351"><ele>78.0</ele><time>2026-04-24T17:31:06Z</time></trkpt><trkpt lat="44.48060139696742" lon="0.9284961465211972"><ele>77.8</ele><time>2026-04-24T17:31:06.999Z</time></trkpt><trkpt lat="44.48051865737826" lon="0.9285802825670708"><ele>77.6</ele><time>2026-04-24T17:31:07.999Z</time></trkpt><trkpt lat="44.480440208853295" lon="0.9286686043675291"><ele>77.4</ele><time>2026-04-24T17:31:08.999Z</time></trkpt><trkpt lat="44.48037495477929" lon="0.9287519467905578"><ele>77.2</ele><time>2026-04-24T17:31:09.999Z</time></trkpt><trkpt lat="44.480313005045346" lon="0.9288338318246107"><ele>77.0</ele><time>2026-04-24T17:31:10.999Z</time></trkpt><trkpt lat="44.480264139205985" lon="0.9289396405108349"><ele>77.0</ele><time>2026-04-24T17:31:11.999Z</time></trkpt><trkpt lat="44.48020545095367" lon="0.9290708978862968"><ele>77.0</ele><time>2026-04-24T17:31:12.999Z</time></trkpt><trkpt lat="44.4801452788216" lon="0.9292208080830008"><ele>77.0</ele><time>2026-04-24T17:31:13.999Z</time></trkpt><trkpt lat="44.480086536602144" lon="0.9293952480278591"><ele>77.0</ele><time>2026-04-24T17:31:14.999Z</time></trkpt><trkpt lat="44.48003798980435" lon="0.9295944976189024"><ele>77.25</ele><time>2026-04-24T17:31:15.999Z</time></trkpt><trkpt lat="44.47998244867974" lon="0.9297957457754438"><ele>77.5</ele><time>2026-04-24T17:31:16.999Z</time></trkpt><trkpt lat="44.479950819135844" lon="0.9300055718458465"><ele>77.75</ele><time>2026-04-24T17:31:17.999Z</time></trkpt><trkpt lat="44.479946028872035" lon="0.9301841220907292"><ele>78.0</ele><time>2026-04-24T17:31:18.999Z</time></trkpt><trkpt lat="44.47994938408324" lon="0.9303536451574531"><ele>78.0</ele><time>2026-04-24T17:31:19.999Z</time></trkpt><trkpt lat="44.47995818074713" lon="0.9305115393379593"><ele>78.0</ele><time>2026-04-24T17:31:20.999Z</time></trkpt><trkpt lat="44.479972863297725" lon="0.9306494828933572"><ele>78.0</ele><time>2026-04-24T17:31:21.999Z</time></trkpt><trkpt lat="44.479994170691356" lon="0.9307806526210874"><ele>78.0</ele><time>2026-04-24T17:31:22.999Z</time></trkpt><trkpt lat="44.48001697000472" lon="0.9308950321791102"><ele>78.0</ele><time>2026-04-24T17:31:23.999Z</time></trkpt><trkpt lat="44.4800360578355" lon="0.9310396751207568"><ele>77.33333333333333</ele><time>2026-04-24T17:31:25.999Z</time></trkpt><trkpt lat="44.4800019643354" lon="0.9311460093902585"><ele>76.66666666666667</ele><time>2026-04-24T17:31:27.999Z</time></trkpt><trkpt lat="44.47992022840238" lon="0.9312173537568478"><ele>76.0</ele><time>2026-04-24T17:31:29.999Z</time></trkpt><trkpt lat="44.4798628340875" lon="0.9312772154532811"><ele>75.33333333333334</ele><time>2026-04-24T17:31:56Z</time></trkpt><trkpt lat="44.47980155747097" lon="0.9313327828337957"><ele>74.66666666666667</ele><time>2026-04-24T17:31:59Z</time></trkpt><trkpt lat="44.47975036665889" lon="0.9313928146759726"><ele>74.0</ele><time>2026-04-24T17:32:03Z</time></trkpt><trkpt lat="44.47968609170731" lon="0.9313655831926647"><ele>74.0</ele><time>2026-04-24T17:32:08Z</time></trkpt><trkpt lat="44.47973717383254" lon="0.9312937885279486"><ele>74.0</ele><time>2026-04-24T17:32:16Z</time></trkpt><trkpt lat="44.47979659877729" lon="0.9312280203593942"><ele>74.0</ele><time>2026-04-24T17:32:21Z</time></trkpt><trkpt lat="44.47985414521885" lon="0.9311801474597602"><ele>74.0</ele><time>2026-04-24T17:32:28Z</time></trkpt><trkpt lat="44.47988155571299" lon="0.9310975849614588"><ele>74.0</ele><time>2026-04-24T17:43:00Z</time></trkpt><trkpt lat="44.47985544792659" lon="0.931186892410122"><ele>74.0</ele><time>2026-04-24T17:52:41Z</time></trkpt><trkpt lat="44.47988875999972" lon="0.9311102097936124"><ele>74.0</ele><time>2026-04-24T17:52:58Z</time></trkpt><trkpt lat="44.47985355530041" lon="0.9311895282535956"><ele>74.0</ele><time>2026-04-24T17:55:00Z</time></trkpt><trkpt lat="44.479801243270856" lon="0.9312659833011788"><ele>74.0</ele><time>2026-04-24T17:58:04Z</time></trkpt><trkpt lat="44.47975077985804" lon="0.9313309641545309"><ele>74.0</ele><time>2026-04-24T17:58:07Z</time></trkpt><trkpt lat="44.47974411977926" lon="0.93142273679027"><ele>74.0</ele><time>2026-04-24T17:58:11Z</time></trkpt><trkpt lat="44.47981739778991" lon="0.931363464681749"><ele>74.0</ele><time>2026-04-24T17:58:46Z</time></trkpt><trkpt lat="44.479882193194584" lon="0.9312877696459669"><ele>74.0</ele><time>2026-04-24T17:58:48Z</time></trkpt><trkpt lat="44.47994794533708" lon="0.9312123657053144"><ele>74.0</ele><time>2026-04-24T17:58:50Z</time></trkpt><trkpt lat="44.48000706306127" lon="0.9311464447574218"><ele>74.0</ele><time>2026-04-24T17:58:52Z</time></trkpt><trkpt lat="44.48004834597317" lon="0.9310711343076278"><ele>74.0</ele><time>2026-04-24T17:58:54Z</time></trkpt><trkpt lat="44.480054628039454" lon="0.9309516701888301"><ele>74.0</ele><time>2026-04-24T17:58:56Z</time></trkpt><trkpt lat="44.480046136407815" lon="0.9308355282029825"><ele>74.0</ele><time>2026-04-24T17:58:57Z</time></trkpt><trkpt lat="44.48004362803952" lon="0.9307124422751037"><ele>74.0</ele><time>2026-04-24T17:58:58Z</time></trkpt><trkpt lat="44.48002278910956" lon="0.9305548335975018"><ele>74.8</ele><time>2026-04-24T17:58:59Z</time></trkpt><trkpt lat="44.4800095590582" lon="0.9303821244985312"><ele>75.60000000000001</ele><time>2026-04-24T17:59:00Z</time></trkpt><trkpt lat="44.47999865456912" lon="0.9302416103073786"><ele>76.4</ele><time>2026-04-24T17:59:01Z</time></trkpt><trkpt lat="44.47999525811191" lon="0.9301130759876935"><ele>77.2</ele><time>2026-04-24T17:59:02Z</time></trkpt><trkpt lat="44.48000167440184" lon="0.9299872816462013"><ele>78.0</ele><time>2026-04-24T17:59:03Z</time></trkpt><trkpt lat="44.48001664402327" lon="0.929870020744132"><ele>78.16666666666667</ele><time>2026-04-24T17:59:04Z</time></trkpt><trkpt lat="44.48003119728162" lon="0.9297623992954367"><ele>78.33333333333333</ele><time>2026-04-24T17:59:05Z</time></trkpt><trkpt lat="44.48004737197464" lon="0.9296648233178332"><ele>78.5</ele><time>2026-04-24T17:59:05.999Z</time></trkpt><trkpt lat="44.480070480542665" lon="0.9295706208798863"><ele>78.66666666666666</ele><time>2026-04-24T17:59:06.999Z</time></trkpt><trkpt lat="44.48010667372496" lon="0.9294758357237458"><ele>78.83333333333333</ele><time>2026-04-24T17:59:07.999Z</time></trkpt><trkpt lat="44.48013615530429" lon="0.9293727189715576"><ele>79.0</ele><time>2026-04-24T17:59:09Z</time></trkpt><trkpt lat="44.480172784635926" lon="0.9292639865439528"><ele>78.5</ele><time>2026-04-24T17:59:10Z</time></trkpt><trkpt lat="44.48021881352714" lon="0.9291478310519"><ele>78.0</ele><time>2026-04-24T17:59:11Z</time></trkpt><trkpt lat="44.480277292347495" lon="0.9290159884166064"><ele>77.5</ele><time>2026-04-24T17:59:12Z</time></trkpt><trkpt lat="44.48034630313087" lon="0.9288742242431531"><ele>77.0</ele><time>2026-04-24T17:59:13Z</time></trkpt><trkpt lat="44.48042979928686" lon="0.9287483801929797"><ele>76.75</ele><time>2026-04-24T17:59:14Z</time></trkpt><trkpt lat="44.4805348358294" lon="0.9286102674661523"><ele>76.5</ele><time>2026-04-24T17:59:15Z</time></trkpt><trkpt lat="44.48065261904629" lon="0.9284802009019739"><ele>76.25</ele><time>2026-04-24T17:59:16Z</time></trkpt><trkpt lat="44.4807770052927" lon="0.9283557833877661"><ele>76.0</ele><time>2026-04-24T17:59:17Z</time></trkpt><trkpt lat="44.48089610629336" lon="0.9282276628447914"><ele>76.39999999999999</ele><time>2026-04-24T17:59:18Z</time></trkpt><trkpt lat="44.480994627199586" lon="0.928121282876826"><ele>76.8</ele><time>2026-04-24T17:59:19Z</time></trkpt><trkpt lat="44.481074912704614" lon="0.9280294814829899"><ele>77.19999999999999</ele><time>2026-04-24T17:59:20Z</time></trkpt><trkpt lat="44.48113984748036" lon="0.9279688245373962"><ele>77.6</ele><time>2026-04-24T17:59:21Z</time></trkpt><trkpt lat="44.48121507778787" lon="0.9279354433023789"><ele>78.0</ele><time>2026-04-24T17:59:23Z</time></trkpt><trkpt lat="44.48123716208004" lon="0.9281314616944819"><ele>78.0</ele><time>2026-04-24T17:59:24Z</time></trkpt><trkpt lat="44.481263606726664" lon="0.9282366667002705"><ele>78.0</ele><time>2026-04-24T17:59:25Z</time></trkpt><trkpt lat="44.481285229755514" lon="0.9283213362840274"><ele>78.0</ele><time>2026-04-24T17:59:26Z</time></trkpt><trkpt lat="44.48124121465029" lon="0.9279122437544581"><ele>78.0</ele><time>2026-04-24T17:59:30Z</time></trkpt><trkpt lat="44.48131709743484" lon="0.9281038224190002"><ele>78.33333333333333</ele><time>2026-04-24T17:59:32Z</time></trkpt><trkpt lat="44.481287004219496" lon="0.9280250199734266"><ele>78.66666666666667</ele><time>2026-04-24T17:59:35Z</time></trkpt><trkpt lat="44.48130736354984" lon="0.9278427241618558"><ele>79.0</ele><time>2026-04-24T17:59:39Z</time></trkpt><trkpt lat="44.48135717350519" lon="0.9277838412317146"><ele>79.33333333333334</ele><time>2026-04-24T17:59:43Z</time></trkpt><trkpt lat="44.48143387882569" lon="0.9276989113426812"><ele>79.66666666666667</ele><time>2026-04-24T18:00:01Z</time></trkpt><trkpt lat="44.48150030875022" lon="0.9276319693517744"><ele>80.0</ele><time>2026-04-24T18:00:02Z</time></trkpt><trkpt lat="44.48155067770165" lon="0.9275697924346857"><ele>80.33333333333334</ele><time>2026-04-24T18:00:04Z</time></trkpt><trkpt lat="44.48163548069366" lon="0.927506778727645"><ele>80.66666666666667</ele><time>2026-04-24T18:00:06Z</time></trkpt><trkpt lat="44.48171779837092" lon="0.9274075365588048"><ele>81.0</ele><time>2026-04-24T18:00:08Z</time></trkpt><trkpt lat="44.48177503704239" lon="0.9273466905464075"><ele>81.33333333333333</ele><time>2026-04-24T18:00:09Z</time></trkpt><trkpt lat="44.48183110196968" lon="0.9272847716949547"><ele>81.66666666666666</ele><time>2026-04-24T18:00:10Z</time></trkpt><trkpt lat="44.48189601438009" lon="0.9272159756958432"><ele>82.0</ele><time>2026-04-24T18:00:11Z</time></trkpt><trkpt lat="44.48196677147669" lon="0.9271343783487779"><ele>82.0</ele><time>2026-04-24T18:00:12Z</time></trkpt><trkpt lat="44.482055843902046" lon="0.9270485261487653"><ele>82.0</ele><time>2026-04-24T18:00:13Z</time></trkpt><trkpt lat="44.48214617410275" lon="0.9269460309190215"><ele>82.0</ele><time>2026-04-24T18:00:14Z</time></trkpt><trkpt lat="44.4822109355898" lon="0.9268655617130841"><ele>82.0</ele><time>2026-04-24T18:00:15Z</time></trkpt><trkpt lat="44.482265501392035" lon="0.9268019142702769"><ele>82.0</ele><time>2026-04-24T18:00:16Z</time></trkpt><trkpt lat="44.482312884211225" lon="0.9267093460684456"><ele>82.33333333333333</ele><time>2026-04-24T18:00:17Z</time></trkpt><trkpt lat="44.482362839176886" lon="0.9266369857877728"><ele>82.66666666666666</ele><time>2026-04-24T18:00:18Z</time></trkpt><trkpt lat="44.48246882174262" lon="0.9266728410875431"><ele>83.0</ele><time>2026-04-24T18:00:19Z</time></trkpt><trkpt lat="44.48254506706768" lon="0.9266993219880527"><ele>83.33333333333333</ele><time>2026-04-24T18:00:20Z</time></trkpt><trkpt lat="44.482616776150635" lon="0.9267474911123401"><ele>83.66666666666667</ele><time>2026-04-24T18:00:21Z</time></trkpt><trkpt lat="44.48267772400275" lon="0.9268433847223352"><ele>84.0</ele><time>2026-04-24T18:00:22Z</time></trkpt><trkpt lat="44.48274187377859" lon="0.9269728377517739"><ele>84.0</ele><time>2026-04-24T18:00:23Z</time></trkpt><trkpt lat="44.482832521672016" lon="0.9270940094634337"><ele>84.0</ele><time>2026-04-24T18:00:24Z</time></trkpt><trkpt lat="44.48292848380141" lon="0.9272380110321493"><ele>84.0</ele><time>2026-04-24T18:00:25Z</time></trkpt><trkpt lat="44.48302080614451" lon="0.927380115261068"><ele>84.0</ele><time>2026-04-24T18:00:26Z</time></trkpt><trkpt lat="44.483085539711716" lon="0.9275151643681293"><ele>85.33333333333333</ele><time>2026-04-24T18:00:27Z</time></trkpt><trkpt lat="44.483151838273415" lon="0.9275957186737321"><ele>86.66666666666667</ele><time>2026-04-24T18:00:28Z</time></trkpt><trkpt lat="44.483189308214996" lon="0.927673083313056"><ele>88.0</ele><time>2026-04-24T18:00:29Z</time></trkpt><trkpt lat="44.48324439932352" lon="0.9278141651828815"><ele>89.33333333333334</ele><time>2026-04-24T18:00:31Z</time></trkpt><trkpt lat="44.48327998391904" lon="0.9279243138358949"><ele>90.66666666666667</ele><time>2026-04-24T18:00:32Z</time></trkpt><trkpt lat="44.48331580268856" lon="0.9280351904851395"><ele>92.0</ele><time>2026-04-24T18:00:34Z</time></trkpt><trkpt lat="44.483388068354266" lon="0.9281026173374477"><ele>92.0</ele><time>2026-04-24T18:00:38Z</time></trkpt><trkpt lat="44.48349167817724" lon="0.9280932028625206"><ele>92.0</ele><time>2026-04-24T18:00:40Z</time></trkpt><trkpt lat="44.48357333053249" lon="0.9280535110140152"><ele>92.0</ele><time>2026-04-24T18:00:41Z</time></trkpt><trkpt lat="44.483650790914126" lon="0.9279800185723758"><ele>92.0</ele><time>2026-04-24T18:00:42Z</time></trkpt><trkpt lat="44.48371720848493" lon="0.9278249458542273"><ele>92.0</ele><time>2026-04-24T18:00:43Z</time></trkpt><trkpt lat="44.48374828067003" lon="0.9276850128824565"><ele>94.5</ele><time>2026-04-24T18:00:44Z</time></trkpt><trkpt lat="44.48377307356412" lon="0.9275444149012012"><ele>97.0</ele><time>2026-04-24T18:00:45Z</time></trkpt><trkpt lat="44.483797227121904" lon="0.9274317724323295"><ele>99.5</ele><time>2026-04-24T18:00:46Z</time></trkpt><trkpt lat="44.48388434361298" lon="0.9273090367245909"><ele>102.0</ele><time>2026-04-24T18:00:48Z</time></trkpt><trkpt lat="44.48395293179114" lon="0.9273222455045727"><ele>104.49999999999999</ele><time>2026-04-24T18:00:49Z</time></trkpt><trkpt lat="44.48401542888174" lon="0.9273640922174622"><ele>107.0</ele><time>2026-04-24T18:00:50Z</time></trkpt><trkpt lat="44.484081082827274" lon="0.9274474754842341"><ele>107.0</ele><time>2026-04-24T18:00:51Z</time></trkpt><trkpt lat="44.484137132167376" lon="0.9275328740656279"><ele>106.99999999999999</ele><time>2026-04-24T18:00:52Z</time></trkpt><trkpt lat="44.48419217611044" lon="0.9276157330184391"><ele>106.99999999999999</ele><time>2026-04-24T18:00:53Z</time></trkpt><trkpt lat="44.48428502528808" lon="0.927671464952275"><ele>107.0</ele><time>2026-04-24T18:00:55Z</time></trkpt><trkpt lat="44.48435336188991" lon="0.9275334686847719"><ele>107.0</ele><time>2026-04-24T18:00:57Z</time></trkpt><trkpt lat="44.4843752760575" lon="0.9273913219631844"><ele>107.0</ele><time>2026-04-24T18:00:59Z</time></trkpt><trkpt lat="44.48440098544691" lon="0.9273057520483792"><ele>106.99999999999999</ele><time>2026-04-24T18:01:00.999Z</time></trkpt><trkpt lat="44.48460952441304" lon="0.9272939049492194"><ele>106.99999999999999</ele><time>2026-04-24T18:01:02.999Z</time></trkpt><trkpt lat="44.48470516125987" lon="0.9272313945277915"><ele>107.0</ele><time>2026-04-24T18:01:04.999Z</time></trkpt><trkpt lat="44.48475775260746" lon="0.927172927426553"><ele>107.0</ele><time>2026-04-24T18:01:06.999Z</time></trkpt><trkpt lat="44.48481957268004" lon="0.9270201618437618"><ele>107.33333333333333</ele><time>2026-04-24T18:01:08.999Z</time></trkpt><trkpt lat="44.48486390519597" lon="0.9269126189869827"><ele>107.66666666666666</ele><time>2026-04-24T18:01:10.999Z</time></trkpt><trkpt lat="44.48495121168684" lon="0.9268985673884701"><ele>108.0</ele><time>2026-04-24T18:01:12.999Z</time></trkpt><trkpt lat="44.48501003495814" lon="0.9268647507267629"><ele>108.33333333333334</ele><time>2026-04-24T18:01:15Z</time></trkpt><trkpt lat="44.48509731040861" lon="0.9268468890726778"><ele>108.66666666666667</ele><time>2026-04-24T18:01:17Z</time></trkpt><trkpt lat="44.48516255931296" lon="0.9269379058654277"><ele>109.0</ele><time>2026-04-24T18:01:20Z</time></trkpt><trkpt lat="44.485226181626" lon="0.927006534209687"><ele>109.00000000000001</ele><time>2026-04-24T18:01:24Z</time></trkpt><trkpt lat="44.485294679158784" lon="0.9270459066062805"><ele>109.0</ele><time>2026-04-24T18:01:27Z</time></trkpt><trkpt lat="44.485375179631" lon="0.9270663092222433"><ele>109.0</ele><time>2026-04-24T18:01:29Z</time></trkpt><trkpt lat="44.48545391204381" lon="0.9270819758322126"><ele>109.0</ele><time>2026-04-24T18:01:31Z</time></trkpt><trkpt lat="44.48554435271091" lon="0.927153364605479"><ele>109.00000000000001</ele><time>2026-04-24T18:01:33Z</time></trkpt><trkpt lat="44.48558168484623" lon="0.9272421370641368"><ele>109.0</ele><time>2026-04-24T18:01:34Z</time></trkpt><trkpt lat="44.48564676849509" lon="0.9273304045445026"><ele>108.4</ele><time>2026-04-24T18:01:35Z</time></trkpt><trkpt lat="44.485710088919234" lon="0.9274742884820415"><ele>107.80000000000001</ele><time>2026-04-24T18:01:37Z</time></trkpt><trkpt lat="44.48575147011478" lon="0.9276109552650169"><ele>107.19999999999999</ele><time>2026-04-24T18:01:39Z</time></trkpt><trkpt lat="44.48581856340638" lon="0.9276671153258815"><ele>106.6</ele><time>2026-04-24T18:01:41Z</time></trkpt><trkpt lat="44.48580962057697" lon="0.9277593200269816"><ele>106.0</ele><time>2026-04-24T18:01:42Z</time></trkpt><trkpt lat="44.48586656415267" lon="0.9278862754303433"><ele>104.8</ele><time>2026-04-24T18:01:44Z</time></trkpt><trkpt lat="44.485878989147324" lon="0.9280098513837738"><ele>103.6</ele><time>2026-04-24T18:01:45Z</time></trkpt><trkpt lat="44.485852718818876" lon="0.9281250470529713"><ele>102.4</ele><time>2026-04-24T18:01:46Z</time></trkpt><trkpt lat="44.48582353790294" lon="0.9282362994093887"><ele>101.2</ele><time>2026-04-24T18:01:47Z</time></trkpt><trkpt lat="44.48581996398254" lon="0.9283576203072609"><ele>100.0</ele><time>2026-04-24T18:01:48Z</time></trkpt><trkpt lat="44.48577894687526" lon="0.9285042577284305"><ele>99.4</ele><time>2026-04-24T18:01:50Z</time></trkpt><trkpt lat="44.48578847975646" lon="0.9286210955305889"><ele>98.8</ele><time>2026-04-24T18:01:52Z</time></trkpt><trkpt lat="44.48587638634414" lon="0.9287365464539935"><ele>98.19999999999999</ele><time>2026-04-24T18:01:54Z</time></trkpt><trkpt lat="44.48592939233067" lon="0.9288947718055025"><ele>97.6</ele><time>2026-04-24T18:01:56Z</time></trkpt><trkpt lat="44.48597181364016" lon="0.9290249282895401"><ele>97.0</ele><time>2026-04-24T18:01:58Z</time></trkpt><trkpt lat="44.48602024965588" lon="0.9291289713765878"><ele>97.0</ele><time>2026-04-24T18:02:00Z</time></trkpt><trkpt lat="44.48612388885394" lon="0.9292071846309682"><ele>97.0</ele><time>2026-04-24T18:02:02Z</time></trkpt><trkpt lat="44.4861735990661" lon="0.9292642348975727"><ele>97.0</ele><time>2026-04-24T18:02:03Z</time></trkpt><trkpt lat="44.48627099505409" lon="0.9293398166683483"><ele>97.0</ele><time>2026-04-24T18:02:05Z</time></trkpt><trkpt lat="44.48631817802301" lon="0.9294490042988346"><ele>97.0</ele><time>2026-04-24T18:02:07Z</time></trkpt><trkpt lat="44.486388033265584" lon="0.9295009009607214"><ele>99.33333333333334</ele><time>2026-04-24T18:02:10Z</time></trkpt><trkpt lat="44.486473896025444" lon="0.9294898640689521"><ele>101.66666666666667</ele><time>2026-04-24T18:02:12Z</time></trkpt><trkpt lat="44.486539097924904" lon="0.9294868057076773"><ele>104.0</ele><time>2026-04-24T18:02:14Z</time></trkpt><trkpt lat="44.48650990895932" lon="0.9296324970043646"><ele>106.33333333333334</ele><time>2026-04-24T18:02:35Z</time></trkpt><trkpt lat="44.486458140011166" lon="0.9297180665833414"><ele>108.66666666666667</ele><time>2026-04-24T18:02:36Z</time></trkpt><trkpt lat="44.48640153009774" lon="0.9297869267483848"><ele>111.0</ele><time>2026-04-24T18:02:37Z</time></trkpt><trkpt lat="44.48634524869377" lon="0.9298828496066374"><ele>111.0</ele><time>2026-04-24T18:02:38Z</time></trkpt><trkpt lat="44.48629042408397" lon="0.9299812849581462"><ele>111.0</ele><time>2026-04-24T18:02:39Z</time></trkpt><trkpt lat="44.4862261142669" lon="0.9301200320660622"><ele>111.0</ele><time>2026-04-24T18:02:40Z</time></trkpt><trkpt lat="44.486178117685824" lon="0.9302623782556334"><ele>111.0</ele><time>2026-04-24T18:02:41Z</time></trkpt><trkpt lat="44.48613640296869" lon="0.9304078999955023"><ele>111.0</ele><time>2026-04-24T18:02:42Z</time></trkpt><trkpt lat="44.48610072635072" lon="0.9305324654475355"><ele>110.0</ele><time>2026-04-24T18:02:42.999Z</time></trkpt><trkpt lat="44.48606112380963" lon="0.9306320256100958"><ele>109.0</ele><time>2026-04-24T18:02:43.999Z</time></trkpt><trkpt lat="44.486024163105135" lon="0.9307176109155583"><ele>108.0</ele><time>2026-04-24T18:02:44.999Z</time></trkpt><trkpt lat="44.485973523268086" lon="0.9307870558889775"><ele>107.0</ele><time>2026-04-24T18:02:45.999Z</time></trkpt><trkpt lat="44.48590163737884" lon="0.9309091324028075"><ele>106.0</ele><time>2026-04-24T18:02:47.999Z</time></trkpt><trkpt lat="44.48583799039637" lon="0.9310448164401688"><ele>106.0</ele><time>2026-04-24T18:02:49.999Z</time></trkpt><trkpt lat="44.48577550939661" lon="0.9311482958902112"><ele>106.0</ele><time>2026-04-24T18:02:51.999Z</time></trkpt><trkpt lat="44.48570093089986" lon="0.9312218947040231"><ele>106.0</ele><time>2026-04-24T18:02:53.999Z</time></trkpt><trkpt lat="44.48565296907736" lon="0.9312991137846977"><ele>106.0</ele><time>2026-04-24T18:02:54.999Z</time></trkpt><trkpt lat="44.485591164760386" lon="0.9314262053705712"><ele>106.0</ele><time>2026-04-24T18:02:55.999Z</time></trkpt><trkpt lat="44.48550861633406" lon="0.9315063425693443"><ele>106.0</ele><time>2026-04-24T18:02:56.999Z</time></trkpt><trkpt lat="44.48543461261245" lon="0.9315855861557146"><ele>106.0</ele><time>2026-04-24T18:02:57.999Z</time></trkpt><trkpt lat="44.485377463415034" lon="0.9316564980007388"><ele>106.0</ele><time>2026-04-24T18:02:58.999Z</time></trkpt><trkpt lat="44.48531446967975" lon="0.9317346618347857"><ele>106.0</ele><time>2026-04-24T18:03:00.999Z</time></trkpt><trkpt lat="44.485422880364055" lon="0.9319038371527725"><ele>106.0</ele><time>2026-04-24T18:03:01.999Z</time></trkpt><trkpt lat="44.48548081225026" lon="0.9319402904183017"><ele>106.4</ele><time>2026-04-24T18:03:02.999Z</time></trkpt><trkpt lat="44.48552986350918" lon="0.9320103388629184"><ele>106.8</ele><time>2026-04-24T18:03:04.999Z</time></trkpt><trkpt lat="44.48564196601893" lon="0.9321225981873491"><ele>107.20000000000002</ele><time>2026-04-24T18:03:06.999Z</time></trkpt><trkpt lat="44.48569277615822" lon="0.9321950228938826"><ele>107.60000000000001</ele><time>2026-04-24T18:03:07.999Z</time></trkpt><trkpt lat="44.48576049991218" lon="0.9322664975788929"><ele>108.0</ele><time>2026-04-24T18:03:08.999Z</time></trkpt><trkpt lat="44.485822784542144" lon="0.9323563825746946"><ele>108.0</ele><time>2026-04-24T18:03:09.999Z</time></trkpt><trkpt lat="44.48590088116997" lon="0.9324066613536042"><ele>108.0</ele><time>2026-04-24T18:03:10.999Z</time></trkpt><trkpt lat="44.485967172246546" lon="0.9324797646566616"><ele>108.0</ele><time>2026-04-24T18:03:11.999Z</time></trkpt><trkpt lat="44.48604459232776" lon="0.9325265314890345"><ele>108.0</ele><time>2026-04-24T18:03:12.999Z</time></trkpt><trkpt lat="44.486116663425236" lon="0.9325380434574739"><ele>108.0</ele><time>2026-04-24T18:03:13.999Z</time></trkpt><trkpt lat="44.48620954900122" lon="0.9325297921008833"><ele>108.0</ele><time>2026-04-24T18:03:14.999Z</time></trkpt><trkpt lat="44.48629298335405" lon="0.9325232915842339"><ele>109.66666666666667</ele><time>2026-04-24T18:03:15.999Z</time></trkpt><trkpt lat="44.48637661415006" lon="0.932528316365887"><ele>111.33333333333334</ele><time>2026-04-24T18:03:16.999Z</time></trkpt><trkpt lat="44.48646761772796" lon="0.9325395012165729"><ele>113.0</ele><time>2026-04-24T18:03:17.999Z</time></trkpt><trkpt lat="44.486551166054824" lon="0.9325471589719221"><ele>114.66666666666667</ele><time>2026-04-24T18:03:18.999Z</time></trkpt><trkpt lat="44.486634907096715" lon="0.9325499227560224"><ele>116.33333333333334</ele><time>2026-04-24T18:03:19.999Z</time></trkpt><trkpt lat="44.48672621929815" lon="0.9325491428912344"><ele>118.0</ele><time>2026-04-24T18:03:21Z</time></trkpt><trkpt lat="44.48683142074084" lon="0.9325219941932684"><ele>118.00000000000001</ele><time>2026-04-24T18:03:22Z</time></trkpt><trkpt lat="44.48691446747702" lon="0.932516073936948"><ele>118.0</ele><time>2026-04-24T18:03:23Z</time></trkpt><trkpt lat="44.48700925574436" lon="0.9324888568606801"><ele>118.0</ele><time>2026-04-24T18:03:24Z</time></trkpt><trkpt lat="44.48707875349511" lon="0.9324742666404844"><ele>118.0</ele><time>2026-04-24T18:03:25Z</time></trkpt><trkpt lat="44.48715732163187" lon="0.9324350571878873"><ele>118.00000000000001</ele><time>2026-04-24T18:03:26Z</time></trkpt><trkpt lat="44.487234924088106" lon="0.932405267687945"><ele>118.0</ele><time>2026-04-24T18:03:27Z</time></trkpt><trkpt lat="44.48731661498423" lon="0.9323793504194013"><ele>119.60000000000001</ele><time>2026-04-24T18:03:28Z</time></trkpt><trkpt lat="44.48741379757253" lon="0.932345964056486"><ele>121.20000000000002</ele><time>2026-04-24T18:03:29Z</time></trkpt><trkpt lat="44.48750900402263" lon="0.9323070808551003"><ele>122.8</ele><time>2026-04-24T18:03:30Z</time></trkpt><trkpt lat="44.48762946120266" lon="0.9322557240910556"><ele>124.4</ele><time>2026-04-24T18:03:32Z</time></trkpt><trkpt lat="44.48770028380541" lon="0.9322259825349037"><ele>126.0</ele><time>2026-04-24T18:03:33Z</time></trkpt><trkpt lat="44.48776754601649" lon="0.9321970137438906"><ele>126.0</ele><time>2026-04-24T18:03:34Z</time></trkpt><trkpt lat="44.48783023751023" lon="0.9321836901772499"><ele>126.0</ele><time>2026-04-24T18:03:35Z</time></trkpt><trkpt lat="44.48791530288594" lon="0.9321861386163546"><ele>126.0</ele><time>2026-04-24T18:03:37Z</time></trkpt><trkpt lat="44.48798037247246" lon="0.9322378378672794"><ele>126.0</ele><time>2026-04-24T18:03:39Z</time></trkpt><trkpt lat="44.48803195622356" lon="0.9323295052536208"><ele>126.0</ele><time>2026-04-24T18:03:42Z</time></trkpt><trkpt lat="44.48807273612516" lon="0.9323992682179931"><ele>126.0</ele><time>2026-04-24T18:03:45Z</time></trkpt><trkpt lat="44.48820123166498" lon="0.9322302783370306"><ele>126.8</ele><time>2026-04-24T18:03:47Z</time></trkpt><trkpt lat="44.48824194190996" lon="0.9321212733109357"><ele>127.6</ele><time>2026-04-24T18:03:49Z</time></trkpt><trkpt lat="44.48830825309888" lon="0.9320368510859062"><ele>128.4</ele><time>2026-04-24T18:03:51Z</time></trkpt><trkpt lat="44.488386443292555" lon="0.9319616677982285"><ele>129.2</ele><time>2026-04-24T18:03:53Z</time></trkpt><trkpt lat="44.48850231891436" lon="0.931883300405457"><ele>130.0</ele><time>2026-04-24T18:03:55Z</time></trkpt><trkpt lat="44.48859964318937" lon="0.931804686001184"><ele>130.0</ele><time>2026-04-24T18:03:57Z</time></trkpt><trkpt lat="44.48868811606441" lon="0.9317300450241466"><ele>130.0</ele><time>2026-04-24T18:03:59Z</time></trkpt><trkpt lat="44.48876795815741" lon="0.9316433268389097"><ele>130.0</ele><time>2026-04-24T18:04:01Z</time></trkpt><trkpt lat="44.488825958413706" lon="0.9315278223278292"><ele>130.0</ele><time>2026-04-24T18:04:03Z</time></trkpt><trkpt lat="44.488871546956865" lon="0.9313763213783023"><ele>130.0</ele><time>2026-04-24T18:04:05Z</time></trkpt><trkpt lat="44.48887940277018" lon="0.9312787390335726"><ele>129.2</ele><time>2026-04-24T18:04:06Z</time></trkpt><trkpt lat="44.488890097613684" lon="0.9311838319905562"><ele>128.4</ele><time>2026-04-24T18:04:07Z</time></trkpt><trkpt lat="44.4889174887449" lon="0.9310273590058292"><ele>127.6</ele><time>2026-04-24T18:04:09Z</time></trkpt><trkpt lat="44.488958050976116" lon="0.930888004582732"><ele>126.8</ele><time>2026-04-24T18:04:11Z</time></trkpt><trkpt lat="44.48902891313593" lon="0.9307682552385269"><ele>126.0</ele><time>2026-04-24T18:04:13Z</time></trkpt><trkpt lat="44.48911643662442" lon="0.9306694687209512"><ele>124.4</ele><time>2026-04-24T18:04:15Z</time></trkpt><trkpt lat="44.48919407213868" lon="0.9305665269168161"><ele>122.8</ele><time>2026-04-24T18:04:17Z</time></trkpt><trkpt lat="44.48929891407898" lon="0.9304371022895045"><ele>121.20000000000002</ele><time>2026-04-24T18:04:19Z</time></trkpt><trkpt lat="44.48936288703039" lon="0.930346258838325"><ele>119.60000000000001</ele><time>2026-04-24T18:04:20Z</time></trkpt><trkpt lat="44.48942519352539" lon="0.930268272484242"><ele>118.0</ele><time>2026-04-24T18:04:21Z</time></trkpt><trkpt lat="44.489479181729614" lon="0.9302043251372074"><ele>118.00000000000001</ele><time>2026-04-24T18:04:22Z</time></trkpt><trkpt lat="44.48952729867407" lon="0.9301439719292973"><ele>118.0</ele><time>2026-04-24T18:04:23Z</time></trkpt><trkpt lat="44.489580412484095" lon="0.9300351106429141"><ele>118.0</ele><time>2026-04-24T18:04:25Z</time></trkpt><trkpt lat="44.489613663995755" lon="0.9298869870218603"><ele>118.0</ele><time>2026-04-24T18:04:27Z</time></trkpt><trkpt lat="44.489624268388475" lon="0.9297986570824102"><ele>118.00000000000001</ele><time>2026-04-24T18:04:28Z</time></trkpt><trkpt lat="44.489623165416546" lon="0.9297094935787077"><ele>118.0</ele><time>2026-04-24T18:04:29Z</time></trkpt><trkpt lat="44.489623191793385" lon="0.9295988896050922"><ele>116.2</ele><time>2026-04-24T18:04:30Z</time></trkpt><trkpt lat="44.4895727301766" lon="0.9294650597505798"><ele>114.4</ele><time>2026-04-24T18:04:31Z</time></trkpt><trkpt lat="44.48955086603454" lon="0.9293315988220131"><ele>112.60000000000001</ele><time>2026-04-24T18:04:32Z</time></trkpt><trkpt lat="44.48951199331001" lon="0.9291979602231716"><ele>110.80000000000001</ele><time>2026-04-24T18:04:33Z</time></trkpt><trkpt lat="44.48946454869945" lon="0.9290799037822117"><ele>109.0</ele><time>2026-04-24T18:04:34Z</time></trkpt><trkpt lat="44.48942552997193" lon="0.9289497010238086"><ele>108.50000000000001</ele><time>2026-04-24T18:04:35Z</time></trkpt><trkpt lat="44.48940623175862" lon="0.9288120084401487"><ele>108.0</ele><time>2026-04-24T18:04:36Z</time></trkpt><trkpt lat="44.48938041377301" lon="0.9286921132534889"><ele>107.5</ele><time>2026-04-24T18:04:37Z</time></trkpt><trkpt lat="44.48936220892915" lon="0.9285651597583547"><ele>107.0</ele><time>2026-04-24T18:04:38Z</time></trkpt><trkpt lat="44.48935270932216" lon="0.9284602492045153"><ele>106.50000000000001</ele><time>2026-04-24T18:04:39Z</time></trkpt><trkpt lat="44.489360550074295" lon="0.928350549996813"><ele>106.0</ele><time>2026-04-24T18:04:40Z</time></trkpt><trkpt lat="44.489360814446634" lon="0.9282342430195517"><ele>105.33333333333334</ele><time>2026-04-24T18:04:41Z</time></trkpt><trkpt lat="44.489379580172894" lon="0.928125252937785"><ele>104.66666666666667</ele><time>2026-04-24T18:04:42Z</time></trkpt><trkpt lat="44.48940914673561" lon="0.9280280875380013"><ele>104.0</ele><time>2026-04-24T18:04:43Z</time></trkpt><trkpt lat="44.48942032194317" lon="0.927931027328754"><ele>103.33333333333334</ele><time>2026-04-24T18:04:44Z</time></trkpt><trkpt lat="44.48945676739295" lon="0.9278344271280287"><ele>102.66666666666667</ele><time>2026-04-24T18:04:45Z</time></trkpt><trkpt lat="44.48949879874742" lon="0.92774053538966"><ele>102.0</ele><time>2026-04-24T18:04:46Z</time></trkpt><trkpt lat="44.48954317615764" lon="0.9276627981211805"><ele>101.5</ele><time>2026-04-24T18:04:47Z</time></trkpt><trkpt lat="44.48960354371376" lon="0.9275448407801182"><ele>101.0</ele><time>2026-04-24T18:04:48Z</time></trkpt><trkpt lat="44.48966476733192" lon="0.9274378237975487"><ele>100.5</ele><time>2026-04-24T18:04:49Z</time></trkpt><trkpt lat="44.48972482287303" lon="0.9273431733419184"><ele>100.0</ele><time>2026-04-24T18:04:50Z</time></trkpt><trkpt lat="44.489770345344056" lon="0.9272534925275432"><ele>99.5</ele><time>2026-04-24T18:04:51Z</time></trkpt><trkpt lat="44.48980985757942" lon="0.9271694632164433"><ele>99.0</ele><time>2026-04-24T18:04:52Z</time></trkpt><trkpt lat="44.48984265800564" lon="0.9270899982463979"><ele>99.0</ele><time>2026-04-24T18:04:53Z</time></trkpt><trkpt lat="44.48987378802271" lon="0.9270064451216289"><ele>99.0</ele><time>2026-04-24T18:04:54Z</time></trkpt><trkpt lat="44.48991628315419" lon="0.9269310533683256"><ele>99.0</ele><time>2026-04-24T18:04:54.999Z</time></trkpt><trkpt lat="44.489967477593304" lon="0.9267734331942101"><ele>99.0</ele><time>2026-04-24T18:04:56.999Z</time></trkpt><trkpt lat="44.49000580468705" lon="0.9266051106385355"><ele>99.0</ele><time>2026-04-24T18:04:58.999Z</time></trkpt><trkpt lat="44.49004278165239" lon="0.9264425903286789"><ele>97.5</ele><time>2026-04-24T18:05:00.999Z</time></trkpt><trkpt lat="44.490078238847424" lon="0.9262933924921518"><ele>96.0</ele><time>2026-04-24T18:05:02.999Z</time></trkpt><trkpt lat="44.49010924747826" lon="0.9261278206576041"><ele>94.5</ele><time>2026-04-24T18:05:04.999Z</time></trkpt><trkpt lat="44.49014220456378" lon="0.9259514324246578"><ele>93.0</ele><time>2026-04-24T18:05:06.999Z</time></trkpt><trkpt lat="44.49015213775827" lon="0.9258301596649197"><ele>92.66666666666667</ele><time>2026-04-24T18:05:07.999Z</time></trkpt><trkpt lat="44.490168025897354" lon="0.9257079306775653"><ele>92.33333333333333</ele><time>2026-04-24T18:05:08.999Z</time></trkpt><trkpt lat="44.49017129562508" lon="0.9255969556658693"><ele>92.0</ele><time>2026-04-24T18:05:09.999Z</time></trkpt><trkpt lat="44.490157990901956" lon="0.9255030768818355"><ele>91.66666666666666</ele><time>2026-04-24T18:05:10.999Z</time></trkpt><trkpt lat="44.49013042512818" lon="0.9254213018808318"><ele>91.33333333333333</ele><time>2026-04-24T18:05:11.999Z</time></trkpt><trkpt lat="44.490079897561436" lon="0.925259509912182"><ele>91.0</ele><time>2026-04-24T18:05:13.999Z</time></trkpt><trkpt lat="44.4900360181054" lon="0.9251288630082354"><ele>91.16666666666666</ele><time>2026-04-24T18:05:15.999Z</time></trkpt><trkpt lat="44.48999714571912" lon="0.92501392359939"><ele>91.33333333333333</ele><time>2026-04-24T18:05:17.999Z</time></trkpt><trkpt lat="44.489965930643685" lon="0.9249172789155077"><ele>91.5</ele><time>2026-04-24T18:05:19.999Z</time></trkpt><trkpt lat="44.489936455713504" lon="0.9248251916582789"><ele>91.66666666666667</ele><time>2026-04-24T18:05:21.999Z</time></trkpt><trkpt lat="44.489902611209104" lon="0.9247346049173971"><ele>91.83333333333334</ele><time>2026-04-24T18:05:22.999Z</time></trkpt><trkpt lat="44.48985093395452" lon="0.9246228130172236"><ele>92.0</ele><time>2026-04-24T18:05:25.999Z</time></trkpt><trkpt lat="44.48979292078969" lon="0.9244363153620891"><ele>92.0</ele><time>2026-04-24T18:05:28Z</time></trkpt><trkpt lat="44.48975281064083" lon="0.9243114025486402"><ele>92.0</ele><time>2026-04-24T18:05:29Z</time></trkpt><trkpt lat="44.48971797911764" lon="0.9242182379962556"><ele>92.0</ele><time>2026-04-24T18:05:30Z</time></trkpt><trkpt lat="44.48968042057173" lon="0.9241326606270764"><ele>92.0</ele><time>2026-04-24T18:05:31Z</time></trkpt><trkpt lat="44.489633832352204" lon="0.9240324838862704"><ele>92.0</ele><time>2026-04-24T18:05:32Z</time></trkpt><trkpt lat="44.489582711633474" lon="0.9238997296136244"><ele>92.0</ele><time>2026-04-24T18:05:33Z</time></trkpt><trkpt lat="44.48952334508804" lon="0.923749135840008"><ele>93.0</ele><time>2026-04-24T18:05:34Z</time></trkpt><trkpt lat="44.48945600389197" lon="0.9236006724948426"><ele>94.0</ele><time>2026-04-24T18:05:35Z</time></trkpt><trkpt lat="44.489403758288034" lon="0.923493115072168"><ele>95.0</ele><time>2026-04-24T18:05:36Z</time></trkpt><trkpt lat="44.489346901127604" lon="0.9234022852607026"><ele>96.0</ele><time>2026-04-24T18:05:37Z</time></trkpt><trkpt lat="44.48929742329013" lon="0.9233234520937971"><ele>97.0</ele><time>2026-04-24T18:05:38Z</time></trkpt><trkpt lat="44.48925806516954" lon="0.9232420051805679"><ele>97.00000000000001</ele><time>2026-04-24T18:05:39Z</time></trkpt><trkpt lat="44.489224897380865" lon="0.9231444793350312"><ele>97.0</ele><time>2026-04-24T18:05:40Z</time></trkpt><trkpt lat="44.48919546796216" lon="0.9230326615585824"><ele>97.0</ele><time>2026-04-24T18:05:41Z</time></trkpt><trkpt lat="44.48919253545985" lon="0.9229152747555784"><ele>97.0</ele><time>2026-04-24T18:05:42Z</time></trkpt><trkpt lat="44.4891949783222" lon="0.9227961375383342"><ele>97.00000000000001</ele><time>2026-04-24T18:05:43Z</time></trkpt><trkpt lat="44.48921263055447" lon="0.9226686865231637"><ele>97.0</ele><time>2026-04-24T18:05:44Z</time></trkpt><trkpt lat="44.48924875117243" lon="0.9225207087335602"><ele>96.75</ele><time>2026-04-24T18:05:45Z</time></trkpt><trkpt lat="44.489297359980846" lon="0.9223639941846989"><ele>96.5</ele><time>2026-04-24T18:05:46Z</time></trkpt><trkpt lat="44.48934648838951" lon="0.9221892935994795"><ele>96.25</ele><time>2026-04-24T18:05:47Z</time></trkpt><trkpt lat="44.48939106447156" lon="0.9220112049601983"><ele>96.0</ele><time>2026-04-24T18:05:48Z</time></trkpt><trkpt lat="44.48944561997208" lon="0.9218485372338694"><ele>96.25</ele><time>2026-04-24T18:05:49Z</time></trkpt><trkpt lat="44.489501010633255" lon="0.9216643453489594"><ele>96.5</ele><time>2026-04-24T18:05:50Z</time></trkpt><trkpt lat="44.48954641820133" lon="0.9214616200167203"><ele>96.75</ele><time>2026-04-24T18:05:51Z</time></trkpt><trkpt lat="44.48959283581706" lon="0.9212821646437099"><ele>97.0</ele><time>2026-04-24T18:05:52Z</time></trkpt><trkpt lat="44.489639723609855" lon="0.9211455807186729"><ele>97.16666666666667</ele><time>2026-04-24T18:05:53Z</time></trkpt><trkpt lat="44.48967133601909" lon="0.9210075147556758"><ele>97.33333333333334</ele><time>2026-04-24T18:05:54Z</time></trkpt><trkpt lat="44.48969701934255" lon="0.9208818882399745"><ele>97.5</ele><time>2026-04-24T18:05:55Z</time></trkpt><trkpt lat="44.489713845739324" lon="0.9207668422941906"><ele>97.66666666666666</ele><time>2026-04-24T18:05:56Z</time></trkpt><trkpt lat="44.4897141829923" lon="0.9206637511708464"><ele>97.83333333333333</ele><time>2026-04-24T18:05:57Z</time></trkpt><trkpt lat="44.48970103870012" lon="0.9205645860786161"><ele>98.0</ele><time>2026-04-24T18:05:58Z</time></trkpt><trkpt lat="44.489671257305694" lon="0.9204555436907078"><ele>98.83333333333333</ele><time>2026-04-24T18:05:59Z</time></trkpt><trkpt lat="44.489633233526206" lon="0.9203534855739771"><ele>99.66666666666666</ele><time>2026-04-24T18:06:00Z</time></trkpt><trkpt lat="44.489593107338756" lon="0.9202630513750264"><ele>100.5</ele><time>2026-04-24T18:06:01Z</time></trkpt><trkpt lat="44.48956007095741" lon="0.9201679603418479"><ele>101.33333333333334</ele><time>2026-04-24T18:06:02Z</time></trkpt><trkpt lat="44.48950932119547" lon="0.9200692548528554"><ele>102.16666666666667</ele><time>2026-04-24T18:06:03Z</time></trkpt><trkpt lat="44.489456658297385" lon="0.9199698316771376"><ele>103.0</ele><time>2026-04-24T18:06:04Z</time></trkpt><trkpt lat="44.48940066616199" lon="0.9198779852277967"><ele>103.80000000000001</ele><time>2026-04-24T18:06:05Z</time></trkpt><trkpt lat="44.489338930037654" lon="0.9198021043164595"><ele>104.6</ele><time>2026-04-24T18:06:06Z</time></trkpt><trkpt lat="44.48927414555166" lon="0.919740629436783"><ele>105.39999999999999</ele><time>2026-04-24T18:06:07Z</time></trkpt><trkpt lat="44.489215784966234" lon="0.9196991359472289"><ele>106.19999999999999</ele><time>2026-04-24T18:06:08Z</time></trkpt><trkpt lat="44.4891221966685" lon="0.9196843972547722"><ele>107.0</ele><time>2026-04-24T18:06:10Z</time></trkpt><trkpt lat="44.48912813747924" lon="0.919473689512811"><ele>107.0</ele><time>2026-04-24T18:06:13Z</time></trkpt><trkpt lat="44.489168390336815" lon="0.9193675806766355"><ele>106.99999999999999</ele><time>2026-04-24T18:06:14Z</time></trkpt><trkpt lat="44.48921350592043" lon="0.9192242359787925"><ele>106.99999999999999</ele><time>2026-04-24T18:06:15Z</time></trkpt><trkpt lat="44.48925596086817" lon="0.9190786359377823"><ele>107.0</ele><time>2026-04-24T18:06:16Z</time></trkpt><trkpt lat="44.489300734873986" lon="0.9189125676769802"><ele>107.0</ele><time>2026-04-24T18:06:17Z</time></trkpt><trkpt lat="44.489356369161236" lon="0.9187717321350546"><ele>107.16666666666666</ele><time>2026-04-24T18:06:18Z</time></trkpt><trkpt lat="44.489416937384405" lon="0.9186704367459473"><ele>107.33333333333333</ele><time>2026-04-24T18:06:19Z</time></trkpt><trkpt lat="44.4895008716993" lon="0.9185901869431708"><ele>107.5</ele><time>2026-04-24T18:06:20Z</time></trkpt><trkpt lat="44.48958624899847" lon="0.9185194454030344"><ele>107.66666666666666</ele><time>2026-04-24T18:06:21Z</time></trkpt><trkpt lat="44.48965704209346" lon="0.9184827617383423"><ele>107.83333333333333</ele><time>2026-04-24T18:06:22Z</time></trkpt><trkpt lat="44.489716954899045" lon="0.9184445607562224"><ele>108.0</ele><time>2026-04-24T18:06:23Z</time></trkpt><trkpt lat="44.48978047796366" lon="0.9184251305423182"><ele>108.0</ele><time>2026-04-24T18:06:25Z</time></trkpt><trkpt lat="44.489850522136" lon="0.9184007210213635"><ele>108.0</ele><time>2026-04-24T18:06:30Z</time></trkpt><trkpt lat="44.48993812282471" lon="0.9183834545775637"><ele>108.0</ele><time>2026-04-24T18:06:32Z</time></trkpt><trkpt lat="44.49002051345938" lon="0.9183609342227188"><ele>108.0</ele><time>2026-04-24T18:06:35Z</time></trkpt><trkpt lat="44.49009496498458" lon="0.9183472276524425"><ele>108.0</ele><time>2026-04-24T18:06:37Z</time></trkpt><trkpt lat="44.4901898301466" lon="0.9183252585208044"><ele>108.0</ele><time>2026-04-24T18:06:39Z</time></trkpt><trkpt lat="44.4902612034547" lon="0.9183114079060384"><ele>108.0</ele><time>2026-04-24T18:06:40Z</time></trkpt><trkpt lat="44.49035520986295" lon="0.918281768687287"><ele>108.0</ele><time>2026-04-24T18:06:41Z</time></trkpt><trkpt lat="44.4904454139976" lon="0.9182545355381477"><ele>108.0</ele><time>2026-04-24T18:06:42Z</time></trkpt><trkpt lat="44.49052051009177" lon="0.9182280553088735"><ele>108.0</ele><time>2026-04-24T18:06:43Z</time></trkpt><trkpt lat="44.49059565397085" lon="0.9182216502799667"><ele>108.0</ele><time>2026-04-24T18:06:45Z</time></trkpt><trkpt lat="44.490525942372436" lon="0.9182303221112968"><ele>108.0</ele><time>2026-04-24T18:06:50Z</time></trkpt><trkpt lat="44.49043923287001" lon="0.9182477337483709"><ele>108.0</ele><time>2026-04-24T18:06:52Z</time></trkpt><trkpt lat="44.490335980672945" lon="0.9182589208421325"><ele>108.0</ele><time>2026-04-24T18:06:54Z</time></trkpt><trkpt lat="44.490420601470404" lon="0.9182537424280731"><ele>108.0</ele><time>2026-04-24T18:07:01Z</time></trkpt><trkpt lat="44.49048593905305" lon="0.9182260292277676"><ele>108.0</ele><time>2026-04-24T18:07:01.999Z</time></trkpt><trkpt lat="44.490593201336864" lon="0.9181990511063334"><ele>108.0</ele><time>2026-04-24T18:07:03.999Z</time></trkpt><trkpt lat="44.49066964384515" lon="0.9181816252936805"><ele>108.0</ele><time>2026-04-24T18:07:05.999Z</time></trkpt><trkpt lat="44.49074970599166" lon="0.9181598478821005"><ele>107.66666666666667</ele><time>2026-04-24T18:07:07.999Z</time></trkpt><trkpt lat="44.49083229210481" lon="0.9181435933880041"><ele>107.33333333333334</ele><time>2026-04-24T18:07:09.999Z</time></trkpt><trkpt lat="44.490921758200045" lon="0.9181137348887459"><ele>107.0</ele><time>2026-04-24T18:07:11.999Z</time></trkpt><trkpt lat="44.4910062853525" lon="0.9181023552713763"><ele>106.66666666666667</ele><time>2026-04-24T18:07:13.999Z</time></trkpt><trkpt lat="44.49108345640514" lon="0.9180860635124314"><ele>106.33333333333334</ele><time>2026-04-24T18:07:15.999Z</time></trkpt><trkpt lat="44.4911509612566" lon="0.9180585482662978"><ele>106.0</ele><time>2026-04-24T18:07:17.999Z</time></trkpt><trkpt lat="44.4912461954345" lon="0.9180231032369692"><ele>105.16666666666667</ele><time>2026-04-24T18:07:19.999Z</time></trkpt><trkpt lat="44.49130684858327" lon="0.9179793989040024"><ele>104.33333333333334</ele><time>2026-04-24T18:07:20.999Z</time></trkpt><trkpt lat="44.49136361324801" lon="0.9179225274304149"><ele>103.5</ele><time>2026-04-24T18:07:21.999Z</time></trkpt><trkpt lat="44.49142054147098" lon="0.917874647048882"><ele>102.66666666666666</ele><time>2026-04-24T18:07:22.999Z</time></trkpt><trkpt lat="44.491484860988514" lon="0.9178063629054218"><ele>101.83333333333333</ele><time>2026-04-24T18:07:23.999Z</time></trkpt><trkpt lat="44.49156755813119" lon="0.9177208779343836"><ele>101.0</ele><time>2026-04-24T18:07:24.999Z</time></trkpt><trkpt lat="44.491651579910275" lon="0.9176125569257897"><ele>102.25</ele><time>2026-04-24T18:07:25.999Z</time></trkpt><trkpt lat="44.491753448079464" lon="0.9174646387049671"><ele>103.5</ele><time>2026-04-24T18:07:26.999Z</time></trkpt><trkpt lat="44.491859926835126" lon="0.9173194755881882"><ele>104.75</ele><time>2026-04-24T18:07:27.999Z</time></trkpt><trkpt lat="44.491971249353455" lon="0.9171795291958512"><ele>106.0</ele><time>2026-04-24T18:07:28.999Z</time></trkpt><trkpt lat="44.49206596254966" lon="0.9170522265303522"><ele>104.6</ele><time>2026-04-24T18:07:29.999Z</time></trkpt><trkpt lat="44.49217888593877" lon="0.9169753414617405"><ele>103.19999999999999</ele><time>2026-04-24T18:07:30.999Z</time></trkpt><trkpt lat="44.49228388282049" lon="0.9168888344241766"><ele>101.80000000000001</ele><time>2026-04-24T18:07:31.999Z</time></trkpt><trkpt lat="44.492371450738425" lon="0.9168236114177457"><ele>100.4</ele><time>2026-04-24T18:07:33Z</time></trkpt><trkpt lat="44.49244575098268" lon="0.9167624779274932"><ele>99.0</ele><time>2026-04-24T18:07:34Z</time></trkpt><trkpt lat="44.49252618821625" lon="0.9167832119835327"><ele>99.0</ele><time>2026-04-24T18:07:35Z</time></trkpt><trkpt lat="44.49261165761049" lon="0.9168236865873713"><ele>99.0</ele><time>2026-04-24T18:07:36Z</time></trkpt><trkpt lat="44.49268402327404" lon="0.9168467938003223"><ele>99.0</ele><time>2026-04-24T18:07:37Z</time></trkpt><trkpt lat="44.492758398010494" lon="0.916857858521021"><ele>99.0</ele><time>2026-04-24T18:07:48Z</time></trkpt><trkpt lat="44.492867448201714" lon="0.9168250595147757"><ele>99.0</ele><time>2026-04-24T18:07:50Z</time></trkpt><trkpt lat="44.49296473732468" lon="0.916791759871368"><ele>99.80000000000001</ele><time>2026-04-24T18:07:52Z</time></trkpt><trkpt lat="44.49303625991958" lon="0.916756955045697"><ele>100.60000000000001</ele><time>2026-04-24T18:07:54Z</time></trkpt><trkpt lat="44.493163613492136" lon="0.9166720909394955"><ele>101.4</ele><time>2026-04-24T18:07:56Z</time></trkpt><trkpt lat="44.49324474864293" lon="0.9165997674921984"><ele>102.2</ele><time>2026-04-24T18:07:57Z</time></trkpt><trkpt lat="44.493328391318755" lon="0.9165136698638675"><ele>103.0</ele><time>2026-04-24T18:07:58Z</time></trkpt><trkpt lat="44.493414663380634" lon="0.9164066752427455"><ele>103.0</ele><time>2026-04-24T18:07:59Z</time></trkpt><trkpt lat="44.49349624252932" lon="0.9162869624174631"><ele>103.0</ele><time>2026-04-24T18:08:00Z</time></trkpt><trkpt lat="44.49359099731308" lon="0.9161772739965192"><ele>103.0</ele><time>2026-04-24T18:08:01Z</time></trkpt><trkpt lat="44.49365806072883" lon="0.9160370154992642"><ele>103.0</ele><time>2026-04-24T18:08:02Z</time></trkpt><trkpt lat="44.49370395291184" lon="0.9159410664028088"><ele>103.0</ele><time>2026-04-24T18:08:03Z</time></trkpt><trkpt lat="44.49374797974583" lon="0.9158477069094403"><ele>103.66666666666667</ele><time>2026-04-24T18:08:04Z</time></trkpt><trkpt lat="44.49379137709052" lon="0.9157726970883391"><ele>104.33333333333334</ele><time>2026-04-24T18:08:05Z</time></trkpt><trkpt lat="44.49386362350928" lon="0.9156600573886248"><ele>105.0</ele><time>2026-04-24T18:08:07Z</time></trkpt><trkpt lat="44.493925521836566" lon="0.9155933218798917"><ele>105.66666666666666</ele><time>2026-04-24T18:08:09Z</time></trkpt><trkpt lat="44.49400775031913" lon="0.9155285711278915"><ele>106.33333333333333</ele><time>2026-04-24T18:08:11Z</time></trkpt><trkpt lat="44.49407400061241" lon="0.9154702452955095"><ele>107.0</ele><time>2026-04-24T18:08:13Z</time></trkpt><trkpt lat="44.49414120157414" lon="0.9154350848529539"><ele>106.99999999999999</ele><time>2026-04-24T18:08:15Z</time></trkpt><trkpt lat="44.49420720624764" lon="0.9153866756645513"><ele>107.0</ele><time>2026-04-24T18:08:16Z</time></trkpt><trkpt lat="44.49427970076239" lon="0.9153185461057571"><ele>107.0</ele><time>2026-04-24T18:08:17Z</time></trkpt><trkpt lat="44.49436626530912" lon="0.9152710521587354"><ele>107.0</ele><time>2026-04-24T18:08:19Z</time></trkpt><trkpt lat="44.49446390136962" lon="0.9152186023085191"><ele>106.99999999999999</ele><time>2026-04-24T18:08:22Z</time></trkpt><trkpt lat="44.49454616000768" lon="0.9151830211027709"><ele>107.0</ele><time>2026-04-24T18:08:23Z</time></trkpt><trkpt lat="44.49464125944931" lon="0.9151239608302923"><ele>106.6</ele><time>2026-04-24T18:08:24Z</time></trkpt><trkpt lat="44.494711919218524" lon="0.9150818141133874"><ele>106.19999999999999</ele><time>2026-04-24T18:08:25Z</time></trkpt><trkpt lat="44.494810548307356" lon="0.915033355248321"><ele>105.8</ele><time>2026-04-24T18:08:27Z</time></trkpt><trkpt lat="44.49493108941713" lon="0.9149726037524609"><ele>105.4</ele><time>2026-04-24T18:08:30Z</time></trkpt><trkpt lat="44.495016428342694" lon="0.9149266296365393"><ele>105.0</ele><time>2026-04-24T18:08:31Z</time></trkpt><trkpt lat="44.495111685775214" lon="0.9148738426349033"><ele>106.0</ele><time>2026-04-24T18:08:32Z</time></trkpt><trkpt lat="44.495222383692756" lon="0.9148172352350376"><ele>107.0</ele><time>2026-04-24T18:08:33Z</time></trkpt><trkpt lat="44.495335691975164" lon="0.9147582347730513"><ele>108.0</ele><time>2026-04-24T18:08:34Z</time></trkpt><trkpt lat="44.49545820368725" lon="0.9146863814019124"><ele>109.0</ele><time>2026-04-24T18:08:35Z</time></trkpt><trkpt lat="44.495588728251825" lon="0.9146118591701952"><ele>110.0</ele><time>2026-04-24T18:08:36Z</time></trkpt><trkpt lat="44.49569392383201" lon="0.9144966582750154"><ele>111.0</ele><time>2026-04-24T18:08:37Z</time></trkpt><trkpt lat="44.495769045346535" lon="0.9143619668237407"><ele>112.0</ele><time>2026-04-24T18:08:38Z</time></trkpt><trkpt lat="44.4958282884336" lon="0.9142565381092602"><ele>113.0</ele><time>2026-04-24T18:08:39Z</time></trkpt><trkpt lat="44.49589443014834" lon="0.9141378875932854"><ele>113.60000000000001</ele><time>2026-04-24T18:08:40Z</time></trkpt><trkpt lat="44.49595694068397" lon="0.9140261844635799"><ele>114.20000000000002</ele><time>2026-04-24T18:08:41Z</time></trkpt><trkpt lat="44.49602571132523" lon="0.9139093102569247"><ele>114.8</ele><time>2026-04-24T18:08:42Z</time></trkpt><trkpt lat="44.49609375732703" lon="0.9138091399301544"><ele>115.4</ele><time>2026-04-24T18:08:43Z</time></trkpt><trkpt lat="44.49616426914274" lon="0.9137104566160856"><ele>116.0</ele><time>2026-04-24T18:08:44Z</time></trkpt><trkpt lat="44.49624595404677" lon="0.9136281066224325"><ele>117.75</ele><time>2026-04-24T18:08:45Z</time></trkpt><trkpt lat="44.49633784513254" lon="0.9135563574100976"><ele>119.5</ele><time>2026-04-24T18:08:46Z</time></trkpt><trkpt lat="44.49645159801938" lon="0.913493596851455"><ele>121.25</ele><time>2026-04-24T18:08:47Z</time></trkpt><trkpt lat="44.4965782860299" lon="0.9134296077594297"><ele>123.0</ele><time>2026-04-24T18:08:48Z</time></trkpt><trkpt lat="44.49670750898524" lon="0.9133763562481184"><ele>123.0</ele><time>2026-04-24T18:08:49Z</time></trkpt><trkpt lat="44.49682770495589" lon="0.9133224752165329"><ele>123.0</ele><time>2026-04-24T18:08:50Z</time></trkpt><trkpt lat="44.49697007246442" lon="0.9132552778720858"><ele>123.0</ele><time>2026-04-24T18:08:51Z</time></trkpt><trkpt lat="44.49708305191973" lon="0.9132177647775512"><ele>123.0</ele><time>2026-04-24T18:08:52Z</time></trkpt><trkpt lat="44.49716989863072" lon="0.9131671211686329"><ele>123.83333333333333</ele><time>2026-04-24T18:08:53Z</time></trkpt><trkpt lat="44.497255338167506" lon="0.9131258917419973"><ele>124.66666666666666</ele><time>2026-04-24T18:08:54Z</time></trkpt><trkpt lat="44.49732801348693" lon="0.9131050557264577"><ele>125.5</ele><time>2026-04-24T18:08:55Z</time></trkpt><trkpt lat="44.49741286484987" lon="0.9130777179574184"><ele>126.33333333333333</ele><time>2026-04-24T18:08:56Z</time></trkpt><trkpt lat="44.49749669192824" lon="0.9130501263142642"><ele>127.16666666666666</ele><time>2026-04-24T18:08:57Z</time></trkpt><trkpt lat="44.497572794559645" lon="0.9130384419933323"><ele>128.0</ele><time>2026-04-24T18:08:58Z</time></trkpt><trkpt lat="44.49766136865126" lon="0.9129984140824946"><ele>128.0</ele><time>2026-04-24T18:08:59Z</time></trkpt><trkpt lat="44.497754751592936" lon="0.9129506777948528"><ele>128.0</ele><time>2026-04-24T18:09:00Z</time></trkpt><trkpt lat="44.49785729205424" lon="0.9129148490168347"><ele>128.0</ele><time>2026-04-24T18:09:01Z</time></trkpt><trkpt lat="44.49796308101324" lon="0.9128918511188296"><ele>128.0</ele><time>2026-04-24T18:09:02Z</time></trkpt><trkpt lat="44.49805950626806" lon="0.9129187712771359"><ele>128.0</ele><time>2026-04-24T18:09:03Z</time></trkpt><trkpt lat="44.49815093023964" lon="0.9129212563095545"><ele>128.33333333333331</ele><time>2026-04-24T18:09:04Z</time></trkpt><trkpt lat="44.49822522164228" lon="0.912934073417104"><ele>128.66666666666666</ele><time>2026-04-24T18:09:05Z</time></trkpt><trkpt lat="44.498327944644046" lon="0.9129384726141"><ele>129.0</ele><time>2026-04-24T18:09:07Z</time></trkpt><trkpt lat="44.498404256174126" lon="0.9129374896905543"><ele>129.33333333333334</ele><time>2026-04-24T18:09:09Z</time></trkpt><trkpt lat="44.498468995358245" lon="0.9129415787889748"><ele>129.66666666666669</ele><time>2026-04-24T18:09:11Z</time></trkpt><trkpt lat="44.498532273977155" lon="0.9129490689891535"><ele>130.0</ele><time>2026-04-24T18:09:13Z</time></trkpt><trkpt lat="44.49862554199913" lon="0.912948756084426"><ele>130.0</ele><time>2026-04-24T18:09:16Z</time></trkpt><trkpt lat="44.49871795799032" lon="0.9129650149739301"><ele>130.0</ele><time>2026-04-24T18:09:19Z</time></trkpt><trkpt lat="44.49881622919426" lon="0.91296961481933"><ele>130.0</ele><time>2026-04-24T18:09:21Z</time></trkpt><trkpt lat="44.49891929105079" lon="0.912987862627576"><ele>130.0</ele><time>2026-04-24T18:09:22.999Z</time></trkpt><trkpt lat="44.499052145546266" lon="0.9129952218968481"><ele>130.0</ele><time>2026-04-24T18:09:24.999Z</time></trkpt><trkpt lat="44.499122123440195" lon="0.9129984524111708"><ele>129.8</ele><time>2026-04-24T18:09:25.999Z</time></trkpt><trkpt lat="44.49918841982218" lon="0.9130048543027431"><ele>129.6</ele><time>2026-04-24T18:09:26.999Z</time></trkpt><trkpt lat="44.49925068132636" lon="0.9130188791634213"><ele>129.4</ele><time>2026-04-24T18:09:27.999Z</time></trkpt><trkpt lat="44.4993628596747" lon="0.9130354090063971"><ele>129.2</ele><time>2026-04-24T18:09:29.999Z</time></trkpt><trkpt lat="44.499419410046904" lon="0.9130769147818462"><ele>129.0</ele><time>2026-04-24T18:10:09Z</time></trkpt><trkpt lat="44.49945223859845" lon="0.9128794742603393"><ele>129.0</ele><time>2026-04-24T18:10:11Z</time></trkpt><trkpt lat="44.49939747668073" lon="0.912795922784056"><ele>129.0</ele><time>2026-04-24T18:10:13Z</time></trkpt><trkpt lat="44.4993416652796" lon="0.9127174577344525"><ele>129.0</ele><time>2026-04-24T18:10:16Z</time></trkpt><trkpt lat="44.49927969721332" lon="0.912622641562275"><ele>129.0</ele><time>2026-04-24T18:10:18Z</time></trkpt><trkpt lat="44.49919402942838" lon="0.9124988461916665"><ele>129.0</ele><time>2026-04-24T18:10:20Z</time></trkpt><trkpt lat="44.499106413000696" lon="0.9123838408791611"><ele>128.99999999999997</ele><time>2026-04-24T18:10:22Z</time></trkpt><trkpt lat="44.49918565023924" lon="0.9124189705012213"><ele>129.0</ele><time>2026-04-24T18:10:27Z</time></trkpt><trkpt lat="44.49921518400379" lon="0.9125178476995"><ele>129.0</ele><time>2026-04-24T18:10:28Z</time></trkpt><trkpt lat="44.49925574406724" lon="0.9126003886372983"><ele>129.0</ele><time>2026-04-24T18:10:29Z</time></trkpt><trkpt lat="44.499303125236025" lon="0.9126587171479752"><ele>129.0</ele><time>2026-04-24T18:10:30Z</time></trkpt><trkpt lat="44.499360723258036" lon="0.9127413917371203"><ele>128.99999999999997</ele><time>2026-04-24T18:10:31Z</time></trkpt><trkpt lat="44.49940553445607" lon="0.9128158703211883"><ele>129.0</ele><time>2026-04-24T18:10:32Z</time></trkpt><trkpt lat="44.49933312307077" lon="0.9127099820336315"><ele>129.0</ele><time>2026-04-24T18:10:42Z</time></trkpt><trkpt lat="44.49927641703798" lon="0.9126113390597187"><ele>129.0</ele><time>2026-04-24T18:10:44Z</time></trkpt><trkpt lat="44.499220899588764" lon="0.9125438516102655"><ele>129.0</ele><time>2026-04-24T18:10:46Z</time></trkpt><trkpt lat="44.49915599950515" lon="0.9124503696703231"><ele>129.0</ele><time>2026-04-24T18:10:48Z</time></trkpt><trkpt lat="44.49910943534333" lon="0.912364732791457"><ele>129.0</ele><time>2026-04-24T18:10:50Z</time></trkpt><trkpt lat="44.499202319131356" lon="0.9125216531308027"><ele>129.0</ele><time>2026-04-24T18:10:54Z</time></trkpt><trkpt lat="44.49927363192808" lon="0.9126721149678744"><ele>129.0</ele><time>2026-04-24T18:10:55Z</time></trkpt><trkpt lat="44.49934468303045" lon="0.9127629078699537"><ele>129.0</ele><time>2026-04-24T18:10:56Z</time></trkpt><trkpt lat="44.49939296071955" lon="0.9128352596789109"><ele>129.0</ele><time>2026-04-24T18:10:57Z</time></trkpt><trkpt lat="44.499425322915265" lon="0.9129210104529265"><ele>129.0</ele><time>2026-04-24T18:11:00Z</time></trkpt><trkpt lat="44.499469984259626" lon="0.9128551561188591"><ele>129.0</ele><time>2026-04-24T18:11:06Z</time></trkpt><trkpt lat="44.49935087357108" lon="0.9129753972647021"><ele>129.0</ele><time>2026-04-24T18:11:08Z</time></trkpt><trkpt lat="44.49928643835898" lon="0.9129394638368263"><ele>129.0</ele><time>2026-04-24T18:11:10Z</time></trkpt><trkpt lat="44.49918755233809" lon="0.9129489248439295"><ele>129.0</ele><time>2026-04-24T18:11:14Z</time></trkpt><trkpt lat="44.49915264830487" lon="0.9124629597857151"><ele>129.0</ele><time>2026-04-24T18:11:16.999Z</time></trkpt><trkpt lat="44.49907909693372" lon="0.9123896183573974"><ele>129.0</ele><time>2026-04-24T18:11:18.999Z</time></trkpt><trkpt lat="44.49914392072059" lon="0.9124000102993257"><ele>129.0</ele><time>2026-04-24T18:11:23.999Z</time></trkpt><trkpt lat="44.49918611538728" lon="0.9124968057111937"><ele>129.0</ele><time>2026-04-24T18:11:24.999Z</time></trkpt><trkpt lat="44.49924321287453" lon="0.9125931994848898"><ele>129.0</ele><time>2026-04-24T18:11:25.999Z</time></trkpt><trkpt lat="44.49930772298375" lon="0.9126759431761076"><ele>129.0</ele><time>2026-04-24T18:11:26.999Z</time></trkpt><trkpt lat="44.499371673126525" lon="0.9127628076726105"><ele>129.0</ele><time>2026-04-24T18:11:27.999Z</time></trkpt><trkpt lat="44.49941494653765" lon="0.9128321981071399"><ele>129.0</ele><time>2026-04-24T18:11:28.999Z</time></trkpt><trkpt lat="44.499322308171415" lon="0.912763661929158"><ele>129.0</ele><time>2026-04-24T18:11:35.999Z</time></trkpt><trkpt lat="44.49928373008161" lon="0.9126815619889832"><ele>129.0</ele><time>2026-04-24T18:11:37.999Z</time></trkpt><trkpt lat="44.49921464607617" lon="0.9125815208082311"><ele>129.0</ele><time>2026-04-24T18:11:39.999Z</time></trkpt><trkpt lat="44.49916783211246" lon="0.912511425816392"><ele>129.0</ele><time>2026-04-24T18:11:41.999Z</time></trkpt><trkpt lat="44.499091260882885" lon="0.912453030975745"><ele>129.0</ele><time>2026-04-24T18:11:43.999Z</time></trkpt><trkpt lat="44.49916685206139" lon="0.9124835102037567"><ele>129.0</ele><time>2026-04-24T18:11:45.999Z</time></trkpt><trkpt lat="44.49922529789259" lon="0.9125653030667819"><ele>129.0</ele><time>2026-04-24T18:11:46.999Z</time></trkpt><trkpt lat="44.499266258840514" lon="0.9126989621480694"><ele>129.0</ele><time>2026-04-24T18:11:47.999Z</time></trkpt><trkpt lat="44.49934301850812" lon="0.9128221545156866"><ele>129.0</ele><time>2026-04-24T18:11:48.999Z</time></trkpt><trkpt lat="44.49944373287682" lon="0.9129366615790241"><ele>129.0</ele><time>2026-04-24T18:11:49.999Z</time></trkpt><trkpt lat="44.49950749088444" lon="0.9131483800708173"><ele>129.0</ele><time>2026-04-24T18:11:50.999Z</time></trkpt><trkpt lat="44.49960247425392" lon="0.9132771466385275"><ele>129.0</ele><time>2026-04-24T18:11:51.999Z</time></trkpt><trkpt lat="44.499700946038296" lon="0.9134426883690911"><ele>128.6</ele><time>2026-04-24T18:11:52.999Z</time></trkpt><trkpt lat="44.49979416433667" lon="0.9135853723765246"><ele>128.2</ele><time>2026-04-24T18:11:53.999Z</time></trkpt><trkpt lat="44.49986623622947" lon="0.9136770774767015"><ele>127.79999999999998</ele><time>2026-04-24T18:11:54.999Z</time></trkpt><trkpt lat="44.49993873797537" lon="0.9137443477937144"><ele>127.39999999999999</ele><time>2026-04-24T18:11:55.999Z</time></trkpt><trkpt lat="44.500014298103686" lon="0.9138160218587634"><ele>127.0</ele><time>2026-04-24T18:11:58Z</time></trkpt><trkpt lat="44.49994299729936" lon="0.9137658103596571"><ele>127.0</ele><time>2026-04-24T18:12:03Z</time></trkpt><trkpt lat="44.49991369050663" lon="0.913536567205782"><ele>127.0</ele><time>2026-04-24T18:12:04Z</time></trkpt><trkpt lat="44.49982524663798" lon="0.9134290544507638"><ele>127.0</ele><time>2026-04-24T18:12:05Z</time></trkpt><trkpt lat="44.49974426053544" lon="0.9133032669911968"><ele>127.0</ele><time>2026-04-24T18:12:06Z</time></trkpt><trkpt lat="44.49962684322742" lon="0.9132118566479601"><ele>127.39999999999999</ele><time>2026-04-24T18:12:07Z</time></trkpt><trkpt lat="44.499545217282495" lon="0.9131020129907583"><ele>127.79999999999998</ele><time>2026-04-24T18:12:08Z</time></trkpt><trkpt lat="44.49945582803303" lon="0.9130220562766004"><ele>128.2</ele><time>2026-04-24T18:12:09Z</time></trkpt><trkpt lat="44.49935301422176" lon="0.912951609018337"><ele>128.6</ele><time>2026-04-24T18:12:10Z</time></trkpt><trkpt lat="44.499267942544854" lon="0.9129307786703743"><ele>129.0</ele><time>2026-04-24T18:12:11Z</time></trkpt><trkpt lat="44.499191343809706" lon="0.9129447123516756"><ele>129.0</ele><time>2026-04-24T18:12:13Z</time></trkpt><trkpt lat="44.499091320194445" lon="0.9129283954055863"><ele>129.0</ele><time>2026-04-24T18:12:17Z</time></trkpt><trkpt lat="44.49898160261101" lon="0.9129170569338999"><ele>129.0</ele><time>2026-04-24T18:12:19Z</time></trkpt><trkpt lat="44.49910717108604" lon="0.9122750617468263"><ele>129.0</ele><time>2026-04-24T18:12:24Z</time></trkpt><trkpt lat="44.49916580306335" lon="0.9123377302032555"><ele>129.0</ele><time>2026-04-24T18:12:25Z</time></trkpt><trkpt lat="44.49923201289267" lon="0.9124330342089908"><ele>129.0</ele><time>2026-04-24T18:12:26Z</time></trkpt><trkpt lat="44.49931309641285" lon="0.9125439236291141"><ele>129.0</ele><time>2026-04-24T18:12:27Z</time></trkpt><trkpt lat="44.49938894856162" lon="0.9126696201514353"><ele>129.0</ele><time>2026-04-24T18:12:28Z</time></trkpt><trkpt lat="44.499446690847094" lon="0.9127421813242845"><ele>129.0</ele><time>2026-04-24T18:12:29Z</time></trkpt><trkpt lat="44.49938977269125" lon="0.9128378738742741"><ele>129.0</ele><time>2026-04-24T18:12:32Z</time></trkpt><trkpt lat="44.49936081369821" lon="0.9127431507958095"><ele>129.0</ele><time>2026-04-24T18:12:41Z</time></trkpt><trkpt lat="44.49928928524692" lon="0.9126346856339216"><ele>129.0</ele><time>2026-04-24T18:12:44Z</time></trkpt><trkpt lat="44.49921887734825" lon="0.9125253090227091"><ele>129.0</ele><time>2026-04-24T18:12:46Z</time></trkpt><trkpt lat="44.49915283120588" lon="0.912426935313067"><ele>129.0</ele><time>2026-04-24T18:12:48Z</time></trkpt><trkpt lat="44.49908383660994" lon="0.9123450768379265"><ele>129.0</ele><time>2026-04-24T18:12:50Z</time></trkpt><trkpt lat="44.49914685096908" lon="0.9122678016707743"><ele>129.0</ele><time>2026-04-24T18:13:10.999Z</time></trkpt><trkpt lat="44.49910629834423" lon="0.9123720882483191"><ele>129.0</ele><time>2026-04-24T18:13:16.999Z</time></trkpt><trkpt lat="44.49918098245109" lon="0.9124951440776332"><ele>129.0</ele><time>2026-04-24T18:18:05.001Z</time></trkpt><trkpt lat="44.499232540239326" lon="0.9125976625620008"><ele>129.0</ele><time>2026-04-24T18:18:06.001Z</time></trkpt><trkpt lat="44.49933977343608" lon="0.9127273382688771"><ele>129.0</ele><time>2026-04-24T18:18:08.001Z</time></trkpt><trkpt lat="44.49938903431402" lon="0.9128527331499823"><ele>129.0</ele><time>2026-04-24T18:18:10.001Z</time></trkpt><trkpt lat="44.49936279381092" lon="0.9127575787936318"><ele>129.0</ele><time>2026-04-24T18:18:16.001Z</time></trkpt><trkpt lat="44.499305288940526" lon="0.9126527600746677"><ele>129.0</ele><time>2026-04-24T18:18:19Z</time></trkpt><trkpt lat="44.49923914298374" lon="0.912529348442787"><ele>129.5</ele><time>2026-04-24T18:18:21Z</time></trkpt><trkpt lat="44.49917283084611" lon="0.9124713393741641"><ele>130.0</ele><time>2026-04-24T18:18:23Z</time></trkpt><trkpt lat="44.4991303801709" lon="0.9123927536770172"><ele>130.5</ele><time>2026-04-24T18:18:25Z</time></trkpt><trkpt lat="44.49905603787414" lon="0.9123106981033504"><ele>131.0</ele><time>2026-04-24T18:18:27Z</time></trkpt><trkpt lat="44.49914625990063" lon="0.91231603667793"><ele>131.5</ele><time>2026-04-24T18:18:31Z</time></trkpt><trkpt lat="44.49917516916796" lon="0.912407490327309"><ele>132.0</ele><time>2026-04-24T18:18:48Z</time></trkpt><trkpt lat="44.499228652490416" lon="0.9125063233909494"><ele>131.4</ele><time>2026-04-24T18:18:49Z</time></trkpt><trkpt lat="44.499311074194765" lon="0.9126353721678903"><ele>130.79999999999998</ele><time>2026-04-24T18:18:50Z</time></trkpt><trkpt lat="44.49936775485393" lon="0.912726135930589"><ele>130.2</ele><time>2026-04-24T18:18:51Z</time></trkpt><trkpt lat="44.49942049654503" lon="0.9127941063185998"><ele>129.6</ele><time>2026-04-24T18:18:52Z</time></trkpt><trkpt lat="44.49935403638552" lon="0.9127136133564206"><ele>129.0</ele><time>2026-04-24T18:18:59Z</time></trkpt><trkpt lat="44.49930128784628" lon="0.9126283918446855"><ele>129.5</ele><time>2026-04-24T18:19:01Z</time></trkpt><trkpt lat="44.49924246968066" lon="0.9125240590734275"><ele>130.0</ele><time>2026-04-24T18:19:03Z</time></trkpt><trkpt lat="44.499191101182085" lon="0.9124346035957259"><ele>130.5</ele><time>2026-04-24T18:19:05Z</time></trkpt><trkpt lat="44.49909804104595" lon="0.9123619930426851"><ele>131.0</ele><time>2026-04-24T18:19:07Z</time></trkpt><trkpt lat="44.499067178743566" lon="0.9122351921737868"><ele>131.5</ele><time>2026-04-24T18:19:09Z</time></trkpt><trkpt lat="44.499120588105384" lon="0.9121727911410734"><ele>132.0</ele><time>2026-04-24T18:19:11Z</time></trkpt><trkpt lat="44.499151262816646" lon="0.9122858664029848"><ele>132.0</ele><time>2026-04-24T18:19:13Z</time></trkpt><trkpt lat="44.499205705382046" lon="0.9123637255075631"><ele>132.0</ele><time>2026-04-24T18:19:16Z</time></trkpt><trkpt lat="44.4992504739059" lon="0.9124398768973169"><ele>132.0</ele><time>2026-04-24T18:19:17Z</time></trkpt><trkpt lat="44.499320007210976" lon="0.9125323026445997"><ele>132.0</ele><time>2026-04-24T18:19:18Z</time></trkpt><trkpt lat="44.499390559596506" lon="0.9126284821723631"><ele>132.0</ele><time>2026-04-24T18:19:19Z</time></trkpt><trkpt lat="44.49945058120272" lon="0.912714553097606"><ele>132.0</ele><time>2026-04-24T18:19:20Z</time></trkpt><trkpt lat="44.49949812509661" lon="0.9127825677608179"><ele>132.0</ele><time>2026-04-24T18:19:21Z</time></trkpt><trkpt lat="44.49950829949352" lon="0.9128773153436905"><ele>132.0</ele><time>2026-04-24T18:19:25Z</time></trkpt><trkpt lat="44.49942526465469" lon="0.9128911757082073"><ele>132.0</ele><time>2026-04-24T18:19:28Z</time></trkpt><trkpt lat="44.4993715998321" lon="0.9128160448905094"><ele>132.0</ele><time>2026-04-24T18:19:30Z</time></trkpt><trkpt lat="44.49932639116762" lon="0.9127146608216969"><ele>132.0</ele><time>2026-04-24T18:19:33Z</time></trkpt><trkpt lat="44.49926513467884" lon="0.9126194279667652"><ele>132.0</ele><time>2026-04-24T18:19:35Z</time></trkpt><trkpt lat="44.49918779968402" lon="0.912499559611275"><ele>132.0</ele><time>2026-04-24T18:19:36.999Z</time></trkpt><trkpt lat="44.49912349957949" lon="0.9124629831162059"><ele>132.0</ele><time>2026-04-24T18:19:37.999Z</time></trkpt><trkpt lat="44.49911274465796" lon="0.9123187216672936"><ele>132.0</ele><time>2026-04-24T18:19:39.999Z</time></trkpt><trkpt lat="44.499172594767366" lon="0.9124416665375009"><ele>132.0</ele><time>2026-04-24T18:19:43.999Z</time></trkpt><trkpt lat="44.4992389838934" lon="0.912522263296418"><ele>132.0</ele><time>2026-04-24T18:19:44.999Z</time></trkpt><trkpt lat="44.49929910750026" lon="0.9126468151422213"><ele>131.4</ele><time>2026-04-24T18:19:45.999Z</time></trkpt><trkpt lat="44.49935861210879" lon="0.9127615307096998"><ele>130.79999999999998</ele><time>2026-04-24T18:19:46.999Z</time></trkpt><trkpt lat="44.49940647005491" lon="0.9128884881144708"><ele>130.2</ele><time>2026-04-24T18:19:47.999Z</time></trkpt><trkpt lat="44.499447499331396" lon="0.9129562210459112"><ele>129.6</ele><time>2026-04-24T18:19:48.999Z</time></trkpt><trkpt lat="44.499540683898665" lon="0.9129911875247999"><ele>129.0</ele><time>2026-04-24T18:19:50.999Z</time></trkpt><trkpt lat="44.49951164468632" lon="0.9131557000870699"><ele>129.0</ele><time>2026-04-24T18:19:51.999Z</time></trkpt><trkpt lat="44.499572763846174" lon="0.9132185143858346"><ele>129.0</ele><time>2026-04-24T18:19:53.999Z</time></trkpt><trkpt lat="44.49963153835464" lon="0.9133246911203721"><ele>129.0</ele><time>2026-04-24T18:20:22Z</time></trkpt><trkpt lat="44.49969447914565" lon="0.9134302579117768"><ele>129.0</ele><time>2026-04-24T18:20:23Z</time></trkpt><trkpt lat="44.49978549723534" lon="0.9135739344802877"><ele>129.0</ele><time>2026-04-24T18:20:24Z</time></trkpt><trkpt lat="44.499876857611426" lon="0.9136900647598238"><ele>128.6</ele><time>2026-04-24T18:20:25Z</time></trkpt><trkpt lat="44.49998191639901" lon="0.9137853054755117"><ele>128.2</ele><time>2026-04-24T18:20:26Z</time></trkpt><trkpt lat="44.50007659546507" lon="0.9138467573749534"><ele>127.79999999999998</ele><time>2026-04-24T18:20:27Z</time></trkpt><trkpt lat="44.50017079889945" lon="0.9138718789915867"><ele>127.39999999999999</ele><time>2026-04-24T18:20:28Z</time></trkpt><trkpt lat="44.50026303045624" lon="0.9138870758325699"><ele>127.0</ele><time>2026-04-24T18:20:29Z</time></trkpt><trkpt lat="44.50036989270013" lon="0.9138849385614717"><ele>127.19999999999999</ele><time>2026-04-24T18:20:30Z</time></trkpt><trkpt lat="44.50046893849558" lon="0.9138839245455985"><ele>127.39999999999999</ele><time>2026-04-24T18:20:31Z</time></trkpt><trkpt lat="44.50056634279195" lon="0.9138797603897318"><ele>127.60000000000001</ele><time>2026-04-24T18:20:32Z</time></trkpt><trkpt lat="44.50065739098733" lon="0.9138690731756697"><ele>127.80000000000001</ele><time>2026-04-24T18:20:33Z</time></trkpt><trkpt lat="44.50074355816616" lon="0.9138539748907153"><ele>128.0</ele><time>2026-04-24T18:20:34Z</time></trkpt><trkpt lat="44.500834240156294" lon="0.9138204551985014"><ele>128.0</ele><time>2026-04-24T18:20:35Z</time></trkpt><trkpt lat="44.500921701636784" lon="0.9137777827706106"><ele>128.0</ele><time>2026-04-24T18:20:36Z</time></trkpt><trkpt lat="44.50089428307643" lon="0.9129957504865353"><ele>127.99999999999999</ele><time>2026-04-24T18:20:37Z</time></trkpt><trkpt lat="44.500943056914124" lon="0.9128742288476385"><ele>128.0</ele><time>2026-04-24T18:20:38Z</time></trkpt><trkpt lat="44.500987584926364" lon="0.9127721167625071"><ele>128.0</ele><time>2026-04-24T18:20:39Z</time></trkpt><trkpt lat="44.501018467568876" lon="0.912688248315813"><ele>128.0</ele><time>2026-04-24T18:20:40Z</time></trkpt><trkpt lat="44.50110009922975" lon="0.9126326813903257"><ele>127.99999999999999</ele><time>2026-04-24T18:20:42Z</time></trkpt><trkpt lat="44.50113674475317" lon="0.9127532706700283"><ele>128.0</ele><time>2026-04-24T18:20:44Z</time></trkpt><trkpt lat="44.501102817777664" lon="0.9128426359037703"><ele>128.0</ele><time>2026-04-24T18:20:45Z</time></trkpt><trkpt lat="44.50105629320609" lon="0.9129069803662241"><ele>127.99999999999999</ele><time>2026-04-24T18:20:46Z</time></trkpt><trkpt lat="44.50100538038469" lon="0.9129806356946956"><ele>128.0</ele><time>2026-04-24T18:20:47Z</time></trkpt><trkpt lat="44.50097329221417" lon="0.9130791598833302"><ele>128.0</ele><time>2026-04-24T18:20:48Z</time></trkpt><trkpt lat="44.50094863940109" lon="0.9131840332823817"><ele>127.99999999999999</ele><time>2026-04-24T18:20:49Z</time></trkpt><trkpt lat="44.50092274015184" lon="0.9132849328856841"><ele>128.0</ele><time>2026-04-24T18:20:50Z</time></trkpt><trkpt lat="44.500886911472456" lon="0.913375192504363"><ele>128.0</ele><time>2026-04-24T18:20:51Z</time></trkpt><trkpt lat="44.5008636344265" lon="0.913459678837887"><ele>127.99999999999999</ele><time>2026-04-24T18:20:52Z</time></trkpt><trkpt lat="44.50085228265355" lon="0.9136191352388758"><ele>128.0</ele><time>2026-04-24T18:20:54Z</time></trkpt><trkpt lat="44.5008938387926" lon="0.9137339192267208"><ele>128.0</ele><time>2026-04-24T18:20:56Z</time></trkpt><trkpt lat="44.50097740866077" lon="0.9137369694293692"><ele>128.0</ele><time>2026-04-24T18:20:58Z</time></trkpt><trkpt lat="44.50103649485735" lon="0.9136876107454704"><ele>127.99999999999999</ele><time>2026-04-24T18:21:12Z</time></trkpt><trkpt lat="44.501093564825126" lon="0.9137639871290332"><ele>128.0</ele><time>2026-04-24T18:21:14Z</time></trkpt><trkpt lat="44.50116001069868" lon="0.9137460838062129"><ele>127.99999999999999</ele><time>2026-04-24T18:21:17Z</time></trkpt><trkpt lat="44.50124353690676" lon="0.9137145685384748"><ele>128.0</ele><time>2026-04-24T18:21:22Z</time></trkpt><trkpt lat="44.501312528555374" lon="0.9136768517262238"><ele>128.0</ele><time>2026-04-24T18:21:24Z</time></trkpt><trkpt lat="44.50137405215608" lon="0.9136413596747156"><ele>128.0</ele><time>2026-04-24T18:21:26Z</time></trkpt><trkpt lat="44.50146850281741" lon="0.9135891769527542"><ele>127.99999999999999</ele><time>2026-04-24T18:21:28Z</time></trkpt><trkpt lat="44.501532889824965" lon="0.9135213237202585"><ele>128.0</ele><time>2026-04-24T18:21:29Z</time></trkpt><trkpt lat="44.50158559794282" lon="0.9134395117167191"><ele>128.83333333333331</ele><time>2026-04-24T18:21:30Z</time></trkpt><trkpt lat="44.50165560401632" lon="0.9133278169035182"><ele>129.66666666666666</ele><time>2026-04-24T18:21:32Z</time></trkpt><trkpt lat="44.5017012794774" lon="0.9132603037929149"><ele>130.5</ele><time>2026-04-24T18:21:33.999Z</time></trkpt><trkpt lat="44.50176036665606" lon="0.9131608939691366"><ele>131.33333333333334</ele><time>2026-04-24T18:21:49.999Z</time></trkpt><trkpt lat="44.50181433699549" lon="0.9130673320949382"><ele>132.16666666666669</ele><time>2026-04-24T18:21:51.999Z</time></trkpt><trkpt lat="44.50185935247751" lon="0.9129876317931298"><ele>133.0</ele><time>2026-04-24T18:21:52.999Z</time></trkpt><trkpt lat="44.50191599727539" lon="0.9129208894315382"><ele>133.0</ele><time>2026-04-24T18:21:53.999Z</time></trkpt><trkpt lat="44.50195149264096" lon="0.9128365087128357"><ele>133.0</ele><time>2026-04-24T18:21:54.999Z</time></trkpt><trkpt lat="44.50200376644779" lon="0.912759793213034"><ele>133.0</ele><time>2026-04-24T18:21:55.999Z</time></trkpt><trkpt lat="44.50205850825" lon="0.9126744667565457"><ele>133.0</ele><time>2026-04-24T18:21:56.999Z</time></trkpt><trkpt lat="44.50211012027552" lon="0.9125902820271201"><ele>133.0</ele><time>2026-04-24T18:21:57.999Z</time></trkpt><trkpt lat="44.50215339477921" lon="0.9125023661615309"><ele>133.0</ele><time>2026-04-24T18:21:58.999Z</time></trkpt><trkpt lat="44.502197592401046" lon="0.9124166830089993"><ele>134.16666666666669</ele><time>2026-04-24T18:21:59.999Z</time></trkpt><trkpt lat="44.50223556421242" lon="0.9123384935063168"><ele>135.33333333333334</ele><time>2026-04-24T18:22:00.999Z</time></trkpt><trkpt lat="44.502290003598496" lon="0.9122090031689978"><ele>136.5</ele><time>2026-04-24T18:22:02.999Z</time></trkpt><trkpt lat="44.5023254629978" lon="0.9121043996477515"><ele>137.66666666666666</ele><time>2026-04-24T18:22:04.999Z</time></trkpt><trkpt lat="44.50236551656548" lon="0.9120161214321356"><ele>138.83333333333331</ele><time>2026-04-24T18:22:06.999Z</time></trkpt><trkpt lat="44.50239566888565" lon="0.9119228747537667"><ele>140.0</ele><time>2026-04-24T18:22:09.999Z</time></trkpt><trkpt lat="44.502455246374055" lon="0.9117920493139214"><ele>140.33333333333331</ele><time>2026-04-24T18:22:12.999Z</time></trkpt><trkpt lat="44.502510382843305" lon="0.9116519076048734"><ele>140.66666666666666</ele><time>2026-04-24T18:22:15Z</time></trkpt><trkpt lat="44.5025461093021" lon="0.9115727254187295"><ele>141.0</ele><time>2026-04-24T18:22:16Z</time></trkpt><trkpt lat="44.50258754719865" lon="0.9114857368896254"><ele>141.33333333333334</ele><time>2026-04-24T18:22:17Z</time></trkpt><trkpt lat="44.50262800455141" lon="0.911400364941803"><ele>141.66666666666669</ele><time>2026-04-24T18:22:18Z</time></trkpt><trkpt lat="44.50267691034622" lon="0.9113216781196812"><ele>142.0</ele><time>2026-04-24T18:22:19Z</time></trkpt><trkpt lat="44.502725288475105" lon="0.9112417284849395"><ele>142.0</ele><time>2026-04-24T18:22:20Z</time></trkpt><trkpt lat="44.50278657469516" lon="0.9111078154847289"><ele>142.0</ele><time>2026-04-24T18:22:22Z</time></trkpt><trkpt lat="44.502855573754154" lon="0.910956452919207"><ele>142.0</ele><time>2026-04-24T18:22:24Z</time></trkpt><trkpt lat="44.50292686342191" lon="0.9108347416850352"><ele>142.0</ele><time>2026-04-24T18:22:26Z</time></trkpt><trkpt lat="44.50302604751106" lon="0.9109662144509977"><ele>142.4</ele><time>2026-04-24T18:22:29Z</time></trkpt><trkpt lat="44.5030990074705" lon="0.9110731843737947"><ele>142.79999999999998</ele><time>2026-04-24T18:22:31Z</time></trkpt><trkpt lat="44.50318670522685" lon="0.9112027174916523"><ele>143.2</ele><time>2026-04-24T18:22:33Z</time></trkpt><trkpt lat="44.50323527653492" lon="0.9112744591821514"><ele>143.6</ele><time>2026-04-24T18:22:34Z</time></trkpt><trkpt lat="44.503287287136324" lon="0.9113512809058356"><ele>144.0</ele><time>2026-04-24T18:22:35Z</time></trkpt><trkpt lat="44.503340329083315" lon="0.9114296260057574"><ele>144.0</ele><time>2026-04-24T18:22:36Z</time></trkpt><trkpt lat="44.503430520837846" lon="0.9115560554332944"><ele>144.0</ele><time>2026-04-24T18:22:38Z</time></trkpt><trkpt lat="44.503493874027825" lon="0.9116342357142783"><ele>144.0</ele><time>2026-04-24T18:22:39Z</time></trkpt><trkpt lat="44.50356806761591" lon="0.9117435408384177"><ele>144.0</ele><time>2026-04-24T18:22:40Z</time></trkpt><trkpt lat="44.503648217599796" lon="0.9118661592854835"><ele>144.0</ele><time>2026-04-24T18:22:41Z</time></trkpt><trkpt lat="44.503739442979004" lon="0.9120019056098789"><ele>145.75</ele><time>2026-04-24T18:22:42Z</time></trkpt><trkpt lat="44.503811687685676" lon="0.9121468257428723"><ele>147.5</ele><time>2026-04-24T18:22:43Z</time></trkpt><trkpt lat="44.50389666435898" lon="0.9122911873530946"><ele>149.25</ele><time>2026-04-24T18:22:44Z</time></trkpt><trkpt lat="44.503932846771995" lon="0.9124385835269244"><ele>151.0</ele><time>2026-04-24T18:22:45Z</time></trkpt><trkpt lat="44.50397960026272" lon="0.9125606770460959"><ele>152.0</ele><time>2026-04-24T18:22:46Z</time></trkpt><trkpt lat="44.50403606379033" lon="0.9126973945298469"><ele>153.0</ele><time>2026-04-24T18:22:47Z</time></trkpt><trkpt lat="44.5040720828987" lon="0.9128391786926615"><ele>154.0</ele><time>2026-04-24T18:22:48Z</time></trkpt><trkpt lat="44.50409042552553" lon="0.9129527581886822"><ele>155.0</ele><time>2026-04-24T18:22:49Z</time></trkpt><trkpt lat="44.50407341910488" lon="0.9130428807393975"><ele>156.0</ele><time>2026-04-24T18:22:51Z</time></trkpt><trkpt lat="44.504088837439404" lon="0.913175741324676"><ele>156.0</ele><time>2026-04-24T18:23:21.999Z</time></trkpt><trkpt lat="44.504119499128045" lon="0.9132799093361131"><ele>156.0</ele><time>2026-04-24T18:23:23.999Z</time></trkpt><trkpt lat="44.504125016344" lon="0.9134329500989667"><ele>156.0</ele><time>2026-04-24T18:23:25.999Z</time></trkpt><trkpt lat="44.50413537993191" lon="0.9135672236989816"><ele>156.0</ele><time>2026-04-24T18:23:26.999Z</time></trkpt><trkpt lat="44.5041312056747" lon="0.913678144964449"><ele>156.0</ele><time>2026-04-24T18:23:27.999Z</time></trkpt><trkpt lat="44.50415536974394" lon="0.9137839826633491"><ele>156.0</ele><time>2026-04-24T18:23:28.999Z</time></trkpt><trkpt lat="44.504166535430414" lon="0.9138800351650918"><ele>156.5</ele><time>2026-04-24T18:23:29.999Z</time></trkpt><trkpt lat="44.5041840848068" lon="0.9140128112898627"><ele>157.0</ele><time>2026-04-24T18:23:30.999Z</time></trkpt><trkpt lat="44.50419349122427" lon="0.9141122521776054"><ele>157.5</ele><time>2026-04-24T18:23:31.999Z</time></trkpt><trkpt lat="44.50418581417355" lon="0.9142050830810476"><ele>158.0</ele><time>2026-04-24T18:23:32.999Z</time></trkpt><trkpt lat="44.50419387372561" lon="0.9142984273123966"><ele>158.5</ele><time>2026-04-24T18:23:33.999Z</time></trkpt><trkpt lat="44.50421747735006" lon="0.9144000778065224"><ele>159.0</ele><time>2026-04-24T18:23:34.999Z</time></trkpt><trkpt lat="44.50422398126791" lon="0.9145035312856364"><ele>159.16666666666666</ele><time>2026-04-24T18:23:35.999Z</time></trkpt><trkpt lat="44.50423227052792" lon="0.9146030308196759"><ele>159.33333333333334</ele><time>2026-04-24T18:23:36.999Z</time></trkpt><trkpt lat="44.50424156465861" lon="0.9147177424427372"><ele>159.5</ele><time>2026-04-24T18:23:37.999Z</time></trkpt><trkpt lat="44.50423722183711" lon="0.9148390523705012"><ele>159.66666666666669</ele><time>2026-04-24T18:23:38.999Z</time></trkpt><trkpt lat="44.50424853851702" lon="0.9149691061526264"><ele>159.83333333333334</ele><time>2026-04-24T18:23:39.999Z</time></trkpt><trkpt lat="44.504275838104554" lon="0.9150953788530914"><ele>160.0</ele><time>2026-04-24T18:23:40.999Z</time></trkpt><trkpt lat="44.50428471115162" lon="0.9152268526715743"><ele>159.6</ele><time>2026-04-24T18:23:41.999Z</time></trkpt><trkpt lat="44.50428968815428" lon="0.915358446700393"><ele>159.2</ele><time>2026-04-24T18:23:42.999Z</time></trkpt><trkpt lat="44.504303631145824" lon="0.9154786784470745"><ele>158.8</ele><time>2026-04-24T18:23:43.999Z</time></trkpt><trkpt lat="44.50430306650798" lon="0.9156148902572968"><ele>158.4</ele><time>2026-04-24T18:23:44.999Z</time></trkpt><trkpt lat="44.50432235977733" lon="0.9157489996620565"><ele>158.0</ele><time>2026-04-24T18:23:45.999Z</time></trkpt><trkpt lat="44.50433631988364" lon="0.9158860312109248"><ele>157.20000000000002</ele><time>2026-04-24T18:23:46.999Z</time></trkpt><trkpt lat="44.50434009478196" lon="0.9160314728978376"><ele>156.4</ele><time>2026-04-24T18:23:47.999Z</time></trkpt><trkpt lat="44.50434974038237" lon="0.9161653159089441"><ele>155.60000000000002</ele><time>2026-04-24T18:23:48.999Z</time></trkpt><trkpt lat="44.50435447352752" lon="0.9162966743310483"><ele>154.8</ele><time>2026-04-24T18:23:49.999Z</time></trkpt><trkpt lat="44.504363007959874" lon="0.9164166211328233"><ele>154.0</ele><time>2026-04-24T18:23:50.999Z</time></trkpt><trkpt lat="44.504379607822095" lon="0.916528790065235"><ele>154.0</ele><time>2026-04-24T18:23:51.999Z</time></trkpt><trkpt lat="44.50439815856067" lon="0.9166547262852928"><ele>154.0</ele><time>2026-04-24T18:23:52.999Z</time></trkpt><trkpt lat="44.50440690545643" lon="0.9167753411538807"><ele>154.0</ele><time>2026-04-24T18:23:53.999Z</time></trkpt><trkpt lat="44.5044133772359" lon="0.9168903623224138"><ele>154.0</ele><time>2026-04-24T18:23:54.999Z</time></trkpt><trkpt lat="44.50441762180572" lon="0.9169979945385857"><ele>154.0</ele><time>2026-04-24T18:23:55.999Z</time></trkpt><trkpt lat="44.504417154889005" lon="0.9170932920316093"><ele>154.0</ele><time>2026-04-24T18:23:56.999Z</time></trkpt><trkpt lat="44.50439389962091" lon="0.9172532512334884"><ele>153.8</ele><time>2026-04-24T18:23:58.999Z</time></trkpt><trkpt lat="44.50457918648434" lon="0.917201912031338"><ele>153.60000000000002</ele><time>2026-04-24T18:24:26Z</time></trkpt><trkpt lat="44.50463441610471" lon="0.9171441645751542"><ele>153.4</ele><time>2026-04-24T18:24:27Z</time></trkpt><trkpt lat="44.504685623889145" lon="0.917082831870417"><ele>153.20000000000002</ele><time>2026-04-24T18:24:28Z</time></trkpt><trkpt lat="44.50475140652092" lon="0.9169973446096416"><ele>153.0</ele><time>2026-04-24T18:24:29Z</time></trkpt><trkpt lat="44.50481202648191" lon="0.916910281459836"><ele>153.25</ele><time>2026-04-24T18:24:30Z</time></trkpt><trkpt lat="44.50489664062246" lon="0.9167769359958157"><ele>153.5</ele><time>2026-04-24T18:24:32Z</time></trkpt><trkpt lat="44.504963451094724" lon="0.9166278864995716"><ele>153.75</ele><time>2026-04-24T18:24:34Z</time></trkpt><trkpt lat="44.50513697724394" lon="0.9167059713229735"><ele>154.0</ele><time>2026-04-24T18:24:38Z</time></trkpt><trkpt lat="44.505215191533956" lon="0.9167741467748199"><ele>152.5</ele><time>2026-04-24T18:24:39Z</time></trkpt><trkpt lat="44.50531791793672" lon="0.9168605814017502"><ele>151.0</ele><time>2026-04-24T18:24:40Z</time></trkpt><trkpt lat="44.5054348885937" lon="0.9169535573362542"><ele>149.5</ele><time>2026-04-24T18:24:41Z</time></trkpt><trkpt lat="44.50555169501304" lon="0.9170598442687632"><ele>148.0</ele><time>2026-04-24T18:24:42Z</time></trkpt><trkpt lat="44.50569037182598" lon="0.917164375746437"><ele>147.25</ele><time>2026-04-24T18:24:43Z</time></trkpt><trkpt lat="44.50582751850909" lon="0.917258136774279"><ele>146.5</ele><time>2026-04-24T18:24:44Z</time></trkpt><trkpt lat="44.50595603902207" lon="0.9173568739088974"><ele>145.75</ele><time>2026-04-24T18:24:45Z</time></trkpt><trkpt lat="44.506054674454326" lon="0.9174274312432795"><ele>145.0</ele><time>2026-04-24T18:24:46Z</time></trkpt><trkpt lat="44.506153142559796" lon="0.9174978716435228"><ele>145.0</ele><time>2026-04-24T18:24:47Z</time></trkpt><trkpt lat="44.506234229994746" lon="0.917494848909671"><ele>145.0</ele><time>2026-04-24T18:24:48Z</time></trkpt><trkpt lat="44.506327033550285" lon="0.9174300597367004"><ele>145.0</ele><time>2026-04-24T18:24:49Z</time></trkpt><trkpt lat="44.50642989395727" lon="0.9174516780596801"><ele>145.0</ele><time>2026-04-24T18:24:50Z</time></trkpt><trkpt lat="44.50653194857107" lon="0.9174867355368693"><ele>145.0</ele><time>2026-04-24T18:24:51Z</time></trkpt><trkpt lat="44.50663392053156" lon="0.9175123535544479"><ele>144.2</ele><time>2026-04-24T18:24:52Z</time></trkpt><trkpt lat="44.506737082905" lon="0.9175429945222957"><ele>143.4</ele><time>2026-04-24T18:24:53Z</time></trkpt><trkpt lat="44.50683534934957" lon="0.9175933497736872"><ele>142.6</ele><time>2026-04-24T18:24:54Z</time></trkpt><trkpt lat="44.50693758271084" lon="0.9176327814407116"><ele>141.8</ele><time>2026-04-24T18:24:55Z</time></trkpt><trkpt lat="44.50702707070084" lon="0.9176792054685522"><ele>141.0</ele><time>2026-04-24T18:24:56Z</time></trkpt><trkpt lat="44.50708452750349" lon="0.9177616575536438"><ele>139.8</ele><time>2026-04-24T18:24:57Z</time></trkpt><trkpt lat="44.507134234784644" lon="0.9178784532918842"><ele>138.6</ele><time>2026-04-24T18:24:58Z</time></trkpt><trkpt lat="44.50719984394546" lon="0.9179827561506259"><ele>137.4</ele><time>2026-04-24T18:24:59Z</time></trkpt><trkpt lat="44.50727686345199" lon="0.918091836678637"><ele>136.2</ele><time>2026-04-24T18:25:00Z</time></trkpt><trkpt lat="44.507345558748206" lon="0.9182032049853722"><ele>135.0</ele><time>2026-04-24T18:25:01Z</time></trkpt><trkpt lat="44.50743609541361" lon="0.9182822143579988"><ele>135.0</ele><time>2026-04-24T18:25:02Z</time></trkpt><trkpt lat="44.50751930335034" lon="0.9183512971169683"><ele>135.0</ele><time>2026-04-24T18:25:03Z</time></trkpt><trkpt lat="44.507614713291105" lon="0.9183734000436261"><ele>135.0</ele><time>2026-04-24T18:25:04Z</time></trkpt><trkpt lat="44.50772756127766" lon="0.9183712435436779"><ele>135.0</ele><time>2026-04-24T18:25:05Z</time></trkpt><trkpt lat="44.507860669091826" lon="0.9183556719453216"><ele>135.0</ele><time>2026-04-24T18:25:06Z</time></trkpt><trkpt lat="44.50799334339624" lon="0.9182990661515743"><ele>134.33333333333334</ele><time>2026-04-24T18:25:07Z</time></trkpt><trkpt lat="44.508137525387504" lon="0.918248467654554"><ele>133.66666666666669</ele><time>2026-04-24T18:25:08Z</time></trkpt><trkpt lat="44.50828732673314" lon="0.9181745535205621"><ele>133.0</ele><time>2026-04-24T18:25:09Z</time></trkpt><trkpt lat="44.508424244786326" lon="0.9180939212602549"><ele>133.0</ele><time>2026-04-24T18:25:10Z</time></trkpt><trkpt lat="44.50854964307086" lon="0.9180053287952312"><ele>133.0</ele><time>2026-04-24T18:25:11Z</time></trkpt><trkpt lat="44.50865796768438" lon="0.9179446303503451"><ele>133.0</ele><time>2026-04-24T18:25:12Z</time></trkpt><trkpt lat="44.50875179533942" lon="0.9178954122370722"><ele>133.0</ele><time>2026-04-24T18:25:13Z</time></trkpt><trkpt lat="44.508854715142384" lon="0.9178318175804704"><ele>132.20000000000002</ele><time>2026-04-24T18:25:14Z</time></trkpt><trkpt lat="44.50894868658274" lon="0.9177717311665381"><ele>131.4</ele><time>2026-04-24T18:25:15Z</time></trkpt><trkpt lat="44.50904458596419" lon="0.9177079741220371"><ele>130.60000000000002</ele><time>2026-04-24T18:25:16Z</time></trkpt><trkpt lat="44.50912312216541" lon="0.9176532433659134"><ele>129.8</ele><time>2026-04-24T18:25:17Z</time></trkpt><trkpt lat="44.50921917584372" lon="0.9176693279229317"><ele>129.0</ele><time>2026-04-24T18:25:18Z</time></trkpt><trkpt lat="44.509332267072665" lon="0.9177225757101413"><ele>129.0</ele><time>2026-04-24T18:25:19Z</time></trkpt><trkpt lat="44.509449734935025" lon="0.9177434390574111"><ele>129.0</ele><time>2026-04-24T18:25:19.999Z</time></trkpt><trkpt lat="44.50954646809001" lon="0.9177676774894827"><ele>129.0</ele><time>2026-04-24T18:25:20.999Z</time></trkpt><trkpt lat="44.50962579672963" lon="0.9177908436043425"><ele>129.0</ele><time>2026-04-24T18:25:21.999Z</time></trkpt><trkpt lat="44.50971278679245" lon="0.9177981720029871"><ele>129.0</ele><time>2026-04-24T18:25:22.999Z</time></trkpt><trkpt lat="44.5098022037149" lon="0.9177710713974901"><ele>127.5</ele><time>2026-04-24T18:25:23.999Z</time></trkpt><trkpt lat="44.509899481396324" lon="0.9177039760618716"><ele>126.0</ele><time>2026-04-24T18:25:24.999Z</time></trkpt><trkpt lat="44.51000840610924" lon="0.9176174773561709"><ele>124.5</ele><time>2026-04-24T18:25:25.999Z</time></trkpt><trkpt lat="44.510131586077236" lon="0.9175158543114409"><ele>123.0</ele><time>2026-04-24T18:25:26.999Z</time></trkpt><trkpt lat="44.510249390553184" lon="0.9174359798929185"><ele>123.0</ele><time>2026-04-24T18:25:27.999Z</time></trkpt><trkpt lat="44.510357220756816" lon="0.9173846447927558"><ele>123.0</ele><time>2026-04-24T18:25:28.999Z</time></trkpt><trkpt lat="44.51046878443859" lon="0.917353103057138"><ele>123.0</ele><time>2026-04-24T18:25:29.999Z</time></trkpt><trkpt lat="44.51059750103658" lon="0.9172981368598945"><ele>123.0</ele><time>2026-04-24T18:25:30.999Z</time></trkpt><trkpt lat="44.5107280721451" lon="0.9171931466193024"><ele>121.75</ele><time>2026-04-24T18:25:31.999Z</time></trkpt><trkpt lat="44.51086697025072" lon="0.9170908518206216"><ele>120.5</ele><time>2026-04-24T18:25:32.999Z</time></trkpt><trkpt lat="44.510978225361114" lon="0.9170088797411563"><ele>119.25</ele><time>2026-04-24T18:25:33.999Z</time></trkpt><trkpt lat="44.51108910253304" lon="0.9169158697260616"><ele>118.0</ele><time>2026-04-24T18:25:34.999Z</time></trkpt><trkpt lat="44.51118792480507" lon="0.9168463992105496"><ele>117.75</ele><time>2026-04-24T18:25:35.999Z</time></trkpt><trkpt lat="44.511291663851" lon="0.916786780342896"><ele>117.5</ele><time>2026-04-24T18:25:36.999Z</time></trkpt><trkpt lat="44.51139981669205" lon="0.9167073905894889"><ele>117.25</ele><time>2026-04-24T18:25:37.999Z</time></trkpt><trkpt lat="44.511513906728496" lon="0.9166225400194491"><ele>117.0</ele><time>2026-04-24T18:25:38.999Z</time></trkpt><trkpt lat="44.5116321109399" lon="0.9165277627091772"><ele>116.25</ele><time>2026-04-24T18:25:39.999Z</time></trkpt><trkpt lat="44.51177437641054" lon="0.9164384205608312"><ele>115.5</ele><time>2026-04-24T18:25:40.999Z</time></trkpt><trkpt lat="44.51189536624985" lon="0.9163556036259541"><ele>114.75</ele><time>2026-04-24T18:25:41.999Z</time></trkpt><trkpt lat="44.51200654616184" lon="0.916255688954939"><ele>114.0</ele><time>2026-04-24T18:25:42.999Z</time></trkpt><trkpt lat="44.512107878600744" lon="0.9161778480838294"><ele>114.0</ele><time>2026-04-24T18:25:43.999Z</time></trkpt><trkpt lat="44.512194957784686" lon="0.9161222463895894"><ele>114.0</ele><time>2026-04-24T18:25:44.999Z</time></trkpt><trkpt lat="44.51227103282863" lon="0.9160669278041912"><ele>114.0</ele><time>2026-04-24T18:25:45.999Z</time></trkpt><trkpt lat="44.51237712728431" lon="0.9160229700504454"><ele>114.0</ele><time>2026-04-24T18:25:47.999Z</time></trkpt><trkpt lat="44.512432655614624" lon="0.916086871150757"><ele>114.0</ele><time>2026-04-24T18:25:49.999Z</time></trkpt><trkpt lat="44.51245603538639" lon="0.9161778979228314"><ele>114.0</ele><time>2026-04-24T18:25:50.999Z</time></trkpt><trkpt lat="44.51249369648615" lon="0.9162956023764931"><ele>114.0</ele><time>2026-04-24T18:25:51.999Z</time></trkpt><trkpt lat="44.512539650034384" lon="0.9164131431685171"><ele>114.0</ele><time>2026-04-24T18:25:52.999Z</time></trkpt><trkpt lat="44.51255557752815" lon="0.9165247531488809"><ele>114.0</ele><time>2026-04-24T18:25:53.999Z</time></trkpt><trkpt lat="44.512594136533075" lon="0.9166161613120843"><ele>114.0</ele><time>2026-04-24T18:25:54.999Z</time></trkpt><trkpt lat="44.51263463296014" lon="0.9167121622259558"><ele>114.0</ele><time>2026-04-24T18:25:55.999Z</time></trkpt><trkpt lat="44.5126708662324" lon="0.9168035328468712"><ele>114.0</ele><time>2026-04-24T18:25:56.999Z</time></trkpt><trkpt lat="44.512709733599635" lon="0.9169060540893985"><ele>114.16666666666667</ele><time>2026-04-24T18:25:57.999Z</time></trkpt><trkpt lat="44.51276325856652" lon="0.9169981298382374"><ele>114.33333333333334</ele><time>2026-04-24T18:25:58.999Z</time></trkpt><trkpt lat="44.51280615042977" lon="0.9171086974453924"><ele>114.5</ele><time>2026-04-24T18:25:59.999Z</time></trkpt><trkpt lat="44.51284126219841" lon="0.9172016190821808"><ele>114.66666666666667</ele><time>2026-04-24T18:26:00.999Z</time></trkpt><trkpt lat="44.51290934139611" lon="0.9173154500221677"><ele>114.83333333333334</ele><time>2026-04-24T18:26:02.999Z</time></trkpt><trkpt lat="44.512985392218134" lon="0.9173175239720243"><ele>115.0</ele><time>2026-04-24T18:26:04.999Z</time></trkpt><trkpt lat="44.51305225781871" lon="0.9172425646234053"><ele>115.00000000000001</ele><time>2026-04-24T18:26:08.999Z</time></trkpt><trkpt lat="44.51304045595561" lon="0.9170976170869305"><ele>115.0</ele><time>2026-04-24T18:26:09.999Z</time></trkpt><trkpt lat="44.51308958710942" lon="0.9170081489543611"><ele>115.0</ele><time>2026-04-24T18:26:10.999Z</time></trkpt><trkpt lat="44.51317197627978" lon="0.9169382251519987"><ele>115.0</ele><time>2026-04-24T18:26:11.999Z</time></trkpt><trkpt lat="44.51325073562553" lon="0.9168952915909946"><ele>115.00000000000001</ele><time>2026-04-24T18:26:12.999Z</time></trkpt><trkpt lat="44.51332446976224" lon="0.9168620260649677"><ele>115.0</ele><time>2026-04-24T18:26:13.999Z</time></trkpt><trkpt lat="44.513399100212176" lon="0.916854481296983"><ele>115.0</ele><time>2026-04-24T18:26:14.999Z</time></trkpt><trkpt lat="44.51346732079454" lon="0.9168924295423736"><ele>115.0</ele><time>2026-04-24T18:26:15.999Z</time></trkpt><trkpt lat="44.513520270965586" lon="0.9169812807210719"><ele>115.0</ele><time>2026-04-24T18:26:16.999Z</time></trkpt><trkpt lat="44.51359053429591" lon="0.9170681588206129"><ele>115.0</ele><time>2026-04-24T18:26:17.999Z</time></trkpt><trkpt lat="44.513689385368004" lon="0.9171982101807499"><ele>115.0</ele><time>2026-04-24T18:26:18.999Z</time></trkpt><trkpt lat="44.51378409419386" lon="0.9173180072210023"><ele>113.50000000000001</ele><time>2026-04-24T18:26:19.999Z</time></trkpt><trkpt lat="44.513863267112605" lon="0.9174106331613324"><ele>112.0</ele><time>2026-04-24T18:26:20.999Z</time></trkpt><trkpt lat="44.51394570091712" lon="0.9174512822238037"><ele>110.5</ele><time>2026-04-24T18:26:21.999Z</time></trkpt><trkpt lat="44.51401884615463" lon="0.9174651420869652"><ele>109.0</ele><time>2026-04-24T18:26:22.999Z</time></trkpt><trkpt lat="44.51408597781968" lon="0.9174469130412867"><ele>107.50000000000001</ele><time>2026-04-24T18:26:23.999Z</time></trkpt><trkpt lat="44.514193601174995" lon="0.9174526226573836"><ele>106.0</ele><time>2026-04-24T18:26:25.999Z</time></trkpt><trkpt lat="44.514291198963626" lon="0.9174809508990576"><ele>106.0</ele><time>2026-04-24T18:26:28Z</time></trkpt><trkpt lat="44.51435595625363" lon="0.9175067853548065"><ele>106.0</ele><time>2026-04-24T18:26:31Z</time></trkpt><trkpt lat="44.51443223070553" lon="0.9176118327478398"><ele>106.0</ele><time>2026-04-24T18:26:35Z</time></trkpt><trkpt lat="44.51451686128029" lon="0.9176994811019347"><ele>106.0</ele><time>2026-04-24T18:26:36Z</time></trkpt><trkpt lat="44.5146116781694" lon="0.9178142164306979"><ele>106.0</ele><time>2026-04-24T18:26:37Z</time></trkpt><trkpt lat="44.51471096164378" lon="0.9179352213925691"><ele>105.19999999999999</ele><time>2026-04-24T18:26:38Z</time></trkpt><trkpt lat="44.51480519197704" lon="0.9180516534433263"><ele>104.39999999999999</ele><time>2026-04-24T18:26:39Z</time></trkpt><trkpt lat="44.51488942678594" lon="0.9181705086396891"><ele>103.6</ele><time>2026-04-24T18:26:40Z</time></trkpt><trkpt lat="44.51493824963004" lon="0.9182854632262536"><ele>102.8</ele><time>2026-04-24T18:26:41Z</time></trkpt><trkpt lat="44.51498839390666" lon="0.918404276385745"><ele>102.0</ele><time>2026-04-24T18:26:42Z</time></trkpt><trkpt lat="44.5149965523935" lon="0.9185383780557798"><ele>102.0</ele><time>2026-04-24T18:26:43Z</time></trkpt><trkpt lat="44.5150008741743" lon="0.9186779198572207"><ele>102.0</ele><time>2026-04-24T18:26:44Z</time></trkpt><trkpt lat="44.51498837026202" lon="0.918836591198305"><ele>102.0</ele><time>2026-04-24T18:26:45Z</time></trkpt><trkpt lat="44.514947388140655" lon="0.9189915808292869"><ele>102.0</ele><time>2026-04-24T18:26:46Z</time></trkpt><trkpt lat="44.514903398661474" lon="0.919157736383007"><ele>103.25</ele><time>2026-04-24T18:26:47Z</time></trkpt><trkpt lat="44.514867978726485" lon="0.9193486423037032"><ele>104.5</ele><time>2026-04-24T18:26:48Z</time></trkpt><trkpt lat="44.51480273691986" lon="0.9195194750238299"><ele>105.75</ele><time>2026-04-24T18:26:49Z</time></trkpt><trkpt lat="44.514770171919366" lon="0.9197088685563914"><ele>107.0</ele><time>2026-04-24T18:26:50Z</time></trkpt><trkpt lat="44.51471238651135" lon="0.9198786749353606"><ele>107.0</ele><time>2026-04-24T18:26:51Z</time></trkpt><trkpt lat="44.51467675719241" lon="0.9200087374235697"><ele>107.0</ele><time>2026-04-24T18:26:52Z</time></trkpt><trkpt lat="44.51464705998738" lon="0.9201036335647953"><ele>107.0</ele><time>2026-04-24T18:26:53Z</time></trkpt><trkpt lat="44.51435852691759" lon="0.9200264338110554"><ele>107.25</ele><time>2026-04-24T18:27:31.999Z</time></trkpt><trkpt lat="44.51424246837153" lon="0.9200402196773236"><ele>107.5</ele><time>2026-04-24T18:27:32.999Z</time></trkpt><trkpt lat="44.51410707840837" lon="0.9200624150704001"><ele>107.75</ele><time>2026-04-24T18:27:33.999Z</time></trkpt><trkpt lat="44.51395870178377" lon="0.9200898031829782"><ele>108.0</ele><time>2026-04-24T18:27:34.999Z</time></trkpt><trkpt lat="44.51384541862866" lon="0.9201102107309377"><ele>109.0</ele><time>2026-04-24T18:27:35.999Z</time></trkpt><trkpt lat="44.51371120485916" lon="0.9201341187131998"><ele>110.0</ele><time>2026-04-24T18:27:36.999Z</time></trkpt><trkpt lat="44.51357895151057" lon="0.9201574222147005"><ele>111.0</ele><time>2026-04-24T18:27:37.999Z</time></trkpt><trkpt lat="44.51344524430331" lon="0.9201824057732204"><ele>112.0</ele><time>2026-04-24T18:27:38.999Z</time></trkpt><trkpt lat="44.51330646857608" lon="0.9202163537785918"><ele>112.0</ele><time>2026-04-24T18:27:39.999Z</time></trkpt><trkpt lat="44.51317296409129" lon="0.9202633535883323"><ele>112.0</ele><time>2026-04-24T18:27:40.999Z</time></trkpt><trkpt lat="44.51304941587535" lon="0.920339293315984"><ele>112.0</ele><time>2026-04-24T18:27:41.999Z</time></trkpt><trkpt lat="44.51291875739647" lon="0.92041321116964"><ele>112.0</ele><time>2026-04-24T18:27:42.999Z</time></trkpt><trkpt lat="44.51276910483006" lon="0.9204919624541251"><ele>112.66666666666667</ele><time>2026-04-24T18:27:43.999Z</time></trkpt><trkpt lat="44.51263028728846" lon="0.9205796393031086"><ele>113.33333333333334</ele><time>2026-04-24T18:27:44.999Z</time></trkpt><trkpt lat="44.51248685278045" lon="0.9206735158071552"><ele>114.0</ele><time>2026-04-24T18:27:45.999Z</time></trkpt><trkpt lat="44.51233832680274" lon="0.9207967784161282"><ele>117.33333333333334</ele><time>2026-04-24T18:27:46.999Z</time></trkpt><trkpt lat="44.51216457450344" lon="0.9209252324176618"><ele>120.66666666666667</ele><time>2026-04-24T18:27:47.999Z</time></trkpt><trkpt lat="44.512063330594586" lon="0.9210819165366401"><ele>124.0</ele><time>2026-04-24T18:27:48.999Z</time></trkpt><trkpt lat="44.51193203471443" lon="0.9211894695193631"><ele>124.0</ele><time>2026-04-24T18:27:49.999Z</time></trkpt><trkpt lat="44.511827930552094" lon="0.921303000657822"><ele>124.0</ele><time>2026-04-24T18:27:50.999Z</time></trkpt><trkpt lat="44.5116975428972" lon="0.9214580818828378"><ele>124.0</ele><time>2026-04-24T18:27:51.999Z</time></trkpt><trkpt lat="44.511579447691986" lon="0.9216072969388893"><ele>124.0</ele><time>2026-04-24T18:27:52.999Z</time></trkpt><trkpt lat="44.511487003979255" lon="0.9217241011217653"><ele>124.0</ele><time>2026-04-24T18:27:53.999Z</time></trkpt><trkpt lat="44.511386270588375" lon="0.9218514139613584"><ele>124.0</ele><time>2026-04-24T18:27:54.999Z</time></trkpt><trkpt lat="44.51130021737913" lon="0.9219570637758492"><ele>124.0</ele><time>2026-04-24T18:27:55.999Z</time></trkpt><trkpt lat="44.51121651151938" lon="0.9220414931337872"><ele>124.4</ele><time>2026-04-24T18:27:56.999Z</time></trkpt><trkpt lat="44.511139417740225" lon="0.9221020437727878"><ele>124.80000000000001</ele><time>2026-04-24T18:27:57.999Z</time></trkpt><trkpt lat="44.51105529959264" lon="0.9221331541341217"><ele>125.19999999999999</ele><time>2026-04-24T18:27:58.999Z</time></trkpt><trkpt lat="44.51094347100923" lon="0.9221362294809102"><ele>125.6</ele><time>2026-04-24T18:27:59.999Z</time></trkpt><trkpt lat="44.51082146124053" lon="0.9221227052695795"><ele>126.0</ele><time>2026-04-24T18:28:00.999Z</time></trkpt><trkpt lat="44.510670133140835" lon="0.9221119738318913"><ele>126.0</ele><time>2026-04-24T18:28:01.999Z</time></trkpt><trkpt lat="44.51052925523942" lon="0.9220751924606951"><ele>126.0</ele><time>2026-04-24T18:28:02.999Z</time></trkpt><trkpt lat="44.51042772467099" lon="0.922063877476316"><ele>126.0</ele><time>2026-04-24T18:28:03.999Z</time></trkpt><trkpt lat="44.51029278501682" lon="0.9220456985907297"><ele>126.0</ele><time>2026-04-24T18:28:04.999Z</time></trkpt><trkpt lat="44.51019132864198" lon="0.9220320305559294"><ele>125.6</ele><time>2026-04-24T18:28:05.999Z</time></trkpt><trkpt lat="44.51009401084364" lon="0.9220395858929472"><ele>125.19999999999999</ele><time>2026-04-24T18:28:06.999Z</time></trkpt><trkpt lat="44.50999477560016" lon="0.9220153292268183"><ele>124.80000000000001</ele><time>2026-04-24T18:28:07.999Z</time></trkpt><trkpt lat="44.509897838544106" lon="0.921985920255642"><ele>124.4</ele><time>2026-04-24T18:28:08.999Z</time></trkpt><trkpt lat="44.50981624879643" lon="0.921970566867267"><ele>124.0</ele><time>2026-04-24T18:28:09.999Z</time></trkpt><trkpt lat="44.50973227603977" lon="0.9219673678822814"><ele>124.00000000000001</ele><time>2026-04-24T18:28:11.999Z</time></trkpt><trkpt lat="44.50966957497433" lon="0.9219311595435873"><ele>124.0</ele><time>2026-04-24T18:28:15.999Z</time></trkpt><trkpt lat="44.50973740161385" lon="0.9219690098362465"><ele>124.0</ele><time>2026-04-24T18:29:40.999Z</time></trkpt><trkpt lat="44.50972371212919" lon="0.9218240786459804"><ele>124.0</ele><time>2026-04-24T18:43:15.453Z</time></trkpt><trkpt lat="44.509744653991405" lon="0.921930927316834"><ele>124.00000000000001</ele><time>2026-04-24T18:43:56.998Z</time></trkpt><trkpt lat="44.509812566530165" lon="0.9219832916528331"><ele>124.0</ele><time>2026-04-24T18:49:31.999Z</time></trkpt><trkpt lat="44.50992439446736" lon="0.9220056171541456"><ele>124.00000000000001</ele><time>2026-04-24T18:49:32.999Z</time></trkpt><trkpt lat="44.50998550168012" lon="0.922027802048535"><ele>124.0</ele><time>2026-04-24T18:49:33.999Z</time></trkpt><trkpt lat="44.51005166225711" lon="0.9220380215457749"><ele>124.0</ele><time>2026-04-24T18:49:34.999Z</time></trkpt><trkpt lat="44.51012701711532" lon="0.9220698519624057"><ele>124.0</ele><time>2026-04-24T18:49:35.999Z</time></trkpt><trkpt lat="44.510220898419355" lon="0.9220827620900844"><ele>124.00000000000001</ele><time>2026-04-24T18:49:36.999Z</time></trkpt><trkpt lat="44.5103122957869" lon="0.9220950750264965"><ele>124.0</ele><time>2026-04-24T18:49:37.999Z</time></trkpt><trkpt lat="44.51040284189417" lon="0.9221072732582499"><ele>124.28571428571429</ele><time>2026-04-24T18:49:38.999Z</time></trkpt><trkpt lat="44.51048853770803" lon="0.9221196757415818"><ele>124.57142857142858</ele><time>2026-04-24T18:49:39.999Z</time></trkpt><trkpt lat="44.510568180450925" lon="0.9221319453299204"><ele>124.85714285714286</ele><time>2026-04-24T18:49:40.999Z</time></trkpt><trkpt lat="44.51063965866575" lon="0.9221429570950862"><ele>125.14285714285714</ele><time>2026-04-24T18:49:41.999Z</time></trkpt><trkpt lat="44.51070257342626" lon="0.9221523355562421"><ele>125.42857142857143</ele><time>2026-04-24T18:49:42.999Z</time></trkpt><trkpt lat="44.51076787123652" lon="0.9221618869811167"><ele>125.71428571428572</ele><time>2026-04-24T18:49:43.999Z</time></trkpt><trkpt lat="44.510840949452195" lon="0.9221499045407706"><ele>126.0</ele><time>2026-04-24T18:49:44.999Z</time></trkpt><trkpt lat="44.51091998474674" lon="0.922171015397785"><ele>126.0</ele><time>2026-04-24T18:49:45.999Z</time></trkpt><trkpt lat="44.51100393033278" lon="0.9221659975203162"><ele>126.0</ele><time>2026-04-24T18:49:46.999Z</time></trkpt><trkpt lat="44.51107801389237" lon="0.9221609660210269"><ele>126.0</ele><time>2026-04-24T18:49:47.999Z</time></trkpt><trkpt lat="44.51114433077692" lon="0.9221416182139774"><ele>126.0</ele><time>2026-04-24T18:49:48.999Z</time></trkpt><trkpt lat="44.51121040395822" lon="0.9220979030414601"><ele>126.0</ele><time>2026-04-24T18:49:49.999Z</time></trkpt><trkpt lat="44.51127824598565" lon="0.9220421066443633"><ele>126.0</ele><time>2026-04-24T18:49:50.999Z</time></trkpt><trkpt lat="44.5113408829684" lon="0.9219611378077863"><ele>125.6</ele><time>2026-04-24T18:49:51.999Z</time></trkpt><trkpt lat="44.51139722204383" lon="0.9218835707096014"><ele>125.19999999999999</ele><time>2026-04-24T18:49:52.999Z</time></trkpt><trkpt lat="44.51144501304867" lon="0.9218148250694206"><ele>124.80000000000001</ele><time>2026-04-24T18:49:53.999Z</time></trkpt><trkpt lat="44.511505322130354" lon="0.9217464404510057"><ele>124.4</ele><time>2026-04-24T18:49:54.999Z</time></trkpt><trkpt lat="44.51158437639094" lon="0.9216566272187817"><ele>124.0</ele><time>2026-04-24T18:49:55.999Z</time></trkpt><trkpt lat="44.5116784487036" lon="0.9215372519352555"><ele>124.0</ele><time>2026-04-24T18:49:56.999Z</time></trkpt><trkpt lat="44.511790980876576" lon="0.9214084525076205"><ele>124.0</ele><time>2026-04-24T18:49:57.999Z</time></trkpt><trkpt lat="44.51190823229534" lon="0.9212546339502231"><ele>124.0</ele><time>2026-04-24T18:49:58.999Z</time></trkpt><trkpt lat="44.51203632877135" lon="0.9211122166932542"><ele>124.0</ele><time>2026-04-24T18:49:59.999Z</time></trkpt><trkpt lat="44.512180699167814" lon="0.920969926258661"><ele>124.0</ele><time>2026-04-24T18:50:00.999Z</time></trkpt><trkpt lat="44.512324127706464" lon="0.9208441033453957"><ele>124.0</ele><time>2026-04-24T18:50:01.999Z</time></trkpt><trkpt lat="44.51246126273944" lon="0.9207363341404784"><ele>120.66666666666667</ele><time>2026-04-24T18:50:02.999Z</time></trkpt><trkpt lat="44.51259158999069" lon="0.9206372699346895"><ele>117.33333333333334</ele><time>2026-04-24T18:50:03.999Z</time></trkpt><trkpt lat="44.51273879844017" lon="0.9205530472607398"><ele>114.0</ele><time>2026-04-24T18:50:04.999Z</time></trkpt><trkpt lat="44.51290600730677" lon="0.9204502807973851"><ele>113.33333333333334</ele><time>2026-04-24T18:50:05.999Z</time></trkpt><trkpt lat="44.51306287905281" lon="0.9203689096542107"><ele>112.66666666666667</ele><time>2026-04-24T18:50:06.999Z</time></trkpt><trkpt lat="44.513202071418334" lon="0.9202869803613971"><ele>112.0</ele><time>2026-04-24T18:50:07.999Z</time></trkpt><trkpt lat="44.51333535434176" lon="0.9202480442169838"><ele>112.0</ele><time>2026-04-24T18:50:08.999Z</time></trkpt><trkpt lat="44.51348533942421" lon="0.9202123763241845"><ele>112.0</ele><time>2026-04-24T18:50:09.999Z</time></trkpt><trkpt lat="44.51364921990494" lon="0.9201847674645911"><ele>112.0</ele><time>2026-04-24T18:50:10.999Z</time></trkpt><trkpt lat="44.51382186956021" lon="0.9201421179880672"><ele>112.25</ele><time>2026-04-24T18:50:11.999Z</time></trkpt><trkpt lat="44.51398745483938" lon="0.9201231305122496"><ele>112.5</ele><time>2026-04-24T18:50:12.999Z</time></trkpt><trkpt lat="44.51412582402512" lon="0.9201123664434131"><ele>112.75</ele><time>2026-04-24T18:50:13.999Z</time></trkpt><trkpt lat="44.51424527025945" lon="0.9200951895303481"><ele>113.0</ele><time>2026-04-24T18:50:14.999Z</time></trkpt><trkpt lat="44.5143445817027" lon="0.9200773022428155"><ele>112.80000000000001</ele><time>2026-04-24T18:50:15.999Z</time></trkpt><trkpt lat="44.51443696828357" lon="0.9200638418779656"><ele>112.60000000000001</ele><time>2026-04-24T18:50:16.999Z</time></trkpt><trkpt lat="44.51451681238935" lon="0.9200611106562814"><ele>112.39999999999999</ele><time>2026-04-24T18:50:18Z</time></trkpt><trkpt lat="44.51458160294019" lon="0.9200822100381851"><ele>112.19999999999999</ele><time>2026-04-24T18:50:19Z</time></trkpt><trkpt lat="44.51465719362055" lon="0.9201402806977407"><ele>112.0</ele><time>2026-04-24T18:50:21Z</time></trkpt><trkpt lat="44.51475093069642" lon="0.9199000024290874"><ele>110.75</ele><time>2026-04-24T18:50:24Z</time></trkpt><trkpt lat="44.51479053072083" lon="0.9197720087905977"><ele>109.5</ele><time>2026-04-24T18:50:25Z</time></trkpt><trkpt lat="44.51482322224088" lon="0.9196134319172257"><ele>108.25</ele><time>2026-04-24T18:50:26Z</time></trkpt><trkpt lat="44.51487808564139" lon="0.9194325580949523"><ele>107.0</ele><time>2026-04-24T18:50:27Z</time></trkpt><trkpt lat="44.51491850293091" lon="0.919233609034156"><ele>105.75</ele><time>2026-04-24T18:50:28Z</time></trkpt><trkpt lat="44.51495879803144" lon="0.9190441294525631"><ele>104.5</ele><time>2026-04-24T18:50:29Z</time></trkpt><trkpt lat="44.51500319379687" lon="0.9188858740458908"><ele>103.25</ele><time>2026-04-24T18:50:30Z</time></trkpt><trkpt lat="44.515029666779824" lon="0.9187393422078979"><ele>102.0</ele><time>2026-04-24T18:50:31Z</time></trkpt><trkpt lat="44.51504120979956" lon="0.9186057026332008"><ele>102.0</ele><time>2026-04-24T18:50:32Z</time></trkpt><trkpt lat="44.515028499455404" lon="0.9184720756343013"><ele>102.0</ele><time>2026-04-24T18:50:33Z</time></trkpt><trkpt lat="44.515001836363865" lon="0.9183556055828407"><ele>102.0</ele><time>2026-04-24T18:50:34Z</time></trkpt><trkpt lat="44.514971331146626" lon="0.91826912891511"><ele>102.0</ele><time>2026-04-24T18:50:35Z</time></trkpt><trkpt lat="44.51494111632162" lon="0.9181689734880861"><ele>102.0</ele><time>2026-04-24T18:50:38Z</time></trkpt><trkpt lat="44.51489308588136" lon="0.9180570766637595"><ele>102.0</ele><time>2026-04-24T18:50:40Z</time></trkpt><trkpt lat="44.51502327305413" lon="0.9178655420775722"><ele>101.75</ele><time>2026-04-24T18:50:41Z</time></trkpt><trkpt lat="44.51500054412717" lon="0.9177497570749298"><ele>101.5</ele><time>2026-04-24T18:50:42Z</time></trkpt><trkpt lat="44.51497780458353" lon="0.9176539161896509"><ele>101.25</ele><time>2026-04-24T18:50:43Z</time></trkpt><trkpt lat="44.514965192583155" lon="0.9175450468893447"><ele>101.0</ele><time>2026-04-24T18:50:44Z</time></trkpt><trkpt lat="44.515346539632056" lon="0.917459371232776"><ele>103.0</ele><time>2026-04-24T18:50:45Z</time></trkpt><trkpt lat="44.514844087904706" lon="0.9172957244621708"><ele>103.0</ele><time>2026-04-24T18:50:49Z</time></trkpt><trkpt lat="44.51477020900783" lon="0.917264848538946"><ele>103.0</ele><time>2026-04-24T18:50:52Z</time></trkpt><trkpt lat="44.5147045209638" lon="0.917270591251909"><ele>103.0</ele><time>2026-04-24T18:51:07Z</time></trkpt><trkpt lat="44.51461528817802" lon="0.9172782806486326"><ele>103.0</ele><time>2026-04-24T18:51:30.999Z</time></trkpt><trkpt lat="44.514485194537365" lon="0.9172301303861427"><ele>103.0</ele><time>2026-04-24T18:51:32.999Z</time></trkpt><trkpt lat="44.514400708904496" lon="0.9172391698150442"><ele>103.50000000000001</ele><time>2026-04-24T18:51:33.999Z</time></trkpt><trkpt lat="44.51432170710419" lon="0.917320125837987"><ele>104.0</ele><time>2026-04-24T18:51:34.999Z</time></trkpt><trkpt lat="44.51422781751904" lon="0.9172887097257564"><ele>104.5</ele><time>2026-04-24T18:51:37.999Z</time></trkpt><trkpt lat="44.51417937742935" lon="0.9172140061051419"><ele>105.0</ele><time>2026-04-24T18:51:38.999Z</time></trkpt><trkpt lat="44.514256683365396" lon="0.9172019437328005"><ele>105.50000000000001</ele><time>2026-04-24T18:51:40.999Z</time></trkpt><trkpt lat="44.51432292760954" lon="0.9172234189268901"><ele>106.0</ele><time>2026-04-24T18:51:42.999Z</time></trkpt><trkpt lat="44.51440887962134" lon="0.9172168403319075"><ele>106.00000000000001</ele><time>2026-04-24T18:51:45.999Z</time></trkpt><trkpt lat="44.51449156732793" lon="0.917232428349622"><ele>106.0</ele><time>2026-04-24T18:51:46.999Z</time></trkpt><trkpt lat="44.51456658726455" lon="0.9172234661494172"><ele>106.0</ele><time>2026-04-24T18:51:47.999Z</time></trkpt><trkpt lat="44.51463969622813" lon="0.917207944500196"><ele>106.0</ele><time>2026-04-24T18:51:49.999Z</time></trkpt><trkpt lat="44.5147180345756" lon="0.9172192716317751"><ele>106.00000000000001</ele><time>2026-04-24T18:51:52.999Z</time></trkpt><trkpt lat="44.514787087927395" lon="0.9172093917282769"><ele>106.0</ele><time>2026-04-24T18:51:54.999Z</time></trkpt><trkpt lat="44.51484621163893" lon="0.9172621395226992"><ele>106.0</ele><time>2026-04-24T18:51:57.999Z</time></trkpt><trkpt lat="44.51482445054934" lon="0.9173813670880107"><ele>106.0</ele><time>2026-04-24T18:52:00.999Z</time></trkpt><trkpt lat="44.514711289654706" lon="0.9173785965640596"><ele>106.0</ele><time>2026-04-24T18:52:02.999Z</time></trkpt><trkpt lat="44.51460049346524" lon="0.9172664160238359"><ele>106.0</ele><time>2026-04-24T18:52:04.999Z</time></trkpt><trkpt lat="44.51451058746156" lon="0.9173071806803947"><ele>106.0</ele><time>2026-04-24T18:52:06.999Z</time></trkpt><trkpt lat="44.51445340457905" lon="0.9173634573801672"><ele>106.0</ele><time>2026-04-24T18:52:07.999Z</time></trkpt><trkpt lat="44.51434946847855" lon="0.9171934280461519"><ele>106.0</ele><time>2026-04-24T18:52:08.999Z</time></trkpt><trkpt lat="44.51427434341313" lon="0.9172368613577856"><ele>106.0</ele><time>2026-04-24T18:52:10.999Z</time></trkpt><trkpt lat="44.51419177620409" lon="0.9172923602370247"><ele>106.0</ele><time>2026-04-24T18:52:12.999Z</time></trkpt><trkpt lat="44.514128597959576" lon="0.9172932786731838"><ele>106.0</ele><time>2026-04-24T18:52:14.999Z</time></trkpt><trkpt lat="44.514150765519005" lon="0.9173771673080399"><ele>106.00000000000001</ele><time>2026-04-24T18:53:21Z</time></trkpt><trkpt lat="44.51421992786056" lon="0.9174422743106858"><ele>106.0</ele><time>2026-04-24T18:53:24Z</time></trkpt><trkpt lat="44.51430813344751" lon="0.91748484118521"><ele>106.0</ele><time>2026-04-24T18:53:29Z</time></trkpt><trkpt lat="44.514372748541334" lon="0.917553427706243"><ele>106.0</ele><time>2026-04-24T18:53:35.999Z</time></trkpt><trkpt lat="44.51443984396885" lon="0.9176038560687595"><ele>106.00000000000001</ele><time>2026-04-24T18:53:38.999Z</time></trkpt><trkpt lat="44.514525134544954" lon="0.9176820276251222"><ele>106.0</ele><time>2026-04-24T18:53:41.999Z</time></trkpt><trkpt lat="44.51460495145473" lon="0.9178060180024655"><ele>105.0</ele><time>2026-04-24T18:53:43.999Z</time></trkpt><trkpt lat="44.514667535457875" lon="0.9178822943730237"><ele>104.0</ele><time>2026-04-24T18:53:44.999Z</time></trkpt><trkpt lat="44.51475836947075" lon="0.9179930011636799"><ele>103.0</ele><time>2026-04-24T18:53:46.999Z</time></trkpt><trkpt lat="44.51483881270035" lon="0.9180960085618797"><ele>102.0</ele><time>2026-04-24T18:53:48.999Z</time></trkpt><trkpt lat="44.51489291581427" lon="0.9181829280577899"><ele>101.0</ele><time>2026-04-24T18:53:50.999Z</time></trkpt><trkpt lat="44.51493022479106" lon="0.9182664488712902"><ele>100.99999999999999</ele><time>2026-04-24T18:53:53.999Z</time></trkpt><trkpt lat="44.514974747333646" lon="0.9183496352444769"><ele>101.0</ele><time>2026-04-24T18:54:11.999Z</time></trkpt><trkpt lat="44.514989743685874" lon="0.9184987471059964"><ele>101.0</ele><time>2026-04-24T18:54:13.999Z</time></trkpt><trkpt lat="44.51499878759374" lon="0.9185907161744818"><ele>101.0</ele><time>2026-04-24T18:54:14.999Z</time></trkpt><trkpt lat="44.51499919545929" lon="0.9187052927882434"><ele>100.99999999999999</ele><time>2026-04-24T18:54:15.999Z</time></trkpt><trkpt lat="44.51498868863079" lon="0.9188327661899532"><ele>101.0</ele><time>2026-04-24T18:54:16.999Z</time></trkpt><trkpt lat="44.51495266335729" lon="0.9189715233353863"><ele>101.25</ele><time>2026-04-24T18:54:17.999Z</time></trkpt><trkpt lat="44.514912127997135" lon="0.9191248159881105"><ele>101.5</ele><time>2026-04-24T18:54:18.999Z</time></trkpt><trkpt lat="44.514866683834725" lon="0.9192912449288165"><ele>101.75</ele><time>2026-04-24T18:54:19.999Z</time></trkpt><trkpt lat="44.51481619910305" lon="0.9194721848506985"><ele>102.0</ele><time>2026-04-24T18:54:20.999Z</time></trkpt><trkpt lat="44.514782443603096" lon="0.919653813719221"><ele>103.0</ele><time>2026-04-24T18:54:21.999Z</time></trkpt><trkpt lat="44.51472668740034" lon="0.9198218198297446"><ele>104.0</ele><time>2026-04-24T18:54:22.999Z</time></trkpt><trkpt lat="44.51468775333661" lon="0.9199701074578877"><ele>104.99999999999999</ele><time>2026-04-24T18:54:23.999Z</time></trkpt><trkpt lat="44.51465583133408" lon="0.9200751268361198"><ele>106.0</ele><time>2026-04-24T18:54:24.999Z</time></trkpt><trkpt lat="44.514628951649456" lon="0.9201624846123322"><ele>107.0</ele><time>2026-04-24T18:54:26.999Z</time></trkpt><trkpt lat="44.514592135029886" lon="0.9202821359579051"><ele>107.16666666666666</ele><time>2026-04-24T18:54:28.999Z</time></trkpt><trkpt lat="44.51456578121628" lon="0.9203677840332805"><ele>107.33333333333333</ele><time>2026-04-24T18:54:32Z</time></trkpt><trkpt lat="44.51459891035439" lon="0.9202601167142332"><ele>107.5</ele><time>2026-04-24T18:54:46Z</time></trkpt><trkpt lat="44.514625331678204" lon="0.9201742492965282"><ele>107.66666666666666</ele><time>2026-04-24T18:54:48Z</time></trkpt><trkpt lat="44.514533915229784" lon="0.9200417991782733"><ele>107.83333333333333</ele><time>2026-04-24T18:54:54Z</time></trkpt><trkpt lat="44.51446394953517" lon="0.9200283193387927"><ele>108.0</ele><time>2026-04-24T18:54:57Z</time></trkpt><trkpt lat="44.514385022893414" lon="0.9200264338080674"><ele>108.0</ele><time>2026-04-24T18:55:00Z</time></trkpt><trkpt lat="44.51431655712509" lon="0.9200304027079755"><ele>108.0</ele><time>2026-04-24T18:55:03Z</time></trkpt><trkpt lat="44.51425299788828" lon="0.9200388166131795"><ele>108.0</ele><time>2026-04-24T18:55:06Z</time></trkpt><trkpt lat="44.51417829684752" lon="0.9200504083373103"><ele>108.0</ele><time>2026-04-24T18:55:08Z</time></trkpt><trkpt lat="44.51408620621037" lon="0.9200662677524544"><ele>108.0</ele><time>2026-04-24T18:55:10Z</time></trkpt><trkpt lat="44.51396290702356" lon="0.9200890269597712"><ele>108.0</ele><time>2026-04-24T18:55:12Z</time></trkpt><trkpt lat="44.513861056470994" lon="0.9201074251286564"><ele>109.0</ele><time>2026-04-24T18:55:13Z</time></trkpt><trkpt lat="44.51374965504182" lon="0.9201272694407601"><ele>110.0</ele><time>2026-04-24T18:55:14Z</time></trkpt><trkpt lat="44.51362122004499" lon="0.920150104848319"><ele>111.0</ele><time>2026-04-24T18:55:15Z</time></trkpt><trkpt lat="44.5134809858291" lon="0.920174381632186"><ele>112.0</ele><time>2026-04-24T18:55:16Z</time></trkpt><trkpt lat="44.513341952914814" lon="0.9202074643817851"><ele>112.0</ele><time>2026-04-24T18:55:17Z</time></trkpt><trkpt lat="44.513208924707754" lon="0.9202496452618741"><ele>112.0</ele><time>2026-04-24T18:55:18Z</time></trkpt><trkpt lat="44.513104023639414" lon="0.9203038879202479"><ele>112.0</ele><time>2026-04-24T18:55:19Z</time></trkpt><trkpt lat="44.51300306452544" lon="0.9203676315809969"><ele>112.0</ele><time>2026-04-24T18:55:20Z</time></trkpt><trkpt lat="44.51291395534953" lon="0.9204208611280079"><ele>112.33333333333334</ele><time>2026-04-24T18:55:21Z</time></trkpt><trkpt lat="44.51284422993018" lon="0.9204714293044018"><ele>112.66666666666667</ele><time>2026-04-24T18:55:22Z</time></trkpt><trkpt lat="44.512783160899886" lon="0.9204985164845761"><ele>113.0</ele><time>2026-04-24T18:55:23Z</time></trkpt><trkpt lat="44.512705576746264" lon="0.9205506353463592"><ele>113.33333333333334</ele><time>2026-04-24T18:55:25Z</time></trkpt><trkpt lat="44.5126113720836" lon="0.9205917928187927"><ele>113.66666666666667</ele><time>2026-04-24T18:55:56.999Z</time></trkpt><trkpt lat="44.51255113720233" lon="0.9206304954433654"><ele>114.0</ele><time>2026-04-24T18:55:57.999Z</time></trkpt><trkpt lat="44.51247582239367" lon="0.9206810669368145"><ele>114.0</ele><time>2026-04-24T18:55:58.999Z</time></trkpt><trkpt lat="44.51239269183238" lon="0.9207471350215205"><ele>114.0</ele><time>2026-04-24T18:55:59.999Z</time></trkpt><trkpt lat="44.512317747755056" lon="0.920811718765059"><ele>114.0</ele><time>2026-04-24T18:56:00.999Z</time></trkpt><trkpt lat="44.512242516069094" lon="0.9208796225682501"><ele>114.0</ele><time>2026-04-24T18:56:01.999Z</time></trkpt><trkpt lat="44.51217288450588" lon="0.9209485688839792"><ele>114.0</ele><time>2026-04-24T18:56:02.999Z</time></trkpt><trkpt lat="44.51209945296788" lon="0.921020058508011"><ele>114.0</ele><time>2026-04-24T18:56:03.999Z</time></trkpt><trkpt lat="44.51201845716397" lon="0.9211005567485185"><ele>116.0</ele><time>2026-04-24T18:56:04.999Z</time></trkpt><trkpt lat="44.51193588556433" lon="0.9211853393355378"><ele>118.0</ele><time>2026-04-24T18:56:05.999Z</time></trkpt><trkpt lat="44.51187079122167" lon="0.9212840901978029"><ele>120.0</ele><time>2026-04-24T18:56:06.999Z</time></trkpt><trkpt lat="44.51179040583532" lon="0.9213455251556711"><ele>122.0</ele><time>2026-04-24T18:56:07.999Z</time></trkpt><trkpt lat="44.51172020241799" lon="0.9214302740069634"><ele>124.0</ele><time>2026-04-24T18:56:08.999Z</time></trkpt><trkpt lat="44.511654376693656" lon="0.9215347673080598"><ele>124.0</ele><time>2026-04-24T18:56:09.999Z</time></trkpt><trkpt lat="44.51158427514927" lon="0.9216200913704548"><ele>124.0</ele><time>2026-04-24T18:56:10.999Z</time></trkpt><trkpt lat="44.511510384103424" lon="0.9217184112671083"><ele>124.0</ele><time>2026-04-24T18:56:11.999Z</time></trkpt><trkpt lat="44.51142795807748" lon="0.9218258793025614"><ele>124.0</ele><time>2026-04-24T18:56:12.999Z</time></trkpt><trkpt lat="44.51134086615344" lon="0.9219294808736026"><ele>124.0</ele><time>2026-04-24T18:56:13.999Z</time></trkpt><trkpt lat="44.51125526184659" lon="0.9220260265592517"><ele>124.5</ele><time>2026-04-24T18:56:14.999Z</time></trkpt><trkpt lat="44.51115851781939" lon="0.922109306827532"><ele>125.0</ele><time>2026-04-24T18:56:15.999Z</time></trkpt><trkpt lat="44.51104460247356" lon="0.9221614235479096"><ele>125.5</ele><time>2026-04-24T18:56:16.999Z</time></trkpt><trkpt lat="44.51091824066572" lon="0.922134685554022"><ele>126.0</ele><time>2026-04-24T18:56:17.999Z</time></trkpt><trkpt lat="44.51078248106137" lon="0.9221353428006174"><ele>126.0</ele><time>2026-04-24T18:56:18.999Z</time></trkpt><trkpt lat="44.51063541341201" lon="0.9220860829040549"><ele>126.0</ele><time>2026-04-24T18:56:19.999Z</time></trkpt><trkpt lat="44.51048752676348" lon="0.922081733692596"><ele>126.0</ele><time>2026-04-24T18:56:20.999Z</time></trkpt><trkpt lat="44.51037379564222" lon="0.9220683107485941"><ele>126.0</ele><time>2026-04-24T18:56:21.999Z</time></trkpt><trkpt lat="44.510271950440135" lon="0.9220571021012315"><ele>125.66666666666667</ele><time>2026-04-24T18:56:22.999Z</time></trkpt><trkpt lat="44.510192146390104" lon="0.9220509726770362"><ele>125.33333333333334</ele><time>2026-04-24T18:56:23.999Z</time></trkpt><trkpt lat="44.510119859157214" lon="0.9220356905904254"><ele>125.0</ele><time>2026-04-24T18:56:24.999Z</time></trkpt><trkpt lat="44.51005677428394" lon="0.922033570236592"><ele>124.66666666666667</ele><time>2026-04-24T18:56:25.999Z</time></trkpt><trkpt lat="44.509959825505256" lon="0.9220030294287103"><ele>124.33333333333334</ele><time>2026-04-24T18:56:27.999Z</time></trkpt><trkpt lat="44.509877852310524" lon="0.9219970037734262"><ele>124.0</ele><time>2026-04-24T18:56:29.999Z</time></trkpt><trkpt lat="44.50981531265455" lon="0.9219807775418792"><ele>124.0</ele><time>2026-04-24T18:56:31.999Z</time></trkpt><trkpt lat="44.509751087970685" lon="0.921968538368638"><ele>124.00000000000001</ele><time>2026-04-24T18:56:34.999Z</time></trkpt><trkpt lat="44.50968664154931" lon="0.9219457919098979"><ele>124.0</ele><time>2026-04-24T18:56:51Z</time></trkpt><trkpt lat="44.509614070206645" lon="0.9219320329264439"><ele>124.0</ele><time>2026-04-24T18:56:53Z</time></trkpt><trkpt lat="44.509529167685095" lon="0.9218849452171792"><ele>124.00000000000001</ele><time>2026-04-24T18:56:55Z</time></trkpt><trkpt lat="44.5094604688688" lon="0.9218752007466721"><ele>124.0</ele><time>2026-04-24T18:56:56Z</time></trkpt><trkpt lat="44.50938273392202" lon="0.9218745049854867"><ele>124.0</ele><time>2026-04-24T18:56:57Z</time></trkpt><trkpt lat="44.509285167367345" lon="0.9219092121917858"><ele>125.75</ele><time>2026-04-24T18:56:58Z</time></trkpt><trkpt lat="44.50917479477982" lon="0.9219245189946602"><ele>127.5</ele><time>2026-04-24T18:56:59Z</time></trkpt><trkpt lat="44.5090549940744" lon="0.9219525277440273"><ele>129.25</ele><time>2026-04-24T18:57:00Z</time></trkpt><trkpt lat="44.508934900452196" lon="0.9219699963145133"><ele>131.0</ele><time>2026-04-24T18:57:01Z</time></trkpt><trkpt lat="44.50881321312674" lon="0.9220143482309181"><ele>131.25</ele><time>2026-04-24T18:57:02Z</time></trkpt><trkpt lat="44.50868916154056" lon="0.9220473080332267"><ele>131.5</ele><time>2026-04-24T18:57:03Z</time></trkpt><trkpt lat="44.50857060512632" lon="0.9220752367395461"><ele>131.75</ele><time>2026-04-24T18:57:04Z</time></trkpt><trkpt lat="44.50846750938097" lon="0.9220886543682438"><ele>132.0</ele><time>2026-04-24T18:57:05Z</time></trkpt><trkpt lat="44.50836776346806" lon="0.9220913251529645"><ele>132.0</ele><time>2026-04-24T18:57:06Z</time></trkpt><trkpt lat="44.50828294244746" lon="0.9220766589036137"><ele>132.0</ele><time>2026-04-24T18:57:07Z</time></trkpt><trkpt lat="44.50820103289012" lon="0.9220492845993187"><ele>132.0</ele><time>2026-04-24T18:57:08Z</time></trkpt><trkpt lat="44.50811479359176" lon="0.9220156602211893"><ele>132.0</ele><time>2026-04-24T18:57:09Z</time></trkpt><trkpt lat="44.50803132583609" lon="0.9219880364819473"><ele>132.0</ele><time>2026-04-24T18:57:10Z</time></trkpt><trkpt lat="44.50795064783862" lon="0.9219560407659296"><ele>132.0</ele><time>2026-04-24T18:57:11Z</time></trkpt><trkpt lat="44.50786606844351" lon="0.9219278022513255"><ele>132.0</ele><time>2026-04-24T18:57:12Z</time></trkpt><trkpt lat="44.507781289262276" lon="0.9219190232949734"><ele>132.0</ele><time>2026-04-24T18:57:13Z</time></trkpt><trkpt lat="44.50769177374693" lon="0.9219051364450465"><ele>132.0</ele><time>2026-04-24T18:57:14Z</time></trkpt><trkpt lat="44.50760716653314" lon="0.9218613955724106"><ele>132.0</ele><time>2026-04-24T18:57:15Z</time></trkpt><trkpt lat="44.507527723073224" lon="0.9217691920542574"><ele>132.0</ele><time>2026-04-24T18:57:16Z</time></trkpt><trkpt lat="44.50748607601006" lon="0.9216050919934936"><ele>132.0</ele><time>2026-04-24T18:57:17Z</time></trkpt><trkpt lat="44.50744034153507" lon="0.9214290937033812"><ele>132.0</ele><time>2026-04-24T18:57:18Z</time></trkpt><trkpt lat="44.50741171291237" lon="0.9212453012655276"><ele>132.0</ele><time>2026-04-24T18:57:19Z</time></trkpt><trkpt lat="44.507364937976945" lon="0.921085961162887"><ele>132.0</ele><time>2026-04-24T18:57:20Z</time></trkpt><trkpt lat="44.507321990793855" lon="0.9209501088633141"><ele>131.79999999999998</ele><time>2026-04-24T18:57:21Z</time></trkpt><trkpt lat="44.50727857856711" lon="0.9208360019330157"><ele>131.6</ele><time>2026-04-24T18:57:22Z</time></trkpt><trkpt lat="44.507230729023554" lon="0.9207307805518812"><ele>131.39999999999998</ele><time>2026-04-24T18:57:23Z</time></trkpt><trkpt lat="44.50718032828379" lon="0.9206286596678428"><ele>131.2</ele><time>2026-04-24T18:57:24Z</time></trkpt><trkpt lat="44.50708153620289" lon="0.920594347053992"><ele>131.0</ele><time>2026-04-24T18:57:25Z</time></trkpt><trkpt lat="44.5069845149656" lon="0.920545287689851"><ele>131.0</ele><time>2026-04-24T18:57:26Z</time></trkpt><trkpt lat="44.50687255128824" lon="0.9205954647177547"><ele>131.0</ele><time>2026-04-24T18:57:27Z</time></trkpt><trkpt lat="44.50676077171352" lon="0.9206657130893062"><ele>131.0</ele><time>2026-04-24T18:57:28Z</time></trkpt><trkpt lat="44.506636193314016" lon="0.9207348982075393"><ele>131.0</ele><time>2026-04-24T18:57:29Z</time></trkpt><trkpt lat="44.50650985633823" lon="0.9208394352862314"><ele>131.0</ele><time>2026-04-24T18:57:30Z</time></trkpt><trkpt lat="44.50639549006464" lon="0.9209681263950392"><ele>131.0</ele><time>2026-04-24T18:57:31Z</time></trkpt><trkpt lat="44.50626110781165" lon="0.9210685150839263"><ele>131.0</ele><time>2026-04-24T18:57:32Z</time></trkpt><trkpt lat="44.50612650610413" lon="0.9211924542810342"><ele>131.33333333333331</ele><time>2026-04-24T18:57:33Z</time></trkpt><trkpt lat="44.505979870357486" lon="0.921304412424615"><ele>131.66666666666666</ele><time>2026-04-24T18:57:34Z</time></trkpt><trkpt lat="44.50583335914757" lon="0.9213974952835258"><ele>132.0</ele><time>2026-04-24T18:57:35Z</time></trkpt><trkpt lat="44.505671247997114" lon="0.9214831385003033"><ele>132.0</ele><time>2026-04-24T18:57:36Z</time></trkpt><trkpt lat="44.505518724281806" lon="0.921571049616034"><ele>132.0</ele><time>2026-04-24T18:57:37Z</time></trkpt><trkpt lat="44.50536302182961" lon="0.9216882704231989"><ele>132.0</ele><time>2026-04-24T18:57:38Z</time></trkpt><trkpt lat="44.505223306702305" lon="0.9218122292878898"><ele>133.66666666666666</ele><time>2026-04-24T18:57:39Z</time></trkpt><trkpt lat="44.50507090746008" lon="0.9219574144413898"><ele>135.33333333333331</ele><time>2026-04-24T18:57:40Z</time></trkpt><trkpt lat="44.50493010511794" lon="0.9220931178277186"><ele>137.0</ele><time>2026-04-24T18:57:40.999Z</time></trkpt><trkpt lat="44.50480419405662" lon="0.9222429173092609"><ele>137.0</ele><time>2026-04-24T18:57:41.999Z</time></trkpt><trkpt lat="44.50467444403769" lon="0.9223396711752309"><ele>137.0</ele><time>2026-04-24T18:57:42.999Z</time></trkpt><trkpt lat="44.50455698516619" lon="0.9224502854294984"><ele>137.0</ele><time>2026-04-24T18:57:43.999Z</time></trkpt><trkpt lat="44.50447695724166" lon="0.9225443091835124"><ele>137.0</ele><time>2026-04-24T18:57:44.999Z</time></trkpt><trkpt lat="44.50438294983005" lon="0.922598043635843"><ele>138.5</ele><time>2026-04-24T18:57:45.999Z</time></trkpt><trkpt lat="44.50432675581181" lon="0.9226614611243483"><ele>140.0</ele><time>2026-04-24T18:57:46.999Z</time></trkpt><trkpt lat="44.50417378625339" lon="0.9225597153883233"><ele>141.5</ele><time>2026-04-24T18:57:47.999Z</time></trkpt><trkpt lat="44.50405589024343" lon="0.9225017278727644"><ele>143.0</ele><time>2026-04-24T18:57:48.999Z</time></trkpt><trkpt lat="44.503927454980385" lon="0.9224633891208177"><ele>143.0</ele><time>2026-04-24T18:57:49.999Z</time></trkpt><trkpt lat="44.50379265648643" lon="0.9224345787968399"><ele>143.0</ele><time>2026-04-24T18:57:50.999Z</time></trkpt><trkpt lat="44.503652424267344" lon="0.9224165345830241"><ele>143.0</ele><time>2026-04-24T18:57:51.999Z</time></trkpt><trkpt lat="44.50351722598655" lon="0.9223905113514796"><ele>143.0</ele><time>2026-04-24T18:57:52.999Z</time></trkpt><trkpt lat="44.50336932247424" lon="0.9223553930758116"><ele>144.0</ele><time>2026-04-24T18:57:53.999Z</time></trkpt><trkpt lat="44.50321463236704" lon="0.9223175365478231"><ele>145.0</ele><time>2026-04-24T18:57:54.999Z</time></trkpt><trkpt lat="44.50305789916207" lon="0.9222611340545241"><ele>146.0</ele><time>2026-04-24T18:57:55.999Z</time></trkpt><trkpt lat="44.50292838471304" lon="0.9221854092769398"><ele>146.75</ele><time>2026-04-24T18:57:56.999Z</time></trkpt><trkpt lat="44.50284932822464" lon="0.9220996687268651"><ele>147.5</ele><time>2026-04-24T18:57:57.999Z</time></trkpt><trkpt lat="44.502787483746204" lon="0.9220386927207933"><ele>148.25</ele><time>2026-04-24T18:57:59.999Z</time></trkpt><trkpt lat="44.50268181285767" lon="0.9223233668012318"><ele>149.0</ele><time>2026-04-24T18:58:01.999Z</time></trkpt><trkpt lat="44.502656019383345" lon="0.922458976135214"><ele>149.25</ele><time>2026-04-24T18:58:02.999Z</time></trkpt><trkpt lat="44.502628122002236" lon="0.9226056466293177"><ele>149.5</ele><time>2026-04-24T18:58:03.999Z</time></trkpt><trkpt lat="44.5025959517825" lon="0.9227740981557336"><ele>149.75</ele><time>2026-04-24T18:58:04.999Z</time></trkpt><trkpt lat="44.502574074208255" lon="0.9229668904919465"><ele>150.0</ele><time>2026-04-24T18:58:05.999Z</time></trkpt><trkpt lat="44.50252281260857" lon="0.9231593275948614"><ele>149.33333333333334</ele><time>2026-04-24T18:58:06.999Z</time></trkpt><trkpt lat="44.5024807262525" lon="0.9233986523277591"><ele>148.66666666666669</ele><time>2026-04-24T18:58:07.999Z</time></trkpt><trkpt lat="44.502440249034265" lon="0.9236155988417576"><ele>148.0</ele><time>2026-04-24T18:58:08.999Z</time></trkpt><trkpt lat="44.50239899745334" lon="0.9238567013224144"><ele>148.0</ele><time>2026-04-24T18:58:09.999Z</time></trkpt><trkpt lat="44.5023749034511" lon="0.9240859885288014"><ele>148.0</ele><time>2026-04-24T18:58:10.999Z</time></trkpt><trkpt lat="44.50235401110178" lon="0.9243343933360428"><ele>148.0</ele><time>2026-04-24T18:58:11.999Z</time></trkpt><trkpt lat="44.50232651693546" lon="0.9245979882864874"><ele>146.0</ele><time>2026-04-24T18:58:12.999Z</time></trkpt><trkpt lat="44.502289361837164" lon="0.9248542167177948"><ele>144.0</ele><time>2026-04-24T18:58:13.999Z</time></trkpt><trkpt lat="44.50224798224887" lon="0.9251046114609873"><ele>142.0</ele><time>2026-04-24T18:58:14.999Z</time></trkpt><trkpt lat="44.502204009141934" lon="0.9253684091342552"><ele>142.0</ele><time>2026-04-24T18:58:15.999Z</time></trkpt><trkpt lat="44.50216037669129" lon="0.9256246317477269"><ele>142.0</ele><time>2026-04-24T18:58:16.999Z</time></trkpt><trkpt lat="44.50212654700954" lon="0.925890263679588"><ele>142.0</ele><time>2026-04-24T18:58:17.999Z</time></trkpt><trkpt lat="44.502072423050905" lon="0.9261422505425123"><ele>142.0</ele><time>2026-04-24T18:58:18.999Z</time></trkpt><trkpt lat="44.50201263843565" lon="0.9264011116245836"><ele>142.0</ele><time>2026-04-24T18:58:19.999Z</time></trkpt><trkpt lat="44.50193277326847" lon="0.9266533253710435"><ele>142.0</ele><time>2026-04-24T18:58:20.999Z</time></trkpt><trkpt lat="44.501867098713475" lon="0.926900617034242"><ele>142.0</ele><time>2026-04-24T18:58:21.999Z</time></trkpt><trkpt lat="44.50180854553628" lon="0.9271546120484915"><ele>142.0</ele><time>2026-04-24T18:58:22.999Z</time></trkpt><trkpt lat="44.50173365516857" lon="0.9274154478975185"><ele>142.0</ele><time>2026-04-24T18:58:23.999Z</time></trkpt><trkpt lat="44.501672553506765" lon="0.9276569038144983"><ele>141.66666666666669</ele><time>2026-04-24T18:58:24.999Z</time></trkpt><trkpt lat="44.501623520952585" lon="0.9279121229237552"><ele>141.33333333333334</ele><time>2026-04-24T18:58:25.999Z</time></trkpt><trkpt lat="44.50154561105854" lon="0.9281585418445661"><ele>141.0</ele><time>2026-04-24T18:58:26.999Z</time></trkpt><trkpt lat="44.50148217082486" lon="0.9284127531330059"><ele>140.0</ele><time>2026-04-24T18:58:27.999Z</time></trkpt><trkpt lat="44.501420920671585" lon="0.9286543049224976"><ele>139.0</ele><time>2026-04-24T18:58:28.999Z</time></trkpt><trkpt lat="44.50136784653992" lon="0.9289179707109836"><ele>138.0</ele><time>2026-04-24T18:58:29.999Z</time></trkpt><trkpt lat="44.50126299389485" lon="0.9291622997690232"><ele>137.33333333333334</ele><time>2026-04-24T18:58:30.999Z</time></trkpt><trkpt lat="44.50116592279999" lon="0.9294176752050239"><ele>136.66666666666669</ele><time>2026-04-24T18:58:31.999Z</time></trkpt><trkpt lat="44.50106969219964" lon="0.9296602037248274"><ele>136.0</ele><time>2026-04-24T18:58:32.999Z</time></trkpt><trkpt lat="44.50097405097478" lon="0.9299034065359074"><ele>134.33333333333334</ele><time>2026-04-24T18:58:33.999Z</time></trkpt><trkpt lat="44.50087637348124" lon="0.9301553486641124"><ele>132.66666666666666</ele><time>2026-04-24T18:58:34.999Z</time></trkpt><trkpt lat="44.50078599988978" lon="0.9303818067354838"><ele>131.0</ele><time>2026-04-24T18:58:35.999Z</time></trkpt><trkpt lat="44.50069506226259" lon="0.930593231387447"><ele>131.0</ele><time>2026-04-24T18:58:36.999Z</time></trkpt><trkpt lat="44.50058271936031" lon="0.9307939570898832"><ele>131.0</ele><time>2026-04-24T18:58:37.999Z</time></trkpt><trkpt lat="44.50045439018166" lon="0.9309720509913827"><ele>131.0</ele><time>2026-04-24T18:58:38.999Z</time></trkpt><trkpt lat="44.5003009310297" lon="0.9311507328898986"><ele>131.66666666666666</ele><time>2026-04-24T18:58:39.999Z</time></trkpt><trkpt lat="44.500154014839836" lon="0.9313167032367456"><ele>132.33333333333334</ele><time>2026-04-24T18:58:40.999Z</time></trkpt><trkpt lat="44.500004786462625" lon="0.9314839702819091"><ele>133.0</ele><time>2026-04-24T18:58:42Z</time></trkpt><trkpt lat="44.49985726643643" lon="0.9316493223772527"><ele>132.33333333333334</ele><time>2026-04-24T18:58:43Z</time></trkpt><trkpt lat="44.4997006686465" lon="0.931827163371197"><ele>131.66666666666666</ele><time>2026-04-24T18:58:44Z</time></trkpt><trkpt lat="44.49954567670397" lon="0.932003728710954"><ele>131.0</ele><time>2026-04-24T18:58:45Z</time></trkpt><trkpt lat="44.49939216440982" lon="0.9321773462741645"><ele>131.0</ele><time>2026-04-24T18:58:46Z</time></trkpt><trkpt lat="44.49922827641881" lon="0.9323604154887851"><ele>131.0</ele><time>2026-04-24T18:58:47Z</time></trkpt><trkpt lat="44.49907812797035" lon="0.9325281592264045"><ele>131.0</ele><time>2026-04-24T18:58:48Z</time></trkpt><trkpt lat="44.49892533576444" lon="0.9326997584439267"><ele>129.66666666666666</ele><time>2026-04-24T18:58:49Z</time></trkpt><trkpt lat="44.49877496917107" lon="0.9328686334223192"><ele>128.33333333333334</ele><time>2026-04-24T18:58:50Z</time></trkpt><trkpt lat="44.49862149963593" lon="0.9330449140042227"><ele>127.0</ele><time>2026-04-24T18:58:51Z</time></trkpt><trkpt lat="44.49848272901327" lon="0.9332447593832977"><ele>126.66666666666667</ele><time>2026-04-24T18:58:52Z</time></trkpt><trkpt lat="44.49838669972304" lon="0.9334832229659461"><ele>126.33333333333334</ele><time>2026-04-24T18:58:53Z</time></trkpt><trkpt lat="44.49831142475842" lon="0.9337335362728676"><ele>126.0</ele><time>2026-04-24T18:58:54Z</time></trkpt><trkpt lat="44.49822877185029" lon="0.9339607494591655"><ele>126.0</ele><time>2026-04-24T18:58:55Z</time></trkpt><trkpt lat="44.49815221342973" lon="0.9341593860550594"><ele>126.0</ele><time>2026-04-24T18:58:56Z</time></trkpt><trkpt lat="44.49806665391153" lon="0.9343549608908337"><ele>126.0</ele><time>2026-04-24T18:58:57Z</time></trkpt><trkpt lat="44.49796435827081" lon="0.934554203281286"><ele>126.0</ele><time>2026-04-24T18:58:58Z</time></trkpt><trkpt lat="44.497851674756006" lon="0.9347646141578388"><ele>126.0</ele><time>2026-04-24T18:58:59Z</time></trkpt><trkpt lat="44.49773669119007" lon="0.9349650186805721"><ele>126.0</ele><time>2026-04-24T18:59:00Z</time></trkpt><trkpt lat="44.49762345870415" lon="0.9351784458392209"><ele>125.33333333333334</ele><time>2026-04-24T18:59:01Z</time></trkpt><trkpt lat="44.49748749018863" lon="0.9353765624450147"><ele>124.66666666666667</ele><time>2026-04-24T18:59:02Z</time></trkpt><trkpt lat="44.497360049219445" lon="0.9355879954090006"><ele>124.0</ele><time>2026-04-24T18:59:03Z</time></trkpt><trkpt lat="44.49723464624063" lon="0.9358046997721922"><ele>124.33333333333334</ele><time>2026-04-24T18:59:04Z</time></trkpt><trkpt lat="44.49710498241422" lon="0.9360180803266426"><ele>124.66666666666666</ele><time>2026-04-24T18:59:05Z</time></trkpt><trkpt lat="44.49697856651118" lon="0.9362287806197327"><ele>125.0</ele><time>2026-04-24T18:59:06Z</time></trkpt><trkpt lat="44.49685770242756" lon="0.9364269795143558"><ele>125.0</ele><time>2026-04-24T18:59:07Z</time></trkpt><trkpt lat="44.49671121839992" lon="0.936615687689939"><ele>125.0</ele><time>2026-04-24T18:59:08Z</time></trkpt><trkpt lat="44.49654548058325" lon="0.936793511063005"><ele>125.0</ele><time>2026-04-24T18:59:09Z</time></trkpt><trkpt lat="44.49639416887577" lon="0.9369500904605311"><ele>124.0</ele><time>2026-04-24T18:59:10Z</time></trkpt><trkpt lat="44.496225006439836" lon="0.9371136381112691"><ele>123.0</ele><time>2026-04-24T18:59:11Z</time></trkpt><trkpt lat="44.4960491593886" lon="0.937274526874966"><ele>122.0</ele><time>2026-04-24T18:59:12Z</time></trkpt><trkpt lat="44.49587326769823" lon="0.9374255868681401"><ele>120.66666666666666</ele><time>2026-04-24T18:59:13Z</time></trkpt><trkpt lat="44.49571385290246" lon="0.9375624960445182"><ele>119.33333333333334</ele><time>2026-04-24T18:59:14Z</time></trkpt><trkpt lat="44.495567759741014" lon="0.9376879643008457"><ele>118.0</ele><time>2026-04-24T18:59:15Z</time></trkpt><trkpt lat="44.49544697997952" lon="0.9377960032813467"><ele>118.25</ele><time>2026-04-24T18:59:16Z</time></trkpt><trkpt lat="44.49534228485507" lon="0.9378909151600345"><ele>118.5</ele><time>2026-04-24T18:59:17Z</time></trkpt><trkpt lat="44.49523947566025" lon="0.9380153190376272"><ele>118.75</ele><time>2026-04-24T18:59:18Z</time></trkpt><trkpt lat="44.4951820337392" lon="0.9381635992630935"><ele>119.0</ele><time>2026-04-24T18:59:19Z</time></trkpt><trkpt lat="44.49513546519338" lon="0.9382978488428969"><ele>118.25</ele><time>2026-04-24T18:59:20Z</time></trkpt><trkpt lat="44.495136117065854" lon="0.9384698064916162"><ele>117.5</ele><time>2026-04-24T18:59:21Z</time></trkpt><trkpt lat="44.495148700495" lon="0.9386601228040042"><ele>116.75</ele><time>2026-04-24T18:59:22Z</time></trkpt><trkpt lat="44.49517198451897" lon="0.9388569743706243"><ele>116.0</ele><time>2026-04-24T18:59:23Z</time></trkpt><trkpt lat="44.49519160246582" lon="0.9390496645260348"><ele>115.25</ele><time>2026-04-24T18:59:24Z</time></trkpt><trkpt lat="44.4951797075091" lon="0.9392316315026425"><ele>114.5</ele><time>2026-04-24T18:59:25Z</time></trkpt><trkpt lat="44.49510837749283" lon="0.9393893496578509"><ele>113.75</ele><time>2026-04-24T18:59:26Z</time></trkpt><trkpt lat="44.49505932457374" lon="0.9395055702616302"><ele>113.0</ele><time>2026-04-24T18:59:27Z</time></trkpt><trkpt lat="44.494995736584336" lon="0.9396290100701956"><ele>113.0</ele><time>2026-04-24T18:59:28Z</time></trkpt><trkpt lat="44.49494355335788" lon="0.9397446143258326"><ele>113.00000000000001</ele><time>2026-04-24T18:59:29Z</time></trkpt><trkpt lat="44.49492552356148" lon="0.9398801546302531"><ele>113.00000000000001</ele><time>2026-04-24T18:59:30Z</time></trkpt><trkpt lat="44.49494352461916" lon="0.9400150681162521"><ele>113.0</ele><time>2026-04-24T18:59:31Z</time></trkpt><trkpt lat="44.49494763745206" lon="0.9401468651222809"><ele>113.0</ele><time>2026-04-24T18:59:32Z</time></trkpt><trkpt lat="44.49496498129829" lon="0.9402557721108699"><ele>112.4</ele><time>2026-04-24T18:59:33Z</time></trkpt><trkpt lat="44.494960404258954" lon="0.9403832368764613"><ele>111.80000000000001</ele><time>2026-04-24T18:59:34Z</time></trkpt><trkpt lat="44.494909010315354" lon="0.9404930461382162"><ele>111.2</ele><time>2026-04-24T18:59:35Z</time></trkpt><trkpt lat="44.4948797726328" lon="0.9405713523603884"><ele>110.6</ele><time>2026-04-24T18:59:35.999Z</time></trkpt><trkpt lat="44.49473132005135" lon="0.9405994885814425"><ele>110.0</ele><time>2026-04-24T18:59:36.999Z</time></trkpt><trkpt lat="44.49461529589131" lon="0.9406632499345267"><ele>109.0</ele><time>2026-04-24T18:59:37.999Z</time></trkpt><trkpt lat="44.49448453406845" lon="0.9407372496556434"><ele>108.0</ele><time>2026-04-24T18:59:38.999Z</time></trkpt><trkpt lat="44.494348668072334" lon="0.9407493257231206"><ele>107.0</ele><time>2026-04-24T18:59:39.999Z</time></trkpt><trkpt lat="44.49421986419765" lon="0.9407342875403601"><ele>106.0</ele><time>2026-04-24T18:59:40.999Z</time></trkpt><trkpt lat="44.49410795803089" lon="0.9406769242781773"><ele>106.0</ele><time>2026-04-24T18:59:41.999Z</time></trkpt><trkpt lat="44.49400836525234" lon="0.9405891865973627"><ele>106.0</ele><time>2026-04-24T18:59:42.999Z</time></trkpt><trkpt lat="44.49390478386007" lon="0.9404936274291775"><ele>106.0</ele><time>2026-04-24T18:59:43.999Z</time></trkpt><trkpt lat="44.49383590696344" lon="0.9403320365402504"><ele>106.0</ele><time>2026-04-24T18:59:44.999Z</time></trkpt><trkpt lat="44.49376567093701" lon="0.9401463295875303"><ele>102.75</ele><time>2026-04-24T18:59:45.999Z</time></trkpt><trkpt lat="44.49371211395631" lon="0.9399452232779049"><ele>99.5</ele><time>2026-04-24T18:59:46.999Z</time></trkpt><trkpt lat="44.49371115234026" lon="0.9397342015303798"><ele>96.25</ele><time>2026-04-24T18:59:47.999Z</time></trkpt><trkpt lat="44.49371707412996" lon="0.9395643018445866"><ele>93.0</ele><time>2026-04-24T18:59:48.999Z</time></trkpt><trkpt lat="44.493709003635495" lon="0.9393895582451522"><ele>93.0</ele><time>2026-04-24T18:59:49.999Z</time></trkpt><trkpt lat="44.49369883653233" lon="0.9392588475357656"><ele>93.0</ele><time>2026-04-24T18:59:50.999Z</time></trkpt><trkpt lat="44.4936271501066" lon="0.9391252957170404"><ele>93.0</ele><time>2026-04-24T18:59:51.999Z</time></trkpt><trkpt lat="44.49350919342606" lon="0.9390767370094115"><ele>93.0</ele><time>2026-04-24T18:59:52.999Z</time></trkpt><trkpt lat="44.49340038192577" lon="0.9390624961184605"><ele>93.0</ele><time>2026-04-24T18:59:53.999Z</time></trkpt><trkpt lat="44.493309222620695" lon="0.9390358918644045"><ele>93.0</ele><time>2026-04-24T18:59:54.999Z</time></trkpt><trkpt lat="44.4932029220651" lon="0.9390791541051602"><ele>93.0</ele><time>2026-04-24T18:59:55.999Z</time></trkpt><trkpt lat="44.49311423780267" lon="0.9392030067203633"><ele>93.0</ele><time>2026-04-24T18:59:56.999Z</time></trkpt><trkpt lat="44.49307638741092" lon="0.9393945083197134"><ele>93.0</ele><time>2026-04-24T18:59:57.999Z</time></trkpt><trkpt lat="44.4930265490367" lon="0.9395804771216614"><ele>93.0</ele><time>2026-04-24T18:59:58.999Z</time></trkpt><trkpt lat="44.4929369461442" lon="0.9397329653940518"><ele>93.0</ele><time>2026-04-24T18:59:59.999Z</time></trkpt><trkpt lat="44.49284957908225" lon="0.9399007376596978"><ele>93.0</ele><time>2026-04-24T19:00:00.999Z</time></trkpt><trkpt lat="44.492764835573375" lon="0.940075057104943"><ele>93.0</ele><time>2026-04-24T19:00:01.999Z</time></trkpt><trkpt lat="44.49263673822778" lon="0.9402054271974973"><ele>93.75</ele><time>2026-04-24T19:00:02.999Z</time></trkpt><trkpt lat="44.49252011313229" lon="0.9403358610090485"><ele>94.5</ele><time>2026-04-24T19:00:03.999Z</time></trkpt><trkpt lat="44.49240012275128" lon="0.9404610697742356"><ele>95.25</ele><time>2026-04-24T19:00:04.999Z</time></trkpt><trkpt lat="44.49229502075212" lon="0.9405938084574841"><ele>96.0</ele><time>2026-04-24T19:00:05.999Z</time></trkpt><trkpt lat="44.49217995125347" lon="0.940704272309383"><ele>98.5</ele><time>2026-04-24T19:00:06.999Z</time></trkpt><trkpt lat="44.49207733923623" lon="0.9408041809275937"><ele>101.0</ele><time>2026-04-24T19:00:07.999Z</time></trkpt><trkpt lat="44.49196361504027" lon="0.94086637413677"><ele>103.5</ele><time>2026-04-24T19:00:08.999Z</time></trkpt><trkpt lat="44.49186078122871" lon="0.9409261189141437"><ele>106.0</ele><time>2026-04-24T19:00:09.999Z</time></trkpt><trkpt lat="44.491770192363134" lon="0.9409783047866407"><ele>106.00000000000001</ele><time>2026-04-24T19:00:10.999Z</time></trkpt><trkpt lat="44.49168486291034" lon="0.9410216128544563"><ele>106.0</ele><time>2026-04-24T19:00:11.999Z</time></trkpt><trkpt lat="44.49160671784328" lon="0.9410435881935287"><ele>106.0</ele><time>2026-04-24T19:00:12.999Z</time></trkpt><trkpt lat="44.49153989038615" lon="0.941047725957393"><ele>106.0</ele><time>2026-04-24T19:00:13.999Z</time></trkpt><trkpt lat="44.491442661764744" lon="0.9410871196903392"><ele>106.00000000000001</ele><time>2026-04-24T19:00:15.999Z</time></trkpt><trkpt lat="44.49140809620875" lon="0.9411697354755371"><ele>106.0</ele><time>2026-04-24T19:00:16.999Z</time></trkpt><trkpt lat="44.49142901177261" lon="0.9412690415164982"><ele>106.00000000000001</ele><time>2026-04-24T19:00:17.999Z</time></trkpt><trkpt lat="44.49141675754028" lon="0.9413570092182246"><ele>106.0</ele><time>2026-04-24T19:00:18.999Z</time></trkpt><trkpt lat="44.49139627105517" lon="0.9414549744183884"><ele>106.0</ele><time>2026-04-24T19:00:19.999Z</time></trkpt><trkpt lat="44.49135766902103" lon="0.941565331043333"><ele>106.0</ele><time>2026-04-24T19:00:20.999Z</time></trkpt><trkpt lat="44.4913328803139" lon="0.9416604726473897"><ele>106.00000000000001</ele><time>2026-04-24T19:00:21.999Z</time></trkpt><trkpt lat="44.49130376765038" lon="0.9417533635844655"><ele>106.0</ele><time>2026-04-24T19:00:22.999Z</time></trkpt><trkpt lat="44.49127029401608" lon="0.9418847225060044"><ele>100.0</ele><time>2026-04-24T19:00:24.999Z</time></trkpt><trkpt lat="44.49123249380543" lon="0.9419864790418556"><ele>99.0</ele><time>2026-04-24T19:00:33.999Z</time></trkpt></trkseg></trk></gpx>